<?xml version='1.0' encoding='UTF-8'?><gpx version="1.1" creator="JPX - https://github.com/jenetics/jpx" xmlns="http://www.topografix.com/GPX/1/1"><trk><trkseg><trkpt lat="38.82456770839784" lon="-9.325047199896398"><ele>155.0</ele><time>2026-04-26T07:36:09.003Z</time></trkpt><trkpt lat="38.82466765315905" lon="-9.32508930760296"><ele>155.0</ele><time>2026-04-26T07:36:16.002Z</time></trkpt><trkpt lat="38.82476633561634" lon="-9.325148525322847"><ele>155.0</ele><time>2026-04-26T07:36:18.002Z</time></trkpt><trkpt lat="38.82483144895562" lon="-9.325189486649538"><ele>155.0</ele><time>2026-04-26T07:36:19.001Z</time></trkpt><trkpt lat="38.824894565571455" lon="-9.325227869284006"><ele>155.0</ele><time>2026-04-26T07:36:20.001Z</time></trkpt><trkpt lat="38.82495540082304" lon="-9.32526564487438"><ele>155.0</ele><time>2026-04-26T07:36:21.001Z</time></trkpt><trkpt lat="38.82501325848968" lon="-9.325304290256348"><ele>155.0</ele><time>2026-04-26T07:36:22.001Z</time></trkpt><trkpt lat="38.82511381318094" lon="-9.325385427299892"><ele>155.0</ele><time>2026-04-26T07:36:24.001Z</time></trkpt><trkpt lat="38.82520985744434" lon="-9.325433735448598"><ele>155.0</ele><time>2026-04-26T07:36:26.001Z</time></trkpt><trkpt lat="38.825287494584245" lon="-9.325319099696989"><ele>155.0</ele><time>2026-04-26T07:36:28.001Z</time></trkpt><trkpt lat="38.82532688839081" lon="-9.325251154379227"><ele>155.0</ele><time>2026-04-26T07:36:29.001Z</time></trkpt><trkpt lat="38.82537115260076" lon="-9.325183829955767"><ele>156.0</ele><time>2026-04-26T07:36:30.001Z</time></trkpt><trkpt lat="38.82541340629829" lon="-9.325119563363172"><ele>157.0</ele><time>2026-04-26T07:36:31.001Z</time></trkpt><trkpt lat="38.82545523616341" lon="-9.325055464225835"><ele>158.0</ele><time>2026-04-26T07:36:32.001Z</time></trkpt><trkpt lat="38.825499012240684" lon="-9.324987485012421"><ele>159.0</ele><time>2026-04-26T07:36:33.001Z</time></trkpt><trkpt lat="38.82553493904406" lon="-9.324920839703017"><ele>160.0</ele><time>2026-04-26T07:36:34.001Z</time></trkpt><trkpt lat="38.82554705099514" lon="-9.32481460990566"><ele>161.0</ele><time>2026-04-26T07:36:36.001Z</time></trkpt><trkpt lat="38.82556314281277" lon="-9.324704300962027"><ele>162.0</ele><time>2026-04-26T07:36:38.001Z</time></trkpt><trkpt lat="38.82564201620023" lon="-9.324688698670617"><ele>162.0</ele><time>2026-04-26T07:36:40.001Z</time></trkpt><trkpt lat="38.82570510216643" lon="-9.324702059936815"><ele>162.0</ele><time>2026-04-26T07:36:44Z</time></trkpt><trkpt lat="38.82578742400096" lon="-9.32475624685021"><ele>162.0</ele><time>2026-04-26T07:36:46Z</time></trkpt><trkpt lat="38.825882452122435" lon="-9.324799719457818"><ele>162.0</ele><time>2026-04-26T07:36:48Z</time></trkpt><trkpt lat="38.8259437924042" lon="-9.324818564300365"><ele>162.0</ele><time>2026-04-26T07:36:49Z</time></trkpt><trkpt lat="38.826024344783335" lon="-9.32481962489473"><ele>162.0</ele><time>2026-04-26T07:36:50Z</time></trkpt><trkpt lat="38.82609927623999" lon="-9.324832029952649"><ele>162.39999999999998</ele><time>2026-04-26T07:36:51Z</time></trkpt><trkpt lat="38.8261843121893" lon="-9.324835615641605"><ele>162.79999999999998</ele><time>2026-04-26T07:36:52Z</time></trkpt><trkpt lat="38.82628628924912" lon="-9.324845463372478"><ele>163.2</ele><time>2026-04-26T07:36:53Z</time></trkpt><trkpt lat="38.826392947009545" lon="-9.324858726942404"><ele>163.6</ele><time>2026-04-26T07:36:54Z</time></trkpt><trkpt lat="38.82649274468059" lon="-9.32485263086448"><ele>164.0</ele><time>2026-04-26T07:36:55Z</time></trkpt><trkpt lat="38.826576490444005" lon="-9.324810817950219"><ele>164.0</ele><time>2026-04-26T07:36:56Z</time></trkpt><trkpt lat="38.82668135029991" lon="-9.32474232429131"><ele>164.0</ele><time>2026-04-26T07:36:57Z</time></trkpt><trkpt lat="38.82678312139317" lon="-9.324669510947942"><ele>164.0</ele><time>2026-04-26T07:36:58Z</time></trkpt><trkpt lat="38.82688955321064" lon="-9.324601147821935"><ele>164.0</ele><time>2026-04-26T07:36:59Z</time></trkpt><trkpt lat="38.82699404087855" lon="-9.324533664280962"><ele>164.75</ele><time>2026-04-26T07:37:00Z</time></trkpt><trkpt lat="38.82711556154992" lon="-9.324459294176064"><ele>165.5</ele><time>2026-04-26T07:37:01Z</time></trkpt><trkpt lat="38.82722064513888" lon="-9.32437008060486"><ele>166.25</ele><time>2026-04-26T07:37:02Z</time></trkpt><trkpt lat="38.82733388842563" lon="-9.324311492827443"><ele>167.0</ele><time>2026-04-26T07:37:03Z</time></trkpt><trkpt lat="38.82744682331193" lon="-9.324237781372004"><ele>167.0</ele><time>2026-04-26T07:37:04Z</time></trkpt><trkpt lat="38.827542669988944" lon="-9.324173196735785"><ele>167.0</ele><time>2026-04-26T07:37:05Z</time></trkpt><trkpt lat="38.82764776213517" lon="-9.324105324386574"><ele>167.0</ele><time>2026-04-26T07:37:06Z</time></trkpt><trkpt lat="38.82774884070079" lon="-9.324024905343562"><ele>167.0</ele><time>2026-04-26T07:37:07Z</time></trkpt><trkpt lat="38.82785812856359" lon="-9.32394791149064"><ele>166.5</ele><time>2026-04-26T07:37:08Z</time></trkpt><trkpt lat="38.827961721021495" lon="-9.32384352646319"><ele>166.0</ele><time>2026-04-26T07:37:09Z</time></trkpt><trkpt lat="38.82807499861614" lon="-9.32375317271826"><ele>165.5</ele><time>2026-04-26T07:37:10Z</time></trkpt><trkpt lat="38.828200149392465" lon="-9.323675380276416"><ele>165.0</ele><time>2026-04-26T07:37:11Z</time></trkpt><trkpt lat="38.82830717172635" lon="-9.323562803762064"><ele>165.0</ele><time>2026-04-26T07:37:12Z</time></trkpt><trkpt lat="38.828427137645264" lon="-9.323464207959974"><ele>165.0</ele><time>2026-04-26T07:37:13Z</time></trkpt><trkpt lat="38.828544682356394" lon="-9.323367746008858"><ele>165.0</ele><time>2026-04-26T07:37:14Z</time></trkpt><trkpt lat="38.82865957091242" lon="-9.323273829795133"><ele>165.0</ele><time>2026-04-26T07:37:15Z</time></trkpt><trkpt lat="38.82877421997921" lon="-9.323180251140492"><ele>165.0</ele><time>2026-04-26T07:37:16Z</time></trkpt><trkpt lat="38.82888643301065" lon="-9.32309118410675"><ele>165.0</ele><time>2026-04-26T07:37:17Z</time></trkpt><trkpt lat="38.828995488180965" lon="-9.323003082286757"><ele>165.0</ele><time>2026-04-26T07:37:18Z</time></trkpt><trkpt lat="38.82906912901573" lon="-9.322943601468488"><ele>165.0</ele><time>2026-04-26T07:37:19Z</time></trkpt><trkpt lat="38.82914402245995" lon="-9.322862561978406"><ele>165.0</ele><time>2026-04-26T07:37:20Z</time></trkpt><trkpt lat="38.82931472683534" lon="-9.322755269940357"><ele>161.66666666666666</ele><time>2026-04-26T07:37:21Z</time></trkpt><trkpt lat="38.82947313579336" lon="-9.322642283505257"><ele>158.33333333333331</ele><time>2026-04-26T07:37:22Z</time></trkpt><trkpt lat="38.82964019269851" lon="-9.322530434968353"><ele>155.0</ele><time>2026-04-26T07:37:23Z</time></trkpt><trkpt lat="38.829813173500895" lon="-9.322419768674727"><ele>155.0</ele><time>2026-04-26T07:37:24Z</time></trkpt><trkpt lat="38.82999046769041" lon="-9.322304415593266"><ele>155.0</ele><time>2026-04-26T07:37:25Z</time></trkpt><trkpt lat="38.830157341020836" lon="-9.322208835167304"><ele>155.0</ele><time>2026-04-26T07:37:26Z</time></trkpt><trkpt lat="38.830291685316645" lon="-9.322124966989707"><ele>156.0</ele><time>2026-04-26T07:37:27Z</time></trkpt><trkpt lat="38.83039494041744" lon="-9.322062000857231"><ele>157.0</ele><time>2026-04-26T07:37:28Z</time></trkpt><trkpt lat="38.83046770788902" lon="-9.321995785133131"><ele>158.0</ele><time>2026-04-26T07:37:29Z</time></trkpt><trkpt lat="38.83053598567619" lon="-9.322030288627403"><ele>159.0</ele><time>2026-04-26T07:37:31Z</time></trkpt><trkpt lat="38.830615166943936" lon="-9.322031620165703"><ele>160.0</ele><time>2026-04-26T07:38:07Z</time></trkpt><trkpt lat="38.830717140125046" lon="-9.322047838416523"><ele>160.0</ele><time>2026-04-26T07:38:08Z</time></trkpt><trkpt lat="38.83081214226607" lon="-9.322067174932105"><ele>160.0</ele><time>2026-04-26T07:38:09Z</time></trkpt><trkpt lat="38.830926093707674" lon="-9.32208862414724"><ele>160.0</ele><time>2026-04-26T07:38:10Z</time></trkpt><trkpt lat="38.831039396226515" lon="-9.322102578769815"><ele>160.0</ele><time>2026-04-26T07:38:11Z</time></trkpt><trkpt lat="38.831162084570416" lon="-9.322120234455923"><ele>160.0</ele><time>2026-04-26T07:38:12Z</time></trkpt><trkpt lat="38.831291723377646" lon="-9.322144585504848"><ele>157.75</ele><time>2026-04-26T07:38:13Z</time></trkpt><trkpt lat="38.831418232028945" lon="-9.322189015834283"><ele>155.5</ele><time>2026-04-26T07:38:14Z</time></trkpt><trkpt lat="38.831534309651275" lon="-9.322274703289198"><ele>153.25</ele><time>2026-04-26T07:38:15Z</time></trkpt><trkpt lat="38.83166423275369" lon="-9.322387925241546"><ele>151.0</ele><time>2026-04-26T07:38:16Z</time></trkpt><trkpt lat="38.831776779725814" lon="-9.322466068424324"><ele>151.0</ele><time>2026-04-26T07:38:17Z</time></trkpt><trkpt lat="38.8318787102902" lon="-9.322543306397368"><ele>151.0</ele><time>2026-04-26T07:38:18Z</time></trkpt><trkpt lat="38.83196262578643" lon="-9.322628660221664"><ele>151.0</ele><time>2026-04-26T07:38:19Z</time></trkpt><trkpt lat="38.83202044458347" lon="-9.322756264577638"><ele>151.0</ele><time>2026-04-26T07:38:20Z</time></trkpt><trkpt lat="38.83205441269062" lon="-9.322934485099804"><ele>150.33333333333334</ele><time>2026-04-26T07:38:21Z</time></trkpt><trkpt lat="38.83207966113028" lon="-9.32315021966673"><ele>149.66666666666666</ele><time>2026-04-26T07:38:22Z</time></trkpt><trkpt lat="38.83211826617055" lon="-9.323370972564636"><ele>149.0</ele><time>2026-04-26T07:38:23Z</time></trkpt><trkpt lat="38.83215480515524" lon="-9.323559659142653"><ele>149.0</ele><time>2026-04-26T07:38:24Z</time></trkpt><trkpt lat="38.832169918913515" lon="-9.32373011589781"><ele>149.0</ele><time>2026-04-26T07:38:25Z</time></trkpt><trkpt lat="38.832194536682366" lon="-9.32390813072106"><ele>149.0</ele><time>2026-04-26T07:38:26Z</time></trkpt><trkpt lat="38.83222601496987" lon="-9.32409738195181"><ele>149.0</ele><time>2026-04-26T07:38:27Z</time></trkpt><trkpt lat="38.832257214406305" lon="-9.324283069727393"><ele>147.66666666666666</ele><time>2026-04-26T07:38:28Z</time></trkpt><trkpt lat="38.83227143489038" lon="-9.324480365612455"><ele>146.33333333333334</ele><time>2026-04-26T07:38:29Z</time></trkpt><trkpt lat="38.832277243291266" lon="-9.324675273579029"><ele>145.0</ele><time>2026-04-26T07:38:30Z</time></trkpt><trkpt lat="38.83226841608609" lon="-9.324864872733535"><ele>144.0</ele><time>2026-04-26T07:38:31Z</time></trkpt><trkpt lat="38.83226999657172" lon="-9.325057737068088"><ele>143.0</ele><time>2026-04-26T07:38:32Z</time></trkpt><trkpt lat="38.832272608326086" lon="-9.325252891709944"><ele>142.0</ele><time>2026-04-26T07:38:33Z</time></trkpt><trkpt lat="38.832277858194274" lon="-9.325451879563195"><ele>141.33333333333334</ele><time>2026-04-26T07:38:34Z</time></trkpt><trkpt lat="38.83229021930165" lon="-9.325642651291568"><ele>140.66666666666666</ele><time>2026-04-26T07:38:35Z</time></trkpt><trkpt lat="38.832328460174836" lon="-9.325832854587834"><ele>140.0</ele><time>2026-04-26T07:38:36Z</time></trkpt><trkpt lat="38.832438817626084" lon="-9.325963853456875"><ele>140.0</ele><time>2026-04-26T07:38:37Z</time></trkpt><trkpt lat="38.83256659588853" lon="-9.32604220724575"><ele>140.0</ele><time>2026-04-26T07:38:38Z</time></trkpt><trkpt lat="38.83270509015987" lon="-9.326131088252001"><ele>140.0</ele><time>2026-04-26T07:38:39Z</time></trkpt><trkpt lat="38.83283761459409" lon="-9.326212174830973"><ele>140.0</ele><time>2026-04-26T07:38:40Z</time></trkpt><trkpt lat="38.83296597502611" lon="-9.326307586569115"><ele>139.5</ele><time>2026-04-26T07:38:41Z</time></trkpt><trkpt lat="38.833099758611084" lon="-9.326395472941075"><ele>139.0</ele><time>2026-04-26T07:38:42Z</time></trkpt><trkpt lat="38.83324540002475" lon="-9.326462049454907"><ele>138.5</ele><time>2026-04-26T07:38:43Z</time></trkpt><trkpt lat="38.833363757034626" lon="-9.326555202573218"><ele>138.0</ele><time>2026-04-26T07:38:44Z</time></trkpt><trkpt lat="38.833496279580004" lon="-9.326629770631218"><ele>137.33333333333334</ele><time>2026-04-26T07:38:45Z</time></trkpt><trkpt lat="38.83363561536067" lon="-9.32670737919436"><ele>136.66666666666669</ele><time>2026-04-26T07:38:46Z</time></trkpt><trkpt lat="38.83377418194707" lon="-9.326796863834492"><ele>136.0</ele><time>2026-04-26T07:38:47Z</time></trkpt><trkpt lat="38.83391410100587" lon="-9.326880305905975"><ele>136.0</ele><time>2026-04-26T07:38:48Z</time></trkpt><trkpt lat="38.83406441372897" lon="-9.326926284675432"><ele>136.0</ele><time>2026-04-26T07:38:49Z</time></trkpt><trkpt lat="38.83421315677128" lon="-9.32695930612464"><ele>136.0</ele><time>2026-04-26T07:38:50Z</time></trkpt><trkpt lat="38.8343625007958" lon="-9.326963531647696"><ele>136.66666666666669</ele><time>2026-04-26T07:38:51Z</time></trkpt><trkpt lat="38.83452383638044" lon="-9.32696618622549"><ele>137.33333333333334</ele><time>2026-04-26T07:38:52Z</time></trkpt><trkpt lat="38.83468475579323" lon="-9.32698187257093"><ele>138.0</ele><time>2026-04-26T07:38:53Z</time></trkpt><trkpt lat="38.83484311142273" lon="-9.326982286641192"><ele>138.0</ele><time>2026-04-26T07:38:54Z</time></trkpt><trkpt lat="38.834999029920105" lon="-9.326985423082435"><ele>138.0</ele><time>2026-04-26T07:38:55Z</time></trkpt><trkpt lat="38.83515490850691" lon="-9.326980561355622"><ele>138.0</ele><time>2026-04-26T07:38:56Z</time></trkpt><trkpt lat="38.835312299185205" lon="-9.326982907797458"><ele>138.33333333333334</ele><time>2026-04-26T07:38:57Z</time></trkpt><trkpt lat="38.835465705368215" lon="-9.327017971717416"><ele>138.66666666666669</ele><time>2026-04-26T07:38:58Z</time></trkpt><trkpt lat="38.8356162157702" lon="-9.327097588241612"><ele>139.0</ele><time>2026-04-26T07:38:59Z</time></trkpt><trkpt lat="38.83575760369658" lon="-9.327207335965765"><ele>140.0</ele><time>2026-04-26T07:39:00Z</time></trkpt><trkpt lat="38.835889538603276" lon="-9.327337735724216"><ele>141.0</ele><time>2026-04-26T07:39:01Z</time></trkpt><trkpt lat="38.83602191173971" lon="-9.327459762183311"><ele>142.0</ele><time>2026-04-26T07:39:02Z</time></trkpt><trkpt lat="38.83615790430546" lon="-9.327580324774878"><ele>142.33333333333334</ele><time>2026-04-26T07:39:03Z</time></trkpt><trkpt lat="38.83629819884408" lon="-9.327677834608348"><ele>142.66666666666666</ele><time>2026-04-26T07:39:04Z</time></trkpt><trkpt lat="38.83645485935903" lon="-9.327720634260478"><ele>143.0</ele><time>2026-04-26T07:39:05Z</time></trkpt><trkpt lat="38.836619416388515" lon="-9.327760767420466"><ele>143.0</ele><time>2026-04-26T07:39:06Z</time></trkpt><trkpt lat="38.83678641267863" lon="-9.327818488852088"><ele>143.0</ele><time>2026-04-26T07:39:07Z</time></trkpt><trkpt lat="38.8369530566021" lon="-9.327849902906665"><ele>143.0</ele><time>2026-04-26T07:39:08Z</time></trkpt><trkpt lat="38.83711350952362" lon="-9.327894230482203"><ele>143.0</ele><time>2026-04-26T07:39:09Z</time></trkpt><trkpt lat="38.837273009345076" lon="-9.32793815846996"><ele>143.0</ele><time>2026-04-26T07:39:10Z</time></trkpt><trkpt lat="38.837433506931816" lon="-9.327977202364016"><ele>143.0</ele><time>2026-04-26T07:39:11Z</time></trkpt><trkpt lat="38.83759519298265" lon="-9.328012656603784"><ele>142.66666666666666</ele><time>2026-04-26T07:39:12Z</time></trkpt><trkpt lat="38.83775575265951" lon="-9.328040250749595"><ele>142.33333333333334</ele><time>2026-04-26T07:39:13Z</time></trkpt><trkpt lat="38.837920478848446" lon="-9.328056353369742"><ele>142.0</ele><time>2026-04-26T07:39:14Z</time></trkpt><trkpt lat="38.83808316206608" lon="-9.328034957802432"><ele>142.0</ele><time>2026-04-26T07:39:15Z</time></trkpt><trkpt lat="38.83824753519803" lon="-9.328051245808785"><ele>142.0</ele><time>2026-04-26T07:39:16Z</time></trkpt><trkpt lat="38.83841657129371" lon="-9.328040170270892"><ele>142.0</ele><time>2026-04-26T07:39:17Z</time></trkpt><trkpt lat="38.83857955081684" lon="-9.328031685501943"><ele>142.33333333333334</ele><time>2026-04-26T07:39:18Z</time></trkpt><trkpt lat="38.83874307740965" lon="-9.3280235945033"><ele>142.66666666666666</ele><time>2026-04-26T07:39:19Z</time></trkpt><trkpt lat="38.83890516692846" lon="-9.32801066659627"><ele>143.0</ele><time>2026-04-26T07:39:20Z</time></trkpt><trkpt lat="38.839065082527036" lon="-9.327999423184384"><ele>143.0</ele><time>2026-04-26T07:39:21Z</time></trkpt><trkpt lat="38.83922487708639" lon="-9.328014867205487"><ele>143.0</ele><time>2026-04-26T07:39:22Z</time></trkpt><trkpt lat="38.839382148086976" lon="-9.328067460215513"><ele>143.0</ele><time>2026-04-26T07:39:23Z</time></trkpt><trkpt lat="38.839526945854765" lon="-9.328177945491086"><ele>141.33333333333331</ele><time>2026-04-26T07:39:24Z</time></trkpt><trkpt lat="38.83967396801739" lon="-9.328285096520126"><ele>139.66666666666666</ele><time>2026-04-26T07:39:25Z</time></trkpt><trkpt lat="38.839812328828394" lon="-9.328420054161633"><ele>138.0</ele><time>2026-04-26T07:39:26Z</time></trkpt><trkpt lat="38.83995118348805" lon="-9.32855632654177"><ele>138.0</ele><time>2026-04-26T07:39:27Z</time></trkpt><trkpt lat="38.84009073086149" lon="-9.328680306465397"><ele>138.0</ele><time>2026-04-26T07:39:28Z</time></trkpt><trkpt lat="38.84022759237319" lon="-9.328801466752347"><ele>138.0</ele><time>2026-04-26T07:39:29Z</time></trkpt><trkpt lat="38.84035444564934" lon="-9.328904250471053"><ele>138.25</ele><time>2026-04-26T07:39:30Z</time></trkpt><trkpt lat="38.840471519548" lon="-9.32899565614152"><ele>138.5</ele><time>2026-04-26T07:39:31Z</time></trkpt><trkpt lat="38.84058070474114" lon="-9.329089130720375"><ele>138.75</ele><time>2026-04-26T07:39:32Z</time></trkpt><trkpt lat="38.84069642705896" lon="-9.329133096186082"><ele>139.0</ele><time>2026-04-26T07:39:33Z</time></trkpt><trkpt lat="38.84078761899163" lon="-9.329182534376356"><ele>139.0</ele><time>2026-04-26T07:39:34Z</time></trkpt><trkpt lat="38.84088345254775" lon="-9.329232709227261"><ele>139.0</ele><time>2026-04-26T07:39:35Z</time></trkpt><trkpt lat="38.84095173215447" lon="-9.329268456939834"><ele>139.0</ele><time>2026-04-26T07:39:36Z</time></trkpt><trkpt lat="38.84103192140048" lon="-9.329288487487933"><ele>139.0</ele><time>2026-04-26T07:39:38Z</time></trkpt><trkpt lat="38.84101662038264" lon="-9.32910688084347"><ele>139.0</ele><time>2026-04-26T07:39:39Z</time></trkpt><trkpt lat="38.84105104529954" lon="-9.328996690583926"><ele>138.6</ele><time>2026-04-26T07:39:40Z</time></trkpt><trkpt lat="38.84109847172496" lon="-9.328897412063242"><ele>138.2</ele><time>2026-04-26T07:39:41Z</time></trkpt><trkpt lat="38.84113902078864" lon="-9.328780274914921"><ele>137.79999999999998</ele><time>2026-04-26T07:39:42Z</time></trkpt><trkpt lat="38.84117665911574" lon="-9.328649669996034"><ele>137.4</ele><time>2026-04-26T07:39:43Z</time></trkpt><trkpt lat="38.841223233661694" lon="-9.328512065244759"><ele>137.0</ele><time>2026-04-26T07:39:44Z</time></trkpt><trkpt lat="38.84127006201162" lon="-9.328376015447734"><ele>137.0</ele><time>2026-04-26T07:39:45Z</time></trkpt><trkpt lat="38.84131485141389" lon="-9.328237219093118"><ele>137.0</ele><time>2026-04-26T07:39:46Z</time></trkpt><trkpt lat="38.8413595608372" lon="-9.328091059902835"><ele>137.0</ele><time>2026-04-26T07:39:47Z</time></trkpt><trkpt lat="38.84140984001745" lon="-9.327938681835848"><ele>137.0</ele><time>2026-04-26T07:39:48Z</time></trkpt><trkpt lat="38.841459613363575" lon="-9.327784916961061"><ele>137.0</ele><time>2026-04-26T07:39:49Z</time></trkpt><trkpt lat="38.84150900911167" lon="-9.32763332560739"><ele>137.0</ele><time>2026-04-26T07:39:50Z</time></trkpt><trkpt lat="38.84155786775985" lon="-9.327492831671023"><ele>137.0</ele><time>2026-04-26T07:39:51Z</time></trkpt><trkpt lat="38.84159098436346" lon="-9.327363933947376"><ele>137.0</ele><time>2026-04-26T07:39:52Z</time></trkpt><trkpt lat="38.84162669284868" lon="-9.327255913560654"><ele>137.0</ele><time>2026-04-26T07:39:53Z</time></trkpt><trkpt lat="38.84165452689333" lon="-9.327171716549078"><ele>137.33333333333331</ele><time>2026-04-26T07:39:54Z</time></trkpt><trkpt lat="38.841832355561664" lon="-9.327191661633968"><ele>137.66666666666666</ele><time>2026-04-26T07:39:55Z</time></trkpt><trkpt lat="38.841978805112184" lon="-9.327155650468738"><ele>138.0</ele><time>2026-04-26T07:39:56Z</time></trkpt><trkpt lat="38.84214351525942" lon="-9.327132365307275"><ele>138.0</ele><time>2026-04-26T07:39:57Z</time></trkpt><trkpt lat="38.8423218942732" lon="-9.327151742982716"><ele>138.0</ele><time>2026-04-26T07:39:58Z</time></trkpt><trkpt lat="38.84250772492215" lon="-9.327153746045028"><ele>138.0</ele><time>2026-04-26T07:39:59Z</time></trkpt><trkpt lat="38.84269270421746" lon="-9.327194040335643"><ele>138.33333333333334</ele><time>2026-04-26T07:40:00Z</time></trkpt><trkpt lat="38.84285069414844" lon="-9.327219772091986"><ele>138.66666666666669</ele><time>2026-04-26T07:40:01Z</time></trkpt><trkpt lat="38.84300408666982" lon="-9.327248484922668"><ele>139.0</ele><time>2026-04-26T07:40:02Z</time></trkpt><trkpt lat="38.843145975391366" lon="-9.327273875947329"><ele>139.0</ele><time>2026-04-26T07:40:03Z</time></trkpt><trkpt lat="38.84328129617544" lon="-9.327290676331238"><ele>139.0</ele><time>2026-04-26T07:40:04Z</time></trkpt><trkpt lat="38.84342371538504" lon="-9.327302383632079"><ele>139.0</ele><time>2026-04-26T07:40:05Z</time></trkpt><trkpt lat="38.84356421468134" lon="-9.327317930209505"><ele>139.0</ele><time>2026-04-26T07:40:06Z</time></trkpt><trkpt lat="38.843709569524755" lon="-9.327319421871128"><ele>139.0</ele><time>2026-04-26T07:40:07Z</time></trkpt><trkpt lat="38.84386089360962" lon="-9.327309607306123"><ele>139.0</ele><time>2026-04-26T07:40:08Z</time></trkpt><trkpt lat="38.84400138259309" lon="-9.327239568722142"><ele>139.0</ele><time>2026-04-26T07:40:09Z</time></trkpt><trkpt lat="38.84415453269034" lon="-9.327172834599764"><ele>137.33333333333334</ele><time>2026-04-26T07:40:10Z</time></trkpt><trkpt lat="38.84431427136652" lon="-9.327124522254012"><ele>135.66666666666666</ele><time>2026-04-26T07:40:11Z</time></trkpt><trkpt lat="38.84446730708912" lon="-9.327068630574743"><ele>134.0</ele><time>2026-04-26T07:40:12Z</time></trkpt><trkpt lat="38.84462179872638" lon="-9.327018346034478"><ele>134.0</ele><time>2026-04-26T07:40:13Z</time></trkpt><trkpt lat="38.84478474644933" lon="-9.326983513316309"><ele>134.0</ele><time>2026-04-26T07:40:14Z</time></trkpt><trkpt lat="38.8449459693801" lon="-9.326979842152204"><ele>134.0</ele><time>2026-04-26T07:40:15Z</time></trkpt><trkpt lat="38.84511048718375" lon="-9.3269889844241"><ele>134.33333333333331</ele><time>2026-04-26T07:40:16Z</time></trkpt><trkpt lat="38.84526243111993" lon="-9.326987699798995"><ele>134.66666666666666</ele><time>2026-04-26T07:40:17Z</time></trkpt><trkpt lat="38.84541115027286" lon="-9.32697848726022"><ele>135.0</ele><time>2026-04-26T07:40:18Z</time></trkpt><trkpt lat="38.8455638820484" lon="-9.326985788910862"><ele>135.0</ele><time>2026-04-26T07:40:19Z</time></trkpt><trkpt lat="38.84571525977532" lon="-9.32697107399771"><ele>135.0</ele><time>2026-04-26T07:40:20Z</time></trkpt><trkpt lat="38.84586954685574" lon="-9.326939670718945"><ele>135.0</ele><time>2026-04-26T07:40:21Z</time></trkpt><trkpt lat="38.846022538650665" lon="-9.326905689802238"><ele>134.66666666666666</ele><time>2026-04-26T07:40:22Z</time></trkpt><trkpt lat="38.84617231567521" lon="-9.326867307505402"><ele>134.33333333333331</ele><time>2026-04-26T07:40:23Z</time></trkpt><trkpt lat="38.8463286440242" lon="-9.3268540354902"><ele>134.0</ele><time>2026-04-26T07:40:24Z</time></trkpt><trkpt lat="38.84648574398156" lon="-9.326876428081201"><ele>134.0</ele><time>2026-04-26T07:40:25Z</time></trkpt><trkpt lat="38.846650008619804" lon="-9.326938186734022"><ele>134.0</ele><time>2026-04-26T07:40:26Z</time></trkpt><trkpt lat="38.84680761726591" lon="-9.327007960461982"><ele>134.0</ele><time>2026-04-26T07:40:27Z</time></trkpt><trkpt lat="38.846966629345694" lon="-9.327066318863237"><ele>134.0</ele><time>2026-04-26T07:40:28Z</time></trkpt><trkpt lat="38.847120230063226" lon="-9.327132212541123"><ele>134.0</ele><time>2026-04-26T07:40:29Z</time></trkpt><trkpt lat="38.847263619904595" lon="-9.327210917771447"><ele>134.0</ele><time>2026-04-26T07:40:30Z</time></trkpt><trkpt lat="38.84739431187959" lon="-9.32732010141122"><ele>134.0</ele><time>2026-04-26T07:40:31Z</time></trkpt><trkpt lat="38.847531445271656" lon="-9.327357535098896"><ele>134.0</ele><time>2026-04-26T07:40:32Z</time></trkpt><trkpt lat="38.84767177677586" lon="-9.327323040501554"><ele>134.0</ele><time>2026-04-26T07:40:33Z</time></trkpt><trkpt lat="38.84781845061984" lon="-9.327301260657045"><ele>134.0</ele><time>2026-04-26T07:40:34Z</time></trkpt><trkpt lat="38.84796144899142" lon="-9.327277677517056"><ele>133.0</ele><time>2026-04-26T07:40:35Z</time></trkpt><trkpt lat="38.84810915039122" lon="-9.327252527419855"><ele>132.0</ele><time>2026-04-26T07:40:36Z</time></trkpt><trkpt lat="38.848257756525946" lon="-9.327226067671608"><ele>131.0</ele><time>2026-04-26T07:40:37Z</time></trkpt><trkpt lat="38.848383930846225" lon="-9.327198439810898"><ele>130.0</ele><time>2026-04-26T07:40:38Z</time></trkpt><trkpt lat="38.848500334759756" lon="-9.327178205597837"><ele>129.0</ele><time>2026-04-26T07:40:39Z</time></trkpt><trkpt lat="38.84861001315736" lon="-9.327179471432533"><ele>128.0</ele><time>2026-04-26T07:40:40Z</time></trkpt><trkpt lat="38.84871154791136" lon="-9.327185804503884"><ele>127.0</ele><time>2026-04-26T07:40:41Z</time></trkpt><trkpt lat="38.8488155951428" lon="-9.327209597708181"><ele>126.0</ele><time>2026-04-26T07:40:42Z</time></trkpt><trkpt lat="38.84893056716228" lon="-9.327241654312218"><ele>125.0</ele><time>2026-04-26T07:40:43Z</time></trkpt><trkpt lat="38.8490561114245" lon="-9.327233581421398"><ele>125.0</ele><time>2026-04-26T07:40:44Z</time></trkpt><trkpt lat="38.84921099500958" lon="-9.327212448250588"><ele>125.0</ele><time>2026-04-26T07:40:45Z</time></trkpt><trkpt lat="38.84937494191268" lon="-9.32710967723815"><ele>125.0</ele><time>2026-04-26T07:40:46Z</time></trkpt><trkpt lat="38.84955459289289" lon="-9.32704413097678"><ele>125.0</ele><time>2026-04-26T07:40:47Z</time></trkpt><trkpt lat="38.849746013976564" lon="-9.326977636767827"><ele>125.0</ele><time>2026-04-26T07:40:48Z</time></trkpt><trkpt lat="38.8499453575787" lon="-9.326923504083933"><ele>125.0</ele><time>2026-04-26T07:40:49Z</time></trkpt><trkpt lat="38.8501270646424" lon="-9.326884381843103"><ele>126.66666666666666</ele><time>2026-04-26T07:40:50Z</time></trkpt><trkpt lat="38.85029431246723" lon="-9.326840120496053"><ele>128.33333333333334</ele><time>2026-04-26T07:40:51Z</time></trkpt><trkpt lat="38.8504588283391" lon="-9.326797986365452"><ele>130.0</ele><time>2026-04-26T07:40:52Z</time></trkpt><trkpt lat="38.85061043250328" lon="-9.326764658590042"><ele>130.0</ele><time>2026-04-26T07:40:53Z</time></trkpt><trkpt lat="38.850761158874796" lon="-9.32672242734821"><ele>130.0</ele><time>2026-04-26T07:40:54Z</time></trkpt><trkpt lat="38.85091517342039" lon="-9.32668732497055"><ele>130.0</ele><time>2026-04-26T07:40:55Z</time></trkpt><trkpt lat="38.851061799921055" lon="-9.326663191905928"><ele>131.25</ele><time>2026-04-26T07:40:56Z</time></trkpt><trkpt lat="38.851206276527584" lon="-9.326654604221467"><ele>132.5</ele><time>2026-04-26T07:40:57Z</time></trkpt><trkpt lat="38.85135600016383" lon="-9.32664926374943"><ele>133.75</ele><time>2026-04-26T07:40:58Z</time></trkpt><trkpt lat="38.851510922071114" lon="-9.326641268399205"><ele>135.0</ele><time>2026-04-26T07:40:59Z</time></trkpt><trkpt lat="38.851661055404755" lon="-9.326644792347867"><ele>136.33333333333334</ele><time>2026-04-26T07:41:00Z</time></trkpt><trkpt lat="38.851808496901995" lon="-9.326647148676829"><ele>137.66666666666669</ele><time>2026-04-26T07:41:01Z</time></trkpt><trkpt lat="38.851959352212454" lon="-9.326650763615836"><ele>139.0</ele><time>2026-04-26T07:41:02Z</time></trkpt><trkpt lat="38.852113311925244" lon="-9.32665439465192"><ele>139.0</ele><time>2026-04-26T07:41:03Z</time></trkpt><trkpt lat="38.85226209783164" lon="-9.326663790808473"><ele>139.0</ele><time>2026-04-26T07:41:04Z</time></trkpt><trkpt lat="38.8524120005816" lon="-9.326667191329932"><ele>139.0</ele><time>2026-04-26T07:41:05Z</time></trkpt><trkpt lat="38.852562581457946" lon="-9.326664852694776"><ele>139.0</ele><time>2026-04-26T07:41:06Z</time></trkpt><trkpt lat="38.85270975325587" lon="-9.326658817248102"><ele>140.66666666666669</ele><time>2026-04-26T07:41:07Z</time></trkpt><trkpt lat="38.852870758929" lon="-9.326644652074016"><ele>142.33333333333334</ele><time>2026-04-26T07:41:08Z</time></trkpt><trkpt lat="38.853038355440155" lon="-9.326625501352826"><ele>144.0</ele><time>2026-04-26T07:41:09Z</time></trkpt><trkpt lat="38.85319585957507" lon="-9.326558948279706"><ele>144.0</ele><time>2026-04-26T07:41:10Z</time></trkpt><trkpt lat="38.853359533633096" lon="-9.326515701345949"><ele>144.0</ele><time>2026-04-26T07:41:11Z</time></trkpt><trkpt lat="38.85352417749455" lon="-9.326443788344973"><ele>144.0</ele><time>2026-04-26T07:41:12Z</time></trkpt><trkpt lat="38.85369479403352" lon="-9.326380922072685"><ele>145.33333333333334</ele><time>2026-04-26T07:41:13Z</time></trkpt><trkpt lat="38.853863413667824" lon="-9.326318301717826"><ele>146.66666666666669</ele><time>2026-04-26T07:41:14Z</time></trkpt><trkpt lat="38.85402094498845" lon="-9.32625917241166"><ele>148.0</ele><time>2026-04-26T07:41:15Z</time></trkpt><trkpt lat="38.8541598566192" lon="-9.326206429108117"><ele>148.0</ele><time>2026-04-26T07:41:16Z</time></trkpt><trkpt lat="38.85429021908666" lon="-9.326170438995248"><ele>148.0</ele><time>2026-04-26T07:41:17Z</time></trkpt><trkpt lat="38.85441834120984" lon="-9.326125440040657"><ele>148.0</ele><time>2026-04-26T07:41:18Z</time></trkpt><trkpt lat="38.85454992302449" lon="-9.326211497353176"><ele>148.0</ele><time>2026-04-26T07:41:19Z</time></trkpt><trkpt lat="38.8546847867776" lon="-9.32625898250528"><ele>148.0</ele><time>2026-04-26T07:41:20Z</time></trkpt><trkpt lat="38.85482655266543" lon="-9.326300479421583"><ele>148.0</ele><time>2026-04-26T07:41:21Z</time></trkpt><trkpt lat="38.85498425821417" lon="-9.326296396777394"><ele>148.0</ele><time>2026-04-26T07:41:22Z</time></trkpt><trkpt lat="38.85513779951333" lon="-9.326208458283624"><ele>148.66666666666669</ele><time>2026-04-26T07:41:23Z</time></trkpt><trkpt lat="38.855303029580824" lon="-9.326129341299323"><ele>149.33333333333334</ele><time>2026-04-26T07:41:24Z</time></trkpt><trkpt lat="38.85545776775263" lon="-9.326049318639825"><ele>150.0</ele><time>2026-04-26T07:41:25Z</time></trkpt><trkpt lat="38.85561552810214" lon="-9.325987766851174"><ele>150.0</ele><time>2026-04-26T07:41:26Z</time></trkpt><trkpt lat="38.85577914260938" lon="-9.325931030191253"><ele>150.0</ele><time>2026-04-26T07:41:27Z</time></trkpt><trkpt lat="38.85591775092723" lon="-9.325890477280517"><ele>150.0</ele><time>2026-04-26T07:41:28Z</time></trkpt><trkpt lat="38.85603516312942" lon="-9.325853815169719"><ele>150.0</ele><time>2026-04-26T07:41:29Z</time></trkpt><trkpt lat="38.85614370739677" lon="-9.325837568214538"><ele>150.6</ele><time>2026-04-26T07:41:30Z</time></trkpt><trkpt lat="38.856238928152216" lon="-9.32581543545715"><ele>151.2</ele><time>2026-04-26T07:41:31Z</time></trkpt><trkpt lat="38.85631849302971" lon="-9.325794315763753"><ele>151.8</ele><time>2026-04-26T07:41:32Z</time></trkpt><trkpt lat="38.85639748080894" lon="-9.325724319511965"><ele>152.4</ele><time>2026-04-26T07:41:33Z</time></trkpt><trkpt lat="38.85644274844677" lon="-9.325586817328565"><ele>153.0</ele><time>2026-04-26T07:41:34Z</time></trkpt><trkpt lat="38.85650868897602" lon="-9.325467854518106"><ele>154.0</ele><time>2026-04-26T07:41:35Z</time></trkpt><trkpt lat="38.85663032106526" lon="-9.325375030643203"><ele>155.0</ele><time>2026-04-26T07:41:36Z</time></trkpt><trkpt lat="38.85678308421355" lon="-9.325311907855793"><ele>156.0</ele><time>2026-04-26T07:41:37Z</time></trkpt><trkpt lat="38.8569326869953" lon="-9.325223903356008"><ele>157.33333333333334</ele><time>2026-04-26T07:41:38Z</time></trkpt><trkpt lat="38.857074530902125" lon="-9.32513141701823"><ele>158.66666666666669</ele><time>2026-04-26T07:41:39Z</time></trkpt><trkpt lat="38.85722382170146" lon="-9.32503366125042"><ele>160.0</ele><time>2026-04-26T07:41:40Z</time></trkpt><trkpt lat="38.85736705390882" lon="-9.324955717474483"><ele>160.0</ele><time>2026-04-26T07:41:41Z</time></trkpt><trkpt lat="38.85751137968604" lon="-9.324875998487455"><ele>160.0</ele><time>2026-04-26T07:41:42Z</time></trkpt><trkpt lat="38.857654361896394" lon="-9.324804701222343"><ele>160.0</ele><time>2026-04-26T07:41:43Z</time></trkpt><trkpt lat="38.857801598348615" lon="-9.324737177313354"><ele>161.66666666666669</ele><time>2026-04-26T07:41:44Z</time></trkpt><trkpt lat="38.85794317402864" lon="-9.324655097826902"><ele>163.33333333333334</ele><time>2026-04-26T07:41:45Z</time></trkpt><trkpt lat="38.85807622427167" lon="-9.32456538307205"><ele>165.0</ele><time>2026-04-26T07:41:46Z</time></trkpt><trkpt lat="38.85818750249419" lon="-9.32443373629507"><ele>165.0</ele><time>2026-04-26T07:41:47Z</time></trkpt><trkpt lat="38.85831311061448" lon="-9.324325572347675"><ele>165.0</ele><time>2026-04-26T07:41:48Z</time></trkpt><trkpt lat="38.85840752182129" lon="-9.324211821598533"><ele>165.0</ele><time>2026-04-26T07:41:49Z</time></trkpt><trkpt lat="38.85849526497536" lon="-9.324117931297447"><ele>165.0</ele><time>2026-04-26T07:41:50Z</time></trkpt><trkpt lat="38.85858273796232" lon="-9.32407891559608"><ele>164.8</ele><time>2026-04-26T07:41:51Z</time></trkpt><trkpt lat="38.858658982085046" lon="-9.324052470532028"><ele>164.6</ele><time>2026-04-26T07:41:52Z</time></trkpt><trkpt lat="38.85873122179035" lon="-9.324003993751228"><ele>164.39999999999998</ele><time>2026-04-26T07:41:53Z</time></trkpt><trkpt lat="38.85881744276944" lon="-9.323949683507491"><ele>164.2</ele><time>2026-04-26T07:41:54Z</time></trkpt><trkpt lat="38.85890584549731" lon="-9.323890154158034"><ele>164.0</ele><time>2026-04-26T07:41:55Z</time></trkpt><trkpt lat="38.85899310948389" lon="-9.323826080470685"><ele>164.6</ele><time>2026-04-26T07:41:56Z</time></trkpt><trkpt lat="38.859083073818375" lon="-9.323768435520938"><ele>165.2</ele><time>2026-04-26T07:41:57Z</time></trkpt><trkpt lat="38.859166821478325" lon="-9.3237130897191"><ele>165.79999999999998</ele><time>2026-04-26T07:41:58Z</time></trkpt><trkpt lat="38.85924356653076" lon="-9.323647039664696"><ele>166.39999999999998</ele><time>2026-04-26T07:41:59Z</time></trkpt><trkpt lat="38.85931706781251" lon="-9.32360338461896"><ele>167.0</ele><time>2026-04-26T07:42:00Z</time></trkpt><trkpt lat="38.85943239242757" lon="-9.323573453378666"><ele>167.39999999999998</ele><time>2026-04-26T07:42:02Z</time></trkpt><trkpt lat="38.85951395447922" lon="-9.323578784023638"><ele>167.79999999999998</ele><time>2026-04-26T07:42:03Z</time></trkpt><trkpt lat="38.85958878609858" lon="-9.323567186960695"><ele>168.2</ele><time>2026-04-26T07:42:04Z</time></trkpt><trkpt lat="38.85958222206185" lon="-9.323338775365595"><ele>168.6</ele><time>2026-04-26T07:42:05Z</time></trkpt><trkpt lat="38.859636732967004" lon="-9.323222615695443"><ele>169.0</ele><time>2026-04-26T07:42:06Z</time></trkpt><trkpt lat="38.85967280510778" lon="-9.3230815304696"><ele>168.39999999999998</ele><time>2026-04-26T07:42:07Z</time></trkpt><trkpt lat="38.859722044437575" lon="-9.32294494124989"><ele>167.8</ele><time>2026-04-26T07:42:08Z</time></trkpt><trkpt lat="38.85976750785906" lon="-9.322817330851752"><ele>167.2</ele><time>2026-04-26T07:42:09Z</time></trkpt><trkpt lat="38.85981153638771" lon="-9.322693748156436"><ele>166.60000000000002</ele><time>2026-04-26T07:42:10Z</time></trkpt><trkpt lat="38.85985496985967" lon="-9.322571835565908"><ele>166.0</ele><time>2026-04-26T07:42:11Z</time></trkpt><trkpt lat="38.85990356857493" lon="-9.322435424915742"><ele>166.0</ele><time>2026-04-26T07:42:12Z</time></trkpt><trkpt lat="38.85995485862872" lon="-9.322291459771023"><ele>166.0</ele><time>2026-04-26T07:42:13Z</time></trkpt><trkpt lat="38.86000357737174" lon="-9.322153593276548"><ele>166.0</ele><time>2026-04-26T07:42:14Z</time></trkpt><trkpt lat="38.86005473324647" lon="-9.322008825950055"><ele>166.0</ele><time>2026-04-26T07:42:15Z</time></trkpt><trkpt lat="38.86011531022203" lon="-9.32183682791811"><ele>166.66666666666669</ele><time>2026-04-26T07:42:16Z</time></trkpt><trkpt lat="38.86018273028585" lon="-9.321646690177348"><ele>167.33333333333334</ele><time>2026-04-26T07:42:17Z</time></trkpt><trkpt lat="38.8602631001084" lon="-9.32146358687778"><ele>168.0</ele><time>2026-04-26T07:42:18Z</time></trkpt><trkpt lat="38.860330317487374" lon="-9.321275315935408"><ele>168.33333333333334</ele><time>2026-04-26T07:42:19Z</time></trkpt><trkpt lat="38.86039252306032" lon="-9.321091303441703"><ele>168.66666666666669</ele><time>2026-04-26T07:42:20Z</time></trkpt><trkpt lat="38.86045518434759" lon="-9.320905288653249"><ele>169.0</ele><time>2026-04-26T07:42:21Z</time></trkpt><trkpt lat="38.86051630968588" lon="-9.320703997803248"><ele>168.33333333333334</ele><time>2026-04-26T07:42:22Z</time></trkpt><trkpt lat="38.860596994418636" lon="-9.3204993853613"><ele>167.66666666666666</ele><time>2026-04-26T07:42:23Z</time></trkpt><trkpt lat="38.860681281635266" lon="-9.320294138642472"><ele>167.0</ele><time>2026-04-26T07:42:24Z</time></trkpt><trkpt lat="38.860775035138886" lon="-9.320087417668288"><ele>167.0</ele><time>2026-04-26T07:42:25Z</time></trkpt><trkpt lat="38.86086790032344" lon="-9.319870269557358"><ele>167.0</ele><time>2026-04-26T07:42:26Z</time></trkpt><trkpt lat="38.86095128441159" lon="-9.319651345828097"><ele>167.0</ele><time>2026-04-26T07:42:27Z</time></trkpt><trkpt lat="38.860988774769986" lon="-9.319417957058475"><ele>168.0</ele><time>2026-04-26T07:42:28Z</time></trkpt><trkpt lat="38.86100617056308" lon="-9.319172726917063"><ele>169.0</ele><time>2026-04-26T07:42:29Z</time></trkpt><trkpt lat="38.86096137540032" lon="-9.318939417050716"><ele>170.0</ele><time>2026-04-26T07:42:30Z</time></trkpt><trkpt lat="38.86089430653407" lon="-9.31871173186772"><ele>167.0</ele><time>2026-04-26T07:42:31Z</time></trkpt><trkpt lat="38.86080958991079" lon="-9.318474536185823"><ele>164.0</ele><time>2026-04-26T07:42:32Z</time></trkpt><trkpt lat="38.86071766786806" lon="-9.31823215948707"><ele>161.0</ele><time>2026-04-26T07:42:33Z</time></trkpt><trkpt lat="38.86062022769455" lon="-9.317991996030374"><ele>160.66666666666666</ele><time>2026-04-26T07:42:34Z</time></trkpt><trkpt lat="38.86052232328428" lon="-9.317756874313227"><ele>160.33333333333334</ele><time>2026-04-26T07:42:35Z</time></trkpt><trkpt lat="38.86041891829271" lon="-9.317531944999413"><ele>160.0</ele><time>2026-04-26T07:42:36Z</time></trkpt><trkpt lat="38.86031335573691" lon="-9.317302746842326"><ele>159.66666666666669</ele><time>2026-04-26T07:42:37Z</time></trkpt><trkpt lat="38.86022488373715" lon="-9.317073696574916"><ele>159.33333333333334</ele><time>2026-04-26T07:42:38Z</time></trkpt><trkpt lat="38.86012025443751" lon="-9.316856574657278"><ele>159.0</ele><time>2026-04-26T07:42:39Z</time></trkpt><trkpt lat="38.86004814366569" lon="-9.316619284444048"><ele>158.0</ele><time>2026-04-26T07:42:40Z</time></trkpt><trkpt lat="38.860006731536096" lon="-9.316364844995721"><ele>157.0</ele><time>2026-04-26T07:42:41Z</time></trkpt><trkpt lat="38.86000593194474" lon="-9.316105217887388"><ele>156.0</ele><time>2026-04-26T07:42:42Z</time></trkpt><trkpt lat="38.860047154969834" lon="-9.31584520402219"><ele>155.66666666666666</ele><time>2026-04-26T07:42:43Z</time></trkpt><trkpt lat="38.86012096132344" lon="-9.315589892240611"><ele>155.33333333333331</ele><time>2026-04-26T07:42:44Z</time></trkpt><trkpt lat="38.860204895503514" lon="-9.315342440974307"><ele>155.0</ele><time>2026-04-26T07:42:45Z</time></trkpt><trkpt lat="38.86028167473331" lon="-9.315099809172505"><ele>157.33333333333331</ele><time>2026-04-26T07:42:46Z</time></trkpt><trkpt lat="38.860352219896065" lon="-9.314870119588907"><ele>159.66666666666666</ele><time>2026-04-26T07:42:47Z</time></trkpt><trkpt lat="38.86041363131544" lon="-9.314642815324564"><ele>162.0</ele><time>2026-04-26T07:42:48Z</time></trkpt><trkpt lat="38.86047251622557" lon="-9.314426400320764"><ele>162.33333333333334</ele><time>2026-04-26T07:42:49Z</time></trkpt><trkpt lat="38.860527186649215" lon="-9.314212774737328"><ele>162.66666666666669</ele><time>2026-04-26T07:42:50Z</time></trkpt><trkpt lat="38.86057132813587" lon="-9.313994222981117"><ele>163.0</ele><time>2026-04-26T07:42:51Z</time></trkpt><trkpt lat="38.860614899607256" lon="-9.313777234164457"><ele>163.66666666666669</ele><time>2026-04-26T07:42:52Z</time></trkpt><trkpt lat="38.86064937754082" lon="-9.313574054452808"><ele>164.33333333333334</ele><time>2026-04-26T07:42:53Z</time></trkpt><trkpt lat="38.86068468460224" lon="-9.313376646904231"><ele>165.0</ele><time>2026-04-26T07:42:54Z</time></trkpt><trkpt lat="38.86068512305426" lon="-9.31316777745882"><ele>164.0</ele><time>2026-04-26T07:42:55Z</time></trkpt><trkpt lat="38.860691910996046" lon="-9.31296136713804"><ele>163.0</ele><time>2026-04-26T07:42:56Z</time></trkpt><trkpt lat="38.86071322825874" lon="-9.312751113224683"><ele>162.0</ele><time>2026-04-26T07:42:57Z</time></trkpt><trkpt lat="38.860710089014404" lon="-9.312531866974693"><ele>162.0</ele><time>2026-04-26T07:42:58Z</time></trkpt><trkpt lat="38.86070754661408" lon="-9.312320901531292"><ele>162.0</ele><time>2026-04-26T07:42:59Z</time></trkpt><trkpt lat="38.86070542311406" lon="-9.312113812763194"><ele>162.0</ele><time>2026-04-26T07:43:00Z</time></trkpt><trkpt lat="38.860708941381844" lon="-9.311936500388626"><ele>162.25</ele><time>2026-04-26T07:43:01Z</time></trkpt><trkpt lat="38.86070667693144" lon="-9.311761157612228"><ele>162.5</ele><time>2026-04-26T07:43:02Z</time></trkpt><trkpt lat="38.86071421722466" lon="-9.31157966056476"><ele>162.75</ele><time>2026-04-26T07:43:03Z</time></trkpt><trkpt lat="38.86075439302378" lon="-9.311394327684186"><ele>163.0</ele><time>2026-04-26T07:43:04Z</time></trkpt><trkpt lat="38.86082855246914" lon="-9.311211348501397"><ele>163.0</ele><time>2026-04-26T07:43:05Z</time></trkpt><trkpt lat="38.860943589078" lon="-9.311047727366162"><ele>163.0</ele><time>2026-04-26T07:43:06Z</time></trkpt><trkpt lat="38.861090173330396" lon="-9.31091714847872"><ele>163.0</ele><time>2026-04-26T07:43:07Z</time></trkpt><trkpt lat="38.86120592293311" lon="-9.31076966292294"><ele>164.66666666666669</ele><time>2026-04-26T07:43:08Z</time></trkpt><trkpt lat="38.86136761667887" lon="-9.310664938162283"><ele>166.33333333333334</ele><time>2026-04-26T07:43:09Z</time></trkpt><trkpt lat="38.86148599967171" lon="-9.310558585136375"><ele>168.0</ele><time>2026-04-26T07:43:10Z</time></trkpt><trkpt lat="38.8615977200945" lon="-9.310408179792043"><ele>167.75</ele><time>2026-04-26T07:43:11Z</time></trkpt><trkpt lat="38.861666294321346" lon="-9.310210953058897"><ele>167.5</ele><time>2026-04-26T07:43:12Z</time></trkpt><trkpt lat="38.86172245541417" lon="-9.310018656687587"><ele>167.25</ele><time>2026-04-26T07:43:13Z</time></trkpt><trkpt lat="38.86173801904022" lon="-9.309887012335121"><ele>167.0</ele><time>2026-04-26T07:43:14Z</time></trkpt><trkpt lat="38.86175449252672" lon="-9.309733497999652"><ele>167.0</ele><time>2026-04-26T07:43:15Z</time></trkpt><trkpt lat="38.86173854247961" lon="-9.309617317485257"><ele>167.0</ele><time>2026-04-26T07:43:16Z</time></trkpt><trkpt lat="38.86170368161877" lon="-9.309527869648358"><ele>167.0</ele><time>2026-04-26T07:43:17Z</time></trkpt><trkpt lat="38.86162547174006" lon="-9.30942225641892"><ele>167.0</ele><time>2026-04-26T07:43:18Z</time></trkpt><trkpt lat="38.86151369594724" lon="-9.309253490964288"><ele>167.0</ele><time>2026-04-26T07:43:19Z</time></trkpt><trkpt lat="38.861401089342216" lon="-9.309130870482292"><ele>167.0</ele><time>2026-04-26T07:43:20Z</time></trkpt><trkpt lat="38.861306400804686" lon="-9.309003873073085"><ele>167.0</ele><time>2026-04-26T07:43:21Z</time></trkpt><trkpt lat="38.86121368266443" lon="-9.30888031319139"><ele>167.0</ele><time>2026-04-26T07:43:22Z</time></trkpt><trkpt lat="38.861114121827725" lon="-9.308749661067168"><ele>164.75</ele><time>2026-04-26T07:43:23Z</time></trkpt><trkpt lat="38.86100846477917" lon="-9.308611614933591"><ele>162.5</ele><time>2026-04-26T07:43:24Z</time></trkpt><trkpt lat="38.86092061963183" lon="-9.30846612709168"><ele>160.25</ele><time>2026-04-26T07:43:25Z</time></trkpt><trkpt lat="38.8608327911211" lon="-9.308342733692024"><ele>158.0</ele><time>2026-04-26T07:43:26Z</time></trkpt><trkpt lat="38.86081774725374" lon="-9.308207498800838"><ele>157.20000000000002</ele><time>2026-04-26T07:43:27Z</time></trkpt><trkpt lat="38.86080176834" lon="-9.308075431910254"><ele>156.4</ele><time>2026-04-26T07:43:28Z</time></trkpt><trkpt lat="38.86084676713794" lon="-9.307919223999695"><ele>155.60000000000002</ele><time>2026-04-26T07:43:29Z</time></trkpt><trkpt lat="38.86092328532969" lon="-9.30779952663863"><ele>154.8</ele><time>2026-04-26T07:43:30Z</time></trkpt><trkpt lat="38.860993741958914" lon="-9.307722040884515"><ele>154.0</ele><time>2026-04-26T07:43:31Z</time></trkpt><trkpt lat="38.861262955840445" lon="-9.3074905784051"><ele>154.0</ele><time>2026-04-26T07:43:32Z</time></trkpt><trkpt lat="38.86141261232198" lon="-9.307311341692621"><ele>154.0</ele><time>2026-04-26T07:43:33Z</time></trkpt><trkpt lat="38.86157282369786" lon="-9.307124782209668"><ele>154.0</ele><time>2026-04-26T07:43:34Z</time></trkpt><trkpt lat="38.86172865696989" lon="-9.306953687211665"><ele>153.66666666666669</ele><time>2026-04-26T07:43:35Z</time></trkpt><trkpt lat="38.86187256806278" lon="-9.306758718654509"><ele>153.33333333333334</ele><time>2026-04-26T07:43:36Z</time></trkpt><trkpt lat="38.86203052886347" lon="-9.306566135303733"><ele>153.0</ele><time>2026-04-26T07:43:37Z</time></trkpt><trkpt lat="38.862179050272466" lon="-9.306365848833849"><ele>153.0</ele><time>2026-04-26T07:43:38Z</time></trkpt><trkpt lat="38.86233142445926" lon="-9.306142076025568"><ele>153.0</ele><time>2026-04-26T07:43:39Z</time></trkpt><trkpt lat="38.862471565811965" lon="-9.305924762437092"><ele>153.0</ele><time>2026-04-26T07:43:40Z</time></trkpt><trkpt lat="38.86258037793672" lon="-9.30573255531218"><ele>153.0</ele><time>2026-04-26T07:43:41Z</time></trkpt><trkpt lat="38.86269808581547" lon="-9.305564937467935"><ele>153.0</ele><time>2026-04-26T07:43:42Z</time></trkpt><trkpt lat="38.86280845973624" lon="-9.305388379986935"><ele>153.0</ele><time>2026-04-26T07:43:43Z</time></trkpt><trkpt lat="38.862914873364154" lon="-9.30521095666674"><ele>153.0</ele><time>2026-04-26T07:43:44Z</time></trkpt><trkpt lat="38.86302509476221" lon="-9.305036752492898"><ele>153.0</ele><time>2026-04-26T07:43:45Z</time></trkpt><trkpt lat="38.86312180173111" lon="-9.304863693065196"><ele>153.33333333333334</ele><time>2026-04-26T07:43:46Z</time></trkpt><trkpt lat="38.86322800967023" lon="-9.304690367266785"><ele>153.66666666666669</ele><time>2026-04-26T07:43:47Z</time></trkpt><trkpt lat="38.86332559207317" lon="-9.304530172624245"><ele>154.0</ele><time>2026-04-26T07:43:48Z</time></trkpt><trkpt lat="38.86341991268955" lon="-9.30437436486192"><ele>154.0</ele><time>2026-04-26T07:43:49Z</time></trkpt><trkpt lat="38.863517290800424" lon="-9.304203374050026"><ele>154.0</ele><time>2026-04-26T07:43:50Z</time></trkpt><trkpt lat="38.86360903486787" lon="-9.304029650753312"><ele>154.0</ele><time>2026-04-26T07:43:51Z</time></trkpt><trkpt lat="38.863687743640185" lon="-9.303861474307455"><ele>154.33333333333334</ele><time>2026-04-26T07:43:52Z</time></trkpt><trkpt lat="38.8637608227906" lon="-9.30368734420736"><ele>154.66666666666666</ele><time>2026-04-26T07:43:53Z</time></trkpt><trkpt lat="38.86382485540204" lon="-9.303509964271207"><ele>155.0</ele><time>2026-04-26T07:43:54Z</time></trkpt><trkpt lat="38.86388059219364" lon="-9.30332576866477"><ele>155.0</ele><time>2026-04-26T07:43:55Z</time></trkpt><trkpt lat="38.863926827778386" lon="-9.303132046050358"><ele>155.0</ele><time>2026-04-26T07:43:56Z</time></trkpt><trkpt lat="38.863965740104256" lon="-9.302924915924368"><ele>155.0</ele><time>2026-04-26T07:43:57Z</time></trkpt><trkpt lat="38.863998988403374" lon="-9.30271493974707"><ele>155.33333333333331</ele><time>2026-04-26T07:43:58Z</time></trkpt><trkpt lat="38.86402203382892" lon="-9.30251346356773"><ele>155.66666666666666</ele><time>2026-04-26T07:43:59Z</time></trkpt><trkpt lat="38.864034117653496" lon="-9.302322592612713"><ele>156.0</ele><time>2026-04-26T07:44:00Z</time></trkpt><trkpt lat="38.86404103084816" lon="-9.302130415223383"><ele>156.25</ele><time>2026-04-26T07:44:01Z</time></trkpt><trkpt lat="38.86404329455422" lon="-9.301942312247332"><ele>156.5</ele><time>2026-04-26T07:44:02Z</time></trkpt><trkpt lat="38.86404301832869" lon="-9.301754837444449"><ele>156.75</ele><time>2026-04-26T07:44:03Z</time></trkpt><trkpt lat="38.86404274034791" lon="-9.301566170948927"><ele>157.0</ele><time>2026-04-26T07:44:04Z</time></trkpt><trkpt lat="38.86405435009541" lon="-9.301378057800683"><ele>158.0</ele><time>2026-04-26T07:44:05Z</time></trkpt><trkpt lat="38.86406086667532" lon="-9.301188910945612"><ele>159.0</ele><time>2026-04-26T07:44:06Z</time></trkpt><trkpt lat="38.8640672094057" lon="-9.300994211330927"><ele>160.0</ele><time>2026-04-26T07:44:07Z</time></trkpt><trkpt lat="38.86408171236862" lon="-9.300797058915343"><ele>160.0</ele><time>2026-04-26T07:44:08Z</time></trkpt><trkpt lat="38.86411091870387" lon="-9.300602525998686"><ele>160.0</ele><time>2026-04-26T07:44:09Z</time></trkpt><trkpt lat="38.86414522968744" lon="-9.300405756014174"><ele>160.0</ele><time>2026-04-26T07:44:10Z</time></trkpt><trkpt lat="38.86420002807072" lon="-9.30021966829368"><ele>160.0</ele><time>2026-04-26T07:44:11Z</time></trkpt><trkpt lat="38.864275858924366" lon="-9.300058843397329"><ele>160.0</ele><time>2026-04-26T07:44:12Z</time></trkpt><trkpt lat="38.86435663186153" lon="-9.299919367473167"><ele>160.0</ele><time>2026-04-26T07:44:13Z</time></trkpt><trkpt lat="38.86443373771329" lon="-9.299806880168365"><ele>160.0</ele><time>2026-04-26T07:44:14Z</time></trkpt><trkpt lat="38.86450702075408" lon="-9.299705056329682"><ele>160.4</ele><time>2026-04-26T07:44:15Z</time></trkpt><trkpt lat="38.8645612510737" lon="-9.299614778101835"><ele>160.8</ele><time>2026-04-26T07:44:16Z</time></trkpt><trkpt lat="38.86460383454493" lon="-9.299502704973746"><ele>161.2</ele><time>2026-04-26T07:44:17Z</time></trkpt><trkpt lat="38.86460846146539" lon="-9.299363856203371"><ele>161.6</ele><time>2026-04-26T07:44:18Z</time></trkpt><trkpt lat="38.86456259217241" lon="-9.29923402274462"><ele>162.0</ele><time>2026-04-26T07:44:19Z</time></trkpt><trkpt lat="38.86449384332818" lon="-9.299130251060657"><ele>162.0</ele><time>2026-04-26T07:44:20Z</time></trkpt><trkpt lat="38.86449008029018" lon="-9.299012706385525"><ele>162.0</ele><time>2026-04-26T07:44:21Z</time></trkpt><trkpt lat="38.86454658584101" lon="-9.298892913561927"><ele>162.0</ele><time>2026-04-26T07:44:22Z</time></trkpt><trkpt lat="38.864653233721846" lon="-9.298839921237192"><ele>162.0</ele><time>2026-04-26T07:44:23Z</time></trkpt><trkpt lat="38.864686479679584" lon="-9.298668760428967"><ele>162.5</ele><time>2026-04-26T07:44:24Z</time></trkpt><trkpt lat="38.86472574533953" lon="-9.298509811565607"><ele>163.0</ele><time>2026-04-26T07:44:25Z</time></trkpt><trkpt lat="38.86473461430193" lon="-9.298333282987228"><ele>163.5</ele><time>2026-04-26T07:44:26Z</time></trkpt><trkpt lat="38.86474544341537" lon="-9.298138209175935"><ele>164.0</ele><time>2026-04-26T07:44:27Z</time></trkpt><trkpt lat="38.86476675628384" lon="-9.297933646064259"><ele>164.0</ele><time>2026-04-26T07:44:28Z</time></trkpt><trkpt lat="38.86479125896578" lon="-9.29772611898534"><ele>164.0</ele><time>2026-04-26T07:44:29Z</time></trkpt><trkpt lat="38.86481609324277" lon="-9.297503370655736"><ele>164.0</ele><time>2026-04-26T07:44:30Z</time></trkpt><trkpt lat="38.86484373889476" lon="-9.297279128390402"><ele>164.0</ele><time>2026-04-26T07:44:31Z</time></trkpt><trkpt lat="38.86487103154563" lon="-9.297062871260996"><ele>164.0</ele><time>2026-04-26T07:44:32Z</time></trkpt><trkpt lat="38.86489662194304" lon="-9.296850008408963"><ele>164.0</ele><time>2026-04-26T07:44:33Z</time></trkpt><trkpt lat="38.864926582271224" lon="-9.296642591297868"><ele>164.0</ele><time>2026-04-26T07:44:34Z</time></trkpt><trkpt lat="38.864964257410044" lon="-9.296434943857783"><ele>164.0</ele><time>2026-04-26T07:44:35Z</time></trkpt><trkpt lat="38.86502007843991" lon="-9.296231280107119"><ele>164.0</ele><time>2026-04-26T07:44:36Z</time></trkpt><trkpt lat="38.86508754481994" lon="-9.296041333055616"><ele>164.66666666666666</ele><time>2026-04-26T07:44:37Z</time></trkpt><trkpt lat="38.86516333525007" lon="-9.295857755027692"><ele>165.33333333333334</ele><time>2026-04-26T07:44:38Z</time></trkpt><trkpt lat="38.865242049109405" lon="-9.295681879143384"><ele>166.0</ele><time>2026-04-26T07:44:39Z</time></trkpt><trkpt lat="38.86533017141244" lon="-9.295518544226324"><ele>166.66666666666669</ele><time>2026-04-26T07:44:40Z</time></trkpt><trkpt lat="38.86541244803695" lon="-9.295336780236639"><ele>167.33333333333334</ele><time>2026-04-26T07:44:41Z</time></trkpt><trkpt lat="38.865471911350845" lon="-9.295152132200922"><ele>168.0</ele><time>2026-04-26T07:44:42Z</time></trkpt><trkpt lat="38.86554866538792" lon="-9.29496585066999"><ele>168.0</ele><time>2026-04-26T07:44:43Z</time></trkpt><trkpt lat="38.865625104978506" lon="-9.294781394308368"><ele>168.0</ele><time>2026-04-26T07:44:44Z</time></trkpt><trkpt lat="38.86570366887823" lon="-9.294596132913323"><ele>168.0</ele><time>2026-04-26T07:44:45Z</time></trkpt><trkpt lat="38.86578672241785" lon="-9.294402908999052"><ele>169.33333333333334</ele><time>2026-04-26T07:44:46Z</time></trkpt><trkpt lat="38.865873205140836" lon="-9.294200492605187"><ele>170.66666666666669</ele><time>2026-04-26T07:44:47Z</time></trkpt><trkpt lat="38.86596479398257" lon="-9.293988659813209"><ele>172.0</ele><time>2026-04-26T07:44:48Z</time></trkpt><trkpt lat="38.86605560088803" lon="-9.293779810377645"><ele>173.5</ele><time>2026-04-26T07:44:49Z</time></trkpt><trkpt lat="38.86613198157941" lon="-9.29360405665077"><ele>175.0</ele><time>2026-04-26T07:44:50Z</time></trkpt><trkpt lat="38.86620792656849" lon="-9.29346690899159"><ele>176.5</ele><time>2026-04-26T07:44:51Z</time></trkpt><trkpt lat="38.86625763724029" lon="-9.293354136893598"><ele>178.0</ele><time>2026-04-26T07:44:52Z</time></trkpt><trkpt lat="38.86629330532425" lon="-9.293282777080602"><ele>178.0</ele><time>2026-04-26T07:44:53Z</time></trkpt><trkpt lat="38.86639231300666" lon="-9.293446312042871"><ele>178.0</ele><time>2026-04-26T07:44:56Z</time></trkpt><trkpt lat="38.86642876854006" lon="-9.293545194782663"><ele>178.0</ele><time>2026-04-26T07:44:58Z</time></trkpt><trkpt lat="38.866439606422524" lon="-9.293711114892142"><ele>178.0</ele><time>2026-04-26T07:45:01Z</time></trkpt><trkpt lat="38.86636918787658" lon="-9.29382098954426"><ele>177.25</ele><time>2026-04-26T07:45:02Z</time></trkpt><trkpt lat="38.86626872011952" lon="-9.293951623898087"><ele>176.5</ele><time>2026-04-26T07:45:03Z</time></trkpt><trkpt lat="38.86619736640867" lon="-9.294088100973376"><ele>175.75</ele><time>2026-04-26T07:45:04Z</time></trkpt><trkpt lat="38.86612692524127" lon="-9.29420302424611"><ele>175.0</ele><time>2026-04-26T07:45:05Z</time></trkpt><trkpt lat="38.86610736910702" lon="-9.294369169504106"><ele>175.0</ele><time>2026-04-26T07:45:06Z</time></trkpt><trkpt lat="38.866126469524026" lon="-9.294511593548712"><ele>175.0</ele><time>2026-04-26T07:45:07Z</time></trkpt><trkpt lat="38.86615731551947" lon="-9.294646353985067"><ele>175.0</ele><time>2026-04-26T07:45:08Z</time></trkpt><trkpt lat="38.86619603727089" lon="-9.294765800356918"><ele>175.0</ele><time>2026-04-26T07:45:09Z</time></trkpt><trkpt lat="38.86623779902584" lon="-9.294879851357177"><ele>175.0</ele><time>2026-04-26T07:45:10Z</time></trkpt><trkpt lat="38.86627411610838" lon="-9.29497625837158"><ele>174.33333333333334</ele><time>2026-04-26T07:45:11Z</time></trkpt><trkpt lat="38.866312947323806" lon="-9.29509250461708"><ele>173.66666666666669</ele><time>2026-04-26T07:45:13Z</time></trkpt><trkpt lat="38.86641379114615" lon="-9.295119531085044"><ele>173.0</ele><time>2026-04-26T07:45:15Z</time></trkpt><trkpt lat="38.86647482240885" lon="-9.295159973018823"><ele>172.33333333333334</ele><time>2026-04-26T07:46:33Z</time></trkpt><trkpt lat="38.866521110131295" lon="-9.295104142605949"><ele>171.66666666666666</ele><time>2026-04-26T07:46:40Z</time></trkpt><trkpt lat="38.86645696627688" lon="-9.295101144444137"><ele>171.0</ele><time>2026-04-26T07:47:44Z</time></trkpt><trkpt lat="38.866393320517886" lon="-9.29511407463142"><ele>171.0</ele><time>2026-04-26T07:48:57Z</time></trkpt><trkpt lat="38.866454497245265" lon="-9.29514395449879"><ele>171.0</ele><time>2026-04-26T07:49:49Z</time></trkpt><trkpt lat="38.86651749157613" lon="-9.295097808080662"><ele>171.0</ele><time>2026-04-26T07:49:56Z</time></trkpt><trkpt lat="38.86645919002307" lon="-9.295131462524214"><ele>171.0</ele><time>2026-04-26T07:50:06Z</time></trkpt><trkpt lat="38.86639315230771" lon="-9.295104567708771"><ele>171.0</ele><time>2026-04-26T07:54:26Z</time></trkpt><trkpt lat="38.86631359359413" lon="-9.295067182982484"><ele>171.0</ele><time>2026-04-26T07:54:41Z</time></trkpt><trkpt lat="38.86624991705574" lon="-9.294972851234538"><ele>171.0</ele><time>2026-04-26T07:54:44Z</time></trkpt><trkpt lat="38.86620376742036" lon="-9.294840218108325"><ele>171.0</ele><time>2026-04-26T07:54:46Z</time></trkpt><trkpt lat="38.866178059267995" lon="-9.294763222751776"><ele>171.0</ele><time>2026-04-26T07:54:47Z</time></trkpt><trkpt lat="38.866137723896166" lon="-9.294670852850471"><ele>171.0</ele><time>2026-04-26T07:54:48Z</time></trkpt><trkpt lat="38.86611178482783" lon="-9.294546019069987"><ele>171.0</ele><time>2026-04-26T07:54:49Z</time></trkpt><trkpt lat="38.86608251522229" lon="-9.294410301648682"><ele>172.0</ele><time>2026-04-26T07:54:50Z</time></trkpt><trkpt lat="38.86609202903086" lon="-9.294259367023397"><ele>173.0</ele><time>2026-04-26T07:54:51Z</time></trkpt><trkpt lat="38.86614361824269" lon="-9.294105431532792"><ele>174.0</ele><time>2026-04-26T07:54:52Z</time></trkpt><trkpt lat="38.86622503508121" lon="-9.293979856475708"><ele>175.0</ele><time>2026-04-26T07:54:53Z</time></trkpt><trkpt lat="38.866309499979465" lon="-9.293851546543944"><ele>175.5</ele><time>2026-04-26T07:54:54Z</time></trkpt><trkpt lat="38.86637919199682" lon="-9.293747188252768"><ele>176.0</ele><time>2026-04-26T07:54:55Z</time></trkpt><trkpt lat="38.866428763431394" lon="-9.293677372577699"><ele>176.5</ele><time>2026-04-26T07:54:56Z</time></trkpt><trkpt lat="38.86645267360583" lon="-9.29360064033963"><ele>177.0</ele><time>2026-04-26T07:54:57Z</time></trkpt><trkpt lat="38.86640284053119" lon="-9.293509050058642"><ele>177.5</ele><time>2026-04-26T07:54:58Z</time></trkpt><trkpt lat="38.86632878384184" lon="-9.293394565577005"><ele>178.0</ele><time>2026-04-26T07:55:00Z</time></trkpt><trkpt lat="38.866278441581116" lon="-9.293292748710098"><ele>178.0</ele><time>2026-04-26T07:55:11Z</time></trkpt><trkpt lat="38.86622425728978" lon="-9.293198284445104"><ele>178.0</ele><time>2026-04-26T07:55:13Z</time></trkpt><trkpt lat="38.866115002804385" lon="-9.293333015316671"><ele>178.0</ele><time>2026-04-26T07:55:15Z</time></trkpt><trkpt lat="38.86605831900253" lon="-9.293413721897437"><ele>178.0</ele><time>2026-04-26T07:55:16Z</time></trkpt><trkpt lat="38.865984989815665" lon="-9.29349731285002"><ele>178.0</ele><time>2026-04-26T07:55:17Z</time></trkpt><trkpt lat="38.865934298589124" lon="-9.293598712078698"><ele>177.4</ele><time>2026-04-26T07:55:18Z</time></trkpt><trkpt lat="38.86588612356479" lon="-9.293691528896701"><ele>176.8</ele><time>2026-04-26T07:55:19Z</time></trkpt><trkpt lat="38.86581943292191" lon="-9.293768730749104"><ele>176.2</ele><time>2026-04-26T07:55:20Z</time></trkpt><trkpt lat="38.86573098262602" lon="-9.293783238859215"><ele>175.6</ele><time>2026-04-26T07:55:21Z</time></trkpt><trkpt lat="38.86563874106966" lon="-9.2937538673004"><ele>175.0</ele><time>2026-04-26T07:55:22Z</time></trkpt><trkpt lat="38.86556184004007" lon="-9.293668279385798"><ele>175.0</ele><time>2026-04-26T07:55:23Z</time></trkpt><trkpt lat="38.8654976640671" lon="-9.293563915545157"><ele>175.0</ele><time>2026-04-26T07:55:24Z</time></trkpt><trkpt lat="38.86544490781125" lon="-9.293455381886936"><ele>175.0</ele><time>2026-04-26T07:55:25Z</time></trkpt><trkpt lat="38.86537375195839" lon="-9.29334582228094"><ele>175.0</ele><time>2026-04-26T07:55:26Z</time></trkpt><trkpt lat="38.86528456217708" lon="-9.293271388866886"><ele>175.0</ele><time>2026-04-26T07:55:27Z</time></trkpt><trkpt lat="38.86518847748698" lon="-9.293187917014063"><ele>175.75</ele><time>2026-04-26T07:55:28Z</time></trkpt><trkpt lat="38.86509501748912" lon="-9.293083475340785"><ele>176.5</ele><time>2026-04-26T07:55:29Z</time></trkpt><trkpt lat="38.86501758262425" lon="-9.292968573686043"><ele>177.25</ele><time>2026-04-26T07:55:30Z</time></trkpt><trkpt lat="38.86496781382599" lon="-9.292836974577739"><ele>178.0</ele><time>2026-04-26T07:55:31Z</time></trkpt><trkpt lat="38.864900327152576" lon="-9.292700742040486"><ele>178.0</ele><time>2026-04-26T07:55:32Z</time></trkpt><trkpt lat="38.864846637181216" lon="-9.292571451720464"><ele>178.0</ele><time>2026-04-26T07:55:33Z</time></trkpt><trkpt lat="38.864818958701264" lon="-9.292427082360879"><ele>178.0</ele><time>2026-04-26T07:55:34Z</time></trkpt><trkpt lat="38.86483360545962" lon="-9.29227890032944"><ele>178.0</ele><time>2026-04-26T07:55:35Z</time></trkpt><trkpt lat="38.86481418505702" lon="-9.29212375075385"><ele>178.60000000000002</ele><time>2026-04-26T07:55:36Z</time></trkpt><trkpt lat="38.86481171345014" lon="-9.29198050879725"><ele>179.20000000000002</ele><time>2026-04-26T07:55:37Z</time></trkpt><trkpt lat="38.86475798309616" lon="-9.29185431411634"><ele>179.8</ele><time>2026-04-26T07:55:38Z</time></trkpt><trkpt lat="38.86471258034984" lon="-9.291726496361065"><ele>180.4</ele><time>2026-04-26T07:55:39Z</time></trkpt><trkpt lat="38.86467620388004" lon="-9.291629379162162"><ele>181.0</ele><time>2026-04-26T07:55:40Z</time></trkpt><trkpt lat="38.86464331124619" lon="-9.291535315576429"><ele>181.0</ele><time>2026-04-26T07:55:41Z</time></trkpt><trkpt lat="38.86461518780636" lon="-9.29145391710694"><ele>181.0</ele><time>2026-04-26T07:55:42Z</time></trkpt><trkpt lat="38.86456550249373" lon="-9.291310712823435"><ele>181.0</ele><time>2026-04-26T07:55:44Z</time></trkpt><trkpt lat="38.86452843787653" lon="-9.291158466931774"><ele>181.0</ele><time>2026-04-26T07:55:46Z</time></trkpt><trkpt lat="38.86451249411437" lon="-9.291068216815583"><ele>181.0</ele><time>2026-04-26T07:55:47Z</time></trkpt><trkpt lat="38.86448642814119" lon="-9.290984648743994"><ele>180.20000000000002</ele><time>2026-04-26T07:55:48Z</time></trkpt><trkpt lat="38.864437253491225" lon="-9.290875663071894"><ele>179.4</ele><time>2026-04-26T07:55:49Z</time></trkpt><trkpt lat="38.86440237901636" lon="-9.290754448402716"><ele>178.6</ele><time>2026-04-26T07:55:50Z</time></trkpt><trkpt lat="38.864364323730584" lon="-9.290644325282639"><ele>177.8</ele><time>2026-04-26T07:55:51Z</time></trkpt><trkpt lat="38.86430935590573" lon="-9.290536455905388"><ele>177.0</ele><time>2026-04-26T07:55:52Z</time></trkpt><trkpt lat="38.86427120082399" lon="-9.29042879862152"><ele>176.2</ele><time>2026-04-26T07:55:53Z</time></trkpt><trkpt lat="38.864242223334266" lon="-9.290347037206278"><ele>175.39999999999998</ele><time>2026-04-26T07:55:54Z</time></trkpt><trkpt lat="38.86419627639743" lon="-9.290217395658216"><ele>174.60000000000002</ele><time>2026-04-26T07:55:56Z</time></trkpt><trkpt lat="38.86416200604934" lon="-9.290089587559573"><ele>173.8</ele><time>2026-04-26T07:55:58Z</time></trkpt><trkpt lat="38.864074238844694" lon="-9.290018196856115"><ele>173.0</ele><time>2026-04-26T07:56:00Z</time></trkpt><trkpt lat="38.86398075904139" lon="-9.290095480030814"><ele>173.0</ele><time>2026-04-26T07:56:02Z</time></trkpt><trkpt lat="38.86387603126276" lon="-9.29004883869396"><ele>173.0</ele><time>2026-04-26T07:56:08Z</time></trkpt><trkpt lat="38.86381850297833" lon="-9.289941821963614"><ele>173.0</ele><time>2026-04-26T07:56:09Z</time></trkpt><trkpt lat="38.86376590929884" lon="-9.28983242751467"><ele>173.0</ele><time>2026-04-26T07:56:10Z</time></trkpt><trkpt lat="38.86370832392198" lon="-9.28972605411572"><ele>173.0</ele><time>2026-04-26T07:56:11Z</time></trkpt><trkpt lat="38.86364603800287" lon="-9.289664111282105"><ele>173.2</ele><time>2026-04-26T07:56:12Z</time></trkpt><trkpt lat="38.86356026812765" lon="-9.289642746907981"><ele>173.4</ele><time>2026-04-26T07:56:13Z</time></trkpt><trkpt lat="38.86348714474707" lon="-9.289644974568578"><ele>173.6</ele><time>2026-04-26T07:56:14Z</time></trkpt><trkpt lat="38.8633745652196" lon="-9.289636815439012"><ele>173.79999999999998</ele><time>2026-04-26T07:56:16Z</time></trkpt><trkpt lat="38.8633219041576" lon="-9.289554093527778"><ele>174.0</ele><time>2026-04-26T07:56:17Z</time></trkpt><trkpt lat="38.863252796311556" lon="-9.28946537932545"><ele>173.5</ele><time>2026-04-26T07:56:18Z</time></trkpt><trkpt lat="38.86316350929049" lon="-9.289378773479735"><ele>173.0</ele><time>2026-04-26T07:56:19Z</time></trkpt><trkpt lat="38.86307663782298" lon="-9.289273952362043"><ele>172.5</ele><time>2026-04-26T07:56:20Z</time></trkpt><trkpt lat="38.86298796422582" lon="-9.289165560115922"><ele>172.0</ele><time>2026-04-26T07:56:21Z</time></trkpt><trkpt lat="38.86291589371682" lon="-9.289071210058335"><ele>172.0</ele><time>2026-04-26T07:56:22Z</time></trkpt><trkpt lat="38.86287667115302" lon="-9.288981615249714"><ele>172.0</ele><time>2026-04-26T07:56:23Z</time></trkpt><trkpt lat="38.86281170773542" lon="-9.288871545674507"><ele>172.0</ele><time>2026-04-26T07:56:25Z</time></trkpt><trkpt lat="38.86279867902476" lon="-9.288767003958972"><ele>172.0</ele><time>2026-04-26T07:56:27Z</time></trkpt><trkpt lat="38.862767079061534" lon="-9.288689011755055"><ele>172.0</ele><time>2026-04-26T07:56:30Z</time></trkpt><trkpt lat="38.862792406325035" lon="-9.288614815550352"><ele>172.0</ele><time>2026-04-26T07:56:33Z</time></trkpt><trkpt lat="38.862773291231264" lon="-9.288525768558586"><ele>172.2</ele><time>2026-04-26T07:56:36Z</time></trkpt><trkpt lat="38.86275304654458" lon="-9.288443131059754"><ele>172.39999999999998</ele><time>2026-04-26T07:56:38Z</time></trkpt><trkpt lat="38.86273389956047" lon="-9.288336450979175"><ele>172.60000000000002</ele><time>2026-04-26T07:56:41Z</time></trkpt><trkpt lat="38.86271713054448" lon="-9.288249252175632"><ele>172.8</ele><time>2026-04-26T07:56:43Z</time></trkpt><trkpt lat="38.862700227026586" lon="-9.288082154047933"><ele>173.0</ele><time>2026-04-26T07:56:45Z</time></trkpt><trkpt lat="38.862667565587216" lon="-9.28792296746668"><ele>173.0</ele><time>2026-04-26T07:56:47Z</time></trkpt><trkpt lat="38.86265210887595" lon="-9.28780751648373"><ele>173.0</ele><time>2026-04-26T07:56:48Z</time></trkpt><trkpt lat="38.86263769697925" lon="-9.287670030248691"><ele>173.0</ele><time>2026-04-26T07:56:49Z</time></trkpt><trkpt lat="38.86262796952092" lon="-9.287520930631588"><ele>173.0</ele><time>2026-04-26T07:56:50Z</time></trkpt><trkpt lat="38.8626364574871" lon="-9.287361243967766"><ele>173.0</ele><time>2026-04-26T07:56:51Z</time></trkpt><trkpt lat="38.86263165161682" lon="-9.287197224641845"><ele>173.0</ele><time>2026-04-26T07:56:52Z</time></trkpt><trkpt lat="38.86263285204439" lon="-9.287056260253644"><ele>173.0</ele><time>2026-04-26T07:56:53Z</time></trkpt><trkpt lat="38.8626465346652" lon="-9.286903397370471"><ele>173.0</ele><time>2026-04-26T07:56:54Z</time></trkpt><trkpt lat="38.86265178018181" lon="-9.286723235164878"><ele>173.0</ele><time>2026-04-26T07:56:55Z</time></trkpt><trkpt lat="38.862654651814665" lon="-9.286564293042057"><ele>173.0</ele><time>2026-04-26T07:56:56Z</time></trkpt><trkpt lat="38.8626638287994" lon="-9.286444451059825"><ele>173.0</ele><time>2026-04-26T07:56:57Z</time></trkpt><trkpt lat="38.86266438968091" lon="-9.286342931519263"><ele>173.0</ele><time>2026-04-26T07:56:58Z</time></trkpt><trkpt lat="38.86266479382866" lon="-9.286244163823836"><ele>173.0</ele><time>2026-04-26T07:56:59Z</time></trkpt><trkpt lat="38.86267552252274" lon="-9.286153940198288"><ele>173.0</ele><time>2026-04-26T07:57:00Z</time></trkpt><trkpt lat="38.862716758849686" lon="-9.286026835557898"><ele>173.0</ele><time>2026-04-26T07:57:02Z</time></trkpt><trkpt lat="38.8627212220509" lon="-9.285883675702607"><ele>172.83333333333331</ele><time>2026-04-26T07:57:04Z</time></trkpt><trkpt lat="38.862677649221425" lon="-9.285815840720707"><ele>172.66666666666666</ele><time>2026-04-26T07:57:05Z</time></trkpt><trkpt lat="38.86264778666647" lon="-9.285736120468425"><ele>172.5</ele><time>2026-04-26T07:57:06Z</time></trkpt><trkpt lat="38.862617572468814" lon="-9.28564350182456"><ele>172.33333333333334</ele><time>2026-04-26T07:57:07Z</time></trkpt><trkpt lat="38.86257262051508" lon="-9.285536090897006"><ele>172.16666666666669</ele><time>2026-04-26T07:57:08Z</time></trkpt><trkpt lat="38.862518481768326" lon="-9.285382421856372"><ele>172.0</ele><time>2026-04-26T07:57:09Z</time></trkpt><trkpt lat="38.86246274246829" lon="-9.285227572945182"><ele>172.8</ele><time>2026-04-26T07:57:10Z</time></trkpt><trkpt lat="38.86240366694509" lon="-9.285087004757091"><ele>173.6</ele><time>2026-04-26T07:57:11Z</time></trkpt><trkpt lat="38.862358634515296" lon="-9.284962290354551"><ele>174.4</ele><time>2026-04-26T07:57:12Z</time></trkpt><trkpt lat="38.86230752111437" lon="-9.284869310856703"><ele>175.20000000000002</ele><time>2026-04-26T07:57:13Z</time></trkpt><trkpt lat="38.862235872601815" lon="-9.2847679440348"><ele>176.0</ele><time>2026-04-26T07:57:15Z</time></trkpt><trkpt lat="38.86226692991106" lon="-9.284692332244825"><ele>176.20000000000002</ele><time>2026-04-26T07:57:16Z</time></trkpt><trkpt lat="38.86229987763716" lon="-9.284540707029072"><ele>176.4</ele><time>2026-04-26T07:57:18Z</time></trkpt><trkpt lat="38.862345390964705" lon="-9.28443400629189"><ele>176.6</ele><time>2026-04-26T07:57:19Z</time></trkpt><trkpt lat="38.8623901323878" lon="-9.284331437771742"><ele>176.8</ele><time>2026-04-26T07:57:20Z</time></trkpt><trkpt lat="38.8623957764608" lon="-9.284208309334266"><ele>177.0</ele><time>2026-04-26T07:57:21Z</time></trkpt><trkpt lat="38.86244686703048" lon="-9.284079970975931"><ele>177.0</ele><time>2026-04-26T07:57:22Z</time></trkpt><trkpt lat="38.862488178359364" lon="-9.283912084582703"><ele>177.0</ele><time>2026-04-26T07:57:23Z</time></trkpt><trkpt lat="38.86252361286602" lon="-9.283727947504225"><ele>177.0</ele><time>2026-04-26T07:57:24Z</time></trkpt><trkpt lat="38.862538339398924" lon="-9.283532542334562"><ele>177.0</ele><time>2026-04-26T07:57:25Z</time></trkpt><trkpt lat="38.86257633425763" lon="-9.283330388145284"><ele>176.66666666666666</ele><time>2026-04-26T07:57:26Z</time></trkpt><trkpt lat="38.8626232117907" lon="-9.283118758167525"><ele>176.33333333333331</ele><time>2026-04-26T07:57:27Z</time></trkpt><trkpt lat="38.862664837431225" lon="-9.282910807711174"><ele>176.0</ele><time>2026-04-26T07:57:28Z</time></trkpt><trkpt lat="38.862710669251335" lon="-9.282740262691455"><ele>176.0</ele><time>2026-04-26T07:57:29Z</time></trkpt><trkpt lat="38.86276038413144" lon="-9.282563480950705"><ele>176.0</ele><time>2026-04-26T07:57:30Z</time></trkpt><trkpt lat="38.862817359910125" lon="-9.282386803123666"><ele>176.0</ele><time>2026-04-26T07:57:31Z</time></trkpt><trkpt lat="38.86288760780874" lon="-9.282232958108821"><ele>176.0</ele><time>2026-04-26T07:57:32Z</time></trkpt><trkpt lat="38.86298128408465" lon="-9.282086904969532"><ele>176.33333333333331</ele><time>2026-04-26T07:57:33Z</time></trkpt><trkpt lat="38.86309105049258" lon="-9.281936680599225"><ele>176.66666666666666</ele><time>2026-04-26T07:57:34Z</time></trkpt><trkpt lat="38.86320464586967" lon="-9.281811364227346"><ele>177.0</ele><time>2026-04-26T07:57:35Z</time></trkpt><trkpt lat="38.86331516684026" lon="-9.281685295073453"><ele>177.0</ele><time>2026-04-26T07:57:36Z</time></trkpt><trkpt lat="38.86342661059422" lon="-9.281529515838026"><ele>177.0</ele><time>2026-04-26T07:57:37Z</time></trkpt><trkpt lat="38.86355591929752" lon="-9.281390577785068"><ele>177.0</ele><time>2026-04-26T07:57:38Z</time></trkpt><trkpt lat="38.863663130378136" lon="-9.281258847473154"><ele>177.39999999999998</ele><time>2026-04-26T07:57:39Z</time></trkpt><trkpt lat="38.86377044169827" lon="-9.281153444416864"><ele>177.79999999999998</ele><time>2026-04-26T07:57:40Z</time></trkpt><trkpt lat="38.86386527604834" lon="-9.281076137795727"><ele>178.2</ele><time>2026-04-26T07:57:41Z</time></trkpt><trkpt lat="38.86393828896107" lon="-9.281000425844482"><ele>178.6</ele><time>2026-04-26T07:57:42Z</time></trkpt><trkpt lat="38.863995665704905" lon="-9.280930650375188"><ele>179.0</ele><time>2026-04-26T07:57:43Z</time></trkpt><trkpt lat="38.86404890690206" lon="-9.280856368425173"><ele>179.0</ele><time>2026-04-26T07:57:45Z</time></trkpt><trkpt lat="38.86408799456485" lon="-9.28094717286913"><ele>179.0</ele><time>2026-04-26T07:57:57Z</time></trkpt><trkpt lat="38.864150417133615" lon="-9.281078296626168"><ele>179.0</ele><time>2026-04-26T07:57:59Z</time></trkpt><trkpt lat="38.8642009820432" lon="-9.281203510016294"><ele>179.0</ele><time>2026-04-26T07:58:00Z</time></trkpt><trkpt lat="38.86425617413317" lon="-9.2813308541783"><ele>179.0</ele><time>2026-04-26T07:58:01Z</time></trkpt><trkpt lat="38.86431584992799" lon="-9.281442599923345"><ele>178.6</ele><time>2026-04-26T07:58:02Z</time></trkpt><trkpt lat="38.864372095796725" lon="-9.281553677289867"><ele>178.2</ele><time>2026-04-26T07:58:03Z</time></trkpt><trkpt lat="38.864438269867804" lon="-9.28167259475857"><ele>177.79999999999998</ele><time>2026-04-26T07:58:04Z</time></trkpt><trkpt lat="38.86451041391616" lon="-9.281774535152833"><ele>177.39999999999998</ele><time>2026-04-26T07:58:05Z</time></trkpt><trkpt lat="38.864593781021455" lon="-9.281876734703673"><ele>177.0</ele><time>2026-04-26T07:58:06Z</time></trkpt><trkpt lat="38.86469341612609" lon="-9.281986811674718"><ele>177.0</ele><time>2026-04-26T07:58:07Z</time></trkpt><trkpt lat="38.86482453872243" lon="-9.282101934143265"><ele>177.0</ele><time>2026-04-26T07:58:08Z</time></trkpt><trkpt lat="38.8649789734136" lon="-9.282191690851539"><ele>177.0</ele><time>2026-04-26T07:58:09Z</time></trkpt><trkpt lat="38.865143795907805" lon="-9.282280724374846"><ele>177.0</ele><time>2026-04-26T07:58:10Z</time></trkpt><trkpt lat="38.8653196069184" lon="-9.282385273330778"><ele>177.0</ele><time>2026-04-26T07:58:11Z</time></trkpt><trkpt lat="38.86549914696667" lon="-9.282494049214142"><ele>177.0</ele><time>2026-04-26T07:58:12Z</time></trkpt><trkpt lat="38.86567743217623" lon="-9.2825962805168"><ele>177.0</ele><time>2026-04-26T07:58:13Z</time></trkpt><trkpt lat="38.86585499112553" lon="-9.282728641631724"><ele>177.0</ele><time>2026-04-26T07:58:14Z</time></trkpt><trkpt lat="38.86603008417328" lon="-9.282886970346434"><ele>177.0</ele><time>2026-04-26T07:58:15Z</time></trkpt><trkpt lat="38.866192062638724" lon="-9.28306706544807"><ele>177.33333333333334</ele><time>2026-04-26T07:58:16Z</time></trkpt><trkpt lat="38.86634207743284" lon="-9.283231309533486"><ele>177.66666666666669</ele><time>2026-04-26T07:58:17Z</time></trkpt><trkpt lat="38.86646900873587" lon="-9.283372917390011"><ele>178.0</ele><time>2026-04-26T07:58:18Z</time></trkpt><trkpt lat="38.86659075072361" lon="-9.28349343161584"><ele>178.0</ele><time>2026-04-26T07:58:19Z</time></trkpt><trkpt lat="38.86669338288767" lon="-9.283602780099356"><ele>178.0</ele><time>2026-04-26T07:58:20Z</time></trkpt><trkpt lat="38.86677626105687" lon="-9.283700856281255"><ele>178.0</ele><time>2026-04-26T07:58:21Z</time></trkpt><trkpt lat="38.86685574054782" lon="-9.283786778404583"><ele>178.0</ele><time>2026-04-26T07:58:22Z</time></trkpt><trkpt lat="38.866924785107734" lon="-9.283870806189434"><ele>178.0</ele><time>2026-04-26T07:58:23Z</time></trkpt><trkpt lat="38.86698087823094" lon="-9.283947844143663"><ele>179.0</ele><time>2026-04-26T07:58:24Z</time></trkpt><trkpt lat="38.86703496076651" lon="-9.284019339525695"><ele>180.0</ele><time>2026-04-26T07:58:25Z</time></trkpt><trkpt lat="38.86710438009427" lon="-9.284113756540911"><ele>181.0</ele><time>2026-04-26T07:58:27Z</time></trkpt><trkpt lat="38.86718334982261" lon="-9.28411650796791"><ele>182.0</ele><time>2026-04-26T07:58:28Z</time></trkpt><trkpt lat="38.86729852133987" lon="-9.284033044016573"><ele>183.0</ele><time>2026-04-26T07:58:30Z</time></trkpt><trkpt lat="38.86730400013384" lon="-9.283917865213702"><ele>183.0</ele><time>2026-04-26T07:58:31Z</time></trkpt><trkpt lat="38.867240718192555" lon="-9.283797164881749"><ele>183.0</ele><time>2026-04-26T07:58:32Z</time></trkpt><trkpt lat="38.86724040447849" lon="-9.283665816532768"><ele>183.0</ele><time>2026-04-26T07:58:33Z</time></trkpt><trkpt lat="38.867237343614605" lon="-9.283533736452105"><ele>183.0</ele><time>2026-04-26T07:58:34Z</time></trkpt><trkpt lat="38.86724681063441" lon="-9.28339204022678"><ele>183.0</ele><time>2026-04-26T07:58:35Z</time></trkpt><trkpt lat="38.867227551265294" lon="-9.283235619910297"><ele>183.5</ele><time>2026-04-26T07:58:36Z</time></trkpt><trkpt lat="38.86722179128912" lon="-9.283067870454323"><ele>184.0</ele><time>2026-04-26T07:58:37Z</time></trkpt><trkpt lat="38.86721618659977" lon="-9.282880457098909"><ele>184.5</ele><time>2026-04-26T07:58:38Z</time></trkpt><trkpt lat="38.86721194023809" lon="-9.282698546238699"><ele>185.0</ele><time>2026-04-26T07:58:39Z</time></trkpt><trkpt lat="38.867208289833094" lon="-9.282511713900877"><ele>185.0</ele><time>2026-04-26T07:58:40Z</time></trkpt><trkpt lat="38.86720658937552" lon="-9.282334105834563"><ele>185.0</ele><time>2026-04-26T07:58:41Z</time></trkpt><trkpt lat="38.86720646211672" lon="-9.282167047046336"><ele>185.0</ele><time>2026-04-26T07:58:42Z</time></trkpt><trkpt lat="38.867227740293025" lon="-9.282002962062062"><ele>185.0</ele><time>2026-04-26T07:58:43Z</time></trkpt><trkpt lat="38.86726081016844" lon="-9.281853931583427"><ele>184.0</ele><time>2026-04-26T07:58:44Z</time></trkpt><trkpt lat="38.867312980695544" lon="-9.281722051550858"><ele>183.0</ele><time>2026-04-26T07:58:45Z</time></trkpt><trkpt lat="38.86736803387243" lon="-9.28160460397837"><ele>182.0</ele><time>2026-04-26T07:58:46Z</time></trkpt><trkpt lat="38.867425595196586" lon="-9.281470103618618"><ele>181.0</ele><time>2026-04-26T07:58:47Z</time></trkpt><trkpt lat="38.86748044892821" lon="-9.281340266883843"><ele>181.0</ele><time>2026-04-26T07:58:48Z</time></trkpt><trkpt lat="38.86753158962353" lon="-9.28121514686481"><ele>181.0</ele><time>2026-04-26T07:58:49Z</time></trkpt><trkpt lat="38.86756914971508" lon="-9.28109270411103"><ele>181.0</ele><time>2026-04-26T07:58:50Z</time></trkpt><trkpt lat="38.86760990977099" lon="-9.280998875200101"><ele>181.0</ele><time>2026-04-26T07:58:51Z</time></trkpt><trkpt lat="38.86765270336669" lon="-9.280928352007436"><ele>181.0</ele><time>2026-04-26T07:58:52Z</time></trkpt><trkpt lat="38.86767825413091" lon="-9.280841727174188"><ele>181.0</ele><time>2026-04-26T07:58:53Z</time></trkpt><trkpt lat="38.86768250968668" lon="-9.280757095084603"><ele>181.75</ele><time>2026-04-26T07:58:54Z</time></trkpt><trkpt lat="38.86772225837341" lon="-9.28064209506977"><ele>182.5</ele><time>2026-04-26T07:58:55Z</time></trkpt><trkpt lat="38.86779492834175" lon="-9.280539389688842"><ele>183.25</ele><time>2026-04-26T07:58:56Z</time></trkpt><trkpt lat="38.867896250567384" lon="-9.28047073715009"><ele>184.0</ele><time>2026-04-26T07:58:57Z</time></trkpt><trkpt lat="38.86800144608674" lon="-9.28036318307555"><ele>184.0</ele><time>2026-04-26T07:58:58Z</time></trkpt><trkpt lat="38.86810865416087" lon="-9.280240080492797"><ele>184.0</ele><time>2026-04-26T07:58:59Z</time></trkpt><trkpt lat="38.86821411307461" lon="-9.280092730503057"><ele>184.0</ele><time>2026-04-26T07:59:00Z</time></trkpt><trkpt lat="38.86831234718229" lon="-9.279955298604659"><ele>184.0</ele><time>2026-04-26T07:59:01Z</time></trkpt><trkpt lat="38.86839982762946" lon="-9.279846657425205"><ele>184.0</ele><time>2026-04-26T07:59:02Z</time></trkpt><trkpt lat="38.868503521344174" lon="-9.27972811455864"><ele>184.0</ele><time>2026-04-26T07:59:03Z</time></trkpt><trkpt lat="38.86861025255403" lon="-9.279604084281681"><ele>184.0</ele><time>2026-04-26T07:59:04Z</time></trkpt><trkpt lat="38.868696254912315" lon="-9.279496013242197"><ele>184.0</ele><time>2026-04-26T07:59:05Z</time></trkpt><trkpt lat="38.86875792008847" lon="-9.279397950219922"><ele>184.0</ele><time>2026-04-26T07:59:06Z</time></trkpt><trkpt lat="38.86879284662951" lon="-9.279291904226557"><ele>184.0</ele><time>2026-04-26T07:59:07Z</time></trkpt><trkpt lat="38.86877495787494" lon="-9.279187181405161"><ele>184.0</ele><time>2026-04-26T07:59:08Z</time></trkpt><trkpt lat="38.868782442997734" lon="-9.27906413457838"><ele>184.0</ele><time>2026-04-26T07:59:09Z</time></trkpt><trkpt lat="38.868801828078915" lon="-9.278906661432542"><ele>184.0</ele><time>2026-04-26T07:59:10Z</time></trkpt><trkpt lat="38.868831871325355" lon="-9.278747020051897"><ele>184.5</ele><time>2026-04-26T07:59:11Z</time></trkpt><trkpt lat="38.86886679758292" lon="-9.278570729202887"><ele>185.0</ele><time>2026-04-26T07:59:12Z</time></trkpt><trkpt lat="38.868903077826765" lon="-9.278390942389205"><ele>185.5</ele><time>2026-04-26T07:59:13Z</time></trkpt><trkpt lat="38.86893632576818" lon="-9.278246778023815"><ele>186.0</ele><time>2026-04-26T07:59:14Z</time></trkpt><trkpt lat="38.86897233104178" lon="-9.278125573781546"><ele>186.60000000000002</ele><time>2026-04-26T07:59:15Z</time></trkpt><trkpt lat="38.869008916412234" lon="-9.278042842513361"><ele>187.2</ele><time>2026-04-26T07:59:16Z</time></trkpt><trkpt lat="38.8690688249756" lon="-9.277959530181722"><ele>187.8</ele><time>2026-04-26T07:59:17Z</time></trkpt><trkpt lat="38.86914346217253" lon="-9.27790045112758"><ele>188.39999999999998</ele><time>2026-04-26T07:59:18Z</time></trkpt><trkpt lat="38.86925025075758" lon="-9.277899407207725"><ele>189.0</ele><time>2026-04-26T07:59:19Z</time></trkpt><trkpt lat="38.86936909822548" lon="-9.277878776318497"><ele>190.0</ele><time>2026-04-26T07:59:20Z</time></trkpt><trkpt lat="38.8694756322856" lon="-9.277829956849553"><ele>191.0</ele><time>2026-04-26T07:59:21Z</time></trkpt><trkpt lat="38.8695690295956" lon="-9.277849258923457"><ele>192.0</ele><time>2026-04-26T07:59:22Z</time></trkpt><trkpt lat="38.86966462397768" lon="-9.27789265229053"><ele>193.0</ele><time>2026-04-26T07:59:23Z</time></trkpt><trkpt lat="38.869772307194104" lon="-9.2779491615774"><ele>194.0</ele><time>2026-04-26T07:59:24Z</time></trkpt><trkpt lat="38.8698933422045" lon="-9.278006754040838"><ele>194.0</ele><time>2026-04-26T07:59:25Z</time></trkpt><trkpt lat="38.87001638000809" lon="-9.278070883705631"><ele>194.0</ele><time>2026-04-26T07:59:26Z</time></trkpt><trkpt lat="38.87013583873932" lon="-9.278112770585771"><ele>194.0</ele><time>2026-04-26T07:59:27Z</time></trkpt><trkpt lat="38.870228132735235" lon="-9.278140252653085"><ele>194.0</ele><time>2026-04-26T07:59:28Z</time></trkpt><trkpt lat="38.8703110719834" lon="-9.27816407530908"><ele>194.0</ele><time>2026-04-26T07:59:29Z</time></trkpt><trkpt lat="38.87037709922844" lon="-9.278129972938373"><ele>195.16666666666669</ele><time>2026-04-26T07:59:30Z</time></trkpt><trkpt lat="38.87045013588951" lon="-9.278115228433027"><ele>196.33333333333334</ele><time>2026-04-26T07:59:31Z</time></trkpt><trkpt lat="38.87052676112247" lon="-9.278098419350153"><ele>197.5</ele><time>2026-04-26T07:59:32Z</time></trkpt><trkpt lat="38.87059810447423" lon="-9.278094702912563"><ele>198.66666666666669</ele><time>2026-04-26T07:59:33Z</time></trkpt><trkpt lat="38.87067647518129" lon="-9.278091067887313"><ele>199.83333333333334</ele><time>2026-04-26T07:59:34Z</time></trkpt><trkpt lat="38.87076009877935" lon="-9.278104856519068"><ele>201.0</ele><time>2026-04-26T07:59:35Z</time></trkpt><trkpt lat="38.87084081966263" lon="-9.278119831972774"><ele>201.0</ele><time>2026-04-26T07:59:36Z</time></trkpt><trkpt lat="38.870919404241164" lon="-9.278112141779204"><ele>201.0</ele><time>2026-04-26T07:59:37Z</time></trkpt><trkpt lat="38.871015846356684" lon="-9.278121047126113"><ele>201.0</ele><time>2026-04-26T07:59:38Z</time></trkpt><trkpt lat="38.871117367350855" lon="-9.278096889468879"><ele>201.0</ele><time>2026-04-26T07:59:39Z</time></trkpt><trkpt lat="38.87123037247186" lon="-9.278066529020407"><ele>201.0</ele><time>2026-04-26T07:59:40Z</time></trkpt><trkpt lat="38.87135297034761" lon="-9.278043491343272"><ele>204.0</ele><time>2026-04-26T07:59:41Z</time></trkpt><trkpt lat="38.87147730514287" lon="-9.278000106508909"><ele>207.0</ele><time>2026-04-26T07:59:42Z</time></trkpt><trkpt lat="38.87160660806732" lon="-9.277969106677046"><ele>210.0</ele><time>2026-04-26T07:59:43Z</time></trkpt><trkpt lat="38.8717398750283" lon="-9.277951950738998"><ele>213.0</ele><time>2026-04-26T07:59:44Z</time></trkpt><trkpt lat="38.871863769413295" lon="-9.277949362362435"><ele>214.5</ele><time>2026-04-26T07:59:45Z</time></trkpt><trkpt lat="38.87200617139735" lon="-9.27798500665306"><ele>216.0</ele><time>2026-04-26T07:59:46Z</time></trkpt><trkpt lat="38.87213428263764" lon="-9.277945477530983"><ele>217.5</ele><time>2026-04-26T07:59:47Z</time></trkpt><trkpt lat="38.872232349823044" lon="-9.277938640409122"><ele>219.0</ele><time>2026-04-26T07:59:48Z</time></trkpt><trkpt lat="38.872346433131" lon="-9.277938206640284"><ele>219.0</ele><time>2026-04-26T07:59:49Z</time></trkpt><trkpt lat="38.87246604540947" lon="-9.277935459012433"><ele>219.0</ele><time>2026-04-26T07:59:50Z</time></trkpt><trkpt lat="38.87258500977771" lon="-9.277941212865004"><ele>219.0</ele><time>2026-04-26T07:59:51Z</time></trkpt><trkpt lat="38.87271272378886" lon="-9.277952333339694"><ele>219.0</ele><time>2026-04-26T07:59:52Z</time></trkpt><trkpt lat="38.872831558282456" lon="-9.277969055350768"><ele>220.0</ele><time>2026-04-26T07:59:53Z</time></trkpt><trkpt lat="38.87296144482443" lon="-9.277973198737763"><ele>221.0</ele><time>2026-04-26T07:59:54Z</time></trkpt><trkpt lat="38.873084720649" lon="-9.2780236717142"><ele>222.0</ele><time>2026-04-26T07:59:55Z</time></trkpt><trkpt lat="38.87323514959367" lon="-9.278070790752638"><ele>223.0</ele><time>2026-04-26T07:59:56Z</time></trkpt><trkpt lat="38.87335515178158" lon="-9.278123856718048"><ele>220.60000000000002</ele><time>2026-04-26T07:59:57Z</time></trkpt><trkpt lat="38.873457035913276" lon="-9.278137712120168"><ele>218.20000000000002</ele><time>2026-04-26T07:59:58Z</time></trkpt><trkpt lat="38.873545368809395" lon="-9.27814763387692"><ele>215.8</ele><time>2026-04-26T07:59:59Z</time></trkpt><trkpt lat="38.8736293814547" lon="-9.278153324994653"><ele>213.4</ele><time>2026-04-26T08:00:00Z</time></trkpt><trkpt lat="38.873720691114684" lon="-9.278168179891793"><ele>211.0</ele><time>2026-04-26T08:00:01Z</time></trkpt><trkpt lat="38.873807508572945" lon="-9.278168731695349"><ele>210.99999999999997</ele><time>2026-04-26T08:00:02Z</time></trkpt><trkpt lat="38.873874855115105" lon="-9.278185941943729"><ele>211.0</ele><time>2026-04-26T08:00:03Z</time></trkpt><trkpt lat="38.873941208304075" lon="-9.278207073286355"><ele>211.0</ele><time>2026-04-26T08:00:04Z</time></trkpt><trkpt lat="38.874024760169796" lon="-9.278215887045004"><ele>211.0</ele><time>2026-04-26T08:00:05Z</time></trkpt><trkpt lat="38.874114378919245" lon="-9.278211704388923"><ele>210.99999999999997</ele><time>2026-04-26T08:00:06Z</time></trkpt><trkpt lat="38.87418844352028" lon="-9.278214921995835"><ele>211.0</ele><time>2026-04-26T08:00:07Z</time></trkpt><trkpt lat="38.874268196407066" lon="-9.27823205676468"><ele>210.8</ele><time>2026-04-26T08:00:08Z</time></trkpt><trkpt lat="38.87436816403786" lon="-9.278228877655373"><ele>210.60000000000002</ele><time>2026-04-26T08:00:09Z</time></trkpt><trkpt lat="38.87447577636681" lon="-9.278227490785826"><ele>210.4</ele><time>2026-04-26T08:00:10Z</time></trkpt><trkpt lat="38.87458617102625" lon="-9.278216738076024"><ele>210.2</ele><time>2026-04-26T08:00:11Z</time></trkpt><trkpt lat="38.874713732061586" lon="-9.278201102129868"><ele>210.0</ele><time>2026-04-26T08:00:12Z</time></trkpt><trkpt lat="38.87486192315439" lon="-9.278203481113161"><ele>210.0</ele><time>2026-04-26T08:00:13Z</time></trkpt><trkpt lat="38.87502154059652" lon="-9.27820558329384"><ele>210.0</ele><time>2026-04-26T08:00:14Z</time></trkpt><trkpt lat="38.87519035358767" lon="-9.278218367503085"><ele>210.0</ele><time>2026-04-26T08:00:15Z</time></trkpt><trkpt lat="38.87532040964046" lon="-9.278154866075521"><ele>211.0</ele><time>2026-04-26T08:00:16Z</time></trkpt><trkpt lat="38.875465634112146" lon="-9.27810541400294"><ele>212.0</ele><time>2026-04-26T08:00:17Z</time></trkpt><trkpt lat="38.875578838017454" lon="-9.278071979181828"><ele>213.0</ele><time>2026-04-26T08:00:18Z</time></trkpt><trkpt lat="38.87569266714229" lon="-9.278069418928908"><ele>214.0</ele><time>2026-04-26T08:00:19Z</time></trkpt><trkpt lat="38.87584237417365" lon="-9.278082719744472"><ele>214.0</ele><time>2026-04-26T08:00:20Z</time></trkpt><trkpt lat="38.87600925719331" lon="-9.278159554592214"><ele>214.0</ele><time>2026-04-26T08:00:21Z</time></trkpt><trkpt lat="38.87617355315878" lon="-9.278204544341996"><ele>214.0</ele><time>2026-04-26T08:00:22Z</time></trkpt><trkpt lat="38.87631340967595" lon="-9.27817921334463"><ele>214.0</ele><time>2026-04-26T08:00:23Z</time></trkpt><trkpt lat="38.8764325461613" lon="-9.278192050912223"><ele>213.99999999999997</ele><time>2026-04-26T08:00:24Z</time></trkpt><trkpt lat="38.87653565003619" lon="-9.278174277117575"><ele>213.99999999999997</ele><time>2026-04-26T08:00:25Z</time></trkpt><trkpt lat="38.876628650316256" lon="-9.278162854740886"><ele>214.0</ele><time>2026-04-26T08:00:26Z</time></trkpt><trkpt lat="38.876712329983405" lon="-9.278157052910691"><ele>214.0</ele><time>2026-04-26T08:00:27Z</time></trkpt><trkpt lat="38.87677854724663" lon="-9.278145195263793"><ele>214.2</ele><time>2026-04-26T08:00:28Z</time></trkpt><trkpt lat="38.876894726033015" lon="-9.27812328590408"><ele>214.39999999999998</ele><time>2026-04-26T08:00:30Z</time></trkpt><trkpt lat="38.876994615073755" lon="-9.278113686879795"><ele>214.6</ele><time>2026-04-26T08:00:32Z</time></trkpt><trkpt lat="38.87709831182235" lon="-9.278100384165521"><ele>214.8</ele><time>2026-04-26T08:00:35Z</time></trkpt><trkpt lat="38.87717213740084" lon="-9.278088336772715"><ele>215.0</ele><time>2026-04-26T08:00:36Z</time></trkpt><trkpt lat="38.87726171695674" lon="-9.27806028195746"><ele>215.5</ele><time>2026-04-26T08:00:37Z</time></trkpt><trkpt lat="38.877356602764266" lon="-9.278055692025088"><ele>216.0</ele><time>2026-04-26T08:00:38Z</time></trkpt><trkpt lat="38.87745699225826" lon="-9.278049403598327"><ele>216.5</ele><time>2026-04-26T08:00:39Z</time></trkpt><trkpt lat="38.8775688053367" lon="-9.278043459264692"><ele>217.0</ele><time>2026-04-26T08:00:40Z</time></trkpt><trkpt lat="38.87770518231062" lon="-9.2780999580086"><ele>217.25</ele><time>2026-04-26T08:00:41Z</time></trkpt><trkpt lat="38.87785307610593" lon="-9.278190072631572"><ele>217.5</ele><time>2026-04-26T08:00:42Z</time></trkpt><trkpt lat="38.877980387822866" lon="-9.278225592562539"><ele>217.75</ele><time>2026-04-26T08:00:43Z</time></trkpt><trkpt lat="38.878077590220386" lon="-9.278270834025351"><ele>218.0</ele><time>2026-04-26T08:00:44Z</time></trkpt><trkpt lat="38.878153634555176" lon="-9.27827203588173"><ele>218.00000000000003</ele><time>2026-04-26T08:00:45Z</time></trkpt><trkpt lat="38.878235910223125" lon="-9.278294235962019"><ele>218.0</ele><time>2026-04-26T08:00:47Z</time></trkpt><trkpt lat="38.87828915561224" lon="-9.278351555971536"><ele>218.0</ele><time>2026-04-26T08:02:02Z</time></trkpt><trkpt lat="38.87822310422389" lon="-9.278330196052258"><ele>218.0</ele><time>2026-04-26T08:14:06Z</time></trkpt><trkpt lat="38.87830517125789" lon="-9.278318081367855"><ele>218.00000000000003</ele><time>2026-04-26T08:18:46Z</time></trkpt><trkpt lat="38.878404151264" lon="-9.278319873040015"><ele>218.0</ele><time>2026-04-26T08:18:51Z</time></trkpt><trkpt lat="38.87845596940892" lon="-9.278204876790108"><ele>218.2</ele><time>2026-04-26T08:18:52.999Z</time></trkpt><trkpt lat="38.87852183549694" lon="-9.278060992960311"><ele>218.4</ele><time>2026-04-26T08:18:54.999Z</time></trkpt><trkpt lat="38.878576796997905" lon="-9.277958625474481"><ele>218.59999999999997</ele><time>2026-04-26T08:18:56.999Z</time></trkpt><trkpt lat="38.87861977699443" lon="-9.277869790892327"><ele>218.79999999999998</ele><time>2026-04-26T08:18:57.999Z</time></trkpt><trkpt lat="38.878671049434274" lon="-9.277778735120448"><ele>219.0</ele><time>2026-04-26T08:18:58.999Z</time></trkpt><trkpt lat="38.87871112143743" lon="-9.277691417300076"><ele>219.0</ele><time>2026-04-26T08:18:59.999Z</time></trkpt><trkpt lat="38.87874135342951" lon="-9.277619549425555"><ele>218.99999999999997</ele><time>2026-04-26T08:19:00.999Z</time></trkpt><trkpt lat="38.878794652638476" lon="-9.277527679056695"><ele>218.99999999999997</ele><time>2026-04-26T08:19:02.999Z</time></trkpt><trkpt lat="38.878854134369604" lon="-9.277407895698042"><ele>219.0</ele><time>2026-04-26T08:19:04.999Z</time></trkpt><trkpt lat="38.87890237870218" lon="-9.277318138914552"><ele>219.0</ele><time>2026-04-26T08:19:06.999Z</time></trkpt><trkpt lat="38.87904863095214" lon="-9.277433421676372"><ele>219.0</ele><time>2026-04-26T08:19:08.999Z</time></trkpt><trkpt lat="38.879151944529156" lon="-9.277553378476187"><ele>218.99999999999997</ele><time>2026-04-26T08:19:10.999Z</time></trkpt><trkpt lat="38.87922360535271" lon="-9.277614028219494"><ele>218.99999999999997</ele><time>2026-04-26T08:19:11.999Z</time></trkpt><trkpt lat="38.879312829688246" lon="-9.277603656089754"><ele>219.0</ele><time>2026-04-26T08:19:12.999Z</time></trkpt><trkpt lat="38.87941111920207" lon="-9.277624955158235"><ele>219.0</ele><time>2026-04-26T08:19:13.999Z</time></trkpt><trkpt lat="38.87951804653672" lon="-9.277618378569265"><ele>219.33333333333334</ele><time>2026-04-26T08:19:14.999Z</time></trkpt><trkpt lat="38.87960388221867" lon="-9.277631542653861"><ele>219.66666666666669</ele><time>2026-04-26T08:19:15.999Z</time></trkpt><trkpt lat="38.87967052166902" lon="-9.277639514545942"><ele>220.0</ele><time>2026-04-26T08:19:16.999Z</time></trkpt><trkpt lat="38.87973982652123" lon="-9.27764685907202"><ele>220.33333333333334</ele><time>2026-04-26T08:19:17.999Z</time></trkpt><trkpt lat="38.87980394921583" lon="-9.277615690137578"><ele>220.66666666666669</ele><time>2026-04-26T08:19:18.999Z</time></trkpt><trkpt lat="38.87987340663245" lon="-9.277577895616076"><ele>221.0</ele><time>2026-04-26T08:19:19.999Z</time></trkpt><trkpt lat="38.879956076685566" lon="-9.27752766839435"><ele>221.0</ele><time>2026-04-26T08:19:20.999Z</time></trkpt><trkpt lat="38.88004452502111" lon="-9.27745463159956"><ele>221.00000000000003</ele><time>2026-04-26T08:19:21.999Z</time></trkpt><trkpt lat="38.8801308716294" lon="-9.277383395370682"><ele>221.00000000000003</ele><time>2026-04-26T08:19:22.999Z</time></trkpt><trkpt lat="38.880209537081186" lon="-9.277303017265472"><ele>221.0</ele><time>2026-04-26T08:19:23.999Z</time></trkpt><trkpt lat="38.88025385961193" lon="-9.277201728198264"><ele>221.0</ele><time>2026-04-26T08:19:24.999Z</time></trkpt><trkpt lat="38.880334907178806" lon="-9.277111900128483"><ele>222.50000000000003</ele><time>2026-04-26T08:19:25.999Z</time></trkpt><trkpt lat="38.88041596292884" lon="-9.277036512270167"><ele>224.0</ele><time>2026-04-26T08:19:26.999Z</time></trkpt><trkpt lat="38.88050200029106" lon="-9.27698515339333"><ele>225.5</ele><time>2026-04-26T08:19:27.999Z</time></trkpt><trkpt lat="38.88057024070998" lon="-9.2769724678733"><ele>227.0</ele><time>2026-04-26T08:19:28.999Z</time></trkpt><trkpt lat="38.88064175754005" lon="-9.27696455383995"><ele>228.50000000000003</ele><time>2026-04-26T08:19:29.999Z</time></trkpt><trkpt lat="38.88071558857514" lon="-9.276981684877018"><ele>230.0</ele><time>2026-04-26T08:19:30.999Z</time></trkpt><trkpt lat="38.88080093496529" lon="-9.276996008695198"><ele>230.0</ele><time>2026-04-26T08:19:31.999Z</time></trkpt><trkpt lat="38.88088031298076" lon="-9.276949867828819"><ele>230.0</ele><time>2026-04-26T08:19:32.999Z</time></trkpt><trkpt lat="38.880972088021714" lon="-9.276939855958348"><ele>230.0</ele><time>2026-04-26T08:19:33.999Z</time></trkpt><trkpt lat="38.88105676911515" lon="-9.27691729363121"><ele>230.0</ele><time>2026-04-26T08:19:34.999Z</time></trkpt><trkpt lat="38.88114650362164" lon="-9.27695106887193"><ele>230.0</ele><time>2026-04-26T08:19:35.999Z</time></trkpt><trkpt lat="38.881255502660714" lon="-9.276981054868617"><ele>231.33333333333334</ele><time>2026-04-26T08:19:36.999Z</time></trkpt><trkpt lat="38.8813379240653" lon="-9.27700512971189"><ele>232.66666666666669</ele><time>2026-04-26T08:19:37.999Z</time></trkpt><trkpt lat="38.88142721126142" lon="-9.2770076264283"><ele>234.0</ele><time>2026-04-26T08:19:38.999Z</time></trkpt><trkpt lat="38.881503957028144" lon="-9.276952194021183"><ele>235.33333333333331</ele><time>2026-04-26T08:19:39.999Z</time></trkpt><trkpt lat="38.881565534942425" lon="-9.276889944401523"><ele>236.66666666666666</ele><time>2026-04-26T08:19:40.999Z</time></trkpt><trkpt lat="38.88163972175573" lon="-9.276827401010971"><ele>238.0</ele><time>2026-04-26T08:19:41.999Z</time></trkpt><trkpt lat="38.88171932989574" lon="-9.276755561287908"><ele>238.60000000000002</ele><time>2026-04-26T08:19:42.999Z</time></trkpt><trkpt lat="38.88180115586467" lon="-9.276683304610565"><ele>239.20000000000002</ele><time>2026-04-26T08:19:43.999Z</time></trkpt><trkpt lat="38.88189121707708" lon="-9.276608801489415"><ele>239.8</ele><time>2026-04-26T08:19:44.999Z</time></trkpt><trkpt lat="38.881983884272444" lon="-9.276560261787404"><ele>240.4</ele><time>2026-04-26T08:19:45.999Z</time></trkpt><trkpt lat="38.88205544793011" lon="-9.276506470733105"><ele>241.0</ele><time>2026-04-26T08:19:46.999Z</time></trkpt><trkpt lat="38.88211797406289" lon="-9.27646963286858"><ele>241.0</ele><time>2026-04-26T08:19:47.999Z</time></trkpt><trkpt lat="38.882185368302586" lon="-9.276493595956783"><ele>241.00000000000003</ele><time>2026-04-26T08:19:48.999Z</time></trkpt><trkpt lat="38.88227422772977" lon="-9.276538223868947"><ele>241.00000000000003</ele><time>2026-04-26T08:19:49.999Z</time></trkpt><trkpt lat="38.88236998795067" lon="-9.276600239299755"><ele>241.0</ele><time>2026-04-26T08:19:50.999Z</time></trkpt><trkpt lat="38.88246580620821" lon="-9.276655705028572"><ele>241.0</ele><time>2026-04-26T08:19:51.999Z</time></trkpt><trkpt lat="38.882552223530524" lon="-9.276739418010658"><ele>242.20000000000002</ele><time>2026-04-26T08:19:52.999Z</time></trkpt><trkpt lat="38.8826299222821" lon="-9.276842036081426"><ele>243.40000000000003</ele><time>2026-04-26T08:19:53.999Z</time></trkpt><trkpt lat="38.88268533081381" lon="-9.2769655841555"><ele>244.6</ele><time>2026-04-26T08:19:54.999Z</time></trkpt><trkpt lat="38.88275834742958" lon="-9.277072758201768"><ele>245.8</ele><time>2026-04-26T08:19:55.999Z</time></trkpt><trkpt lat="38.88282478581591" lon="-9.277188397371992"><ele>247.0</ele><time>2026-04-26T08:19:57Z</time></trkpt><trkpt lat="38.88287327631404" lon="-9.277318179104515"><ele>247.0</ele><time>2026-04-26T08:19:58Z</time></trkpt><trkpt lat="38.88292128332059" lon="-9.277445760602689"><ele>247.0</ele><time>2026-04-26T08:19:59Z</time></trkpt><trkpt lat="38.88296145722157" lon="-9.277551513631893"><ele>247.0</ele><time>2026-04-26T08:20:00Z</time></trkpt><trkpt lat="38.88301838913228" lon="-9.277661367982338"><ele>247.0</ele><time>2026-04-26T08:20:02Z</time></trkpt><trkpt lat="38.88311781381733" lon="-9.27755153486808"><ele>247.0</ele><time>2026-04-26T08:20:05Z</time></trkpt><trkpt lat="38.88320339933392" lon="-9.277512708552665"><ele>247.0</ele><time>2026-04-26T08:20:06Z</time></trkpt><trkpt lat="38.88327718130463" lon="-9.277452961922684"><ele>247.0</ele><time>2026-04-26T08:20:07Z</time></trkpt><trkpt lat="38.883342452552604" lon="-9.277382964888323"><ele>247.0</ele><time>2026-04-26T08:20:08Z</time></trkpt><trkpt lat="38.88343958308802" lon="-9.277309225500762"><ele>247.0</ele><time>2026-04-26T08:20:09Z</time></trkpt><trkpt lat="38.88355765232274" lon="-9.277221666062916"><ele>247.0</ele><time>2026-04-26T08:20:10Z</time></trkpt><trkpt lat="38.88368904168779" lon="-9.277137943872965"><ele>250.33333333333331</ele><time>2026-04-26T08:20:11Z</time></trkpt><trkpt lat="38.88382081204931" lon="-9.27703241319055"><ele>253.66666666666669</ele><time>2026-04-26T08:20:12Z</time></trkpt><trkpt lat="38.88396574720657" lon="-9.276918358079273"><ele>257.0</ele><time>2026-04-26T08:20:13Z</time></trkpt><trkpt lat="38.8841160733697" lon="-9.276813877100947"><ele>255.66666666666669</ele><time>2026-04-26T08:20:14Z</time></trkpt><trkpt lat="38.88426455547033" lon="-9.276689403006628"><ele>254.33333333333331</ele><time>2026-04-26T08:20:15Z</time></trkpt><trkpt lat="38.8844007984755" lon="-9.276547308921392"><ele>253.0</ele><time>2026-04-26T08:20:16Z</time></trkpt><trkpt lat="38.88451851964689" lon="-9.276443472622478"><ele>254.0</ele><time>2026-04-26T08:20:17Z</time></trkpt><trkpt lat="38.884622513283986" lon="-9.27634489694505"><ele>255.0</ele><time>2026-04-26T08:20:18Z</time></trkpt><trkpt lat="38.88470922834676" lon="-9.276247277064964"><ele>256.0</ele><time>2026-04-26T08:20:19Z</time></trkpt><trkpt lat="38.884780913859" lon="-9.276136262313749"><ele>257.0</ele><time>2026-04-26T08:20:20Z</time></trkpt><trkpt lat="38.88483966407733" lon="-9.276012599951812"><ele>257.0</ele><time>2026-04-26T08:20:21Z</time></trkpt><trkpt lat="38.88488939013827" lon="-9.275912053280567"><ele>257.0</ele><time>2026-04-26T08:20:22Z</time></trkpt><trkpt lat="38.884936370527576" lon="-9.275818217952523"><ele>257.0</ele><time>2026-04-26T08:20:23Z</time></trkpt><trkpt lat="38.88501281297713" lon="-9.275735277365213"><ele>257.0</ele><time>2026-04-26T08:20:24Z</time></trkpt><trkpt lat="38.88508834734957" lon="-9.275622797123738"><ele>257.0</ele><time>2026-04-26T08:20:25Z</time></trkpt><trkpt lat="38.88517422187716" lon="-9.275519650169944"><ele>258.0</ele><time>2026-04-26T08:20:26Z</time></trkpt><trkpt lat="38.885295089066126" lon="-9.275435477675689"><ele>259.0</ele><time>2026-04-26T08:20:27Z</time></trkpt><trkpt lat="38.885414255799766" lon="-9.275326878675012"><ele>260.0</ele><time>2026-04-26T08:20:28Z</time></trkpt><trkpt lat="38.88553184767483" lon="-9.275189901557416"><ele>261.0</ele><time>2026-04-26T08:20:29Z</time></trkpt><trkpt lat="38.88564459052551" lon="-9.275035711899333"><ele>261.0</ele><time>2026-04-26T08:20:30Z</time></trkpt><trkpt lat="38.88575895459687" lon="-9.274914054798018"><ele>261.0</ele><time>2026-04-26T08:20:31Z</time></trkpt><trkpt lat="38.885868574292815" lon="-9.274800381706982"><ele>261.0</ele><time>2026-04-26T08:20:32Z</time></trkpt><trkpt lat="38.88597467182139" lon="-9.274707927305943"><ele>261.0</ele><time>2026-04-26T08:20:33Z</time></trkpt><trkpt lat="38.88606977694656" lon="-9.274638305282075"><ele>262.75</ele><time>2026-04-26T08:20:34Z</time></trkpt><trkpt lat="38.88617844377065" lon="-9.274588939194743"><ele>264.5</ele><time>2026-04-26T08:20:35Z</time></trkpt><trkpt lat="38.88630550193905" lon="-9.274611212505"><ele>266.25</ele><time>2026-04-26T08:20:36Z</time></trkpt><trkpt lat="38.88641782724985" lon="-9.274666818402604"><ele>268.0</ele><time>2026-04-26T08:20:37Z</time></trkpt><trkpt lat="38.88653293777445" lon="-9.274665464951132"><ele>268.0</ele><time>2026-04-26T08:20:38Z</time></trkpt><trkpt lat="38.88665023554692" lon="-9.274658911748237"><ele>268.0</ele><time>2026-04-26T08:20:39Z</time></trkpt><trkpt lat="38.88675920376924" lon="-9.27463139887745"><ele>268.0</ele><time>2026-04-26T08:20:40Z</time></trkpt><trkpt lat="38.88687224208915" lon="-9.274592523998784"><ele>268.0</ele><time>2026-04-26T08:20:41Z</time></trkpt><trkpt lat="38.8869832772601" lon="-9.274551606977443"><ele>268.0</ele><time>2026-04-26T08:20:42Z</time></trkpt><trkpt lat="38.887072648050705" lon="-9.274503786433202"><ele>268.0</ele><time>2026-04-26T08:20:43Z</time></trkpt><trkpt lat="38.88715578388375" lon="-9.274440679963305"><ele>268.0</ele><time>2026-04-26T08:20:44Z</time></trkpt><trkpt lat="38.887231497716805" lon="-9.274380155752583"><ele>268.0</ele><time>2026-04-26T08:20:45Z</time></trkpt><trkpt lat="38.88731448486432" lon="-9.274308299475667"><ele>268.0</ele><time>2026-04-26T08:20:46Z</time></trkpt><trkpt lat="38.88740354214002" lon="-9.274233602077555"><ele>268.0</ele><time>2026-04-26T08:20:47Z</time></trkpt><trkpt lat="38.88749540189908" lon="-9.274155279109978"><ele>268.0</ele><time>2026-04-26T08:20:48Z</time></trkpt><trkpt lat="38.88758020509662" lon="-9.27406933452367"><ele>268.0</ele><time>2026-04-26T08:20:49Z</time></trkpt><trkpt lat="38.88767080386673" lon="-9.273988511239205"><ele>268.0</ele><time>2026-04-26T08:20:50Z</time></trkpt><trkpt lat="38.887751927882306" lon="-9.273881957124882"><ele>268.0</ele><time>2026-04-26T08:20:51Z</time></trkpt><trkpt lat="38.88781629275484" lon="-9.273764755474545"><ele>270.0</ele><time>2026-04-26T08:20:52Z</time></trkpt><trkpt lat="38.88788404352511" lon="-9.273667754753331"><ele>272.0</ele><time>2026-04-26T08:20:53Z</time></trkpt><trkpt lat="38.88795270537407" lon="-9.273562479678722"><ele>274.0</ele><time>2026-04-26T08:20:54Z</time></trkpt><trkpt lat="38.88802695717037" lon="-9.273460694084148"><ele>276.0</ele><time>2026-04-26T08:20:55Z</time></trkpt><trkpt lat="38.88808279996572" lon="-9.273357463251182"><ele>278.0</ele><time>2026-04-26T08:20:56Z</time></trkpt><trkpt lat="38.88818380960425" lon="-9.273293620529813"><ele>278.0</ele><time>2026-04-26T08:20:57Z</time></trkpt><trkpt lat="38.88830509577763" lon="-9.273272251257346"><ele>278.0</ele><time>2026-04-26T08:20:58Z</time></trkpt><trkpt lat="38.88838776716207" lon="-9.273163410278464"><ele>278.0</ele><time>2026-04-26T08:20:59Z</time></trkpt><trkpt lat="38.88846452170133" lon="-9.27306003438781"><ele>278.0</ele><time>2026-04-26T08:21:00Z</time></trkpt><trkpt lat="38.88855899407944" lon="-9.272939817963147"><ele>278.25</ele><time>2026-04-26T08:21:01Z</time></trkpt><trkpt lat="38.88866924448237" lon="-9.27282782952463"><ele>278.5</ele><time>2026-04-26T08:21:02Z</time></trkpt><trkpt lat="38.88877407913612" lon="-9.272719841188142"><ele>278.75</ele><time>2026-04-26T08:21:03Z</time></trkpt><trkpt lat="38.88887208618657" lon="-9.272603678041097"><ele>279.0</ele><time>2026-04-26T08:21:03.999Z</time></trkpt><trkpt lat="38.8889623497593" lon="-9.27247953653584"><ele>279.0</ele><time>2026-04-26T08:21:04.999Z</time></trkpt><trkpt lat="38.88904195702046" lon="-9.272361137211819"><ele>279.0</ele><time>2026-04-26T08:21:05.999Z</time></trkpt><trkpt lat="38.88909979147149" lon="-9.272268723248766"><ele>279.0</ele><time>2026-04-26T08:21:06.999Z</time></trkpt><trkpt lat="38.88916502720971" lon="-9.27214981042937"><ele>279.0</ele><time>2026-04-26T08:21:07.999Z</time></trkpt><trkpt lat="38.889223443437736" lon="-9.272025335340425"><ele>279.0</ele><time>2026-04-26T08:21:08.999Z</time></trkpt><trkpt lat="38.88927318725099" lon="-9.271900755197022"><ele>279.0</ele><time>2026-04-26T08:21:09.999Z</time></trkpt><trkpt lat="38.889309926370125" lon="-9.27180484225706"><ele>279.0</ele><time>2026-04-26T08:21:10.999Z</time></trkpt><trkpt lat="38.889338042163715" lon="-9.271727989230323"><ele>279.0</ele><time>2026-04-26T08:21:11.999Z</time></trkpt><trkpt lat="38.889365455788045" lon="-9.271651824392228"><ele>279.0</ele><time>2026-04-26T08:21:12.999Z</time></trkpt><trkpt lat="38.88941462238027" lon="-9.271509592237933"><ele>279.0</ele><time>2026-04-26T08:21:14.999Z</time></trkpt><trkpt lat="38.88944363153359" lon="-9.271425674183643"><ele>279.0</ele><time>2026-04-26T08:21:16.999Z</time></trkpt><trkpt lat="38.88954499063217" lon="-9.271497485245622"><ele>279.0</ele><time>2026-04-26T08:21:17.999Z</time></trkpt><trkpt lat="38.8896111493154" lon="-9.271538528434728"><ele>279.0</ele><time>2026-04-26T08:21:18.999Z</time></trkpt><trkpt lat="38.889675294337685" lon="-9.271540956595777"><ele>279.0</ele><time>2026-04-26T08:21:19.999Z</time></trkpt><trkpt lat="38.88977121003877" lon="-9.27155291964951"><ele>279.0</ele><time>2026-04-26T08:21:20.999Z</time></trkpt><trkpt lat="38.889874498056415" lon="-9.271537880364372"><ele>279.0</ele><time>2026-04-26T08:21:21.999Z</time></trkpt><trkpt lat="38.889981019375746" lon="-9.271536235151277"><ele>279.0</ele><time>2026-04-26T08:21:22.999Z</time></trkpt><trkpt lat="38.89009740397626" lon="-9.271529729776507"><ele>278.25</ele><time>2026-04-26T08:21:23.999Z</time></trkpt><trkpt lat="38.89023917504018" lon="-9.271535302831378"><ele>277.5</ele><time>2026-04-26T08:21:24.999Z</time></trkpt><trkpt lat="38.89038605954288" lon="-9.271522608269153"><ele>276.75</ele><time>2026-04-26T08:21:25.999Z</time></trkpt><trkpt lat="38.890504109073056" lon="-9.271514085582897"><ele>276.0</ele><time>2026-04-26T08:21:26.999Z</time></trkpt><trkpt lat="38.89060218657442" lon="-9.271544235149607"><ele>276.0</ele><time>2026-04-26T08:21:27.999Z</time></trkpt><trkpt lat="38.89068597488179" lon="-9.271630260846182"><ele>276.0</ele><time>2026-04-26T08:21:28.999Z</time></trkpt><trkpt lat="38.89078679383249" lon="-9.271694734191854"><ele>276.0</ele><time>2026-04-26T08:21:29.999Z</time></trkpt><trkpt lat="38.89090009289459" lon="-9.271758588580802"><ele>276.0</ele><time>2026-04-26T08:21:30.999Z</time></trkpt><trkpt lat="38.89103084302808" lon="-9.271829105596721"><ele>276.5</ele><time>2026-04-26T08:21:31.999Z</time></trkpt><trkpt lat="38.891153863274205" lon="-9.271910976436278"><ele>277.0</ele><time>2026-04-26T08:21:32.999Z</time></trkpt><trkpt lat="38.89127908475043" lon="-9.271946200208962"><ele>277.5</ele><time>2026-04-26T08:21:33.999Z</time></trkpt><trkpt lat="38.89140755604341" lon="-9.271984043094312"><ele>278.0</ele><time>2026-04-26T08:21:34.999Z</time></trkpt><trkpt lat="38.89154301341956" lon="-9.272022724494603"><ele>278.0</ele><time>2026-04-26T08:21:35.999Z</time></trkpt><trkpt lat="38.89169866278115" lon="-9.272025516369737"><ele>278.0</ele><time>2026-04-26T08:21:36.999Z</time></trkpt><trkpt lat="38.89184914038242" lon="-9.272045383563778"><ele>278.0</ele><time>2026-04-26T08:21:37.999Z</time></trkpt><trkpt lat="38.89199856742076" lon="-9.272052148452259"><ele>278.25</ele><time>2026-04-26T08:21:38.999Z</time></trkpt><trkpt lat="38.89213393560406" lon="-9.272132052909745"><ele>278.5</ele><time>2026-04-26T08:21:39.999Z</time></trkpt><trkpt lat="38.89227013820516" lon="-9.272143517191424"><ele>278.75</ele><time>2026-04-26T08:21:40.999Z</time></trkpt><trkpt lat="38.89240503760032" lon="-9.272108680794679"><ele>279.0</ele><time>2026-04-26T08:21:41.999Z</time></trkpt><trkpt lat="38.892552772991976" lon="-9.272097568552516"><ele>278.0</ele><time>2026-04-26T08:21:42.999Z</time></trkpt><trkpt lat="38.89271166323868" lon="-9.272041843975952"><ele>277.0</ele><time>2026-04-26T08:21:43.999Z</time></trkpt><trkpt lat="38.89288020407215" lon="-9.272035365145445"><ele>276.0</ele><time>2026-04-26T08:21:44.999Z</time></trkpt><trkpt lat="38.893059742023986" lon="-9.272050071275123"><ele>276.0</ele><time>2026-04-26T08:21:45.999Z</time></trkpt><trkpt lat="38.8932489517609" lon="-9.272043159683014"><ele>276.0</ele><time>2026-04-26T08:21:46.999Z</time></trkpt><trkpt lat="38.89343727164971" lon="-9.272011461373362"><ele>276.0</ele><time>2026-04-26T08:21:47.999Z</time></trkpt><trkpt lat="38.89363680122038" lon="-9.271997754433798"><ele>275.0</ele><time>2026-04-26T08:21:48.999Z</time></trkpt><trkpt lat="38.89383958941041" lon="-9.272021417256251"><ele>274.0</ele><time>2026-04-26T08:21:49.999Z</time></trkpt><trkpt lat="38.89404529313983" lon="-9.272013240506537"><ele>273.0</ele><time>2026-04-26T08:21:50.999Z</time></trkpt><trkpt lat="38.89424347267471" lon="-9.272015141861845"><ele>274.0</ele><time>2026-04-26T08:21:51.999Z</time></trkpt><trkpt lat="38.8944371208898" lon="-9.271988365074648"><ele>275.0</ele><time>2026-04-26T08:21:52.999Z</time></trkpt><trkpt lat="38.89462544969971" lon="-9.271963982548069"><ele>276.0</ele><time>2026-04-26T08:21:53.999Z</time></trkpt><trkpt lat="38.894778621043756" lon="-9.271948470536337"><ele>276.0</ele><time>2026-04-26T08:21:54.999Z</time></trkpt><trkpt lat="38.894915469349606" lon="-9.27196409285621"><ele>276.0</ele><time>2026-04-26T08:21:55.999Z</time></trkpt><trkpt lat="38.895040747740396" lon="-9.27201472088532"><ele>276.0</ele><time>2026-04-26T08:21:56.999Z</time></trkpt><trkpt lat="38.895155703392355" lon="-9.272065731646556"><ele>276.0</ele><time>2026-04-26T08:21:57.999Z</time></trkpt><trkpt lat="38.89525628617911" lon="-9.272096633115973"><ele>276.6</ele><time>2026-04-26T08:21:58.999Z</time></trkpt><trkpt lat="38.89534635874868" lon="-9.272125570935799"><ele>277.20000000000005</ele><time>2026-04-26T08:21:59.999Z</time></trkpt><trkpt lat="38.89542850114583" lon="-9.272146277439694"><ele>277.79999999999995</ele><time>2026-04-26T08:22:00.999Z</time></trkpt><trkpt lat="38.8955047513774" lon="-9.272154407992286"><ele>278.4</ele><time>2026-04-26T08:22:01.999Z</time></trkpt><trkpt lat="38.8955818381204" lon="-9.272157539908658"><ele>279.0</ele><time>2026-04-26T08:22:03Z</time></trkpt><trkpt lat="38.89570311123908" lon="-9.272147102570278"><ele>279.0</ele><time>2026-04-26T08:22:05Z</time></trkpt><trkpt lat="38.89581298811077" lon="-9.27218027793669"><ele>279.0</ele><time>2026-04-26T08:22:07Z</time></trkpt><trkpt lat="38.89589505739482" lon="-9.272210014234645"><ele>279.0</ele><time>2026-04-26T08:22:09Z</time></trkpt><trkpt lat="38.89599244835548" lon="-9.272245642729239"><ele>279.0</ele><time>2026-04-26T08:22:11Z</time></trkpt><trkpt lat="38.89605533620022" lon="-9.272268266781841"><ele>279.0</ele><time>2026-04-26T08:22:12Z</time></trkpt><trkpt lat="38.89611785207679" lon="-9.272294380450937"><ele>279.0</ele><time>2026-04-26T08:22:13Z</time></trkpt><trkpt lat="38.89618225690644" lon="-9.27231946958808"><ele>279.59999999999997</ele><time>2026-04-26T08:22:14Z</time></trkpt><trkpt lat="38.89626406576414" lon="-9.2723352507153"><ele>280.2</ele><time>2026-04-26T08:22:15Z</time></trkpt><trkpt lat="38.89635217199653" lon="-9.27237702593254"><ele>280.79999999999995</ele><time>2026-04-26T08:22:16Z</time></trkpt><trkpt lat="38.896439400283725" lon="-9.27240151870078"><ele>281.4</ele><time>2026-04-26T08:22:17Z</time></trkpt><trkpt lat="38.89654968690811" lon="-9.27244446765577"><ele>282.0</ele><time>2026-04-26T08:22:18Z</time></trkpt><trkpt lat="38.896672425297865" lon="-9.27247534869411"><ele>282.75</ele><time>2026-04-26T08:22:19Z</time></trkpt><trkpt lat="38.89680181429876" lon="-9.272528584455772"><ele>283.5</ele><time>2026-04-26T08:22:20Z</time></trkpt><trkpt lat="38.89694618197683" lon="-9.272528402187975"><ele>284.25</ele><time>2026-04-26T08:22:21Z</time></trkpt><trkpt lat="38.89707353392065" lon="-9.272515505525599"><ele>285.0</ele><time>2026-04-26T08:22:22Z</time></trkpt><trkpt lat="38.89719892482372" lon="-9.272488718850873"><ele>285.0</ele><time>2026-04-26T08:22:23Z</time></trkpt><trkpt lat="38.897348640919596" lon="-9.272468784875134"><ele>285.0</ele><time>2026-04-26T08:22:24Z</time></trkpt><trkpt lat="38.89749890038324" lon="-9.272422206394664"><ele>285.0</ele><time>2026-04-26T08:22:25Z</time></trkpt><trkpt lat="38.897645762994955" lon="-9.272371041966"><ele>285.0</ele><time>2026-04-26T08:22:26Z</time></trkpt><trkpt lat="38.8978006557125" lon="-9.272304571722175"><ele>285.0</ele><time>2026-04-26T08:22:27Z</time></trkpt><trkpt lat="38.89796172676692" lon="-9.272231239096755"><ele>285.0</ele><time>2026-04-26T08:22:28Z</time></trkpt><trkpt lat="38.89813280945114" lon="-9.272177309062947"><ele>285.0</ele><time>2026-04-26T08:22:29Z</time></trkpt><trkpt lat="38.89830313710555" lon="-9.272096555872492"><ele>285.0</ele><time>2026-04-26T08:22:30Z</time></trkpt><trkpt lat="38.89848095298027" lon="-9.272039946369217"><ele>285.0</ele><time>2026-04-26T08:22:31Z</time></trkpt><trkpt lat="38.89864725206336" lon="-9.272005846768728"><ele>284.5</ele><time>2026-04-26T08:22:32Z</time></trkpt><trkpt lat="38.898792982732424" lon="-9.271990031968585"><ele>284.0</ele><time>2026-04-26T08:22:33Z</time></trkpt><trkpt lat="38.89892768721921" lon="-9.272004713393875"><ele>283.5</ele><time>2026-04-26T08:22:34Z</time></trkpt><trkpt lat="38.89906184335711" lon="-9.27204151090351"><ele>283.0</ele><time>2026-04-26T08:22:35Z</time></trkpt><trkpt lat="38.89919196417768" lon="-9.27206988636823"><ele>282.0</ele><time>2026-04-26T08:22:36Z</time></trkpt><trkpt lat="38.899332077905555" lon="-9.272093858042227"><ele>281.0</ele><time>2026-04-26T08:22:37Z</time></trkpt><trkpt lat="38.89945235056044" lon="-9.272166333476463"><ele>280.0</ele><time>2026-04-26T08:22:38Z</time></trkpt><trkpt lat="38.8995654403262" lon="-9.272283788778358"><ele>279.0</ele><time>2026-04-26T08:22:39Z</time></trkpt><trkpt lat="38.899700612380826" lon="-9.27232580893745"><ele>281.0</ele><time>2026-04-26T08:22:40Z</time></trkpt><trkpt lat="38.89984130209982" lon="-9.272336497804883"><ele>283.0</ele><time>2026-04-26T08:22:41Z</time></trkpt><trkpt lat="38.899995654264366" lon="-9.27234731871861"><ele>285.0</ele><time>2026-04-26T08:22:42Z</time></trkpt><trkpt lat="38.900149290783034" lon="-9.272381907339224"><ele>285.0</ele><time>2026-04-26T08:22:43Z</time></trkpt><trkpt lat="38.90031295511682" lon="-9.272389838041363"><ele>285.0</ele><time>2026-04-26T08:22:44Z</time></trkpt><trkpt lat="38.90045229130982" lon="-9.272464252136373"><ele>285.0</ele><time>2026-04-26T08:22:45Z</time></trkpt><trkpt lat="38.90058915098602" lon="-9.2725206477944"><ele>285.0</ele><time>2026-04-26T08:22:46Z</time></trkpt><trkpt lat="38.900704805470426" lon="-9.272568693416492"><ele>285.0</ele><time>2026-04-26T08:22:47Z</time></trkpt><trkpt lat="38.90080610510945" lon="-9.272626447059167"><ele>285.0</ele><time>2026-04-26T08:22:48Z</time></trkpt><trkpt lat="38.90089706006157" lon="-9.272663401886087"><ele>285.0</ele><time>2026-04-26T08:22:49Z</time></trkpt><trkpt lat="38.90098998531174" lon="-9.272696856371166"><ele>285.0</ele><time>2026-04-26T08:22:50Z</time></trkpt><trkpt lat="38.90108430001666" lon="-9.27273715332888"><ele>284.2</ele><time>2026-04-26T08:22:51Z</time></trkpt><trkpt lat="38.9011795581645" lon="-9.27277093289571"><ele>283.4</ele><time>2026-04-26T08:22:52Z</time></trkpt><trkpt lat="38.90127535062826" lon="-9.272810676414807"><ele>282.6</ele><time>2026-04-26T08:22:53Z</time></trkpt><trkpt lat="38.90136109311746" lon="-9.272854993139081"><ele>281.8</ele><time>2026-04-26T08:22:54Z</time></trkpt><trkpt lat="38.9014541427323" lon="-9.272906660815089"><ele>281.0</ele><time>2026-04-26T08:22:55Z</time></trkpt><trkpt lat="38.901536661180224" lon="-9.272955709402087"><ele>281.0</ele><time>2026-04-26T08:22:56Z</time></trkpt><trkpt lat="38.90161770163917" lon="-9.273010656003953"><ele>281.0</ele><time>2026-04-26T08:22:57Z</time></trkpt><trkpt lat="38.90170572004809" lon="-9.273058578549819"><ele>281.0</ele><time>2026-04-26T08:22:58Z</time></trkpt><trkpt lat="38.9017921498887" lon="-9.273107966337433"><ele>281.0</ele><time>2026-04-26T08:22:59Z</time></trkpt><trkpt lat="38.90187808006126" lon="-9.27315801554821"><ele>281.0</ele><time>2026-04-26T08:23:00Z</time></trkpt><trkpt lat="38.901959686191084" lon="-9.27318207947108"><ele>282.2</ele><time>2026-04-26T08:23:01Z</time></trkpt><trkpt lat="38.90204540666951" lon="-9.27322651830673"><ele>283.40000000000003</ele><time>2026-04-26T08:23:02Z</time></trkpt><trkpt lat="38.90213247992303" lon="-9.273284072487414"><ele>284.6</ele><time>2026-04-26T08:23:03Z</time></trkpt><trkpt lat="38.90222322189161" lon="-9.273325011112124"><ele>285.8</ele><time>2026-04-26T08:23:04Z</time></trkpt><trkpt lat="38.90231527246592" lon="-9.273370605111818"><ele>287.0</ele><time>2026-04-26T08:23:05Z</time></trkpt><trkpt lat="38.90239653427547" lon="-9.273419966276373"><ele>287.0</ele><time>2026-04-26T08:23:06Z</time></trkpt><trkpt lat="38.90248928376097" lon="-9.273463077301416"><ele>287.0</ele><time>2026-04-26T08:23:07Z</time></trkpt><trkpt lat="38.902589047967474" lon="-9.273511545171768"><ele>287.0</ele><time>2026-04-26T08:23:08Z</time></trkpt><trkpt lat="38.90268120114264" lon="-9.27352471846257"><ele>287.0</ele><time>2026-04-26T08:23:08.999Z</time></trkpt><trkpt lat="38.90277531845855" lon="-9.273529505540203"><ele>287.0</ele><time>2026-04-26T08:23:09.999Z</time></trkpt><trkpt lat="38.90287432163067" lon="-9.273503666205308"><ele>286.8</ele><time>2026-04-26T08:23:10.999Z</time></trkpt><trkpt lat="38.90296001606858" lon="-9.273483857717112"><ele>286.6</ele><time>2026-04-26T08:23:11.999Z</time></trkpt><trkpt lat="38.903041252052965" lon="-9.273544037446399"><ele>286.40000000000003</ele><time>2026-04-26T08:23:12.999Z</time></trkpt><trkpt lat="38.90310194998479" lon="-9.2736116356478"><ele>286.2</ele><time>2026-04-26T08:23:13.999Z</time></trkpt><trkpt lat="38.90319387429261" lon="-9.273708146743417"><ele>286.0</ele><time>2026-04-26T08:23:14.999Z</time></trkpt><trkpt lat="38.90328667433039" lon="-9.273800642318568"><ele>286.0</ele><time>2026-04-26T08:23:15.999Z</time></trkpt><trkpt lat="38.90333018853724" lon="-9.2738987103152"><ele>286.0</ele><time>2026-04-26T08:23:16.999Z</time></trkpt><trkpt lat="38.90337480824067" lon="-9.27398301574879"><ele>286.0</ele><time>2026-04-26T08:23:17.999Z</time></trkpt><trkpt lat="38.90343325506525" lon="-9.274089127330779"><ele>286.0</ele><time>2026-04-26T08:23:18.999Z</time></trkpt><trkpt lat="38.903493548576975" lon="-9.274192913389058"><ele>286.0</ele><time>2026-04-26T08:23:19.999Z</time></trkpt><trkpt lat="38.903553860942644" lon="-9.274294220120552"><ele>288.75</ele><time>2026-04-26T08:23:20.999Z</time></trkpt><trkpt lat="38.90362345852884" lon="-9.274399521144481"><ele>291.5</ele><time>2026-04-26T08:23:21.999Z</time></trkpt><trkpt lat="38.9037218587282" lon="-9.27450769280383"><ele>294.25</ele><time>2026-04-26T08:23:22.999Z</time></trkpt><trkpt lat="38.90380016124952" lon="-9.274632240895585"><ele>297.0</ele><time>2026-04-26T08:23:23.999Z</time></trkpt><trkpt lat="38.90392663056023" lon="-9.274689184768494"><ele>298.25</ele><time>2026-04-26T08:23:24.999Z</time></trkpt><trkpt lat="38.904055629055144" lon="-9.274772624928453"><ele>299.5</ele><time>2026-04-26T08:23:25.999Z</time></trkpt><trkpt lat="38.904190986948386" lon="-9.274861468091805"><ele>300.75</ele><time>2026-04-26T08:23:26.999Z</time></trkpt><trkpt lat="38.904320938637014" lon="-9.274963668937723"><ele>302.0</ele><time>2026-04-26T08:23:27.999Z</time></trkpt><trkpt lat="38.904462332543446" lon="-9.275061950107734"><ele>305.33333333333337</ele><time>2026-04-26T08:23:28.999Z</time></trkpt><trkpt lat="38.904612669636" lon="-9.27516229094118"><ele>308.6666666666667</ele><time>2026-04-26T08:23:29.999Z</time></trkpt><trkpt lat="38.90476889467505" lon="-9.27526815217317"><ele>312.0</ele><time>2026-04-26T08:23:30.999Z</time></trkpt><trkpt lat="38.904916229204446" lon="-9.275394402812504"><ele>312.0</ele><time>2026-04-26T08:23:31.999Z</time></trkpt><trkpt lat="38.90505525289955" lon="-9.275541206082718"><ele>312.0</ele><time>2026-04-26T08:23:32.999Z</time></trkpt><trkpt lat="38.90519692570572" lon="-9.275695807780572"><ele>312.0</ele><time>2026-04-26T08:23:33.999Z</time></trkpt><trkpt lat="38.90534415694515" lon="-9.275832757195973"><ele>317.3333333333333</ele><time>2026-04-26T08:23:34.999Z</time></trkpt><trkpt lat="38.905495592420735" lon="-9.275952640363753"><ele>322.66666666666663</ele><time>2026-04-26T08:23:35.999Z</time></trkpt><trkpt lat="38.905654378082126" lon="-9.276070357585164"><ele>328.0</ele><time>2026-04-26T08:23:36.999Z</time></trkpt><trkpt lat="38.90580960711851" lon="-9.276193297059015"><ele>330.75</ele><time>2026-04-26T08:23:37.999Z</time></trkpt><trkpt lat="38.905956200726166" lon="-9.27631478334661"><ele>333.5</ele><time>2026-04-26T08:23:38.999Z</time></trkpt><trkpt lat="38.90605461857168" lon="-9.276441639266745"><ele>336.25</ele><time>2026-04-26T08:23:39.999Z</time></trkpt><trkpt lat="38.90612499202758" lon="-9.276538784380989"><ele>339.0</ele><time>2026-04-26T08:23:40.999Z</time></trkpt><trkpt lat="38.90617426879912" lon="-9.276608894409897"><ele>339.0</ele><time>2026-04-26T08:23:41.999Z</time></trkpt><trkpt lat="38.90624067629084" lon="-9.276663673639291"><ele>339.0</ele><time>2026-04-26T08:23:43.999Z</time></trkpt><trkpt lat="38.906302777795624" lon="-9.276703960606664"><ele>339.0</ele><time>2026-04-26T08:23:45.999Z</time></trkpt><trkpt lat="38.90641203417931" lon="-9.276726783005259"><ele>339.0</ele><time>2026-04-26T08:23:47.999Z</time></trkpt><trkpt lat="38.906476336399614" lon="-9.276732593387113"><ele>339.0</ele><time>2026-04-26T08:23:48.999Z</time></trkpt><trkpt lat="38.90656353511792" lon="-9.276741169143387"><ele>339.0</ele><time>2026-04-26T08:23:49.999Z</time></trkpt><trkpt lat="38.906654330922656" lon="-9.276775459512267"><ele>339.0</ele><time>2026-04-26T08:23:50.999Z</time></trkpt><trkpt lat="38.90673339215172" lon="-9.276820450874958"><ele>339.0</ele><time>2026-04-26T08:23:51.999Z</time></trkpt><trkpt lat="38.90678747383008" lon="-9.276641540454623"><ele>339.0</ele><time>2026-04-26T08:23:53.999Z</time></trkpt><trkpt lat="38.90682377806731" lon="-9.276566212001978"><ele>339.0</ele><time>2026-04-26T08:23:54.999Z</time></trkpt><trkpt lat="38.90689920529468" lon="-9.276431347614498"><ele>339.0</ele><time>2026-04-26T08:23:55.999Z</time></trkpt><trkpt lat="38.90697355629831" lon="-9.276290990038323"><ele>342.5</ele><time>2026-04-26T08:23:56.999Z</time></trkpt><trkpt lat="38.90704826989306" lon="-9.276141273462544"><ele>346.0</ele><time>2026-04-26T08:23:57.999Z</time></trkpt><trkpt lat="38.907108611575396" lon="-9.275961176831487"><ele>349.5</ele><time>2026-04-26T08:23:58.999Z</time></trkpt><trkpt lat="38.907153726475855" lon="-9.27577777634181"><ele>353.0</ele><time>2026-04-26T08:23:59.999Z</time></trkpt><trkpt lat="38.90719977164707" lon="-9.275572622609097"><ele>353.0</ele><time>2026-04-26T08:24:00.999Z</time></trkpt><trkpt lat="38.90725952179129" lon="-9.275370755457047"><ele>353.0</ele><time>2026-04-26T08:24:01.999Z</time></trkpt><trkpt lat="38.90729708890753" lon="-9.27520161108088"><ele>353.0</ele><time>2026-04-26T08:24:02.999Z</time></trkpt><trkpt lat="38.907364231572906" lon="-9.275050648842601"><ele>353.0</ele><time>2026-04-26T08:24:03.999Z</time></trkpt><trkpt lat="38.90745469868133" lon="-9.274935237323742"><ele>353.0</ele><time>2026-04-26T08:24:04.999Z</time></trkpt><trkpt lat="38.90756067737168" lon="-9.274833586365043"><ele>353.0</ele><time>2026-04-26T08:24:05.999Z</time></trkpt><trkpt lat="38.90767061241584" lon="-9.274742582472111"><ele>353.0</ele><time>2026-04-26T08:24:06.999Z</time></trkpt><trkpt lat="38.9077750992593" lon="-9.274633875970704"><ele>353.0</ele><time>2026-04-26T08:24:07.999Z</time></trkpt><trkpt lat="38.90784985268921" lon="-9.274492363786559"><ele>356.0</ele><time>2026-04-26T08:24:09Z</time></trkpt><trkpt lat="38.90793317478587" lon="-9.274369398489824"><ele>359.0</ele><time>2026-04-26T08:24:10Z</time></trkpt><trkpt lat="38.90799765101659" lon="-9.27425265697356"><ele>362.0</ele><time>2026-04-26T08:24:11Z</time></trkpt><trkpt lat="38.908053570741565" lon="-9.274140099247"><ele>365.0</ele><time>2026-04-26T08:24:12Z</time></trkpt><trkpt lat="38.90811822350895" lon="-9.274014514285835"><ele>364.5</ele><time>2026-04-26T08:24:13Z</time></trkpt><trkpt lat="38.90819144331259" lon="-9.27389287459515"><ele>364.0</ele><time>2026-04-26T08:24:14Z</time></trkpt><trkpt lat="38.90827930273113" lon="-9.273772766237753"><ele>363.5</ele><time>2026-04-26T08:24:15Z</time></trkpt><trkpt lat="38.908360284616336" lon="-9.273634651997227"><ele>363.0</ele><time>2026-04-26T08:24:16Z</time></trkpt><trkpt lat="38.90844676616953" lon="-9.273515588779482"><ele>363.0</ele><time>2026-04-26T08:24:17Z</time></trkpt><trkpt lat="38.90854210606674" lon="-9.273402863927291"><ele>363.0</ele><time>2026-04-26T08:24:18Z</time></trkpt><trkpt lat="38.908642948101196" lon="-9.273293093138388"><ele>363.0</ele><time>2026-04-26T08:24:19Z</time></trkpt><trkpt lat="38.908718871157376" lon="-9.273171190812104"><ele>363.0</ele><time>2026-04-26T08:24:20Z</time></trkpt><trkpt lat="38.90878947248064" lon="-9.273055779662753"><ele>360.0</ele><time>2026-04-26T08:24:21Z</time></trkpt><trkpt lat="38.908850283836394" lon="-9.272947442583883"><ele>357.0</ele><time>2026-04-26T08:24:22Z</time></trkpt><trkpt lat="38.90891177292021" lon="-9.272844363342667"><ele>354.0</ele><time>2026-04-26T08:24:23Z</time></trkpt><trkpt lat="38.90896930666153" lon="-9.27274090948139"><ele>351.0</ele><time>2026-04-26T08:24:24Z</time></trkpt><trkpt lat="38.90902229600076" lon="-9.272634519510556"><ele>348.0</ele><time>2026-04-26T08:24:25Z</time></trkpt><trkpt lat="38.90906927638512" lon="-9.272524863407414"><ele>348.0</ele><time>2026-04-26T08:24:26Z</time></trkpt><trkpt lat="38.90912445100896" lon="-9.272421175432516"><ele>348.0</ele><time>2026-04-26T08:24:27Z</time></trkpt><trkpt lat="38.9091805446616" lon="-9.272322584984936"><ele>348.0</ele><time>2026-04-26T08:24:28Z</time></trkpt><trkpt lat="38.9092426873488" lon="-9.272207343421305"><ele>348.0</ele><time>2026-04-26T08:24:29Z</time></trkpt><trkpt lat="38.90931719643113" lon="-9.272084998290255"><ele>348.0</ele><time>2026-04-26T08:24:30Z</time></trkpt><trkpt lat="38.90940331157935" lon="-9.27197299505683"><ele>348.5</ele><time>2026-04-26T08:24:31Z</time></trkpt><trkpt lat="38.909497388032676" lon="-9.271863051413348"><ele>349.0</ele><time>2026-04-26T08:24:32Z</time></trkpt><trkpt lat="38.90958463960425" lon="-9.271750683136972"><ele>349.5</ele><time>2026-04-26T08:24:33Z</time></trkpt><trkpt lat="38.90964765349055" lon="-9.271628254230171"><ele>350.0</ele><time>2026-04-26T08:24:34Z</time></trkpt><trkpt lat="38.90970251363541" lon="-9.27151359477873"><ele>347.2</ele><time>2026-04-26T08:24:35Z</time></trkpt><trkpt lat="38.90971689557913" lon="-9.271386425238433"><ele>344.4</ele><time>2026-04-26T08:24:36Z</time></trkpt><trkpt lat="38.90971202195167" lon="-9.271276697159994"><ele>341.6</ele><time>2026-04-26T08:24:37Z</time></trkpt><trkpt lat="38.909681581613306" lon="-9.271164854484452"><ele>338.8</ele><time>2026-04-26T08:24:38Z</time></trkpt><trkpt lat="38.909632028984014" lon="-9.271039385480496"><ele>336.0</ele><time>2026-04-26T08:24:39Z</time></trkpt><trkpt lat="38.90960170850827" lon="-9.270914591596618"><ele>336.0</ele><time>2026-04-26T08:24:40Z</time></trkpt><trkpt lat="38.90960495269343" lon="-9.270785863831186"><ele>336.0</ele><time>2026-04-26T08:24:41Z</time></trkpt><trkpt lat="38.90962104060819" lon="-9.27064780476981"><ele>336.0</ele><time>2026-04-26T08:24:42Z</time></trkpt><trkpt lat="38.90966762161506" lon="-9.270506409431489"><ele>336.0</ele><time>2026-04-26T08:24:43Z</time></trkpt><trkpt lat="38.90974301622582" lon="-9.270390402696446"><ele>336.0</ele><time>2026-04-26T08:24:44Z</time></trkpt><trkpt lat="38.90980225168002" lon="-9.2702511976071"><ele>334.5</ele><time>2026-04-26T08:24:45Z</time></trkpt><trkpt lat="38.909874268791285" lon="-9.27012257686386"><ele>333.0</ele><time>2026-04-26T08:24:46Z</time></trkpt><trkpt lat="38.909942203845475" lon="-9.269996330455998"><ele>331.5</ele><time>2026-04-26T08:24:47Z</time></trkpt><trkpt lat="38.910008298017765" lon="-9.269862347441707"><ele>330.0</ele><time>2026-04-26T08:24:48Z</time></trkpt><trkpt lat="38.91006740911095" lon="-9.269750140959058"><ele>329.75</ele><time>2026-04-26T08:24:49Z</time></trkpt><trkpt lat="38.91012338227968" lon="-9.269620393959674"><ele>329.5</ele><time>2026-04-26T08:24:50Z</time></trkpt><trkpt lat="38.9101885180607" lon="-9.269484080791168"><ele>329.25</ele><time>2026-04-26T08:24:51Z</time></trkpt><trkpt lat="38.910252680243524" lon="-9.26936079006526"><ele>329.0</ele><time>2026-04-26T08:24:52Z</time></trkpt><trkpt lat="38.9102898853171" lon="-9.269242642806248"><ele>329.0</ele><time>2026-04-26T08:24:53Z</time></trkpt><trkpt lat="38.91034173630448" lon="-9.269162664971027"><ele>329.0</ele><time>2026-04-26T08:24:54Z</time></trkpt><trkpt lat="38.910381314896576" lon="-9.269081590786623"><ele>329.0</ele><time>2026-04-26T08:24:55Z</time></trkpt><trkpt lat="38.91039835020173" lon="-9.268977850734661"><ele>329.0</ele><time>2026-04-26T08:24:56Z</time></trkpt><trkpt lat="38.91040675273278" lon="-9.268880781156854"><ele>329.0</ele><time>2026-04-26T08:24:57Z</time></trkpt><trkpt lat="38.910400936247285" lon="-9.268773799123116"><ele>329.0</ele><time>2026-04-26T08:24:58Z</time></trkpt><trkpt lat="38.910356761452434" lon="-9.26864899116036"><ele>325.33333333333337</ele><time>2026-04-26T08:24:59Z</time></trkpt><trkpt lat="38.91031826996631" lon="-9.26847786401751"><ele>321.6666666666667</ele><time>2026-04-26T08:25:00Z</time></trkpt><trkpt lat="38.91026121917961" lon="-9.268261511846486"><ele>318.0</ele><time>2026-04-26T08:25:01Z</time></trkpt><trkpt lat="38.91020776715668" lon="-9.26806846885132"><ele>318.6666666666667</ele><time>2026-04-26T08:25:02Z</time></trkpt><trkpt lat="38.910160565159515" lon="-9.26785500124124"><ele>319.33333333333337</ele><time>2026-04-26T08:25:03Z</time></trkpt><trkpt lat="38.910095459177725" lon="-9.267640612409794"><ele>320.0</ele><time>2026-04-26T08:25:04Z</time></trkpt><trkpt lat="38.91004836013036" lon="-9.267448723716031"><ele>321.0</ele><time>2026-04-26T08:25:05Z</time></trkpt><trkpt lat="38.910033947149465" lon="-9.26727322933239"><ele>322.0</ele><time>2026-04-26T08:25:06Z</time></trkpt><trkpt lat="38.9100673348862" lon="-9.267086782761977"><ele>323.0</ele><time>2026-04-26T08:25:07Z</time></trkpt><trkpt lat="38.91012616838558" lon="-9.266924495597157"><ele>324.0</ele><time>2026-04-26T08:25:08Z</time></trkpt><trkpt lat="38.91016504623484" lon="-9.26678236620109"><ele>322.4</ele><time>2026-04-26T08:25:08.999Z</time></trkpt><trkpt lat="38.91018162033539" lon="-9.266661085883525"><ele>320.79999999999995</ele><time>2026-04-26T08:25:09.999Z</time></trkpt><trkpt lat="38.910197279886816" lon="-9.26657830815235"><ele>319.20000000000005</ele><time>2026-04-26T08:25:10.999Z</time></trkpt><trkpt lat="38.91023833988647" lon="-9.2664566554786"><ele>317.6</ele><time>2026-04-26T08:25:12.999Z</time></trkpt><trkpt lat="38.91035027094109" lon="-9.26650004687862"><ele>316.0</ele><time>2026-04-26T08:25:14.999Z</time></trkpt><trkpt lat="38.910416982819264" lon="-9.266528978795703"><ele>316.0</ele><time>2026-04-26T08:25:15.999Z</time></trkpt><trkpt lat="38.91050063200366" lon="-9.266575068552086"><ele>316.0</ele><time>2026-04-26T08:25:16.999Z</time></trkpt><trkpt lat="38.91060170194996" lon="-9.266638025477098"><ele>316.0</ele><time>2026-04-26T08:25:17.999Z</time></trkpt><trkpt lat="38.91072186406258" lon="-9.26667135429885"><ele>316.0</ele><time>2026-04-26T08:25:18.999Z</time></trkpt><trkpt lat="38.91082610831746" lon="-9.26667411398392"><ele>316.0</ele><time>2026-04-26T08:25:19.999Z</time></trkpt><trkpt lat="38.9109167704944" lon="-9.266638282637714"><ele>313.6</ele><time>2026-04-26T08:25:20.999Z</time></trkpt><trkpt lat="38.910991388167076" lon="-9.266578435216495"><ele>311.20000000000005</ele><time>2026-04-26T08:25:21.999Z</time></trkpt><trkpt lat="38.91106290892877" lon="-9.266489106270207"><ele>308.79999999999995</ele><time>2026-04-26T08:25:22.999Z</time></trkpt><trkpt lat="38.91114730953805" lon="-9.266400622452746"><ele>306.4</ele><time>2026-04-26T08:25:23.999Z</time></trkpt><trkpt lat="38.9112246491028" lon="-9.266300221758378"><ele>304.0</ele><time>2026-04-26T08:25:24.999Z</time></trkpt><trkpt lat="38.91126453723486" lon="-9.266184973641474"><ele>302.59999999999997</ele><time>2026-04-26T08:25:25.999Z</time></trkpt><trkpt lat="38.9112953968653" lon="-9.26605590234384"><ele>301.2</ele><time>2026-04-26T08:25:26.999Z</time></trkpt><trkpt lat="38.911287203316355" lon="-9.265929648470346"><ele>299.79999999999995</ele><time>2026-04-26T08:25:27.999Z</time></trkpt><trkpt lat="38.91127567855433" lon="-9.265795966865582"><ele>298.4</ele><time>2026-04-26T08:25:28.999Z</time></trkpt><trkpt lat="38.91125353819308" lon="-9.265647649456676"><ele>297.0</ele><time>2026-04-26T08:25:29.999Z</time></trkpt><trkpt lat="38.911228811790295" lon="-9.265485566830623"><ele>295.0</ele><time>2026-04-26T08:25:30.999Z</time></trkpt><trkpt lat="38.91120585057113" lon="-9.265328081403812"><ele>293.0</ele><time>2026-04-26T08:25:31.999Z</time></trkpt><trkpt lat="38.91118605964072" lon="-9.26517432558152"><ele>291.0</ele><time>2026-04-26T08:25:32.999Z</time></trkpt><trkpt lat="38.91116526501415" lon="-9.265025146532746"><ele>289.0</ele><time>2026-04-26T08:25:33.999Z</time></trkpt><trkpt lat="38.9111438173074" lon="-9.264885853875002"><ele>288.0</ele><time>2026-04-26T08:25:34.999Z</time></trkpt><trkpt lat="38.91111885229299" lon="-9.264746010486148"><ele>287.0</ele><time>2026-04-26T08:25:35.999Z</time></trkpt><trkpt lat="38.91108880945553" lon="-9.264590913901785"><ele>286.0</ele><time>2026-04-26T08:25:36.999Z</time></trkpt><trkpt lat="38.911046377257925" lon="-9.26443948457828"><ele>285.0</ele><time>2026-04-26T08:25:37.999Z</time></trkpt><trkpt lat="38.91098893488685" lon="-9.264294248478356"><ele>285.0</ele><time>2026-04-26T08:25:38.999Z</time></trkpt><trkpt lat="38.91093717719822" lon="-9.264144970947045"><ele>285.0</ele><time>2026-04-26T08:25:39.999Z</time></trkpt><trkpt lat="38.910868030180524" lon="-9.263998778871827"><ele>285.0</ele><time>2026-04-26T08:25:40.999Z</time></trkpt><trkpt lat="38.91080315809491" lon="-9.263814569960477"><ele>285.0</ele><time>2026-04-26T08:25:41.999Z</time></trkpt><trkpt lat="38.91071399040848" lon="-9.263609708580374"><ele>287.3333333333333</ele><time>2026-04-26T08:25:42.999Z</time></trkpt><trkpt lat="38.910612497062864" lon="-9.263402089303664"><ele>289.66666666666663</ele><time>2026-04-26T08:25:43.999Z</time></trkpt><trkpt lat="38.910491971089" lon="-9.263247604796602"><ele>292.0</ele><time>2026-04-26T08:25:44.999Z</time></trkpt><trkpt lat="38.91039000682501" lon="-9.263126450269434"><ele>291.0</ele><time>2026-04-26T08:25:45.999Z</time></trkpt><trkpt lat="38.910312154442074" lon="-9.263048865601414"><ele>290.0</ele><time>2026-04-26T08:25:46.999Z</time></trkpt><trkpt lat="38.91028321039738" lon="-9.262949744661448"><ele>289.0</ele><time>2026-04-26T08:25:47.999Z</time></trkpt><trkpt lat="38.91024743954018" lon="-9.26284794496505"><ele>288.0</ele><time>2026-04-26T08:25:48.999Z</time></trkpt><trkpt lat="38.91023706078467" lon="-9.262724230559302"><ele>287.0</ele><time>2026-04-26T08:25:49.999Z</time></trkpt><trkpt lat="38.91023256074043" lon="-9.262587915040724"><ele>287.0</ele><time>2026-04-26T08:25:50.999Z</time></trkpt><trkpt lat="38.91021611507342" lon="-9.262445539749278"><ele>287.0</ele><time>2026-04-26T08:25:51.999Z</time></trkpt><trkpt lat="38.91020296783727" lon="-9.262323185361339"><ele>287.0</ele><time>2026-04-26T08:25:52.999Z</time></trkpt><trkpt lat="38.91019408739634" lon="-9.262224634873096"><ele>287.0</ele><time>2026-04-26T08:25:53.999Z</time></trkpt><trkpt lat="38.91011337618029" lon="-9.262134787922788"><ele>287.0</ele><time>2026-04-26T08:25:55.999Z</time></trkpt><trkpt lat="38.91004333187282" lon="-9.262218987430725"><ele>288.6</ele><time>2026-04-26T08:25:56.999Z</time></trkpt><trkpt lat="38.909963314166504" lon="-9.262303352881812"><ele>290.2</ele><time>2026-04-26T08:25:57.999Z</time></trkpt><trkpt lat="38.909866081296855" lon="-9.262360477619886"><ele>291.8</ele><time>2026-04-26T08:25:58.999Z</time></trkpt><trkpt lat="38.90977866205179" lon="-9.262394452627026"><ele>293.4</ele><time>2026-04-26T08:25:59.999Z</time></trkpt><trkpt lat="38.90968651151014" lon="-9.262409939110144"><ele>295.0</ele><time>2026-04-26T08:26:00.999Z</time></trkpt><trkpt lat="38.90960302730919" lon="-9.2623583812177"><ele>295.0</ele><time>2026-04-26T08:26:01.999Z</time></trkpt><trkpt lat="38.90952566963456" lon="-9.262208744231028"><ele>295.0</ele><time>2026-04-26T08:26:02.999Z</time></trkpt><trkpt lat="38.90943542587466" lon="-9.262035187714588"><ele>295.0</ele><time>2026-04-26T08:26:03.999Z</time></trkpt><trkpt lat="38.90934253993733" lon="-9.261860006669444"><ele>292.66666666666663</ele><time>2026-04-26T08:26:04.999Z</time></trkpt><trkpt lat="38.90923325354056" lon="-9.261648744258734"><ele>290.3333333333333</ele><time>2026-04-26T08:26:05.999Z</time></trkpt><trkpt lat="38.90912085671712" lon="-9.261425702647138"><ele>288.0</ele><time>2026-04-26T08:26:06.999Z</time></trkpt><trkpt lat="38.90900289281383" lon="-9.261193068262696"><ele>288.0</ele><time>2026-04-26T08:26:07.999Z</time></trkpt><trkpt lat="38.908879077618" lon="-9.260948399698329"><ele>288.0</ele><time>2026-04-26T08:26:08.999Z</time></trkpt><trkpt lat="38.90873513670009" lon="-9.260703342074773"><ele>286.3333333333333</ele><time>2026-04-26T08:26:09.999Z</time></trkpt><trkpt lat="38.908609044462395" lon="-9.260461605447377"><ele>284.66666666666663</ele><time>2026-04-26T08:26:10.999Z</time></trkpt><trkpt lat="38.90850790682121" lon="-9.260232612912224"><ele>283.0</ele><time>2026-04-26T08:26:11.999Z</time></trkpt><trkpt lat="38.90840126032304" lon="-9.260037682723459"><ele>280.0</ele><time>2026-04-26T08:26:12.999Z</time></trkpt><trkpt lat="38.90831146663291" lon="-9.259865955622658"><ele>277.0</ele><time>2026-04-26T08:26:13.999Z</time></trkpt><trkpt lat="38.90822273882037" lon="-9.25971342613359"><ele>274.0</ele><time>2026-04-26T08:26:15Z</time></trkpt><trkpt lat="38.908130687268915" lon="-9.259567348167854"><ele>273.66666666666663</ele><time>2026-04-26T08:26:16Z</time></trkpt><trkpt lat="38.90801187930801" lon="-9.259463627433188"><ele>273.3333333333333</ele><time>2026-04-26T08:26:17Z</time></trkpt><trkpt lat="38.907866000858036" lon="-9.259402864320906"><ele>273.0</ele><time>2026-04-26T08:26:18Z</time></trkpt><trkpt lat="38.907693443460346" lon="-9.259373602155938"><ele>271.0</ele><time>2026-04-26T08:26:19Z</time></trkpt><trkpt lat="38.90750365123834" lon="-9.259353632150304"><ele>269.0</ele><time>2026-04-26T08:26:20Z</time></trkpt><trkpt lat="38.907306266897734" lon="-9.259332703276673"><ele>267.0</ele><time>2026-04-26T08:26:21Z</time></trkpt><trkpt lat="38.90713221536573" lon="-9.259313659656259"><ele>267.0</ele><time>2026-04-26T08:26:22Z</time></trkpt><trkpt lat="38.9069442828892" lon="-9.259293383533453"><ele>267.0</ele><time>2026-04-26T08:26:23Z</time></trkpt><trkpt lat="38.90674954104057" lon="-9.259273616940892"><ele>267.0</ele><time>2026-04-26T08:26:24Z</time></trkpt><trkpt lat="38.90654862800779" lon="-9.259253648835125"><ele>265.3333333333333</ele><time>2026-04-26T08:26:25Z</time></trkpt><trkpt lat="38.90635809167094" lon="-9.259237478898198"><ele>263.66666666666663</ele><time>2026-04-26T08:26:26Z</time></trkpt><trkpt lat="38.90616793921793" lon="-9.259222013466964"><ele>262.0</ele><time>2026-04-26T08:26:27Z</time></trkpt><trkpt lat="38.905977034328544" lon="-9.259211602840866"><ele>261.66666666666663</ele><time>2026-04-26T08:26:28Z</time></trkpt><trkpt lat="38.90582016083277" lon="-9.259276725279744"><ele>261.3333333333333</ele><time>2026-04-26T08:26:29Z</time></trkpt><trkpt lat="38.905647989562695" lon="-9.259369608703576"><ele>261.0</ele><time>2026-04-26T08:26:30Z</time></trkpt><trkpt lat="38.90547067904745" lon="-9.259475054788616"><ele>261.0</ele><time>2026-04-26T08:26:31Z</time></trkpt><trkpt lat="38.905298409625786" lon="-9.259581662554075"><ele>261.0</ele><time>2026-04-26T08:26:32Z</time></trkpt><trkpt lat="38.90512109487973" lon="-9.259677495092232"><ele>261.0</ele><time>2026-04-26T08:26:33Z</time></trkpt><trkpt lat="38.90494907181153" lon="-9.259785341609568"><ele>262.0</ele><time>2026-04-26T08:26:34Z</time></trkpt><trkpt lat="38.90479084957344" lon="-9.259916715945723"><ele>263.0</ele><time>2026-04-26T08:26:35Z</time></trkpt><trkpt lat="38.904633346185335" lon="-9.260020370165442"><ele>264.0</ele><time>2026-04-26T08:26:36Z</time></trkpt><trkpt lat="38.90448792923212" lon="-9.26011015894653"><ele>264.0</ele><time>2026-04-26T08:26:37Z</time></trkpt><trkpt lat="38.904330997517015" lon="-9.260190831231007"><ele>264.0</ele><time>2026-04-26T08:26:38Z</time></trkpt><trkpt lat="38.9041746369621" lon="-9.260240904443258"><ele>264.0</ele><time>2026-04-26T08:26:39Z</time></trkpt><trkpt lat="38.90401722735692" lon="-9.260299078466863"><ele>261.3333333333333</ele><time>2026-04-26T08:26:40Z</time></trkpt><trkpt lat="38.90383988209213" lon="-9.260348682406441"><ele>258.66666666666663</ele><time>2026-04-26T08:26:41Z</time></trkpt><trkpt lat="38.90365062336807" lon="-9.260402136542389"><ele>256.0</ele><time>2026-04-26T08:26:42Z</time></trkpt><trkpt lat="38.90347395632092" lon="-9.260457505925153"><ele>254.66666666666666</ele><time>2026-04-26T08:26:43Z</time></trkpt><trkpt lat="38.903309644138574" lon="-9.260515714065193"><ele>253.33333333333331</ele><time>2026-04-26T08:26:44Z</time></trkpt><trkpt lat="38.903151513320125" lon="-9.260570118697455"><ele>252.0</ele><time>2026-04-26T08:26:45Z</time></trkpt><trkpt lat="38.902983465927406" lon="-9.260625713813537"><ele>252.0</ele><time>2026-04-26T08:26:46Z</time></trkpt><trkpt lat="38.90281221613516" lon="-9.260692074003265"><ele>252.0</ele><time>2026-04-26T08:26:47Z</time></trkpt><trkpt lat="38.90263374686006" lon="-9.260741050097685"><ele>252.0</ele><time>2026-04-26T08:26:48Z</time></trkpt><trkpt lat="38.90245528527916" lon="-9.260784671631379"><ele>252.0</ele><time>2026-04-26T08:26:49Z</time></trkpt><trkpt lat="38.90227660228276" lon="-9.260810115697339"><ele>252.0</ele><time>2026-04-26T08:26:50Z</time></trkpt><trkpt lat="38.90209981534977" lon="-9.260828834834461"><ele>252.0</ele><time>2026-04-26T08:26:51Z</time></trkpt><trkpt lat="38.901919542662796" lon="-9.260840553010093"><ele>251.33333333333331</ele><time>2026-04-26T08:26:52Z</time></trkpt><trkpt lat="38.90173722339501" lon="-9.260851495257883"><ele>250.66666666666666</ele><time>2026-04-26T08:26:53Z</time></trkpt><trkpt lat="38.90155831555555" lon="-9.260859103582066"><ele>250.0</ele><time>2026-04-26T08:26:54Z</time></trkpt><trkpt lat="38.90138708215455" lon="-9.260875818279471"><ele>250.0</ele><time>2026-04-26T08:26:55Z</time></trkpt><trkpt lat="38.901225927638215" lon="-9.260888218232777"><ele>250.0</ele><time>2026-04-26T08:26:56Z</time></trkpt><trkpt lat="38.90106922645922" lon="-9.2608856363418"><ele>250.0</ele><time>2026-04-26T08:26:57Z</time></trkpt><trkpt lat="38.90091409616826" lon="-9.260852120382108"><ele>250.0</ele><time>2026-04-26T08:26:58Z</time></trkpt><trkpt lat="38.90075641368215" lon="-9.260776627922386"><ele>250.0</ele><time>2026-04-26T08:26:59Z</time></trkpt><trkpt lat="38.90060945672579" lon="-9.260659253370003"><ele>250.0</ele><time>2026-04-26T08:27:00Z</time></trkpt><trkpt lat="38.90046267134049" lon="-9.260518378409577"><ele>249.66666666666666</ele><time>2026-04-26T08:27:01Z</time></trkpt><trkpt lat="38.90028630100458" lon="-9.260373293697402"><ele>249.33333333333331</ele><time>2026-04-26T08:27:02Z</time></trkpt><trkpt lat="38.90010024859567" lon="-9.260218175595462"><ele>249.0</ele><time>2026-04-26T08:27:03Z</time></trkpt><trkpt lat="38.899902460620154" lon="-9.260064742562484"><ele>246.0</ele><time>2026-04-26T08:27:04Z</time></trkpt><trkpt lat="38.89970083290351" lon="-9.259907173813748"><ele>243.0</ele><time>2026-04-26T08:27:05Z</time></trkpt><trkpt lat="38.89950933837936" lon="-9.259724033780017"><ele>244.33333333333331</ele><time>2026-04-26T08:27:06Z</time></trkpt><trkpt lat="38.89934381352069" lon="-9.259540341008657"><ele>245.66666666666666</ele><time>2026-04-26T08:27:07Z</time></trkpt><trkpt lat="38.89921414534346" lon="-9.259371988355218"><ele>247.0</ele><time>2026-04-26T08:27:08Z</time></trkpt><trkpt lat="38.89906890334237" lon="-9.259267261847041"><ele>247.0</ele><time>2026-04-26T08:27:09Z</time></trkpt><trkpt lat="38.898914622820286" lon="-9.259203500098652"><ele>247.0</ele><time>2026-04-26T08:27:10Z</time></trkpt><trkpt lat="38.89874703257115" lon="-9.25918931718063"><ele>247.0</ele><time>2026-04-26T08:27:11Z</time></trkpt><trkpt lat="38.89855548667335" lon="-9.259201305015727"><ele>245.0</ele><time>2026-04-26T08:27:12Z</time></trkpt><trkpt lat="38.89834903759045" lon="-9.25922372104245"><ele>243.0</ele><time>2026-04-26T08:27:13Z</time></trkpt><trkpt lat="38.89815057478438" lon="-9.259249997378472"><ele>241.0</ele><time>2026-04-26T08:27:14Z</time></trkpt><trkpt lat="38.89795605809013" lon="-9.259267879922568"><ele>241.0</ele><time>2026-04-26T08:27:14.999Z</time></trkpt><trkpt lat="38.89775359930069" lon="-9.259281532163955"><ele>241.0</ele><time>2026-04-26T08:27:15.999Z</time></trkpt><trkpt lat="38.897559351207846" lon="-9.259305987794653"><ele>241.0</ele><time>2026-04-26T08:27:16.999Z</time></trkpt><trkpt lat="38.897370315829406" lon="-9.259377895643961"><ele>240.66666666666666</ele><time>2026-04-26T08:27:17.999Z</time></trkpt><trkpt lat="38.89718517420251" lon="-9.25946616399132"><ele>240.33333333333331</ele><time>2026-04-26T08:27:18.999Z</time></trkpt><trkpt lat="38.89700878010107" lon="-9.259532510638028"><ele>240.0</ele><time>2026-04-26T08:27:19.999Z</time></trkpt><trkpt lat="38.89684659068726" lon="-9.25958725513487"><ele>242.33333333333331</ele><time>2026-04-26T08:27:20.999Z</time></trkpt><trkpt lat="38.8966772201684" lon="-9.259619962885944"><ele>244.66666666666666</ele><time>2026-04-26T08:27:21.999Z</time></trkpt><trkpt lat="38.89650560729572" lon="-9.259659981801153"><ele>247.0</ele><time>2026-04-26T08:27:22.999Z</time></trkpt><trkpt lat="38.89631954794715" lon="-9.25966461534113"><ele>247.0</ele><time>2026-04-26T08:27:23.999Z</time></trkpt><trkpt lat="38.89613031124551" lon="-9.259667952201955"><ele>247.0</ele><time>2026-04-26T08:27:24.999Z</time></trkpt><trkpt lat="38.89594195476123" lon="-9.259670562040554"><ele>247.0</ele><time>2026-04-26T08:27:25.999Z</time></trkpt><trkpt lat="38.89575617378153" lon="-9.259703442782891"><ele>246.66666666666666</ele><time>2026-04-26T08:27:26.999Z</time></trkpt><trkpt lat="38.89558423806714" lon="-9.259713353618801"><ele>246.33333333333331</ele><time>2026-04-26T08:27:27.999Z</time></trkpt><trkpt lat="38.8954224320049" lon="-9.259723146349105"><ele>246.0</ele><time>2026-04-26T08:27:28.999Z</time></trkpt><trkpt lat="38.89526886549767" lon="-9.259733595532417"><ele>246.0</ele><time>2026-04-26T08:27:29.999Z</time></trkpt><trkpt lat="38.89510140225918" lon="-9.259743510841526"><ele>246.0</ele><time>2026-04-26T08:27:30.999Z</time></trkpt><trkpt lat="38.89493381936525" lon="-9.25975174149633"><ele>246.0</ele><time>2026-04-26T08:27:31.999Z</time></trkpt><trkpt lat="38.894781548031375" lon="-9.259769406675423"><ele>241.0</ele><time>2026-04-26T08:27:32.999Z</time></trkpt><trkpt lat="38.89463579778297" lon="-9.259804350237161"><ele>236.0</ele><time>2026-04-26T08:27:33.999Z</time></trkpt><trkpt lat="38.89449260367714" lon="-9.259872095059798"><ele>231.0</ele><time>2026-04-26T08:27:34.999Z</time></trkpt><trkpt lat="38.89435371444714" lon="-9.259963516423968"><ele>231.33333333333331</ele><time>2026-04-26T08:27:35.999Z</time></trkpt><trkpt lat="38.894205460236535" lon="-9.260074067841263"><ele>231.66666666666666</ele><time>2026-04-26T08:27:36.999Z</time></trkpt><trkpt lat="38.894046134054584" lon="-9.260199616857083"><ele>232.0</ele><time>2026-04-26T08:27:37.999Z</time></trkpt><trkpt lat="38.893868868243906" lon="-9.260316655577958"><ele>232.0</ele><time>2026-04-26T08:27:38.999Z</time></trkpt><trkpt lat="38.89370763232933" lon="-9.260448247028227"><ele>232.0</ele><time>2026-04-26T08:27:39.999Z</time></trkpt><trkpt lat="38.893544685502945" lon="-9.26057226429208"><ele>232.0</ele><time>2026-04-26T08:27:40.999Z</time></trkpt><trkpt lat="38.893382983575606" lon="-9.260678681454493"><ele>232.33333333333331</ele><time>2026-04-26T08:27:41.999Z</time></trkpt><trkpt lat="38.893205814562116" lon="-9.260767469730771"><ele>232.66666666666669</ele><time>2026-04-26T08:27:42.999Z</time></trkpt><trkpt lat="38.893022089892746" lon="-9.260824557761138"><ele>233.0</ele><time>2026-04-26T08:27:43.999Z</time></trkpt><trkpt lat="38.89281486386469" lon="-9.260861246347226"><ele>233.0</ele><time>2026-04-26T08:27:44.999Z</time></trkpt><trkpt lat="38.892592996431446" lon="-9.260876234818538"><ele>233.0</ele><time>2026-04-26T08:27:45.999Z</time></trkpt><trkpt lat="38.89238488050781" lon="-9.26088731048304"><ele>233.0</ele><time>2026-04-26T08:27:46.999Z</time></trkpt><trkpt lat="38.892196875721034" lon="-9.260901575062173"><ele>232.0</ele><time>2026-04-26T08:27:47.999Z</time></trkpt><trkpt lat="38.89200642354066" lon="-9.260915457517012"><ele>231.0</ele><time>2026-04-26T08:27:48.999Z</time></trkpt><trkpt lat="38.89181670867106" lon="-9.260955351555035"><ele>230.0</ele><time>2026-04-26T08:27:49.999Z</time></trkpt><trkpt lat="38.89161940864802" lon="-9.260976979265843"><ele>228.33333333333334</ele><time>2026-04-26T08:27:50.999Z</time></trkpt><trkpt lat="38.89142509053974" lon="-9.260979427920448"><ele>226.66666666666669</ele><time>2026-04-26T08:27:51.999Z</time></trkpt><trkpt lat="38.89123710890106" lon="-9.26102221651719"><ele>225.0</ele><time>2026-04-26T08:27:52.999Z</time></trkpt><trkpt lat="38.8910468918437" lon="-9.261045026654044"><ele>225.0</ele><time>2026-04-26T08:27:53.999Z</time></trkpt><trkpt lat="38.8908594250065" lon="-9.261068614466323"><ele>225.0</ele><time>2026-04-26T08:27:54.999Z</time></trkpt><trkpt lat="38.89067142564609" lon="-9.261092962945275"><ele>225.0</ele><time>2026-04-26T08:27:55.999Z</time></trkpt><trkpt lat="38.89048378427287" lon="-9.261113625392465"><ele>225.0</ele><time>2026-04-26T08:27:56.999Z</time></trkpt><trkpt lat="38.89029367233176" lon="-9.261132758018627"><ele>225.0</ele><time>2026-04-26T08:27:57.999Z</time></trkpt><trkpt lat="38.89010365934372" lon="-9.261150055391601"><ele>225.0</ele><time>2026-04-26T08:27:58.999Z</time></trkpt><trkpt lat="38.889921447399225" lon="-9.26114958522887"><ele>223.66666666666669</ele><time>2026-04-26T08:27:59.999Z</time></trkpt><trkpt lat="38.88974060069573" lon="-9.261175988714927"><ele>222.33333333333334</ele><time>2026-04-26T08:28:00.999Z</time></trkpt><trkpt lat="38.88956010623039" lon="-9.261196013711574"><ele>221.0</ele><time>2026-04-26T08:28:01.999Z</time></trkpt><trkpt lat="38.88937617452676" lon="-9.261217410994593"><ele>221.0</ele><time>2026-04-26T08:28:02.999Z</time></trkpt><trkpt lat="38.88919616642107" lon="-9.261273540260248"><ele>221.0</ele><time>2026-04-26T08:28:03.999Z</time></trkpt><trkpt lat="38.889013621638114" lon="-9.261339763148566"><ele>221.0</ele><time>2026-04-26T08:28:04.999Z</time></trkpt><trkpt lat="38.88883113076725" lon="-9.261423719471292"><ele>220.66666666666669</ele><time>2026-04-26T08:28:05.999Z</time></trkpt><trkpt lat="38.88864582502965" lon="-9.26151918744061"><ele>220.33333333333331</ele><time>2026-04-26T08:28:06.999Z</time></trkpt><trkpt lat="38.88845958822226" lon="-9.26159549516025"><ele>220.0</ele><time>2026-04-26T08:28:07.999Z</time></trkpt><trkpt lat="38.888295796600396" lon="-9.261707631732538"><ele>220.0</ele><time>2026-04-26T08:28:08.999Z</time></trkpt><trkpt lat="38.88814921360034" lon="-9.26180576930208"><ele>220.0</ele><time>2026-04-26T08:28:09.999Z</time></trkpt><trkpt lat="38.888013614819066" lon="-9.261911083385288"><ele>220.0</ele><time>2026-04-26T08:28:10.999Z</time></trkpt><trkpt lat="38.887893111228514" lon="-9.262012148029164"><ele>220.0</ele><time>2026-04-26T08:28:11.999Z</time></trkpt><trkpt lat="38.88777902554976" lon="-9.262120027798783"><ele>220.0</ele><time>2026-04-26T08:28:12.999Z</time></trkpt><trkpt lat="38.88767167203945" lon="-9.26220818772331"><ele>220.0</ele><time>2026-04-26T08:28:13.999Z</time></trkpt><trkpt lat="38.88756278033224" lon="-9.262327696269317"><ele>220.0</ele><time>2026-04-26T08:28:14.999Z</time></trkpt><trkpt lat="38.88746731357225" lon="-9.262447593241236"><ele>218.75</ele><time>2026-04-26T08:28:15.999Z</time></trkpt><trkpt lat="38.88737075424675" lon="-9.262578463461523"><ele>217.5</ele><time>2026-04-26T08:28:16.999Z</time></trkpt><trkpt lat="38.88728309531259" lon="-9.262715339026599"><ele>216.25</ele><time>2026-04-26T08:28:17.999Z</time></trkpt><trkpt lat="38.88719777790906" lon="-9.26284389819155"><ele>215.0</ele><time>2026-04-26T08:28:18.999Z</time></trkpt><trkpt lat="38.887117334698615" lon="-9.262967052073614"><ele>215.00000000000003</ele><time>2026-04-26T08:28:19.999Z</time></trkpt><trkpt lat="38.887054450380916" lon="-9.263060293059846"><ele>215.0</ele><time>2026-04-26T08:28:21Z</time></trkpt><trkpt lat="38.88699697721165" lon="-9.263143531104866"><ele>215.0</ele><time>2026-04-26T08:28:22Z</time></trkpt><trkpt lat="38.886956660256665" lon="-9.263223398281292"><ele>215.0</ele><time>2026-04-26T08:28:23Z</time></trkpt><trkpt lat="38.88691851998374" lon="-9.263324469204722"><ele>215.00000000000003</ele><time>2026-04-26T08:28:25Z</time></trkpt><trkpt lat="38.88697499321359" lon="-9.263368362348253"><ele>215.0</ele><time>2026-04-26T08:28:26Z</time></trkpt><trkpt lat="38.88705472839208" lon="-9.26336650665414"><ele>215.14285714285714</ele><time>2026-04-26T08:28:27Z</time></trkpt><trkpt lat="38.887130182374925" lon="-9.26337057208357"><ele>215.2857142857143</ele><time>2026-04-26T08:28:28Z</time></trkpt><trkpt lat="38.887157502072135" lon="-9.263466921631979"><ele>215.42857142857144</ele><time>2026-04-26T08:28:29Z</time></trkpt><trkpt lat="38.887216961421366" lon="-9.263497172045517"><ele>215.57142857142856</ele><time>2026-04-26T08:28:30Z</time></trkpt><trkpt lat="38.88728172142165" lon="-9.26345148321603"><ele>215.71428571428572</ele><time>2026-04-26T08:28:31Z</time></trkpt><trkpt lat="38.887325219593144" lon="-9.263369723368394"><ele>215.85714285714286</ele><time>2026-04-26T08:28:32Z</time></trkpt><trkpt lat="38.887391135116665" lon="-9.263322026404895"><ele>216.0</ele><time>2026-04-26T08:28:33Z</time></trkpt><trkpt lat="38.88745910372975" lon="-9.263233274232407"><ele>216.0</ele><time>2026-04-26T08:28:34Z</time></trkpt><trkpt lat="38.88751205713512" lon="-9.263145291546236"><ele>216.0</ele><time>2026-04-26T08:28:35Z</time></trkpt><trkpt lat="38.887568870042486" lon="-9.263096008862108"><ele>216.0</ele><time>2026-04-26T08:28:36Z</time></trkpt><trkpt lat="38.88763467748237" lon="-9.263051053122203"><ele>216.0</ele><time>2026-04-26T08:28:37Z</time></trkpt><trkpt lat="38.88770559848305" lon="-9.263097254207574"><ele>216.0</ele><time>2026-04-26T08:28:38Z</time></trkpt><trkpt lat="38.887792573880716" lon="-9.263122971302794"><ele>216.0</ele><time>2026-04-26T08:28:40Z</time></trkpt><trkpt lat="38.88786428123097" lon="-9.26307493583017"><ele>218.4</ele><time>2026-04-26T08:28:41Z</time></trkpt><trkpt lat="38.88795769122192" lon="-9.263072332017122"><ele>220.8</ele><time>2026-04-26T08:28:42Z</time></trkpt><trkpt lat="38.888038256086105" lon="-9.263077283001099"><ele>223.20000000000002</ele><time>2026-04-26T08:28:43Z</time></trkpt><trkpt lat="38.88809674921935" lon="-9.263136337364644"><ele>225.60000000000002</ele><time>2026-04-26T08:28:44Z</time></trkpt><trkpt lat="38.8881456702188" lon="-9.263269460296945"><ele>228.0</ele><time>2026-04-26T08:28:45Z</time></trkpt><trkpt lat="38.88815727589852" lon="-9.263403800177182"><ele>228.0</ele><time>2026-04-26T08:28:46Z</time></trkpt><trkpt lat="38.888206032891226" lon="-9.263502262123104"><ele>228.0</ele><time>2026-04-26T08:28:48Z</time></trkpt><trkpt lat="38.888261709116954" lon="-9.263573361669739"><ele>228.0</ele><time>2026-04-26T08:28:50Z</time></trkpt><trkpt lat="38.888315176945056" lon="-9.263675304022229"><ele>228.0</ele><time>2026-04-26T08:28:53Z</time></trkpt><trkpt lat="38.88835710396881" lon="-9.263757018291892"><ele>228.0</ele><time>2026-04-26T08:29:03Z</time></trkpt><trkpt lat="38.88842608987211" lon="-9.263914142310693"><ele>228.2</ele><time>2026-04-26T08:29:05Z</time></trkpt><trkpt lat="38.888462100592136" lon="-9.264014490378111"><ele>228.4</ele><time>2026-04-26T08:29:06Z</time></trkpt><trkpt lat="38.888512419528155" lon="-9.264112427159706"><ele>228.59999999999997</ele><time>2026-04-26T08:29:07Z</time></trkpt><trkpt lat="38.88859978241555" lon="-9.264190253988978"><ele>228.79999999999998</ele><time>2026-04-26T08:29:08Z</time></trkpt><trkpt lat="38.88869271502697" lon="-9.264226640921345"><ele>229.0</ele><time>2026-04-26T08:29:09Z</time></trkpt><trkpt lat="38.888783549365726" lon="-9.264224895150411"><ele>229.0</ele><time>2026-04-26T08:29:10Z</time></trkpt><trkpt lat="38.88890210110394" lon="-9.264232968574037"><ele>228.99999999999997</ele><time>2026-04-26T08:29:12Z</time></trkpt><trkpt lat="38.88897218936187" lon="-9.26423561446247"><ele>228.99999999999997</ele><time>2026-04-26T08:29:13.999Z</time></trkpt><trkpt lat="38.889044199269925" lon="-9.264200839410503"><ele>229.0</ele><time>2026-04-26T08:29:37.999Z</time></trkpt><trkpt lat="38.88915208880228" lon="-9.264196426685825"><ele>229.0</ele><time>2026-04-26T08:29:39.999Z</time></trkpt><trkpt lat="38.88927446229176" lon="-9.264168702201571"><ele>231.0</ele><time>2026-04-26T08:29:41.999Z</time></trkpt><trkpt lat="38.88934734435565" lon="-9.264162283916075"><ele>232.99999999999997</ele><time>2026-04-26T08:29:42.999Z</time></trkpt><trkpt lat="38.889455723276654" lon="-9.264180580742593"><ele>234.99999999999997</ele><time>2026-04-26T08:29:44.999Z</time></trkpt><trkpt lat="38.88952140083341" lon="-9.264225399539498"><ele>237.0</ele><time>2026-04-26T08:29:46.999Z</time></trkpt><trkpt lat="38.88955105236549" lon="-9.264350382895278"><ele>239.0</ele><time>2026-04-26T08:29:48.999Z</time></trkpt><trkpt lat="38.889551953749255" lon="-9.264479202786774"><ele>239.0</ele><time>2026-04-26T08:29:50.999Z</time></trkpt><trkpt lat="38.88959135754183" lon="-9.26459863421367"><ele>238.99999999999997</ele><time>2026-04-26T08:29:52.999Z</time></trkpt><trkpt lat="38.889709968395636" lon="-9.264614885092387"><ele>238.99999999999997</ele><time>2026-04-26T08:29:54.999Z</time></trkpt><trkpt lat="38.88977528583649" lon="-9.264579774681154"><ele>239.0</ele><time>2026-04-26T08:29:55.999Z</time></trkpt><trkpt lat="38.8898951637553" lon="-9.264603923901946"><ele>239.0</ele><time>2026-04-26T08:29:57.999Z</time></trkpt><trkpt lat="38.8899640662645" lon="-9.264645006404033"><ele>239.00000000000003</ele><time>2026-04-26T08:29:58.999Z</time></trkpt><trkpt lat="38.89003986210175" lon="-9.26468757014032"><ele>239.0</ele><time>2026-04-26T08:29:59.999Z</time></trkpt><trkpt lat="38.890107360358535" lon="-9.264730297790445"><ele>239.0</ele><time>2026-04-26T08:30:00.999Z</time></trkpt><trkpt lat="38.89016560742849" lon="-9.264797799823072"><ele>239.0</ele><time>2026-04-26T08:30:01.999Z</time></trkpt><trkpt lat="38.890228646170605" lon="-9.264851197146934"><ele>239.00000000000003</ele><time>2026-04-26T08:30:02.999Z</time></trkpt><trkpt lat="38.89029622994685" lon="-9.264875651038842"><ele>239.0</ele><time>2026-04-26T08:30:03.999Z</time></trkpt><trkpt lat="38.89036633046982" lon="-9.264863774731682"><ele>238.33333333333334</ele><time>2026-04-26T08:30:04.999Z</time></trkpt><trkpt lat="38.890439284495805" lon="-9.26483406108332"><ele>237.66666666666669</ele><time>2026-04-26T08:30:05.999Z</time></trkpt><trkpt lat="38.890508447191685" lon="-9.264833313779828"><ele>237.0</ele><time>2026-04-26T08:30:06.999Z</time></trkpt><trkpt lat="38.89057744605222" lon="-9.264878079825612"><ele>236.33333333333331</ele><time>2026-04-26T08:30:07.999Z</time></trkpt><trkpt lat="38.89062840924076" lon="-9.264936992546819"><ele>235.66666666666666</ele><time>2026-04-26T08:30:08.999Z</time></trkpt><trkpt lat="38.89068776675187" lon="-9.265026977102815"><ele>235.0</ele><time>2026-04-26T08:30:09.999Z</time></trkpt><trkpt lat="38.89073805076699" lon="-9.265112771662599"><ele>234.99999999999997</ele><time>2026-04-26T08:30:10.999Z</time></trkpt><trkpt lat="38.890775260401185" lon="-9.265192077138591"><ele>235.0</ele><time>2026-04-26T08:30:11.999Z</time></trkpt><trkpt lat="38.8908493687367" lon="-9.265296477635044"><ele>235.0</ele><time>2026-04-26T08:30:13.999Z</time></trkpt><trkpt lat="38.89086763549444" lon="-9.265406449831495"><ele>235.0</ele><time>2026-04-26T08:30:15.999Z</time></trkpt><trkpt lat="38.89085678866135" lon="-9.26550638361104"><ele>234.99999999999997</ele><time>2026-04-26T08:30:17.999Z</time></trkpt><trkpt lat="38.89087877215697" lon="-9.265594865526706"><ele>235.0</ele><time>2026-04-26T08:30:19.999Z</time></trkpt><trkpt lat="38.890935113856465" lon="-9.265687956798338"><ele>236.5</ele><time>2026-04-26T08:30:23.999Z</time></trkpt><trkpt lat="38.89100376739389" lon="-9.265754646219081"><ele>238.0</ele><time>2026-04-26T08:30:25.999Z</time></trkpt><trkpt lat="38.89105088745481" lon="-9.265889024862107"><ele>239.5</ele><time>2026-04-26T08:30:28Z</time></trkpt><trkpt lat="38.89111841058999" lon="-9.266022675706024"><ele>241.0</ele><time>2026-04-26T08:30:30Z</time></trkpt><trkpt lat="38.89118788955619" lon="-9.266166884694627"><ele>240.99999999999997</ele><time>2026-04-26T08:30:32Z</time></trkpt><trkpt lat="38.8912015880775" lon="-9.266262950683362"><ele>241.0</ele><time>2026-04-26T08:30:33Z</time></trkpt><trkpt lat="38.891285488860426" lon="-9.266326055524328"><ele>241.0</ele><time>2026-04-26T08:30:34Z</time></trkpt><trkpt lat="38.891351634643435" lon="-9.26640475174078"><ele>241.0</ele><time>2026-04-26T08:30:35Z</time></trkpt><trkpt lat="38.89141619262721" lon="-9.266472514073891"><ele>240.99999999999997</ele><time>2026-04-26T08:30:36Z</time></trkpt><trkpt lat="38.89149401347376" lon="-9.266516464283583"><ele>241.0</ele><time>2026-04-26T08:30:37Z</time></trkpt><trkpt lat="38.89159601887474" lon="-9.26661568795086"><ele>241.66666666666666</ele><time>2026-04-26T08:30:39Z</time></trkpt><trkpt lat="38.891643247351624" lon="-9.266706724109806"><ele>242.33333333333331</ele><time>2026-04-26T08:30:40Z</time></trkpt><trkpt lat="38.89169661708725" lon="-9.266784408051791"><ele>243.0</ele><time>2026-04-26T08:30:41Z</time></trkpt><trkpt lat="38.89174780516747" lon="-9.266868307767218"><ele>243.66666666666669</ele><time>2026-04-26T08:30:42Z</time></trkpt><trkpt lat="38.89180837273634" lon="-9.266919810117153"><ele>244.33333333333334</ele><time>2026-04-26T08:30:43Z</time></trkpt><trkpt lat="38.891881937879766" lon="-9.266956824967965"><ele>245.0</ele><time>2026-04-26T08:30:44Z</time></trkpt><trkpt lat="38.8919383033605" lon="-9.267030473000785"><ele>245.0</ele><time>2026-04-26T08:30:45Z</time></trkpt><trkpt lat="38.892002910454686" lon="-9.267102189427368"><ele>245.0</ele><time>2026-04-26T08:30:46Z</time></trkpt><trkpt lat="38.892055784615316" lon="-9.267163120620959"><ele>245.0</ele><time>2026-04-26T08:30:47Z</time></trkpt><trkpt lat="38.8921513126644" lon="-9.267276474185415"><ele>245.0</ele><time>2026-04-26T08:30:49Z</time></trkpt><trkpt lat="38.89225729928479" lon="-9.267288009995942"><ele>245.0</ele><time>2026-04-26T08:30:51Z</time></trkpt><trkpt lat="38.89227998033273" lon="-9.267407612626315"><ele>244.16666666666669</ele><time>2026-04-26T08:30:53Z</time></trkpt><trkpt lat="38.89221436950527" lon="-9.26747908914406"><ele>243.33333333333334</ele><time>2026-04-26T08:30:55Z</time></trkpt><trkpt lat="38.89214952404869" lon="-9.267522042339813"><ele>242.5</ele><time>2026-04-26T08:30:57Z</time></trkpt><trkpt lat="38.89205051458163" lon="-9.267498558011333"><ele>241.66666666666669</ele><time>2026-04-26T08:30:59Z</time></trkpt><trkpt lat="38.89198923558932" lon="-9.267464816610307"><ele>240.83333333333334</ele><time>2026-04-26T08:31:00Z</time></trkpt><trkpt lat="38.89192633831465" lon="-9.267426202727703"><ele>240.0</ele><time>2026-04-26T08:31:01Z</time></trkpt><trkpt lat="38.89186482716922" lon="-9.267400090267017"><ele>240.0</ele><time>2026-04-26T08:31:02Z</time></trkpt><trkpt lat="38.89176816415485" lon="-9.267345189987836"><ele>240.0</ele><time>2026-04-26T08:31:04Z</time></trkpt><trkpt lat="38.8916817523048" lon="-9.2672791113119"><ele>240.0</ele><time>2026-04-26T08:31:06Z</time></trkpt><trkpt lat="38.89162454577172" lon="-9.267241796305909"><ele>240.0</ele><time>2026-04-26T08:31:07Z</time></trkpt><trkpt lat="38.891559258499264" lon="-9.267197279341119"><ele>240.0</ele><time>2026-04-26T08:31:08Z</time></trkpt><trkpt lat="38.89145844680941" lon="-9.267131005829789"><ele>239.33333333333334</ele><time>2026-04-26T08:31:10Z</time></trkpt><trkpt lat="38.891343277847106" lon="-9.2670767201607"><ele>238.66666666666669</ele><time>2026-04-26T08:31:12Z</time></trkpt><trkpt lat="38.89127247169939" lon="-9.267065520691986"><ele>238.0</ele><time>2026-04-26T08:31:13Z</time></trkpt><trkpt lat="38.89119895687856" lon="-9.267038536090407"><ele>237.33333333333334</ele><time>2026-04-26T08:31:13.999Z</time></trkpt><trkpt lat="38.89112078540966" lon="-9.267024569542475"><ele>236.66666666666669</ele><time>2026-04-26T08:31:14.999Z</time></trkpt><trkpt lat="38.89104226021265" lon="-9.266997839607686"><ele>236.0</ele><time>2026-04-26T08:31:15.999Z</time></trkpt><trkpt lat="38.89094512891863" lon="-9.266950130845874"><ele>236.66666666666669</ele><time>2026-04-26T08:31:17.999Z</time></trkpt><trkpt lat="38.89087043534937" lon="-9.266921282884097"><ele>237.33333333333334</ele><time>2026-04-26T08:31:18.999Z</time></trkpt><trkpt lat="38.89079633214637" lon="-9.266895948704185"><ele>238.0</ele><time>2026-04-26T08:31:19.999Z</time></trkpt><trkpt lat="38.89072563152272" lon="-9.266862650750442"><ele>238.66666666666669</ele><time>2026-04-26T08:31:20.999Z</time></trkpt><trkpt lat="38.890662369135576" lon="-9.266829657986182"><ele>239.33333333333334</ele><time>2026-04-26T08:31:21.999Z</time></trkpt><trkpt lat="38.890533072390845" lon="-9.266829965237921"><ele>240.0</ele><time>2026-04-26T08:31:23.999Z</time></trkpt><trkpt lat="38.89045962948916" lon="-9.2668771117624"><ele>240.0</ele><time>2026-04-26T08:31:24.999Z</time></trkpt><trkpt lat="38.890381050576515" lon="-9.266901682295034"><ele>240.0</ele><time>2026-04-26T08:31:25.999Z</time></trkpt><trkpt lat="38.890318685898045" lon="-9.266944187277062"><ele>240.0</ele><time>2026-04-26T08:31:26.999Z</time></trkpt><trkpt lat="38.89024386378978" lon="-9.266950647165544"><ele>240.0</ele><time>2026-04-26T08:31:27.999Z</time></trkpt><trkpt lat="38.89017860728766" lon="-9.266912604368693"><ele>240.0</ele><time>2026-04-26T08:31:28.999Z</time></trkpt><trkpt lat="38.89009978928337" lon="-9.266896817816132"><ele>240.0</ele><time>2026-04-26T08:31:29.999Z</time></trkpt><trkpt lat="38.890027365803725" lon="-9.266912791170398"><ele>241.0</ele><time>2026-04-26T08:31:30.999Z</time></trkpt><trkpt lat="38.889940826749935" lon="-9.26694490301736"><ele>242.0</ele><time>2026-04-26T08:31:31.999Z</time></trkpt><trkpt lat="38.889863339191336" lon="-9.266974492384128"><ele>243.0</ele><time>2026-04-26T08:31:32.999Z</time></trkpt><trkpt lat="38.88980128997749" lon="-9.26699480825744"><ele>244.0</ele><time>2026-04-26T08:31:33.999Z</time></trkpt><trkpt lat="38.889733340257514" lon="-9.267028196738437"><ele>245.0</ele><time>2026-04-26T08:31:34.999Z</time></trkpt><trkpt lat="38.8896681548239" lon="-9.267107898098624"><ele>246.0</ele><time>2026-04-26T08:31:35.999Z</time></trkpt><trkpt lat="38.88956272365629" lon="-9.267166158438249"><ele>246.0</ele><time>2026-04-26T08:31:37.999Z</time></trkpt><trkpt lat="38.889514383276776" lon="-9.267263842053591"><ele>246.0</ele><time>2026-04-26T08:31:39.999Z</time></trkpt><trkpt lat="38.889464783657544" lon="-9.267330866880737"><ele>246.0</ele><time>2026-04-26T08:31:41.999Z</time></trkpt><trkpt lat="38.889386940986746" lon="-9.267361871257997"><ele>246.0</ele><time>2026-04-26T08:31:44.999Z</time></trkpt><trkpt lat="38.889276265518674" lon="-9.267385470499738"><ele>246.0</ele><time>2026-04-26T08:31:46.999Z</time></trkpt><trkpt lat="38.88920086118099" lon="-9.267404662173844"><ele>246.0</ele><time>2026-04-26T08:31:47.999Z</time></trkpt><trkpt lat="38.88911478806193" lon="-9.267419127868457"><ele>247.8</ele><time>2026-04-26T08:31:48.999Z</time></trkpt><trkpt lat="38.889021941881076" lon="-9.267413402490373"><ele>249.60000000000002</ele><time>2026-04-26T08:31:49.999Z</time></trkpt><trkpt lat="38.888922515882136" lon="-9.26737331153976"><ele>251.4</ele><time>2026-04-26T08:31:50.999Z</time></trkpt><trkpt lat="38.88881766264703" lon="-9.267374500012812"><ele>253.2</ele><time>2026-04-26T08:31:51.999Z</time></trkpt><trkpt lat="38.88869379775984" lon="-9.267386507812695"><ele>255.0</ele><time>2026-04-26T08:31:52.999Z</time></trkpt><trkpt lat="38.88857403705869" lon="-9.267368193821172"><ele>255.0</ele><time>2026-04-26T08:31:53.999Z</time></trkpt><trkpt lat="38.88845144815041" lon="-9.267337844833271"><ele>255.0</ele><time>2026-04-26T08:31:54.999Z</time></trkpt><trkpt lat="38.88832951449331" lon="-9.26733896208384"><ele>255.0</ele><time>2026-04-26T08:31:55.999Z</time></trkpt><trkpt lat="38.888195406759" lon="-9.267330382337926"><ele>255.0</ele><time>2026-04-26T08:31:56.999Z</time></trkpt><trkpt lat="38.88805826752745" lon="-9.26729618225907"><ele>255.0</ele><time>2026-04-26T08:31:57.999Z</time></trkpt><trkpt lat="38.88794060315693" lon="-9.267238201256903"><ele>255.0</ele><time>2026-04-26T08:31:58.999Z</time></trkpt><trkpt lat="38.88784897872718" lon="-9.26724808814653"><ele>255.0</ele><time>2026-04-26T08:31:59.999Z</time></trkpt><trkpt lat="38.88778543552131" lon="-9.26725086613621"><ele>255.0</ele><time>2026-04-26T08:32:00.999Z</time></trkpt><trkpt lat="38.88767497710895" lon="-9.267316746599523"><ele>255.0</ele><time>2026-04-26T08:32:02.999Z</time></trkpt><trkpt lat="38.88761988663445" lon="-9.267362971693444"><ele>257.2</ele><time>2026-04-26T08:32:03.999Z</time></trkpt><trkpt lat="38.88756126237055" lon="-9.267421217159031"><ele>259.4</ele><time>2026-04-26T08:32:04.999Z</time></trkpt><trkpt lat="38.887452153220146" lon="-9.267426668308648"><ele>261.6</ele><time>2026-04-26T08:32:06.999Z</time></trkpt><trkpt lat="38.88736248989087" lon="-9.267371585608707"><ele>263.8</ele><time>2026-04-26T08:32:08.999Z</time></trkpt><trkpt lat="38.8872667133553" lon="-9.26745483944969"><ele>266.0</ele><time>2026-04-26T08:32:10.999Z</time></trkpt><trkpt lat="38.88718235405739" lon="-9.267493529061952"><ele>266.0</ele><time>2026-04-26T08:32:12.999Z</time></trkpt><trkpt lat="38.88712112322759" lon="-9.26742999758782"><ele>266.0</ele><time>2026-04-26T08:32:13.999Z</time></trkpt><trkpt lat="38.88706379772265" lon="-9.267370610403564"><ele>266.0</ele><time>2026-04-26T08:32:14.999Z</time></trkpt><trkpt lat="38.88697937471852" lon="-9.267319751204791"><ele>266.0</ele><time>2026-04-26T08:32:16.999Z</time></trkpt><trkpt lat="38.88688869459746" lon="-9.267257472439411"><ele>266.0</ele><time>2026-04-26T08:32:18.999Z</time></trkpt><trkpt lat="38.88681561895439" lon="-9.26716695265972"><ele>265.0</ele><time>2026-04-26T08:32:19.999Z</time></trkpt><trkpt lat="38.88674009323015" lon="-9.267077932410526"><ele>264.0</ele><time>2026-04-26T08:32:20.999Z</time></trkpt><trkpt lat="38.88667381411242" lon="-9.267025953514182"><ele>263.0</ele><time>2026-04-26T08:32:21.999Z</time></trkpt><trkpt lat="38.88659044900801" lon="-9.266993973226443"><ele>262.0</ele><time>2026-04-26T08:32:25.999Z</time></trkpt><trkpt lat="38.886477482466084" lon="-9.266972846083064"><ele>261.0</ele><time>2026-04-26T08:32:28.999Z</time></trkpt><trkpt lat="38.88637049265968" lon="-9.26696458357461"><ele>261.0</ele><time>2026-04-26T08:32:29.999Z</time></trkpt><trkpt lat="38.88622956914376" lon="-9.266956393710432"><ele>261.0</ele><time>2026-04-26T08:32:30.999Z</time></trkpt><trkpt lat="38.88606195686322" lon="-9.26694916036688"><ele>261.0</ele><time>2026-04-26T08:32:31.999Z</time></trkpt><trkpt lat="38.88588858861652" lon="-9.266978067789326"><ele>260.0</ele><time>2026-04-26T08:32:33Z</time></trkpt><trkpt lat="38.88571388664526" lon="-9.26705273891093"><ele>259.0</ele><time>2026-04-26T08:32:34Z</time></trkpt><trkpt lat="38.88553410263032" lon="-9.267140146739788"><ele>258.0</ele><time>2026-04-26T08:32:35Z</time></trkpt><trkpt lat="38.88536795870919" lon="-9.26724563742866"><ele>259.3333333333333</ele><time>2026-04-26T08:32:36Z</time></trkpt><trkpt lat="38.88519287232153" lon="-9.267390601774466"><ele>260.66666666666663</ele><time>2026-04-26T08:32:37Z</time></trkpt><trkpt lat="38.88502652887612" lon="-9.267534988320934"><ele>262.0</ele><time>2026-04-26T08:32:38Z</time></trkpt><trkpt lat="38.88488473466789" lon="-9.26765965578299"><ele>262.0</ele><time>2026-04-26T08:32:39Z</time></trkpt><trkpt lat="38.88477344522807" lon="-9.267774514107094"><ele>262.0</ele><time>2026-04-26T08:32:40Z</time></trkpt><trkpt lat="38.88469151187251" lon="-9.267890206824397"><ele>262.0</ele><time>2026-04-26T08:32:41Z</time></trkpt><trkpt lat="38.8846113483307" lon="-9.268020738522374"><ele>262.0</ele><time>2026-04-26T08:32:42Z</time></trkpt><trkpt lat="38.884516732990086" lon="-9.26815128997109"><ele>262.0</ele><time>2026-04-26T08:32:43Z</time></trkpt><trkpt lat="38.88442326591385" lon="-9.268251928786977"><ele>262.0</ele><time>2026-04-26T08:32:44Z</time></trkpt><trkpt lat="38.88434286021461" lon="-9.268345527199529"><ele>262.0</ele><time>2026-04-26T08:32:45Z</time></trkpt><trkpt lat="38.88426004059144" lon="-9.26840887500435"><ele>262.0</ele><time>2026-04-26T08:32:46Z</time></trkpt><trkpt lat="38.884181644283665" lon="-9.268446468053517"><ele>262.0</ele><time>2026-04-26T08:32:47Z</time></trkpt><trkpt lat="38.88411281086342" lon="-9.268471828381642"><ele>262.0</ele><time>2026-04-26T08:32:48Z</time></trkpt><trkpt lat="38.884044493645206" lon="-9.268479648444174"><ele>262.0</ele><time>2026-04-26T08:32:49Z</time></trkpt><trkpt lat="38.8839586779751" lon="-9.268414583579217"><ele>262.0</ele><time>2026-04-26T08:32:50Z</time></trkpt><trkpt lat="38.88386622691341" lon="-9.268347587118901"><ele>262.0</ele><time>2026-04-26T08:32:51Z</time></trkpt><trkpt lat="38.88376102305137" lon="-9.268259979150805"><ele>262.0</ele><time>2026-04-26T08:32:52Z</time></trkpt><trkpt lat="38.883630063425755" lon="-9.268175809825628"><ele>262.0</ele><time>2026-04-26T08:32:53Z</time></trkpt><trkpt lat="38.883472900674725" lon="-9.268089290491368"><ele>262.0</ele><time>2026-04-26T08:32:54Z</time></trkpt><trkpt lat="38.88330721033827" lon="-9.268012619623255"><ele>262.0</ele><time>2026-04-26T08:32:55Z</time></trkpt><trkpt lat="38.8831205190775" lon="-9.267977322203322"><ele>262.0</ele><time>2026-04-26T08:32:56Z</time></trkpt><trkpt lat="38.882913583199795" lon="-9.267930749181202"><ele>262.0</ele><time>2026-04-26T08:32:57Z</time></trkpt><trkpt lat="38.8827159950837" lon="-9.267856804653904"><ele>262.0</ele><time>2026-04-26T08:32:58Z</time></trkpt><trkpt lat="38.88255072243179" lon="-9.267824614890372"><ele>262.3333333333333</ele><time>2026-04-26T08:32:59Z</time></trkpt><trkpt lat="38.88240420801565" lon="-9.267779688930734"><ele>262.6666666666667</ele><time>2026-04-26T08:33:00Z</time></trkpt><trkpt lat="38.88225938233227" lon="-9.267667133347842"><ele>263.0</ele><time>2026-04-26T08:33:01Z</time></trkpt><trkpt lat="38.88210941282383" lon="-9.267493338943456"><ele>263.0</ele><time>2026-04-26T08:33:02Z</time></trkpt><trkpt lat="38.881945552742806" lon="-9.267333691078687"><ele>263.0</ele><time>2026-04-26T08:33:03Z</time></trkpt><trkpt lat="38.88177131136716" lon="-9.267163789390077"><ele>263.0</ele><time>2026-04-26T08:33:04Z</time></trkpt><trkpt lat="38.88159216480987" lon="-9.266983358940847"><ele>262.6666666666667</ele><time>2026-04-26T08:33:05Z</time></trkpt><trkpt lat="38.881430831391604" lon="-9.266775561066884"><ele>262.3333333333333</ele><time>2026-04-26T08:33:06Z</time></trkpt><trkpt lat="38.8812770689256" lon="-9.266603419625323"><ele>262.0</ele><time>2026-04-26T08:33:07Z</time></trkpt><trkpt lat="38.88112856980827" lon="-9.266468768063097"><ele>260.66666666666663</ele><time>2026-04-26T08:33:07.999Z</time></trkpt><trkpt lat="38.88099042285513" lon="-9.266339418260353"><ele>259.3333333333333</ele><time>2026-04-26T08:33:08.999Z</time></trkpt><trkpt lat="38.88085525872217" lon="-9.266206117762234"><ele>258.0</ele><time>2026-04-26T08:33:09.999Z</time></trkpt><trkpt lat="38.88073156760407" lon="-9.266063599798983"><ele>256.0</ele><time>2026-04-26T08:33:10.999Z</time></trkpt><trkpt lat="38.88060426145456" lon="-9.26591623652243"><ele>254.0</ele><time>2026-04-26T08:33:11.999Z</time></trkpt><trkpt lat="38.8804694507322" lon="-9.26578896697132"><ele>252.0</ele><time>2026-04-26T08:33:12.999Z</time></trkpt><trkpt lat="38.88032072304678" lon="-9.265687356274487"><ele>252.0</ele><time>2026-04-26T08:33:13.999Z</time></trkpt><trkpt lat="38.88016080614744" lon="-9.265589314002096"><ele>252.0</ele><time>2026-04-26T08:33:14.999Z</time></trkpt><trkpt lat="38.87999884499325" lon="-9.265491699651403"><ele>252.0</ele><time>2026-04-26T08:33:15.999Z</time></trkpt><trkpt lat="38.879847527605456" lon="-9.26535464368579"><ele>252.0</ele><time>2026-04-26T08:33:16.999Z</time></trkpt><trkpt lat="38.87968245007712" lon="-9.26525114454685"><ele>252.0</ele><time>2026-04-26T08:33:17.999Z</time></trkpt><trkpt lat="38.879515781984516" lon="-9.265147823057971"><ele>252.0</ele><time>2026-04-26T08:33:18.999Z</time></trkpt><trkpt lat="38.87936737349532" lon="-9.265050361696092"><ele>252.75</ele><time>2026-04-26T08:33:19.999Z</time></trkpt><trkpt lat="38.87923496888266" lon="-9.26496054211551"><ele>253.5</ele><time>2026-04-26T08:33:20.999Z</time></trkpt><trkpt lat="38.87911543803733" lon="-9.264877206382948"><ele>254.25</ele><time>2026-04-26T08:33:21.999Z</time></trkpt><trkpt lat="38.87898997877009" lon="-9.264858555373866"><ele>255.0</ele><time>2026-04-26T08:33:22.999Z</time></trkpt><trkpt lat="38.878891281173075" lon="-9.26479943171589"><ele>254.5</ele><time>2026-04-26T08:33:23.999Z</time></trkpt><trkpt lat="38.878782927281556" lon="-9.26473426636817"><ele>254.0</ele><time>2026-04-26T08:33:24.999Z</time></trkpt><trkpt lat="38.87867257598781" lon="-9.2646477671368"><ele>253.5</ele><time>2026-04-26T08:33:25.999Z</time></trkpt><trkpt lat="38.878563911793044" lon="-9.264588355579438"><ele>253.0</ele><time>2026-04-26T08:33:26.999Z</time></trkpt><trkpt lat="38.87847059594526" lon="-9.264532267921888"><ele>253.0</ele><time>2026-04-26T08:33:27.999Z</time></trkpt><trkpt lat="38.87838532684007" lon="-9.26447818761169"><ele>253.0</ele><time>2026-04-26T08:33:28.999Z</time></trkpt><trkpt lat="38.878323665936584" lon="-9.264393520115386"><ele>253.0</ele><time>2026-04-26T08:33:29.999Z</time></trkpt><trkpt lat="38.87830876303026" lon="-9.264256852468762"><ele>253.0</ele><time>2026-04-26T08:33:30.999Z</time></trkpt><trkpt lat="38.878280202061205" lon="-9.264086801662973"><ele>253.0</ele><time>2026-04-26T08:33:31.999Z</time></trkpt><trkpt lat="38.87821132521591" lon="-9.263924997243793"><ele>252.33333333333331</ele><time>2026-04-26T08:33:32.999Z</time></trkpt><trkpt lat="38.878103574251625" lon="-9.263788655567193"><ele>251.66666666666669</ele><time>2026-04-26T08:33:33.999Z</time></trkpt><trkpt lat="38.87799081321317" lon="-9.263647260545238"><ele>251.0</ele><time>2026-04-26T08:33:34.999Z</time></trkpt><trkpt lat="38.87786109094474" lon="-9.263488357298597"><ele>251.0</ele><time>2026-04-26T08:33:35.999Z</time></trkpt><trkpt lat="38.87773524071434" lon="-9.263338470791533"><ele>251.0</ele><time>2026-04-26T08:33:36.999Z</time></trkpt><trkpt lat="38.87762277755707" lon="-9.263209988035847"><ele>251.0</ele><time>2026-04-26T08:33:37.999Z</time></trkpt><trkpt lat="38.87751823794768" lon="-9.26309313008357"><ele>250.8</ele><time>2026-04-26T08:33:38.999Z</time></trkpt><trkpt lat="38.87742806448232" lon="-9.262992558548047"><ele>250.60000000000002</ele><time>2026-04-26T08:33:39.999Z</time></trkpt><trkpt lat="38.87735822196041" lon="-9.262902538770216"><ele>250.4</ele><time>2026-04-26T08:33:40.999Z</time></trkpt><trkpt lat="38.87731468866803" lon="-9.262807206206087"><ele>250.2</ele><time>2026-04-26T08:33:41.999Z</time></trkpt><trkpt lat="38.877266761627794" lon="-9.262754327591256"><ele>250.0</ele><time>2026-04-26T08:33:42.999Z</time></trkpt><trkpt lat="38.877181377376104" lon="-9.262708583489761"><ele>250.0</ele><time>2026-04-26T08:33:44.999Z</time></trkpt><trkpt lat="38.877175578833764" lon="-9.262826144339963"><ele>250.0</ele><time>2026-04-26T08:33:45.999Z</time></trkpt><trkpt lat="38.877168084660205" lon="-9.262949465491529"><ele>250.0</ele><time>2026-04-26T08:33:46.999Z</time></trkpt><trkpt lat="38.87715266128771" lon="-9.263088718993405"><ele>250.0</ele><time>2026-04-26T08:33:47.999Z</time></trkpt><trkpt lat="38.8771336106274" lon="-9.263254814189471"><ele>250.0</ele><time>2026-04-26T08:33:48.999Z</time></trkpt><trkpt lat="38.877106780818835" lon="-9.263383118545608"><ele>250.25</ele><time>2026-04-26T08:33:49.999Z</time></trkpt><trkpt lat="38.877078250577014" lon="-9.263479492425075"><ele>250.5</ele><time>2026-04-26T08:33:50.999Z</time></trkpt><trkpt lat="38.876919660135634" lon="-9.263480408109094"><ele>250.75</ele><time>2026-04-26T08:33:52.999Z</time></trkpt><trkpt lat="38.876832422520785" lon="-9.263436633363257"><ele>251.0</ele><time>2026-04-26T08:33:53.999Z</time></trkpt><trkpt lat="38.876720651670354" lon="-9.263378976159647"><ele>249.8</ele><time>2026-04-26T08:33:54.999Z</time></trkpt><trkpt lat="38.87662970226374" lon="-9.26333599576505"><ele>248.60000000000002</ele><time>2026-04-26T08:33:55.999Z</time></trkpt><trkpt lat="38.876542574734856" lon="-9.263294951702942"><ele>247.4</ele><time>2026-04-26T08:33:57.999Z</time></trkpt><trkpt lat="38.87645012238966" lon="-9.263266904535527"><ele>246.2</ele><time>2026-04-26T08:33:59.999Z</time></trkpt><trkpt lat="38.8763676005592" lon="-9.263275087383382"><ele>245.0</ele><time>2026-04-26T08:34:00.999Z</time></trkpt><trkpt lat="38.876267285358665" lon="-9.263249295372663"><ele>245.0</ele><time>2026-04-26T08:34:01.999Z</time></trkpt><trkpt lat="38.876152682032064" lon="-9.263219716988825"><ele>245.0</ele><time>2026-04-26T08:34:02.999Z</time></trkpt><trkpt lat="38.8760167138294" lon="-9.263183266624676"><ele>245.0</ele><time>2026-04-26T08:34:03.999Z</time></trkpt><trkpt lat="38.875853708123294" lon="-9.263127146998789"><ele>245.0</ele><time>2026-04-26T08:34:04.999Z</time></trkpt><trkpt lat="38.87568611699986" lon="-9.263063311337243"><ele>245.0</ele><time>2026-04-26T08:34:05.999Z</time></trkpt><trkpt lat="38.87553203565662" lon="-9.2629954006491"><ele>245.0</ele><time>2026-04-26T08:34:06.999Z</time></trkpt><trkpt lat="38.87539304677774" lon="-9.26293540751425"><ele>245.0</ele><time>2026-04-26T08:34:07.999Z</time></trkpt><trkpt lat="38.87528332758564" lon="-9.262904603560639"><ele>245.0</ele><time>2026-04-26T08:34:08.999Z</time></trkpt><trkpt lat="38.87517182238324" lon="-9.26290291867445"><ele>244.4</ele><time>2026-04-26T08:34:09.999Z</time></trkpt><trkpt lat="38.87506312060373" lon="-9.262945605729016"><ele>243.8</ele><time>2026-04-26T08:34:10.999Z</time></trkpt><trkpt lat="38.874958865337035" lon="-9.262966020596004"><ele>243.2</ele><time>2026-04-26T08:34:11.999Z</time></trkpt><trkpt lat="38.87487819717146" lon="-9.263006340152277"><ele>242.6</ele><time>2026-04-26T08:34:12.999Z</time></trkpt><trkpt lat="38.87479332002931" lon="-9.262976912308691"><ele>242.0</ele><time>2026-04-26T08:34:13.999Z</time></trkpt><trkpt lat="38.874699218903245" lon="-9.262923659782937"><ele>242.0</ele><time>2026-04-26T08:34:14.999Z</time></trkpt><trkpt lat="38.874593447821916" lon="-9.26282523893837"><ele>242.0</ele><time>2026-04-26T08:34:15.999Z</time></trkpt><trkpt lat="38.87447857316335" lon="-9.262719042254151"><ele>242.0</ele><time>2026-04-26T08:34:16.999Z</time></trkpt><trkpt lat="38.87436668063366" lon="-9.26260925500577"><ele>242.0</ele><time>2026-04-26T08:34:17.999Z</time></trkpt><trkpt lat="38.874233885165516" lon="-9.262492281848298"><ele>241.66666666666669</ele><time>2026-04-26T08:34:18.999Z</time></trkpt><trkpt lat="38.87408220524674" lon="-9.262401808539229"><ele>241.33333333333331</ele><time>2026-04-26T08:34:19.999Z</time></trkpt><trkpt lat="38.87392774628782" lon="-9.262306880992462"><ele>241.0</ele><time>2026-04-26T08:34:20.999Z</time></trkpt><trkpt lat="38.87375903832451" lon="-9.26223156129375"><ele>240.66666666666666</ele><time>2026-04-26T08:34:21.999Z</time></trkpt><trkpt lat="38.87357318216343" lon="-9.262160788743346"><ele>240.33333333333331</ele><time>2026-04-26T08:34:22.999Z</time></trkpt><trkpt lat="38.873400492284404" lon="-9.262105397196391"><ele>240.0</ele><time>2026-04-26T08:34:23.999Z</time></trkpt><trkpt lat="38.87324237659308" lon="-9.262049367026885"><ele>239.25</ele><time>2026-04-26T08:34:24.999Z</time></trkpt><trkpt lat="38.8731128675482" lon="-9.261992668783481"><ele>238.5</ele><time>2026-04-26T08:34:25.999Z</time></trkpt><trkpt lat="38.873022741806885" lon="-9.261935548403942"><ele>237.75</ele><time>2026-04-26T08:34:26.999Z</time></trkpt><trkpt lat="38.87292224024019" lon="-9.26187865295972"><ele>237.0</ele><time>2026-04-26T08:34:27.999Z</time></trkpt><trkpt lat="38.87281978570232" lon="-9.261813161011046"><ele>237.0</ele><time>2026-04-26T08:34:28.999Z</time></trkpt><trkpt lat="38.87271921110111" lon="-9.261771204850788"><ele>237.0</ele><time>2026-04-26T08:34:29.999Z</time></trkpt><trkpt lat="38.87262614576742" lon="-9.261707136324027"><ele>237.0</ele><time>2026-04-26T08:34:30.999Z</time></trkpt><trkpt lat="38.87254203057715" lon="-9.261660036586823"><ele>237.0</ele><time>2026-04-26T08:34:31.999Z</time></trkpt><trkpt lat="38.87246889019437" lon="-9.261633760941928"><ele>237.0</ele><time>2026-04-26T08:34:32.999Z</time></trkpt><trkpt lat="38.872392862346594" lon="-9.261627013274603"><ele>237.5</ele><time>2026-04-26T08:34:33.999Z</time></trkpt><trkpt lat="38.872319415400824" lon="-9.261610415011011"><ele>238.0</ele><time>2026-04-26T08:34:34.999Z</time></trkpt><trkpt lat="38.87227068674879" lon="-9.261752022974992"><ele>238.5</ele><time>2026-04-26T08:34:35.999Z</time></trkpt><trkpt lat="38.87219178367605" lon="-9.261747068270887"><ele>239.0</ele><time>2026-04-26T08:34:36.999Z</time></trkpt><trkpt lat="38.87207286549074" lon="-9.261419941957259"><ele>240.25</ele><time>2026-04-26T08:34:37.999Z</time></trkpt><trkpt lat="38.871957262046934" lon="-9.2613402088918"><ele>241.5</ele><time>2026-04-26T08:34:39Z</time></trkpt><trkpt lat="38.87187065566101" lon="-9.261256511116226"><ele>242.75</ele><time>2026-04-26T08:34:40Z</time></trkpt><trkpt lat="38.87177192454767" lon="-9.261189173281496"><ele>244.0</ele><time>2026-04-26T08:34:41Z</time></trkpt><trkpt lat="38.871674114454365" lon="-9.261154366672693"><ele>244.0</ele><time>2026-04-26T08:34:42Z</time></trkpt><trkpt lat="38.87156699313757" lon="-9.261139567431702"><ele>244.0</ele><time>2026-04-26T08:34:43Z</time></trkpt><trkpt lat="38.8715138897574" lon="-9.260841526346717"><ele>244.0</ele><time>2026-04-26T08:34:44Z</time></trkpt><trkpt lat="38.871429937816416" lon="-9.260778477586923"><ele>244.0</ele><time>2026-04-26T08:34:45Z</time></trkpt><trkpt lat="38.87134754570389" lon="-9.260695910091153"><ele>244.0</ele><time>2026-04-26T08:34:46Z</time></trkpt><trkpt lat="38.87128765857208" lon="-9.260631804754459"><ele>243.99999999999997</ele><time>2026-04-26T08:34:47Z</time></trkpt><trkpt lat="38.8712198974087" lon="-9.260570201931214"><ele>243.99999999999997</ele><time>2026-04-26T08:34:48Z</time></trkpt><trkpt lat="38.871157916088954" lon="-9.260494609811541"><ele>244.0</ele><time>2026-04-26T08:34:49Z</time></trkpt><trkpt lat="38.871078419448" lon="-9.260382193582643"><ele>244.0</ele><time>2026-04-26T08:34:50Z</time></trkpt><trkpt lat="38.870968892385484" lon="-9.260305639734232"><ele>246.75</ele><time>2026-04-26T08:34:51Z</time></trkpt><trkpt lat="38.8708499278193" lon="-9.260217305117875"><ele>249.5</ele><time>2026-04-26T08:34:52.001Z</time></trkpt><trkpt lat="38.870747265971595" lon="-9.260089946508884"><ele>252.25</ele><time>2026-04-26T08:34:53.001Z</time></trkpt><trkpt lat="38.87063293860638" lon="-9.260016841471039"><ele>255.0</ele><time>2026-04-26T08:34:54.001Z</time></trkpt><trkpt lat="38.870545156421684" lon="-9.259944984090367"><ele>255.0</ele><time>2026-04-26T08:34:55.001Z</time></trkpt><trkpt lat="38.87045712565973" lon="-9.259885290503373"><ele>255.0</ele><time>2026-04-26T08:34:56.001Z</time></trkpt><trkpt lat="38.87037113958893" lon="-9.25982939551528"><ele>255.0</ele><time>2026-04-26T08:34:57.001Z</time></trkpt><trkpt lat="38.87028897554559" lon="-9.25977315741811"><ele>255.0</ele><time>2026-04-26T08:34:58.001Z</time></trkpt><trkpt lat="38.87020730191637" lon="-9.259752921234591"><ele>255.0</ele><time>2026-04-26T08:34:59.001Z</time></trkpt><trkpt lat="38.870102146343825" lon="-9.259753218079933"><ele>256.75</ele><time>2026-04-26T08:35:00.001Z</time></trkpt><trkpt lat="38.86997598735619" lon="-9.259738140096367"><ele>258.5</ele><time>2026-04-26T08:35:01.001Z</time></trkpt><trkpt lat="38.86985942523463" lon="-9.25983167490212"><ele>260.25</ele><time>2026-04-26T08:35:02.001Z</time></trkpt><trkpt lat="38.869729096128275" lon="-9.259878662504379"><ele>262.0</ele><time>2026-04-26T08:35:03Z</time></trkpt><trkpt lat="38.86962776945327" lon="-9.259919274535122"><ele>262.0</ele><time>2026-04-26T08:35:04Z</time></trkpt><trkpt lat="38.86954596341532" lon="-9.259954102371657"><ele>262.0</ele><time>2026-04-26T08:35:05Z</time></trkpt><trkpt lat="38.86947282470428" lon="-9.259962540616003"><ele>262.0</ele><time>2026-04-26T08:35:06Z</time></trkpt><trkpt lat="38.86941181703164" lon="-9.259991432334584"><ele>262.0</ele><time>2026-04-26T08:35:07Z</time></trkpt><trkpt lat="38.86935393980154" lon="-9.259924547122457"><ele>262.0</ele><time>2026-04-26T08:35:08Z</time></trkpt><trkpt lat="38.869346425285606" lon="-9.259828793065793"><ele>262.0</ele><time>2026-04-26T08:35:09Z</time></trkpt><trkpt lat="38.86930216833624" lon="-9.259747148373043"><ele>263.0</ele><time>2026-04-26T08:35:10Z</time></trkpt><trkpt lat="38.869254274875495" lon="-9.259657777285248"><ele>264.0</ele><time>2026-04-26T08:35:11Z</time></trkpt><trkpt lat="38.86924177418482" lon="-9.259572012544114"><ele>265.0</ele><time>2026-04-26T08:35:12Z</time></trkpt><trkpt lat="38.869314825003094" lon="-9.259439660567493"><ele>266.0</ele><time>2026-04-26T08:35:13Z</time></trkpt><trkpt lat="38.86933880210954" lon="-9.25935438552762"><ele>267.0</ele><time>2026-04-26T08:35:14Z</time></trkpt><trkpt lat="38.86943365292946" lon="-9.259241893944228"><ele>267.0</ele><time>2026-04-26T08:35:22Z</time></trkpt><trkpt lat="38.86948277345118" lon="-9.259165642156143"><ele>267.0</ele><time>2026-04-26T08:35:23Z</time></trkpt><trkpt lat="38.869613084931366" lon="-9.259116370606598"><ele>267.0</ele><time>2026-04-26T08:35:24Z</time></trkpt><trkpt lat="38.86976134749651" lon="-9.259062946230957"><ele>267.0</ele><time>2026-04-26T08:35:25Z</time></trkpt><trkpt lat="38.86989743471143" lon="-9.258930920846218"><ele>267.3333333333333</ele><time>2026-04-26T08:35:26Z</time></trkpt><trkpt lat="38.870040088975195" lon="-9.258779466076152"><ele>267.66666666666663</ele><time>2026-04-26T08:35:27Z</time></trkpt><trkpt lat="38.87017682897471" lon="-9.258656326535263"><ele>268.0</ele><time>2026-04-26T08:35:28Z</time></trkpt><trkpt lat="38.870296258962526" lon="-9.258567522016818"><ele>268.0</ele><time>2026-04-26T08:35:29Z</time></trkpt><trkpt lat="38.87041796674242" lon="-9.258502149351385"><ele>268.0</ele><time>2026-04-26T08:35:30Z</time></trkpt><trkpt lat="38.87054259849738" lon="-9.258400263676142"><ele>268.0</ele><time>2026-04-26T08:35:31Z</time></trkpt><trkpt lat="38.87064087179142" lon="-9.25826039796275"><ele>268.0</ele><time>2026-04-26T08:35:32Z</time></trkpt><trkpt lat="38.87064656197074" lon="-9.258051442722667"><ele>268.75</ele><time>2026-04-26T08:35:33Z</time></trkpt><trkpt lat="38.87070149881216" lon="-9.257905270379077"><ele>269.5</ele><time>2026-04-26T08:35:34Z</time></trkpt><trkpt lat="38.87074934716581" lon="-9.257829464808449"><ele>270.25</ele><time>2026-04-26T08:35:35Z</time></trkpt><trkpt lat="38.87077513210159" lon="-9.257713986603498"><ele>271.0</ele><time>2026-04-26T08:35:37Z</time></trkpt><trkpt lat="38.87062921935905" lon="-9.25761540494131"><ele>271.0</ele><time>2026-04-26T08:35:40Z</time></trkpt><trkpt lat="38.87053659076018" lon="-9.257537947008949"><ele>271.0</ele><time>2026-04-26T08:35:41Z</time></trkpt><trkpt lat="38.870442057088255" lon="-9.257458896067082"><ele>271.0</ele><time>2026-04-26T08:35:42Z</time></trkpt><trkpt lat="38.87033688523651" lon="-9.257356854057264"><ele>271.0</ele><time>2026-04-26T08:35:43Z</time></trkpt><trkpt lat="38.870218546034394" lon="-9.257260048066456"><ele>272.3333333333333</ele><time>2026-04-26T08:35:44Z</time></trkpt><trkpt lat="38.87008576867101" lon="-9.257193705031115"><ele>273.6666666666667</ele><time>2026-04-26T08:35:45Z</time></trkpt><trkpt lat="38.86992856389709" lon="-9.257131452102385"><ele>275.0</ele><time>2026-04-26T08:35:46Z</time></trkpt><trkpt lat="38.86975722555802" lon="-9.257115198736777"><ele>275.0</ele><time>2026-04-26T08:35:47Z</time></trkpt><trkpt lat="38.8695864546196" lon="-9.257123648395766"><ele>275.0</ele><time>2026-04-26T08:35:48Z</time></trkpt><trkpt lat="38.86947101461524" lon="-9.257124712732738"><ele>275.0</ele><time>2026-04-26T08:35:49Z</time></trkpt><trkpt lat="38.86939408684575" lon="-9.257099308199217"><ele>275.0</ele><time>2026-04-26T08:35:50Z</time></trkpt><trkpt lat="38.86932080262133" lon="-9.257109995825504"><ele>275.0</ele><time>2026-04-26T08:35:51Z</time></trkpt><trkpt lat="38.86923852652385" lon="-9.257157541839156"><ele>276.6666666666667</ele><time>2026-04-26T08:35:53Z</time></trkpt><trkpt lat="38.86913739647696" lon="-9.25704205376756"><ele>278.3333333333333</ele><time>2026-04-26T08:35:55Z</time></trkpt><trkpt lat="38.86905422160087" lon="-9.25699839628389"><ele>280.0</ele><time>2026-04-26T08:35:56Z</time></trkpt><trkpt lat="38.86875908887556" lon="-9.257311919519902"><ele>280.0</ele><time>2026-04-26T08:35:58Z</time></trkpt><trkpt lat="38.86867316589251" lon="-9.257303614108928"><ele>280.0</ele><time>2026-04-26T08:35:59Z</time></trkpt><trkpt lat="38.868558593529215" lon="-9.257290711553905"><ele>280.0</ele><time>2026-04-26T08:36:00Z</time></trkpt><trkpt lat="38.86844095536951" lon="-9.25731306059901"><ele>280.0</ele><time>2026-04-26T08:36:01Z</time></trkpt><trkpt lat="38.8683033841562" lon="-9.257289532175143"><ele>281.0</ele><time>2026-04-26T08:36:02Z</time></trkpt><trkpt lat="38.868187661964505" lon="-9.25725355959519"><ele>282.0</ele><time>2026-04-26T08:36:03Z</time></trkpt><trkpt lat="38.86806964118673" lon="-9.25724354897632"><ele>283.0</ele><time>2026-04-26T08:36:04Z</time></trkpt><trkpt lat="38.86795436774611" lon="-9.257212437817051"><ele>284.0</ele><time>2026-04-26T08:36:05Z</time></trkpt><trkpt lat="38.8678397703723" lon="-9.25716703318232"><ele>284.0</ele><time>2026-04-26T08:36:06Z</time></trkpt><trkpt lat="38.86773235528786" lon="-9.25710735225968"><ele>284.0</ele><time>2026-04-26T08:36:07Z</time></trkpt><trkpt lat="38.867625718349544" lon="-9.257081491975528"><ele>284.0</ele><time>2026-04-26T08:36:08Z</time></trkpt><trkpt lat="38.867510907537806" lon="-9.25704552043142"><ele>284.0</ele><time>2026-04-26T08:36:09Z</time></trkpt><trkpt lat="38.86741386674315" lon="-9.257020463113841"><ele>284.0</ele><time>2026-04-26T08:36:10Z</time></trkpt><trkpt lat="38.86733264269757" lon="-9.256987559975856"><ele>284.0</ele><time>2026-04-26T08:36:11Z</time></trkpt><trkpt lat="38.86725899322925" lon="-9.256935635276534"><ele>284.0</ele><time>2026-04-26T08:36:12Z</time></trkpt><trkpt lat="38.867158060206" lon="-9.256922566028107"><ele>284.0</ele><time>2026-04-26T08:36:13Z</time></trkpt><trkpt lat="38.86705426223104" lon="-9.256867104794539"><ele>284.0</ele><time>2026-04-26T08:36:14Z</time></trkpt><trkpt lat="38.866934755502015" lon="-9.256841087300664"><ele>284.0</ele><time>2026-04-26T08:36:15Z</time></trkpt><trkpt lat="38.866830496184015" lon="-9.25682257920626"><ele>283.0</ele><time>2026-04-26T08:36:16Z</time></trkpt><trkpt lat="38.86672095719964" lon="-9.25683011881602"><ele>282.0</ele><time>2026-04-26T08:36:17Z</time></trkpt><trkpt lat="38.866631801453174" lon="-9.256815305867294"><ele>281.0</ele><time>2026-04-26T08:36:18Z</time></trkpt><trkpt lat="38.866535753600054" lon="-9.256753909624509"><ele>280.0</ele><time>2026-04-26T08:36:19Z</time></trkpt><trkpt lat="38.86643298693564" lon="-9.256708449521694"><ele>279.0</ele><time>2026-04-26T08:36:20Z</time></trkpt><trkpt lat="38.866314767353536" lon="-9.256670938334896"><ele>279.0</ele><time>2026-04-26T08:36:21Z</time></trkpt><trkpt lat="38.86619111600062" lon="-9.256653578462396"><ele>279.0</ele><time>2026-04-26T08:36:22Z</time></trkpt><trkpt lat="38.86607468811279" lon="-9.2566628997807"><ele>279.0</ele><time>2026-04-26T08:36:23Z</time></trkpt><trkpt lat="38.86596996819401" lon="-9.25668307900063"><ele>279.0</ele><time>2026-04-26T08:36:24Z</time></trkpt><trkpt lat="38.86586542481579" lon="-9.256716811719496"><ele>278.2</ele><time>2026-04-26T08:36:25Z</time></trkpt><trkpt lat="38.86576487381952" lon="-9.256756342944968"><ele>277.4</ele><time>2026-04-26T08:36:26Z</time></trkpt><trkpt lat="38.86567117145383" lon="-9.256794708017567"><ele>276.6</ele><time>2026-04-26T08:36:27Z</time></trkpt><trkpt lat="38.86556713607735" lon="-9.256834423692718"><ele>275.8</ele><time>2026-04-26T08:36:28Z</time></trkpt><trkpt lat="38.865474878023555" lon="-9.256860654984564"><ele>275.0</ele><time>2026-04-26T08:36:29Z</time></trkpt><trkpt lat="38.86538094319757" lon="-9.256838610180903"><ele>275.0</ele><time>2026-04-26T08:36:30Z</time></trkpt><trkpt lat="38.865310382908625" lon="-9.256822143988295"><ele>275.0</ele><time>2026-04-26T08:36:31Z</time></trkpt><trkpt lat="38.865213618233845" lon="-9.256820709268489"><ele>275.0</ele><time>2026-04-26T08:36:32Z</time></trkpt><trkpt lat="38.86511698508209" lon="-9.25688706513421"><ele>275.0</ele><time>2026-04-26T08:36:33Z</time></trkpt><trkpt lat="38.86499592954307" lon="-9.25692932250939"><ele>275.0</ele><time>2026-04-26T08:36:34Z</time></trkpt><trkpt lat="38.86488525183017" lon="-9.25695078342449"><ele>273.75</ele><time>2026-04-26T08:36:35Z</time></trkpt><trkpt lat="38.86477281647313" lon="-9.2569751639019"><ele>272.5</ele><time>2026-04-26T08:36:36Z</time></trkpt><trkpt lat="38.864673043986464" lon="-9.257024531869243"><ele>271.25</ele><time>2026-04-26T08:36:37Z</time></trkpt><trkpt lat="38.86457051551573" lon="-9.257062334913664"><ele>270.0</ele><time>2026-04-26T08:36:38Z</time></trkpt><trkpt lat="38.8644491731826" lon="-9.25710804352034"><ele>270.0</ele><time>2026-04-26T08:36:39Z</time></trkpt><trkpt lat="38.86433353981373" lon="-9.25715352839982"><ele>270.0</ele><time>2026-04-26T08:36:40Z</time></trkpt><trkpt lat="38.8642065289829" lon="-9.257205671944252"><ele>270.0</ele><time>2026-04-26T08:36:41Z</time></trkpt><trkpt lat="38.864078887208" lon="-9.257259834917717"><ele>270.0</ele><time>2026-04-26T08:36:42Z</time></trkpt><trkpt lat="38.86396531623951" lon="-9.25730644709521"><ele>267.5</ele><time>2026-04-26T08:36:43Z</time></trkpt><trkpt lat="38.86383609997846" lon="-9.257349004406379"><ele>265.0</ele><time>2026-04-26T08:36:44Z</time></trkpt><trkpt lat="38.86372575824647" lon="-9.25737277134165"><ele>262.5</ele><time>2026-04-26T08:36:45.001Z</time></trkpt><trkpt lat="38.863611368672686" lon="-9.257387146421465"><ele>260.0</ele><time>2026-04-26T08:36:46.001Z</time></trkpt><trkpt lat="38.86348841419633" lon="-9.257410229915195"><ele>259.4</ele><time>2026-04-26T08:36:47.001Z</time></trkpt><trkpt lat="38.86337384433754" lon="-9.257417197656498"><ele>258.8</ele><time>2026-04-26T08:36:48.001Z</time></trkpt><trkpt lat="38.86327614112951" lon="-9.25744202862867"><ele>258.2</ele><time>2026-04-26T08:36:49.001Z</time></trkpt><trkpt lat="38.863173821297394" lon="-9.257435297283727"><ele>257.6</ele><time>2026-04-26T08:36:50.001Z</time></trkpt><trkpt lat="38.86308658210839" lon="-9.257427233458559"><ele>257.0</ele><time>2026-04-26T08:36:51.001Z</time></trkpt><trkpt lat="38.86300234004307" lon="-9.257424034426212"><ele>257.0</ele><time>2026-04-26T08:36:52.001Z</time></trkpt><trkpt lat="38.86292221770632" lon="-9.257395070403813"><ele>257.0</ele><time>2026-04-26T08:36:53.001Z</time></trkpt><trkpt lat="38.86283658020023" lon="-9.257364900551671"><ele>257.0</ele><time>2026-04-26T08:36:54.001Z</time></trkpt><trkpt lat="38.86271230874101" lon="-9.257302952770187"><ele>257.0</ele><time>2026-04-26T08:36:55.001Z</time></trkpt><trkpt lat="38.86257252698169" lon="-9.257239398105133"><ele>255.0</ele><time>2026-04-26T08:36:56.001Z</time></trkpt><trkpt lat="38.86240739660493" lon="-9.257156018513372"><ele>253.0</ele><time>2026-04-26T08:36:57.001Z</time></trkpt><trkpt lat="38.86227446323692" lon="-9.257092196806084"><ele>251.0</ele><time>2026-04-26T08:36:58.001Z</time></trkpt><trkpt lat="38.862142040490404" lon="-9.257043847022578"><ele>251.0</ele><time>2026-04-26T08:36:59.001Z</time></trkpt><trkpt lat="38.86200027828174" lon="-9.256997859425308"><ele>251.0</ele><time>2026-04-26T08:37:00.001Z</time></trkpt><trkpt lat="38.861852059224766" lon="-9.256955075594822"><ele>251.0</ele><time>2026-04-26T08:37:01.001Z</time></trkpt><trkpt lat="38.861735077734075" lon="-9.256908848061865"><ele>251.0</ele><time>2026-04-26T08:37:02Z</time></trkpt><trkpt lat="38.86162683986027" lon="-9.256906566436854"><ele>250.25</ele><time>2026-04-26T08:37:03Z</time></trkpt><trkpt lat="38.86152017385024" lon="-9.256924762561829"><ele>249.5</ele><time>2026-04-26T08:37:04Z</time></trkpt><trkpt lat="38.861415731738724" lon="-9.256973844506524"><ele>248.75</ele><time>2026-04-26T08:37:05Z</time></trkpt><trkpt lat="38.86130407635148" lon="-9.257035116933716"><ele>248.0</ele><time>2026-04-26T08:37:06Z</time></trkpt><trkpt lat="38.86120210720253" lon="-9.257097741903726"><ele>248.0</ele><time>2026-04-26T08:37:07Z</time></trkpt><trkpt lat="38.861101389273756" lon="-9.257179429549446"><ele>248.0</ele><time>2026-04-26T08:37:08Z</time></trkpt><trkpt lat="38.860991488546254" lon="-9.257261964288302"><ele>248.0</ele><time>2026-04-26T08:37:09Z</time></trkpt><trkpt lat="38.860880807054684" lon="-9.257329045957308"><ele>248.0</ele><time>2026-04-26T08:37:10Z</time></trkpt><trkpt lat="38.860751750542455" lon="-9.257406958541013"><ele>247.0</ele><time>2026-04-26T08:37:11Z</time></trkpt><trkpt lat="38.86062010955056" lon="-9.257497422554954"><ele>246.0</ele><time>2026-04-26T08:37:12Z</time></trkpt><trkpt lat="38.86049969378097" lon="-9.257583393383563"><ele>245.0</ele><time>2026-04-26T08:37:13Z</time></trkpt><trkpt lat="38.86039540414562" lon="-9.257668360229102"><ele>244.0</ele><time>2026-04-26T08:37:14Z</time></trkpt><trkpt lat="38.86027659918424" lon="-9.257767514226948"><ele>244.0</ele><time>2026-04-26T08:37:15Z</time></trkpt><trkpt lat="38.86016890943414" lon="-9.257849875333129"><ele>243.99999999999997</ele><time>2026-04-26T08:37:16Z</time></trkpt><trkpt lat="38.860082041248006" lon="-9.257914067853529"><ele>243.99999999999997</ele><time>2026-04-26T08:37:17Z</time></trkpt><trkpt lat="38.860004970131264" lon="-9.257968557165164"><ele>244.0</ele><time>2026-04-26T08:37:18Z</time></trkpt><trkpt lat="38.85994266088726" lon="-9.258012680914572"><ele>244.0</ele><time>2026-04-26T08:37:19Z</time></trkpt><trkpt lat="38.85987281174169" lon="-9.258037538949411"><ele>243.6</ele><time>2026-04-26T08:37:20Z</time></trkpt><trkpt lat="38.85981686123833" lon="-9.258077290652386"><ele>243.2</ele><time>2026-04-26T08:37:21Z</time></trkpt><trkpt lat="38.85973882035271" lon="-9.258096703338962"><ele>242.79999999999998</ele><time>2026-04-26T08:37:23Z</time></trkpt><trkpt lat="38.85967618254252" lon="-9.258045811099324"><ele>242.39999999999998</ele><time>2026-04-26T08:37:24Z</time></trkpt><trkpt lat="38.85956121199715" lon="-9.258124952959848"><ele>242.0</ele><time>2026-04-26T08:37:25Z</time></trkpt><trkpt lat="38.85942755638586" lon="-9.258223116340256"><ele>242.0</ele><time>2026-04-26T08:37:26Z</time></trkpt><trkpt lat="38.85928844316814" lon="-9.258347555951989"><ele>242.0</ele><time>2026-04-26T08:37:27Z</time></trkpt><trkpt lat="38.859168362575666" lon="-9.258433221160498"><ele>242.0</ele><time>2026-04-26T08:37:28Z</time></trkpt><trkpt lat="38.85903654056074" lon="-9.25851918731242"><ele>240.5</ele><time>2026-04-26T08:37:29Z</time></trkpt><trkpt lat="38.85889699332972" lon="-9.25857508023183"><ele>239.0</ele><time>2026-04-26T08:37:30Z</time></trkpt><trkpt lat="38.85874733813109" lon="-9.258597397769186"><ele>237.5</ele><time>2026-04-26T08:37:31Z</time></trkpt><trkpt lat="38.85859665780794" lon="-9.258593394899812"><ele>236.0</ele><time>2026-04-26T08:37:32Z</time></trkpt><trkpt lat="38.858451489426805" lon="-9.258573770704869"><ele>235.75</ele><time>2026-04-26T08:37:33Z</time></trkpt><trkpt lat="38.85832196711265" lon="-9.258581313294977"><ele>235.5</ele><time>2026-04-26T08:37:34Z</time></trkpt><trkpt lat="38.85820710416774" lon="-9.258577529100942"><ele>235.25</ele><time>2026-04-26T08:37:35Z</time></trkpt><trkpt lat="38.858093286254764" lon="-9.258570521012935"><ele>235.0</ele><time>2026-04-26T08:37:36Z</time></trkpt><trkpt lat="38.85800058159965" lon="-9.25855902972924"><ele>235.0</ele><time>2026-04-26T08:37:37Z</time></trkpt><trkpt lat="38.857937176260016" lon="-9.258536402670442"><ele>235.0</ele><time>2026-04-26T08:37:38Z</time></trkpt><trkpt lat="38.857922615218406" lon="-9.258369634429155"><ele>235.0</ele><time>2026-04-26T08:37:45Z</time></trkpt><trkpt lat="38.85796030248462" lon="-9.258230926700127"><ele>235.0</ele><time>2026-04-26T08:37:47Z</time></trkpt><trkpt lat="38.85797779841191" lon="-9.258150643445362"><ele>235.0</ele><time>2026-04-26T08:37:48Z</time></trkpt><trkpt lat="38.85800423183751" lon="-9.258056943048413"><ele>235.6</ele><time>2026-04-26T08:37:49Z</time></trkpt><trkpt lat="38.85802719914334" lon="-9.257934434465161"><ele>236.2</ele><time>2026-04-26T08:37:50Z</time></trkpt><trkpt lat="38.858053022220915" lon="-9.257809077634251"><ele>236.8</ele><time>2026-04-26T08:37:51Z</time></trkpt><trkpt lat="38.85807788581911" lon="-9.257676212760549"><ele>237.4</ele><time>2026-04-26T08:37:52Z</time></trkpt><trkpt lat="38.85812061068895" lon="-9.257531825937704"><ele>238.0</ele><time>2026-04-26T08:37:53Z</time></trkpt><trkpt lat="38.85814417148568" lon="-9.257367673905652"><ele>239.0</ele><time>2026-04-26T08:37:54Z</time></trkpt><trkpt lat="38.85817612069797" lon="-9.25720977350046"><ele>240.0</ele><time>2026-04-26T08:37:55Z</time></trkpt><trkpt lat="38.858209278717496" lon="-9.257046128564486"><ele>241.0</ele><time>2026-04-26T08:37:56Z</time></trkpt><trkpt lat="38.8582561287265" lon="-9.256885669714787"><ele>242.0</ele><time>2026-04-26T08:37:57Z</time></trkpt><trkpt lat="38.85826667188966" lon="-9.256709633869686"><ele>242.0</ele><time>2026-04-26T08:37:58Z</time></trkpt><trkpt lat="38.858283998999724" lon="-9.256519842215496"><ele>242.0</ele><time>2026-04-26T08:37:59Z</time></trkpt><trkpt lat="38.858290680783945" lon="-9.256357601075205"><ele>242.0</ele><time>2026-04-26T08:38:00Z</time></trkpt><trkpt lat="38.85830235672235" lon="-9.256181057502555"><ele>242.0</ele><time>2026-04-26T08:38:01Z</time></trkpt><trkpt lat="38.858335567236885" lon="-9.255981768801968"><ele>242.33333333333334</ele><time>2026-04-26T08:38:02Z</time></trkpt><trkpt lat="38.85835368151859" lon="-9.25576424313441"><ele>242.66666666666669</ele><time>2026-04-26T08:38:03Z</time></trkpt><trkpt lat="38.85839454758524" lon="-9.25556077707775"><ele>243.0</ele><time>2026-04-26T08:38:04Z</time></trkpt><trkpt lat="38.85840517753849" lon="-9.255383701387503"><ele>243.16666666666666</ele><time>2026-04-26T08:38:05Z</time></trkpt><trkpt lat="38.85842463335328" lon="-9.25523634502507"><ele>243.33333333333331</ele><time>2026-04-26T08:38:06Z</time></trkpt><trkpt lat="38.85844116827932" lon="-9.25511111273582"><ele>243.5</ele><time>2026-04-26T08:38:07Z</time></trkpt><trkpt lat="38.85845394839358" lon="-9.25501431864902"><ele>243.66666666666666</ele><time>2026-04-26T08:38:08Z</time></trkpt><trkpt lat="38.85846527260745" lon="-9.254928551267039"><ele>243.83333333333331</ele><time>2026-04-26T08:38:10Z</time></trkpt><trkpt lat="38.85852926854608" lon="-9.25485060165872"><ele>244.0</ele><time>2026-04-26T08:38:13Z</time></trkpt><trkpt lat="38.85855920318248" lon="-9.254745907501173"><ele>245.39999999999998</ele><time>2026-04-26T08:38:15Z</time></trkpt><trkpt lat="38.858600296310165" lon="-9.254589788974421"><ele>246.79999999999998</ele><time>2026-04-26T08:38:17Z</time></trkpt><trkpt lat="38.85861989967792" lon="-9.254460922096053"><ele>248.20000000000002</ele><time>2026-04-26T08:38:18Z</time></trkpt><trkpt lat="38.85863930424069" lon="-9.254356696391474"><ele>249.60000000000002</ele><time>2026-04-26T08:38:19Z</time></trkpt><trkpt lat="38.85867042050706" lon="-9.254267186231596"><ele>251.0</ele><time>2026-04-26T08:38:20Z</time></trkpt><trkpt lat="38.85869327470186" lon="-9.25418752564692"><ele>251.0</ele><time>2026-04-26T08:38:21Z</time></trkpt><trkpt lat="38.85869832532418" lon="-9.25407781485127"><ele>251.00000000000003</ele><time>2026-04-26T08:38:22Z</time></trkpt><trkpt lat="38.858709901313894" lon="-9.253969375925763"><ele>251.00000000000003</ele><time>2026-04-26T08:38:23Z</time></trkpt><trkpt lat="38.858724270526295" lon="-9.253847377701316"><ele>251.0</ele><time>2026-04-26T08:38:24Z</time></trkpt><trkpt lat="38.85874803333111" lon="-9.253725675662459"><ele>251.0</ele><time>2026-04-26T08:38:25Z</time></trkpt><trkpt lat="38.85876829839668" lon="-9.253594241502412"><ele>252.60000000000002</ele><time>2026-04-26T08:38:26Z</time></trkpt><trkpt lat="38.85879468467259" lon="-9.25347890390264"><ele>254.20000000000002</ele><time>2026-04-26T08:38:27Z</time></trkpt><trkpt lat="38.85881332987611" lon="-9.253365502124618"><ele>255.79999999999998</ele><time>2026-04-26T08:38:28Z</time></trkpt><trkpt lat="38.858846395062244" lon="-9.253266414562807"><ele>257.4</ele><time>2026-04-26T08:38:29Z</time></trkpt><trkpt lat="38.85888433841637" lon="-9.253164086700005"><ele>259.0</ele><time>2026-04-26T08:38:30Z</time></trkpt><trkpt lat="38.85890793792607" lon="-9.253044352080659"><ele>259.0</ele><time>2026-04-26T08:38:31Z</time></trkpt><trkpt lat="38.858939664094684" lon="-9.252949029997067"><ele>259.0</ele><time>2026-04-26T08:38:32Z</time></trkpt><trkpt lat="38.85894305897587" lon="-9.252864356193546"><ele>259.0</ele><time>2026-04-26T08:38:33Z</time></trkpt><trkpt lat="38.85890765650278" lon="-9.252718492438422"><ele>259.0</ele><time>2026-04-26T08:38:35Z</time></trkpt><trkpt lat="38.858938708909925" lon="-9.252625297273344"><ele>259.0</ele><time>2026-04-26T08:38:36Z</time></trkpt><trkpt lat="38.858949517940275" lon="-9.252545194329345"><ele>259.0</ele><time>2026-04-26T08:38:38Z</time></trkpt><trkpt lat="38.85894694370827" lon="-9.252463992756566"><ele>259.0</ele><time>2026-04-26T08:38:40Z</time></trkpt><trkpt lat="38.85892019670419" lon="-9.252338889125445"><ele>259.0</ele><time>2026-04-26T08:38:42Z</time></trkpt><trkpt lat="38.85894225842363" lon="-9.252249784388784"><ele>259.0</ele><time>2026-04-26T08:38:43Z</time></trkpt><trkpt lat="38.85898159062119" lon="-9.252140700340867"><ele>259.0</ele><time>2026-04-26T08:38:44Z</time></trkpt><trkpt lat="38.85899463068378" lon="-9.252054434674251"><ele>259.0</ele><time>2026-04-26T08:38:45Z</time></trkpt><trkpt lat="38.859018972076" lon="-9.251978669422911"><ele>259.0</ele><time>2026-04-26T08:38:46Z</time></trkpt><trkpt lat="38.85903344971549" lon="-9.251895224530655"><ele>257.8333333333333</ele><time>2026-04-26T08:38:47Z</time></trkpt><trkpt lat="38.859044418595055" lon="-9.251806220630403"><ele>256.66666666666663</ele><time>2026-04-26T08:38:48Z</time></trkpt><trkpt lat="38.85906127384898" lon="-9.251722290997002"><ele>255.5</ele><time>2026-04-26T08:38:49Z</time></trkpt><trkpt lat="38.85908897010376" lon="-9.25164674105872"><ele>254.33333333333331</ele><time>2026-04-26T08:38:50Z</time></trkpt><trkpt lat="38.85913542634466" lon="-9.25156019975626"><ele>253.16666666666666</ele><time>2026-04-26T08:38:51.001Z</time></trkpt><trkpt lat="38.85920338712918" lon="-9.251508043161381"><ele>252.0</ele><time>2026-04-26T08:38:52.001Z</time></trkpt><trkpt lat="38.85928213042482" lon="-9.251401700926799"><ele>251.33333333333334</ele><time>2026-04-26T08:38:54.001Z</time></trkpt><trkpt lat="38.859317871692554" lon="-9.251226721469141"><ele>250.66666666666669</ele><time>2026-04-26T08:38:56.001Z</time></trkpt><trkpt lat="38.859334511773454" lon="-9.251124344040349"><ele>250.0</ele><time>2026-04-26T08:38:58.001Z</time></trkpt><trkpt lat="38.8593783780293" lon="-9.251042639412631"><ele>249.33333333333334</ele><time>2026-04-26T08:39:01.001Z</time></trkpt><trkpt lat="38.85939483691386" lon="-9.250947792480076"><ele>248.66666666666669</ele><time>2026-04-26T08:39:03.001Z</time></trkpt><trkpt lat="38.859410285363325" lon="-9.25085936011925"><ele>248.0</ele><time>2026-04-26T08:39:05Z</time></trkpt><trkpt lat="38.85945376259823" lon="-9.25078390410104"><ele>248.00000000000003</ele><time>2026-04-26T08:39:07Z</time></trkpt><trkpt lat="38.85943198662099" lon="-9.25070015457806"><ele>248.0</ele><time>2026-04-26T08:39:12Z</time></trkpt><trkpt lat="38.859387373302305" lon="-9.250614289887194"><ele>248.0</ele><time>2026-04-26T08:39:16Z</time></trkpt><trkpt lat="38.85934296462184" lon="-9.2505470505947"><ele>248.0</ele><time>2026-04-26T08:39:20Z</time></trkpt><trkpt lat="38.85929082949954" lon="-9.250478267866301"><ele>248.00000000000003</ele><time>2026-04-26T08:39:24Z</time></trkpt><trkpt lat="38.85932421991748" lon="-9.250358405867978"><ele>248.0</ele><time>2026-04-26T08:39:39Z</time></trkpt><trkpt lat="38.85944079744507" lon="-9.2503446521601"><ele>247.8</ele><time>2026-04-26T08:39:41Z</time></trkpt><trkpt lat="38.85950486860889" lon="-9.250318123939532"><ele>247.60000000000002</ele><time>2026-04-26T08:39:42Z</time></trkpt><trkpt lat="38.859579514949694" lon="-9.25029640305632"><ele>247.39999999999998</ele><time>2026-04-26T08:39:43Z</time></trkpt><trkpt lat="38.859670534488025" lon="-9.25030198387895"><ele>247.2</ele><time>2026-04-26T08:39:44Z</time></trkpt><trkpt lat="38.85978272363168" lon="-9.250299639012766"><ele>247.0</ele><time>2026-04-26T08:39:45Z</time></trkpt><trkpt lat="38.85991062592489" lon="-9.250277415336143"><ele>247.0</ele><time>2026-04-26T08:39:46Z</time></trkpt><trkpt lat="38.860029799981376" lon="-9.25026880362342"><ele>247.0</ele><time>2026-04-26T08:39:47Z</time></trkpt><trkpt lat="38.86015683800552" lon="-9.250251847577122"><ele>247.0</ele><time>2026-04-26T08:39:48Z</time></trkpt><trkpt lat="38.8602921728854" lon="-9.250241763258845"><ele>247.0</ele><time>2026-04-26T08:39:49Z</time></trkpt><trkpt lat="38.86043844334634" lon="-9.250242066290749"><ele>249.0</ele><time>2026-04-26T08:39:50Z</time></trkpt><trkpt lat="38.86058120729642" lon="-9.250221013752324"><ele>251.0</ele><time>2026-04-26T08:39:51Z</time></trkpt><trkpt lat="38.86072081162159" lon="-9.250199103435218"><ele>253.0</ele><time>2026-04-26T08:39:52Z</time></trkpt><trkpt lat="38.86083120014177" lon="-9.250196373408125"><ele>255.0</ele><time>2026-04-26T08:39:53Z</time></trkpt><trkpt lat="38.860928442728934" lon="-9.25014971947446"><ele>256.8333333333333</ele><time>2026-04-26T08:39:54Z</time></trkpt><trkpt lat="38.861009723489396" lon="-9.250130252943524"><ele>258.6666666666667</ele><time>2026-04-26T08:39:55Z</time></trkpt><trkpt lat="38.8610988229999" lon="-9.250107776562178"><ele>260.5</ele><time>2026-04-26T08:39:57Z</time></trkpt><trkpt lat="38.8611564535413" lon="-9.250055281804864"><ele>262.33333333333337</ele><time>2026-04-26T08:39:59Z</time></trkpt><trkpt lat="38.86121147494212" lon="-9.249997670617894"><ele>264.1666666666667</ele><time>2026-04-26T08:40:00Z</time></trkpt><trkpt lat="38.86126604680495" lon="-9.249939395511285"><ele>266.0</ele><time>2026-04-26T08:40:01Z</time></trkpt><trkpt lat="38.861327644133986" lon="-9.249846550927904"><ele>266.0</ele><time>2026-04-26T08:40:03Z</time></trkpt><trkpt lat="38.86136458053111" lon="-9.249778889606647"><ele>266.0</ele><time>2026-04-26T08:40:05Z</time></trkpt><trkpt lat="38.86142074577461" lon="-9.249667315765347"><ele>266.0</ele><time>2026-04-26T08:40:08Z</time></trkpt><trkpt lat="38.86154469638929" lon="-9.24983781835486"><ele>266.0</ele><time>2026-04-26T08:40:10Z</time></trkpt><trkpt lat="38.86164382978061" lon="-9.249924952063319"><ele>266.0</ele><time>2026-04-26T08:40:12Z</time></trkpt><trkpt lat="38.8616757615295" lon="-9.249831614885277"><ele>266.0</ele><time>2026-04-26T08:40:13Z</time></trkpt><trkpt lat="38.86173712718185" lon="-9.249777338914308"><ele>266.0</ele><time>2026-04-26T08:40:14Z</time></trkpt><trkpt lat="38.86180618683315" lon="-9.24974197126934"><ele>266.0</ele><time>2026-04-26T08:40:15Z</time></trkpt><trkpt lat="38.86187527724213" lon="-9.249703974049918"><ele>266.0</ele><time>2026-04-26T08:40:16Z</time></trkpt><trkpt lat="38.861938968043965" lon="-9.249671560313704"><ele>266.0</ele><time>2026-04-26T08:40:17Z</time></trkpt><trkpt lat="38.86199696214466" lon="-9.249811303183499"><ele>268.33333333333337</ele><time>2026-04-26T08:40:18Z</time></trkpt><trkpt lat="38.862039977518805" lon="-9.249889706921614"><ele>270.6666666666667</ele><time>2026-04-26T08:40:19Z</time></trkpt><trkpt lat="38.862100615958525" lon="-9.249946103829592"><ele>273.0</ele><time>2026-04-26T08:40:20Z</time></trkpt><trkpt lat="38.86217052095321" lon="-9.249997596975517"><ele>275.3333333333333</ele><time>2026-04-26T08:40:21Z</time></trkpt><trkpt lat="38.86223700737258" lon="-9.250051961937183"><ele>277.66666666666663</ele><time>2026-04-26T08:40:22Z</time></trkpt><trkpt lat="38.862293168617725" lon="-9.250001132641234"><ele>280.0</ele><time>2026-04-26T08:40:24Z</time></trkpt><trkpt lat="38.86234631693703" lon="-9.249910534942359"><ele>280.0</ele><time>2026-04-26T08:40:25Z</time></trkpt><trkpt lat="38.86240313006706" lon="-9.249797412681387"><ele>280.0</ele><time>2026-04-26T08:40:26Z</time></trkpt><trkpt lat="38.862466807533885" lon="-9.249657910275134"><ele>280.0</ele><time>2026-04-26T08:40:27Z</time></trkpt><trkpt lat="38.862532538484004" lon="-9.249507589635229"><ele>280.0</ele><time>2026-04-26T08:40:28Z</time></trkpt><trkpt lat="38.862607125629104" lon="-9.249369379973889"><ele>280.0</ele><time>2026-04-26T08:40:29Z</time></trkpt><trkpt lat="38.86265680443543" lon="-9.2492632661819"><ele>280.0</ele><time>2026-04-26T08:40:30Z</time></trkpt><trkpt lat="38.86281555467514" lon="-9.249412824959963"><ele>280.0</ele><time>2026-04-26T08:40:33Z</time></trkpt><trkpt lat="38.86290555271302" lon="-9.249484924928364"><ele>280.0</ele><time>2026-04-26T08:40:34Z</time></trkpt><trkpt lat="38.862972268408264" lon="-9.249529875187251"><ele>280.0</ele><time>2026-04-26T08:40:35Z</time></trkpt><trkpt lat="38.863037435363985" lon="-9.24957605837967"><ele>280.0</ele><time>2026-04-26T08:40:36Z</time></trkpt><trkpt lat="38.863103973060966" lon="-9.24961365875234"><ele>280.0</ele><time>2026-04-26T08:40:37Z</time></trkpt><trkpt lat="38.863209083380816" lon="-9.249703156627112"><ele>280.0</ele><time>2026-04-26T08:40:39Z</time></trkpt><trkpt lat="38.86326652816987" lon="-9.249748655318907"><ele>280.0</ele><time>2026-04-26T08:40:40Z</time></trkpt><trkpt lat="38.863321765676545" lon="-9.249797025579662"><ele>280.0</ele><time>2026-04-26T08:40:41Z</time></trkpt><trkpt lat="38.86337210898783" lon="-9.249866933015591"><ele>281.5</ele><time>2026-04-26T08:40:42Z</time></trkpt><trkpt lat="38.863411928902664" lon="-9.249948033701221"><ele>283.0</ele><time>2026-04-26T08:40:43Z</time></trkpt><trkpt lat="38.86347447729836" lon="-9.250067970263284"><ele>284.5</ele><time>2026-04-26T08:40:45Z</time></trkpt><trkpt lat="38.863537509928854" lon="-9.250131911605743"><ele>286.0</ele><time>2026-04-26T08:40:47Z</time></trkpt><trkpt lat="38.863607565902406" lon="-9.250026357180246"><ele>287.5</ele><time>2026-04-26T08:40:49Z</time></trkpt><trkpt lat="38.86362496124377" lon="-9.249946768984046"><ele>289.0</ele><time>2026-04-26T08:40:50Z</time></trkpt><trkpt lat="38.86368539104504" lon="-9.249857262615922"><ele>287.2</ele><time>2026-04-26T08:40:52Z</time></trkpt><trkpt lat="38.86375268801066" lon="-9.249763128845496"><ele>285.4</ele><time>2026-04-26T08:40:54Z</time></trkpt><trkpt lat="38.863824989278235" lon="-9.249665858201379"><ele>283.6</ele><time>2026-04-26T08:40:56Z</time></trkpt><trkpt lat="38.86388077235858" lon="-9.249593272142976"><ele>281.8</ele><time>2026-04-26T08:40:57Z</time></trkpt><trkpt lat="38.863949049501755" lon="-9.249505862480582"><ele>280.0</ele><time>2026-04-26T08:40:58.001Z</time></trkpt><trkpt lat="38.86403613260067" lon="-9.249411487201924"><ele>280.0</ele><time>2026-04-26T08:40:59Z</time></trkpt><trkpt lat="38.864130509294455" lon="-9.249333793116188"><ele>280.0</ele><time>2026-04-26T08:41:00Z</time></trkpt><trkpt lat="38.864227887980455" lon="-9.249290291810766"><ele>280.0</ele><time>2026-04-26T08:41:01Z</time></trkpt><trkpt lat="38.864319398570885" lon="-9.249257562615345"><ele>280.0</ele><time>2026-04-26T08:41:02Z</time></trkpt><trkpt lat="38.86439594575294" lon="-9.249225547244116"><ele>280.0</ele><time>2026-04-26T08:41:03Z</time></trkpt><trkpt lat="38.864266561465875" lon="-9.249076582349575"><ele>280.0</ele><time>2026-04-26T08:41:05Z</time></trkpt><trkpt lat="38.864195193859764" lon="-9.2490298057278"><ele>280.0</ele><time>2026-04-26T08:41:06Z</time></trkpt><trkpt lat="38.864081430831" lon="-9.248904571062338"><ele>280.0</ele><time>2026-04-26T08:41:07Z</time></trkpt><trkpt lat="38.864031939675336" lon="-9.248753259193894"><ele>280.0</ele><time>2026-04-26T08:41:08Z</time></trkpt><trkpt lat="38.863975889539134" lon="-9.2486321828738"><ele>281.0</ele><time>2026-04-26T08:41:09Z</time></trkpt><trkpt lat="38.86390132023091" lon="-9.248551792789293"><ele>282.0</ele><time>2026-04-26T08:41:10Z</time></trkpt><trkpt lat="38.86380785727993" lon="-9.248466632521039"><ele>283.0</ele><time>2026-04-26T08:41:11Z</time></trkpt><trkpt lat="38.86369583467573" lon="-9.248369292332653"><ele>284.0</ele><time>2026-04-26T08:41:12Z</time></trkpt><trkpt lat="38.86359217495006" lon="-9.248260861128198"><ele>282.75</ele><time>2026-04-26T08:41:13Z</time></trkpt><trkpt lat="38.86351530170226" lon="-9.24811819719926"><ele>281.5</ele><time>2026-04-26T08:41:14Z</time></trkpt><trkpt lat="38.8634474402063" lon="-9.247955068550075"><ele>280.25</ele><time>2026-04-26T08:41:15Z</time></trkpt><trkpt lat="38.86339208017978" lon="-9.247778449027606"><ele>279.0</ele><time>2026-04-26T08:41:16Z</time></trkpt><trkpt lat="38.863334408252435" lon="-9.247632657627484"><ele>279.0</ele><time>2026-04-26T08:41:17Z</time></trkpt><trkpt lat="38.863301828749954" lon="-9.247519526513207"><ele>279.0</ele><time>2026-04-26T08:41:18Z</time></trkpt><trkpt lat="38.86326274136297" lon="-9.247388423778089"><ele>279.0</ele><time>2026-04-26T08:41:19Z</time></trkpt><trkpt lat="38.86315434434966" lon="-9.247338577048748"><ele>279.0</ele><time>2026-04-26T08:41:20Z</time></trkpt><trkpt lat="38.86305093365835" lon="-9.24727910866965"><ele>279.0</ele><time>2026-04-26T08:41:21Z</time></trkpt><trkpt lat="38.86295528863234" lon="-9.247208477475507"><ele>280.2</ele><time>2026-04-26T08:41:22Z</time></trkpt><trkpt lat="38.862887092711205" lon="-9.247111481735429"><ele>281.4</ele><time>2026-04-26T08:41:23Z</time></trkpt><trkpt lat="38.862844137441435" lon="-9.246976224081505"><ele>282.6</ele><time>2026-04-26T08:41:24Z</time></trkpt><trkpt lat="38.86283332280451" lon="-9.246822041089475"><ele>283.8</ele><time>2026-04-26T08:41:25Z</time></trkpt><trkpt lat="38.86282724611008" lon="-9.24668765282868"><ele>285.0</ele><time>2026-04-26T08:41:26Z</time></trkpt><trkpt lat="38.86281397081526" lon="-9.24656180923377"><ele>286.0</ele><time>2026-04-26T08:41:27Z</time></trkpt><trkpt lat="38.86278862199515" lon="-9.246420989299859"><ele>287.0</ele><time>2026-04-26T08:41:28Z</time></trkpt><trkpt lat="38.86275120612759" lon="-9.24629337256742"><ele>288.0</ele><time>2026-04-26T08:41:29Z</time></trkpt><trkpt lat="38.86271459566531" lon="-9.246162915388771"><ele>289.0</ele><time>2026-04-26T08:41:30Z</time></trkpt><trkpt lat="38.862675865782954" lon="-9.246033450311767"><ele>290.0</ele><time>2026-04-26T08:41:31Z</time></trkpt><trkpt lat="38.86263234802635" lon="-9.245878446950362"><ele>290.0</ele><time>2026-04-26T08:41:32Z</time></trkpt><trkpt lat="38.86261549850867" lon="-9.245744397443188"><ele>290.0</ele><time>2026-04-26T08:41:33Z</time></trkpt><trkpt lat="38.862627388804206" lon="-9.245621761020725"><ele>290.0</ele><time>2026-04-26T08:41:34Z</time></trkpt><trkpt lat="38.862621921972014" lon="-9.245502491637293"><ele>290.0</ele><time>2026-04-26T08:41:35Z</time></trkpt><trkpt lat="38.86262888566194" lon="-9.245359971507376"><ele>290.0</ele><time>2026-04-26T08:41:36Z</time></trkpt><trkpt lat="38.86262199407397" lon="-9.245200491282578"><ele>283.75</ele><time>2026-04-26T08:41:37Z</time></trkpt><trkpt lat="38.862592208929975" lon="-9.245043494671009"><ele>277.5</ele><time>2026-04-26T08:41:38Z</time></trkpt><trkpt lat="38.86259364001171" lon="-9.24489138149147"><ele>271.25</ele><time>2026-04-26T08:41:39Z</time></trkpt><trkpt lat="38.862602590057406" lon="-9.244764239202578"><ele>265.0</ele><time>2026-04-26T08:41:40Z</time></trkpt><trkpt lat="38.86259203478658" lon="-9.244623644279631"><ele>264.25</ele><time>2026-04-26T08:41:41Z</time></trkpt><trkpt lat="38.86261035028017" lon="-9.244470146579506"><ele>263.5</ele><time>2026-04-26T08:41:42Z</time></trkpt><trkpt lat="38.862619523058655" lon="-9.244285781712419"><ele>262.75</ele><time>2026-04-26T08:41:43Z</time></trkpt><trkpt lat="38.86264316729542" lon="-9.244125425386052"><ele>262.0</ele><time>2026-04-26T08:41:44Z</time></trkpt><trkpt lat="38.862681463883376" lon="-9.243981966275207"><ele>267.3333333333333</ele><time>2026-04-26T08:41:45Z</time></trkpt><trkpt lat="38.862695352322824" lon="-9.243797893754525"><ele>272.6666666666667</ele><time>2026-04-26T08:41:46Z</time></trkpt><trkpt lat="38.862713394264404" lon="-9.243605708408051"><ele>278.0</ele><time>2026-04-26T08:41:47Z</time></trkpt><trkpt lat="38.862717139352135" lon="-9.243398546494092"><ele>278.0</ele><time>2026-04-26T08:41:48Z</time></trkpt><trkpt lat="38.862712570121985" lon="-9.243197409189772"><ele>278.0</ele><time>2026-04-26T08:41:49Z</time></trkpt><trkpt lat="38.86270842799128" lon="-9.243020707637625"><ele>278.0</ele><time>2026-04-26T08:41:50Z</time></trkpt><trkpt lat="38.86271105735535" lon="-9.242847195543485"><ele>278.0</ele><time>2026-04-26T08:41:51Z</time></trkpt><trkpt lat="38.86272544424316" lon="-9.242687226430013"><ele>276.25</ele><time>2026-04-26T08:41:52Z</time></trkpt><trkpt lat="38.862757728481604" lon="-9.242521976010508"><ele>274.5</ele><time>2026-04-26T08:41:53Z</time></trkpt><trkpt lat="38.86278712370826" lon="-9.242339401434505"><ele>272.75</ele><time>2026-04-26T08:41:54Z</time></trkpt><trkpt lat="38.86283524046087" lon="-9.242150196261685"><ele>271.0</ele><time>2026-04-26T08:41:55Z</time></trkpt><trkpt lat="38.86287304033343" lon="-9.24198438024423"><ele>269.25</ele><time>2026-04-26T08:41:56Z</time></trkpt><trkpt lat="38.86293947536536" lon="-9.241844666237597"><ele>267.5</ele><time>2026-04-26T08:41:57Z</time></trkpt><trkpt lat="38.863002619322344" lon="-9.241717465901003"><ele>265.75</ele><time>2026-04-26T08:41:58Z</time></trkpt><trkpt lat="38.86305742226435" lon="-9.241609150789502"><ele>264.0</ele><time>2026-04-26T08:41:59Z</time></trkpt><trkpt lat="38.86312036314443" lon="-9.24146239637683"><ele>263.6666666666667</ele><time>2026-04-26T08:42:00Z</time></trkpt><trkpt lat="38.863195709380925" lon="-9.241285903744885"><ele>263.33333333333337</ele><time>2026-04-26T08:42:01Z</time></trkpt><trkpt lat="38.863271552301576" lon="-9.241112666960593"><ele>263.0</ele><time>2026-04-26T08:42:02Z</time></trkpt><trkpt lat="38.86332779209299" lon="-9.24093347882402"><ele>263.0</ele><time>2026-04-26T08:42:03Z</time></trkpt><trkpt lat="38.86339311984288" lon="-9.240774300553511"><ele>263.0</ele><time>2026-04-26T08:42:04Z</time></trkpt><trkpt lat="38.863452644789064" lon="-9.240621964977436"><ele>263.0</ele><time>2026-04-26T08:42:05Z</time></trkpt><trkpt lat="38.86351543848401" lon="-9.240462802067878"><ele>263.0</ele><time>2026-04-26T08:42:06Z</time></trkpt><trkpt lat="38.86358181622126" lon="-9.24034635788858"><ele>263.25</ele><time>2026-04-26T08:42:07Z</time></trkpt><trkpt lat="38.86362972140339" lon="-9.2402389920536"><ele>263.5</ele><time>2026-04-26T08:42:08Z</time></trkpt><trkpt lat="38.86368412035564" lon="-9.240114952545742"><ele>263.75</ele><time>2026-04-26T08:42:09Z</time></trkpt><trkpt lat="38.8637233754046" lon="-9.23996803530862"><ele>264.0</ele><time>2026-04-26T08:42:10Z</time></trkpt><trkpt lat="38.86376936143297" lon="-9.239819419788429"><ele>264.5</ele><time>2026-04-26T08:42:11Z</time></trkpt><trkpt lat="38.86380098309903" lon="-9.239694950204015"><ele>265.0</ele><time>2026-04-26T08:42:12Z</time></trkpt><trkpt lat="38.86382319362777" lon="-9.239584478050078"><ele>265.5</ele><time>2026-04-26T08:42:13Z</time></trkpt><trkpt lat="38.86383047939108" lon="-9.23948280656564"><ele>266.0</ele><time>2026-04-26T08:42:14Z</time></trkpt><trkpt lat="38.863827863292066" lon="-9.239400879558984"><ele>266.5</ele><time>2026-04-26T08:42:15Z</time></trkpt><trkpt lat="38.86375498750397" lon="-9.239322170771944"><ele>267.0</ele><time>2026-04-26T08:42:53Z</time></trkpt><trkpt lat="38.86368971635976" lon="-9.239268147476922"><ele>267.0</ele><time>2026-04-26T08:42:54Z</time></trkpt><trkpt lat="38.86361575491273" lon="-9.23917482444082"><ele>267.0</ele><time>2026-04-26T08:42:55Z</time></trkpt><trkpt lat="38.86353862681961" lon="-9.239055582766294"><ele>267.0</ele><time>2026-04-26T08:42:56Z</time></trkpt><trkpt lat="38.86345655615645" lon="-9.238925923137433"><ele>267.0</ele><time>2026-04-26T08:42:57Z</time></trkpt><trkpt lat="38.86336246677374" lon="-9.23880095513561"><ele>268.25</ele><time>2026-04-26T08:42:58Z</time></trkpt><trkpt lat="38.86326467395903" lon="-9.23868637684279"><ele>269.5</ele><time>2026-04-26T08:42:59Z</time></trkpt><trkpt lat="38.86317223511735" lon="-9.238569785954029"><ele>270.75</ele><time>2026-04-26T08:43:00Z</time></trkpt><trkpt lat="38.86306877297718" lon="-9.238469464780975"><ele>272.0</ele><time>2026-04-26T08:43:01Z</time></trkpt><trkpt lat="38.86295051744434" lon="-9.238390360249698"><ele>272.0</ele><time>2026-04-26T08:43:02Z</time></trkpt><trkpt lat="38.8628519951977" lon="-9.238327449853804"><ele>272.0</ele><time>2026-04-26T08:43:03Z</time></trkpt><trkpt lat="38.86275076969231" lon="-9.238271495901385"><ele>272.0</ele><time>2026-04-26T08:43:04Z</time></trkpt><trkpt lat="38.86264311723601" lon="-9.238207001704621"><ele>272.0</ele><time>2026-04-26T08:43:05Z</time></trkpt><trkpt lat="38.86252347140448" lon="-9.238147628753993"><ele>273.4</ele><time>2026-04-26T08:43:06Z</time></trkpt><trkpt lat="38.862411778971676" lon="-9.238076333633776"><ele>274.79999999999995</ele><time>2026-04-26T08:43:07Z</time></trkpt><trkpt lat="38.86229962782023" lon="-9.237987184939838"><ele>276.2</ele><time>2026-04-26T08:43:08Z</time></trkpt><trkpt lat="38.86221089409006" lon="-9.237905279231503"><ele>277.59999999999997</ele><time>2026-04-26T08:43:09Z</time></trkpt><trkpt lat="38.86214686981056" lon="-9.237850697149574"><ele>279.0</ele><time>2026-04-26T08:43:10Z</time></trkpt><trkpt lat="38.862073231015266" lon="-9.237844767300045"><ele>279.0</ele><time>2026-04-26T08:43:12Z</time></trkpt><trkpt lat="38.86212283142082" lon="-9.237784595936157"><ele>279.0</ele><time>2026-04-26T08:43:23Z</time></trkpt><trkpt lat="38.862117193737156" lon="-9.237865587123732"><ele>279.0</ele><time>2026-04-26T08:43:25Z</time></trkpt><trkpt lat="38.86213356884394" lon="-9.23794388227061"><ele>279.0</ele><time>2026-04-26T08:43:29Z</time></trkpt><trkpt lat="38.862104356281804" lon="-9.238054809041367"><ele>279.0</ele><time>2026-04-26T08:43:30Z</time></trkpt><trkpt lat="38.86203787245318" lon="-9.238177727546985"><ele>279.0</ele><time>2026-04-26T08:43:31Z</time></trkpt><trkpt lat="38.86198999888306" lon="-9.238345487339876"><ele>277.6666666666667</ele><time>2026-04-26T08:43:32Z</time></trkpt><trkpt lat="38.8619216957766" lon="-9.238508389395394"><ele>276.33333333333337</ele><time>2026-04-26T08:43:33Z</time></trkpt><trkpt lat="38.86183032856085" lon="-9.2386905064122"><ele>275.0</ele><time>2026-04-26T08:43:34Z</time></trkpt><trkpt lat="38.861712121410484" lon="-9.238856328569993"><ele>275.0</ele><time>2026-04-26T08:43:35Z</time></trkpt><trkpt lat="38.86158543030984" lon="-9.239023044157525"><ele>275.0</ele><time>2026-04-26T08:43:36Z</time></trkpt><trkpt lat="38.861445724339504" lon="-9.239191542234789"><ele>275.0</ele><time>2026-04-26T08:43:37Z</time></trkpt><trkpt lat="38.861301410401126" lon="-9.239373101338042"><ele>275.0</ele><time>2026-04-26T08:43:38Z</time></trkpt><trkpt lat="38.86115347408837" lon="-9.239557818105656"><ele>275.0</ele><time>2026-04-26T08:43:39Z</time></trkpt><trkpt lat="38.8610023324208" lon="-9.239750903322431"><ele>275.0</ele><time>2026-04-26T08:43:40Z</time></trkpt><trkpt lat="38.86085233726333" lon="-9.239954648143083"><ele>274.6666666666667</ele><time>2026-04-26T08:43:41Z</time></trkpt><trkpt lat="38.86069437517607" lon="-9.240152669554023"><ele>274.3333333333333</ele><time>2026-04-26T08:43:42Z</time></trkpt><trkpt lat="38.86055567744757" lon="-9.240320377518755"><ele>274.0</ele><time>2026-04-26T08:43:43Z</time></trkpt><trkpt lat="38.86043175763666" lon="-9.240464311153062"><ele>274.0</ele><time>2026-04-26T08:43:44Z</time></trkpt><trkpt lat="38.86031555587119" lon="-9.240598467259945"><ele>274.0</ele><time>2026-04-26T08:43:45Z</time></trkpt><trkpt lat="38.86018883828765" lon="-9.240726445718643"><ele>274.0</ele><time>2026-04-26T08:43:46Z</time></trkpt><trkpt lat="38.860065332399124" lon="-9.240879956233467"><ele>275.0</ele><time>2026-04-26T08:43:47Z</time></trkpt><trkpt lat="38.85993450768825" lon="-9.241047886229477"><ele>276.0</ele><time>2026-04-26T08:43:48Z</time></trkpt><trkpt lat="38.85983200522312" lon="-9.241257573144583"><ele>277.0</ele><time>2026-04-26T08:43:49Z</time></trkpt><trkpt lat="38.859756710671476" lon="-9.241480576422026"><ele>278.3333333333333</ele><time>2026-04-26T08:43:50Z</time></trkpt><trkpt lat="38.85970914730203" lon="-9.241697545174294"><ele>279.6666666666667</ele><time>2026-04-26T08:43:51Z</time></trkpt><trkpt lat="38.85965803448648" lon="-9.241907833686671"><ele>281.0</ele><time>2026-04-26T08:43:52Z</time></trkpt><trkpt lat="38.859605139192816" lon="-9.24210597324983"><ele>281.0</ele><time>2026-04-26T08:43:53Z</time></trkpt><trkpt lat="38.859524281329875" lon="-9.24227721273035"><ele>281.0</ele><time>2026-04-26T08:43:54Z</time></trkpt><trkpt lat="38.85942544042625" lon="-9.242423436904868"><ele>281.0</ele><time>2026-04-26T08:43:55Z</time></trkpt><trkpt lat="38.85930489658039" lon="-9.242519581013715"><ele>281.0</ele><time>2026-04-26T08:43:56Z</time></trkpt><trkpt lat="38.85916016692599" lon="-9.242618284412682"><ele>285.0</ele><time>2026-04-26T08:43:57Z</time></trkpt><trkpt lat="38.859021192427356" lon="-9.242688631412504"><ele>289.0</ele><time>2026-04-26T08:43:58Z</time></trkpt><trkpt lat="38.85886391498716" lon="-9.242732926685736"><ele>293.0</ele><time>2026-04-26T08:43:59Z</time></trkpt><trkpt lat="38.858717280619416" lon="-9.242803367339452"><ele>293.0</ele><time>2026-04-26T08:44:00Z</time></trkpt><trkpt lat="38.858578327647" lon="-9.24287001386053"><ele>293.0</ele><time>2026-04-26T08:44:01Z</time></trkpt><trkpt lat="38.858447870194794" lon="-9.242949640456136"><ele>293.0</ele><time>2026-04-26T08:44:02Z</time></trkpt><trkpt lat="38.858359050976084" lon="-9.24308748991226"><ele>293.0</ele><time>2026-04-26T08:44:03Z</time></trkpt><trkpt lat="38.85828489895129" lon="-9.243248896734354"><ele>297.33333333333337</ele><time>2026-04-26T08:44:04Z</time></trkpt><trkpt lat="38.858205627752895" lon="-9.243407220421785"><ele>301.6666666666667</ele><time>2026-04-26T08:44:05Z</time></trkpt><trkpt lat="38.8581292733945" lon="-9.243594935522784"><ele>306.0</ele><time>2026-04-26T08:44:06Z</time></trkpt><trkpt lat="38.858036783434656" lon="-9.2437641766271"><ele>306.0</ele><time>2026-04-26T08:44:07Z</time></trkpt><trkpt lat="38.85791155776931" lon="-9.243926031343337"><ele>306.0</ele><time>2026-04-26T08:44:08Z</time></trkpt><trkpt lat="38.85776343909265" lon="-9.244066983058497"><ele>306.0</ele><time>2026-04-26T08:44:09Z</time></trkpt><trkpt lat="38.857619607368065" lon="-9.244209464378129"><ele>306.6666666666667</ele><time>2026-04-26T08:44:10Z</time></trkpt><trkpt lat="38.85747526971095" lon="-9.244352295920923"><ele>307.33333333333337</ele><time>2026-04-26T08:44:11Z</time></trkpt><trkpt lat="38.85733379861198" lon="-9.244485273014552"><ele>308.0</ele><time>2026-04-26T08:44:12Z</time></trkpt><trkpt lat="38.8572032176527" lon="-9.244593707650202"><ele>308.0</ele><time>2026-04-26T08:44:13Z</time></trkpt><trkpt lat="38.85709733530485" lon="-9.24468856164005"><ele>308.0</ele><time>2026-04-26T08:44:14Z</time></trkpt><trkpt lat="38.85700280482349" lon="-9.24477616531556"><ele>308.0</ele><time>2026-04-26T08:44:15Z</time></trkpt><trkpt lat="38.85691751075383" lon="-9.244865002323055"><ele>308.0</ele><time>2026-04-26T08:44:16Z</time></trkpt><trkpt lat="38.85683854505668" lon="-9.244957480254321"><ele>308.0</ele><time>2026-04-26T08:44:17Z</time></trkpt><trkpt lat="38.85676336128965" lon="-9.24504252568254"><ele>308.0</ele><time>2026-04-26T08:44:18Z</time></trkpt><trkpt lat="38.856683510383256" lon="-9.245120726692521"><ele>308.0</ele><time>2026-04-26T08:44:19Z</time></trkpt><trkpt lat="38.85660804175432" lon="-9.245188469004157"><ele>308.0</ele><time>2026-04-26T08:44:20Z</time></trkpt><trkpt lat="38.85655138448817" lon="-9.245275786329133"><ele>308.0</ele><time>2026-04-26T08:44:21Z</time></trkpt><trkpt lat="38.856545494152044" lon="-9.245380947867284"><ele>308.0</ele><time>2026-04-26T08:44:23Z</time></trkpt><trkpt lat="38.85647286045234" lon="-9.245424607766203"><ele>308.0</ele><time>2026-04-26T08:44:25Z</time></trkpt><trkpt lat="38.85641812525124" lon="-9.245482874907276"><ele>308.0</ele><time>2026-04-26T08:44:34Z</time></trkpt><trkpt lat="38.85634904003677" lon="-9.245417266036284"><ele>308.0</ele><time>2026-04-26T08:44:35Z</time></trkpt><trkpt lat="38.85628234591745" lon="-9.245476258922883"><ele>308.0</ele><time>2026-04-26T08:44:46Z</time></trkpt><trkpt lat="38.856229979248745" lon="-9.24542267643167"><ele>308.0</ele><time>2026-04-26T08:44:48Z</time></trkpt><trkpt lat="38.856289385765926" lon="-9.245388550345655"><ele>308.0</ele><time>2026-04-26T08:44:50Z</time></trkpt><trkpt lat="38.85625742888932" lon="-9.245471839018442"><ele>308.0</ele><time>2026-04-26T08:45:30Z</time></trkpt><trkpt lat="38.85624891618167" lon="-9.245361526114802"><ele>308.0</ele><time>2026-04-26T08:45:59Z</time></trkpt><trkpt lat="38.85636787473829" lon="-9.245296639628107"><ele>308.0</ele><time>2026-04-26T08:46:01Z</time></trkpt><trkpt lat="38.85650454742172" lon="-9.245265892336858"><ele>308.0</ele><time>2026-04-26T08:46:02Z</time></trkpt><trkpt lat="38.85663315313971" lon="-9.245191355716553"><ele>308.0</ele><time>2026-04-26T08:46:03Z</time></trkpt><trkpt lat="38.85675718450875" lon="-9.245054169049485"><ele>308.0</ele><time>2026-04-26T08:46:04Z</time></trkpt><trkpt lat="38.856869346293486" lon="-9.244936024352553"><ele>308.0</ele><time>2026-04-26T08:46:05Z</time></trkpt><trkpt lat="38.85695640483257" lon="-9.244863441100685"><ele>308.0</ele><time>2026-04-26T08:46:06Z</time></trkpt><trkpt lat="38.85701861397339" lon="-9.244811748931163"><ele>308.0</ele><time>2026-04-26T08:46:07Z</time></trkpt><trkpt lat="38.857061969143885" lon="-9.244698561399368"><ele>308.0</ele><time>2026-04-26T08:46:08Z</time></trkpt><trkpt lat="38.85705916511741" lon="-9.244598156234977"><ele>308.0</ele><time>2026-04-26T08:46:09Z</time></trkpt><trkpt lat="38.85698351366769" lon="-9.244562615717353"><ele>308.0</ele><time>2026-04-26T08:46:10Z</time></trkpt><trkpt lat="38.85687213806101" lon="-9.244513262589647"><ele>308.0</ele><time>2026-04-26T08:46:11Z</time></trkpt><trkpt lat="38.85675699531178" lon="-9.244397998550973"><ele>308.0</ele><time>2026-04-26T08:46:12Z</time></trkpt><trkpt lat="38.856689288188946" lon="-9.24422272800028"><ele>308.0</ele><time>2026-04-26T08:46:13Z</time></trkpt><trkpt lat="38.85664735076112" lon="-9.244028488230203"><ele>308.0</ele><time>2026-04-26T08:46:14Z</time></trkpt><trkpt lat="38.85664540489262" lon="-9.243826092138717"><ele>307.8</ele><time>2026-04-26T08:46:15Z</time></trkpt><trkpt lat="38.856690555462585" lon="-9.243642624517646"><ele>307.6</ele><time>2026-04-26T08:46:16Z</time></trkpt><trkpt lat="38.856751552760436" lon="-9.2435388536622"><ele>307.4</ele><time>2026-04-26T08:46:17Z</time></trkpt><trkpt lat="38.85681479935219" lon="-9.243448999127262"><ele>307.2</ele><time>2026-04-26T08:46:18Z</time></trkpt><trkpt lat="38.8568817504199" lon="-9.243395125703323"><ele>307.0</ele><time>2026-04-26T08:46:19Z</time></trkpt><trkpt lat="38.85694571509627" lon="-9.243364862520663"><ele>307.4285714285714</ele><time>2026-04-26T08:46:20Z</time></trkpt><trkpt lat="38.85703199928315" lon="-9.243324120861644"><ele>307.85714285714283</ele><time>2026-04-26T08:46:22Z</time></trkpt><trkpt lat="38.857104858975084" lon="-9.24327783321414"><ele>308.2857142857143</ele><time>2026-04-26T08:46:25Z</time></trkpt><trkpt lat="38.857171854937995" lon="-9.243273535592897"><ele>308.71428571428567</ele><time>2026-04-26T08:47:08Z</time></trkpt><trkpt lat="38.85723672694955" lon="-9.243240206473002"><ele>309.1428571428571</ele><time>2026-04-26T08:47:13Z</time></trkpt><trkpt lat="38.85729691300275" lon="-9.243199552516447"><ele>309.57142857142856</ele><time>2026-04-26T08:47:17Z</time></trkpt><trkpt lat="38.85735774619493" lon="-9.243161129051927"><ele>310.0</ele><time>2026-04-26T08:47:22Z</time></trkpt><trkpt lat="38.857409754163896" lon="-9.24309646976513"><ele>310.0</ele><time>2026-04-26T08:47:27Z</time></trkpt><trkpt lat="38.85734259134736" lon="-9.243125853035597"><ele>310.0</ele><time>2026-04-26T08:48:10Z</time></trkpt><trkpt lat="38.85728640303748" lon="-9.243177068795925"><ele>310.0</ele><time>2026-04-26T08:48:46Z</time></trkpt><trkpt lat="38.85721989376822" lon="-9.243212482754151"><ele>310.0</ele><time>2026-04-26T08:48:50Z</time></trkpt><trkpt lat="38.857155720651825" lon="-9.2432456958446"><ele>310.0</ele><time>2026-04-26T08:48:54Z</time></trkpt><trkpt lat="38.857084718015045" lon="-9.243289502711646"><ele>310.0</ele><time>2026-04-26T08:49:04Z</time></trkpt><trkpt lat="38.85700886109403" lon="-9.243342932786708"><ele>310.0</ele><time>2026-04-26T08:49:07Z</time></trkpt><trkpt lat="38.85694286697108" lon="-9.243388086976973"><ele>310.14285714285717</ele><time>2026-04-26T08:49:13Z</time></trkpt><trkpt lat="38.856886685049" lon="-9.243424713669164"><ele>310.2857142857143</ele><time>2026-04-26T08:49:18Z</time></trkpt><trkpt lat="38.85682807940278" lon="-9.243473939821648"><ele>310.42857142857144</ele><time>2026-04-26T08:49:23Z</time></trkpt><trkpt lat="38.85678070774311" lon="-9.243548281752496"><ele>310.57142857142856</ele><time>2026-04-26T08:49:30Z</time></trkpt><trkpt lat="38.85674044395443" lon="-9.243613033250226"><ele>310.7142857142857</ele><time>2026-04-26T08:49:34Z</time></trkpt><trkpt lat="38.85670167676029" lon="-9.243687882335161"><ele>310.85714285714283</ele><time>2026-04-26T08:49:39Z</time></trkpt><trkpt lat="38.85668210303664" lon="-9.243772326789234"><ele>311.0</ele><time>2026-04-26T08:49:46Z</time></trkpt><trkpt lat="38.85665704437149" lon="-9.243848051045154"><ele>310.57142857142856</ele><time>2026-04-26T08:49:51Z</time></trkpt><trkpt lat="38.85665530225689" lon="-9.24392892969453"><ele>310.14285714285717</ele><time>2026-04-26T08:49:56Z</time></trkpt><trkpt lat="38.85664649668035" lon="-9.244027978438893"><ele>309.7142857142857</ele><time>2026-04-26T08:50:01Z</time></trkpt><trkpt lat="38.85665670542375" lon="-9.244109813036552"><ele>309.2857142857143</ele><time>2026-04-26T08:50:05Z</time></trkpt><trkpt lat="38.8566705639678" lon="-9.244199867684802"><ele>308.8571428571429</ele><time>2026-04-26T08:50:10Z</time></trkpt><trkpt lat="38.856697328420545" lon="-9.24428927076571"><ele>308.42857142857144</ele><time>2026-04-26T08:50:15Z</time></trkpt><trkpt lat="38.8567217731293" lon="-9.244367394377539"><ele>308.0</ele><time>2026-04-26T08:50:19Z</time></trkpt><trkpt lat="38.856769612417516" lon="-9.244432009452629"><ele>308.0</ele><time>2026-04-26T08:50:25Z</time></trkpt><trkpt lat="38.8568065956256" lon="-9.244514183686428"><ele>308.0</ele><time>2026-04-26T08:50:30Z</time></trkpt><trkpt lat="38.85687427908004" lon="-9.24456508624056"><ele>308.0</ele><time>2026-04-26T08:50:36Z</time></trkpt><trkpt lat="38.85693037343369" lon="-9.244609862892336"><ele>308.0</ele><time>2026-04-26T08:50:40Z</time></trkpt><trkpt lat="38.85699709769095" lon="-9.244651414412079"><ele>308.0</ele><time>2026-04-26T08:50:45Z</time></trkpt><trkpt lat="38.8570104022469" lon="-9.24473414964676"><ele>308.0</ele><time>2026-04-26T08:50:49Z</time></trkpt><trkpt lat="38.8569886781074" lon="-9.244810924987613"><ele>308.0</ele><time>2026-04-26T08:50:54Z</time></trkpt><trkpt lat="38.85692473611851" lon="-9.244853066379925"><ele>308.0</ele><time>2026-04-26T08:50:59Z</time></trkpt><trkpt lat="38.85687399072521" lon="-9.244908186843995"><ele>308.0</ele><time>2026-04-26T08:51:04Z</time></trkpt><trkpt lat="38.85682278551706" lon="-9.244962490765873"><ele>308.0</ele><time>2026-04-26T08:51:09Z</time></trkpt><trkpt lat="38.856771166024444" lon="-9.245018802007191"><ele>308.0</ele><time>2026-04-26T08:51:15Z</time></trkpt><trkpt lat="38.85671198075689" lon="-9.245072342244194"><ele>308.0</ele><time>2026-04-26T08:51:21Z</time></trkpt><trkpt lat="38.85665733238559" lon="-9.245121703566312"><ele>308.0</ele><time>2026-04-26T08:51:27Z</time></trkpt><trkpt lat="38.85660067501567" lon="-9.245174499769101"><ele>308.0</ele><time>2026-04-26T08:51:33Z</time></trkpt><trkpt lat="38.85654846613647" lon="-9.245221662289039"><ele>308.0</ele><time>2026-04-26T08:52:07Z</time></trkpt><trkpt lat="38.85647488859614" lon="-9.245287987162259"><ele>308.0</ele><time>2026-04-26T08:52:10Z</time></trkpt><trkpt lat="38.85640741032678" lon="-9.245330237850295"><ele>308.0</ele><time>2026-04-26T08:52:14Z</time></trkpt><trkpt lat="38.856344641301455" lon="-9.245365625348116"><ele>308.0</ele><time>2026-04-26T08:53:01Z</time></trkpt><trkpt lat="38.85629211095354" lon="-9.245425849365779"><ele>308.0</ele><time>2026-04-26T08:53:07Z</time></trkpt><trkpt lat="38.85626466141979" lon="-9.245346202518975"><ele>308.0</ele><time>2026-04-26T09:24:11.999Z</time></trkpt><trkpt lat="38.856309835724105" lon="-9.245408875677539"><ele>308.0</ele><time>2026-04-26T09:24:49.999Z</time></trkpt><trkpt lat="38.85637292458424" lon="-9.24536498889055"><ele>308.0</ele><time>2026-04-26T10:39:54Z</time></trkpt><trkpt lat="38.85643684717395" lon="-9.245325575165303"><ele>308.0</ele><time>2026-04-26T10:39:56Z</time></trkpt><trkpt lat="38.85649326798515" lon="-9.245288650462015"><ele>308.0</ele><time>2026-04-26T10:39:58Z</time></trkpt><trkpt lat="38.856555496229696" lon="-9.245246631360436"><ele>308.0</ele><time>2026-04-26T10:40:00Z</time></trkpt><trkpt lat="38.85661880264079" lon="-9.24519362464775"><ele>308.0</ele><time>2026-04-26T10:40:02Z</time></trkpt><trkpt lat="38.856674005152804" lon="-9.245120725567403"><ele>308.0</ele><time>2026-04-26T10:40:04Z</time></trkpt><trkpt lat="38.85674156678658" lon="-9.245054231475157"><ele>308.0</ele><time>2026-04-26T10:40:06Z</time></trkpt><trkpt lat="38.85682381685286" lon="-9.244992192598193"><ele>308.0</ele><time>2026-04-26T10:40:08Z</time></trkpt><trkpt lat="38.85689889539572" lon="-9.244915397831157"><ele>308.0</ele><time>2026-04-26T10:40:10Z</time></trkpt><trkpt lat="38.85696623960262" lon="-9.244833877495635"><ele>308.0</ele><time>2026-04-26T10:40:12Z</time></trkpt><trkpt lat="38.857042503052675" lon="-9.244756779230531"><ele>308.0</ele><time>2026-04-26T10:40:14Z</time></trkpt><trkpt lat="38.85711014645561" lon="-9.244678435003909"><ele>308.0</ele><time>2026-04-26T10:40:16Z</time></trkpt><trkpt lat="38.8571962412778" lon="-9.244602569104364"><ele>308.0</ele><time>2026-04-26T10:40:18Z</time></trkpt><trkpt lat="38.857292913986264" lon="-9.244526533815382"><ele>308.0</ele><time>2026-04-26T10:40:20Z</time></trkpt><trkpt lat="38.85739383402676" lon="-9.244429682457177"><ele>308.0</ele><time>2026-04-26T10:40:22Z</time></trkpt><trkpt lat="38.85748287591276" lon="-9.24432332094036"><ele>308.0</ele><time>2026-04-26T10:40:24Z</time></trkpt><trkpt lat="38.85757823999924" lon="-9.244219252502612"><ele>307.6</ele><time>2026-04-26T10:40:26Z</time></trkpt><trkpt lat="38.857632007321605" lon="-9.24417285993565"><ele>307.20000000000005</ele><time>2026-04-26T10:40:27Z</time></trkpt><trkpt lat="38.857733636970934" lon="-9.244078303748424"><ele>306.8</ele><time>2026-04-26T10:40:29Z</time></trkpt><trkpt lat="38.85783185579971" lon="-9.243977100848367"><ele>306.40000000000003</ele><time>2026-04-26T10:40:31Z</time></trkpt><trkpt lat="38.85791816503847" lon="-9.243874023138561"><ele>306.0</ele><time>2026-04-26T10:40:33Z</time></trkpt><trkpt lat="38.85801003506775" lon="-9.243765838475472"><ele>306.0</ele><time>2026-04-26T10:40:35Z</time></trkpt><trkpt lat="38.85805749079003" lon="-9.243708584943983"><ele>306.0</ele><time>2026-04-26T10:40:36Z</time></trkpt><trkpt lat="38.858143805643365" lon="-9.243595787331046"><ele>306.0</ele><time>2026-04-26T10:40:38Z</time></trkpt><trkpt lat="38.858165550068364" lon="-9.243519104248925"><ele>306.0</ele><time>2026-04-26T10:40:39Z</time></trkpt><trkpt lat="38.858208289084274" lon="-9.243454976761125"><ele>306.0</ele><time>2026-04-26T10:40:40Z</time></trkpt><trkpt lat="38.85828130393494" lon="-9.24332587606213"><ele>306.0</ele><time>2026-04-26T10:40:42Z</time></trkpt><trkpt lat="38.858350119963944" lon="-9.24319280347135"><ele>306.0</ele><time>2026-04-26T10:40:44Z</time></trkpt><trkpt lat="38.85841570113145" lon="-9.243072646351797"><ele>306.0</ele><time>2026-04-26T10:40:46Z</time></trkpt><trkpt lat="38.8584846968464" lon="-9.242978180414323"><ele>306.0</ele><time>2026-04-26T10:40:48Z</time></trkpt><trkpt lat="38.85856753676779" lon="-9.24288301855072"><ele>306.0</ele><time>2026-04-26T10:40:50Z</time></trkpt><trkpt lat="38.85867379098516" lon="-9.242804133636183"><ele>306.0</ele><time>2026-04-26T10:40:52Z</time></trkpt><trkpt lat="38.85873567850926" lon="-9.242772290695125"><ele>303.8333333333333</ele><time>2026-04-26T10:40:53Z</time></trkpt><trkpt lat="38.85879999421392" lon="-9.242736522506705"><ele>301.6666666666667</ele><time>2026-04-26T10:40:54Z</time></trkpt><trkpt lat="38.85886318068824" lon="-9.242702160668662"><ele>299.5</ele><time>2026-04-26T10:40:55Z</time></trkpt><trkpt lat="38.85893043804156" lon="-9.242660826303299"><ele>297.33333333333337</ele><time>2026-04-26T10:40:56Z</time></trkpt><trkpt lat="38.85899583484266" lon="-9.242630486775589"><ele>295.1666666666667</ele><time>2026-04-26T10:40:57Z</time></trkpt><trkpt lat="38.85905760463309" lon="-9.242611265029295"><ele>293.0</ele><time>2026-04-26T10:40:58Z</time></trkpt><trkpt lat="38.859169410192024" lon="-9.242558155435924"><ele>292.99999999999994</ele><time>2026-04-26T10:41:00Z</time></trkpt><trkpt lat="38.85923034282988" lon="-9.242530980988054"><ele>293.0</ele><time>2026-04-26T10:41:01Z</time></trkpt><trkpt lat="38.859289505367954" lon="-9.242501155493493"><ele>293.0</ele><time>2026-04-26T10:41:02Z</time></trkpt><trkpt lat="38.85936491274972" lon="-9.242449530904736"><ele>293.0</ele><time>2026-04-26T10:41:04Z</time></trkpt><trkpt lat="38.85942057210058" lon="-9.242395513584508"><ele>293.0</ele><time>2026-04-26T10:41:05Z</time></trkpt><trkpt lat="38.85947417817096" lon="-9.24232529657894"><ele>292.99999999999994</ele><time>2026-04-26T10:41:06Z</time></trkpt><trkpt lat="38.85952180426323" lon="-9.242259198853173"><ele>293.0</ele><time>2026-04-26T10:41:07Z</time></trkpt><trkpt lat="38.85956577163697" lon="-9.242194150701497"><ele>291.2857142857143</ele><time>2026-04-26T10:41:08Z</time></trkpt><trkpt lat="38.85960307357185" lon="-9.242113422439328"><ele>289.57142857142856</ele><time>2026-04-26T10:41:09Z</time></trkpt><trkpt lat="38.859630460342146" lon="-9.24203068057958"><ele>287.8571428571429</ele><time>2026-04-26T10:41:10Z</time></trkpt><trkpt lat="38.85965784905916" lon="-9.241947528574295"><ele>286.1428571428571</ele><time>2026-04-26T10:41:11Z</time></trkpt><trkpt lat="38.8596810669682" lon="-9.241871904688459"><ele>284.42857142857144</ele><time>2026-04-26T10:41:12Z</time></trkpt><trkpt lat="38.85970393323509" lon="-9.241788105074129"><ele>282.7142857142857</ele><time>2026-04-26T10:41:13Z</time></trkpt><trkpt lat="38.85972790420447" lon="-9.241701465778164"><ele>281.0</ele><time>2026-04-26T10:41:14Z</time></trkpt><trkpt lat="38.8597537633295" lon="-9.241614501217207"><ele>281.00000000000006</ele><time>2026-04-26T10:41:15Z</time></trkpt><trkpt lat="38.85977331505562" lon="-9.241524560685354"><ele>281.0</ele><time>2026-04-26T10:41:16Z</time></trkpt><trkpt lat="38.85979267643056" lon="-9.241441145589173"><ele>281.0</ele><time>2026-04-26T10:41:17Z</time></trkpt><trkpt lat="38.85982150058266" lon="-9.24135399276046"><ele>281.0</ele><time>2026-04-26T10:41:18Z</time></trkpt><trkpt lat="38.85985105856986" lon="-9.241271974339858"><ele>281.0</ele><time>2026-04-26T10:41:19Z</time></trkpt><trkpt lat="38.85988636252594" lon="-9.241186974686542"><ele>281.00000000000006</ele><time>2026-04-26T10:41:20Z</time></trkpt><trkpt lat="38.859921599428205" lon="-9.241102711556696"><ele>281.0</ele><time>2026-04-26T10:41:21Z</time></trkpt><trkpt lat="38.85996283946457" lon="-9.241022011680945"><ele>280.33333333333337</ele><time>2026-04-26T10:41:22Z</time></trkpt><trkpt lat="38.86001499768407" lon="-9.240945272052908"><ele>279.6666666666667</ele><time>2026-04-26T10:41:23Z</time></trkpt><trkpt lat="38.86006890776276" lon="-9.24087031018225"><ele>279.0</ele><time>2026-04-26T10:41:24Z</time></trkpt><trkpt lat="38.86012054651669" lon="-9.240794310976018"><ele>278.3333333333333</ele><time>2026-04-26T10:41:25Z</time></trkpt><trkpt lat="38.86018275466298" lon="-9.240724956172153"><ele>277.66666666666663</ele><time>2026-04-26T10:41:26Z</time></trkpt><trkpt lat="38.860244630802114" lon="-9.24065465048824"><ele>277.0</ele><time>2026-04-26T10:41:27Z</time></trkpt><trkpt lat="38.86030790460074" lon="-9.240591527884705"><ele>276.5</ele><time>2026-04-26T10:41:28Z</time></trkpt><trkpt lat="38.860367262852684" lon="-9.240525763195205"><ele>276.0</ele><time>2026-04-26T10:41:29Z</time></trkpt><trkpt lat="38.860428605691816" lon="-9.240463156038638"><ele>275.5</ele><time>2026-04-26T10:41:30Z</time></trkpt><trkpt lat="38.86048895717659" lon="-9.240401041237453"><ele>275.0</ele><time>2026-04-26T10:41:31Z</time></trkpt><trkpt lat="38.86055118724228" lon="-9.240328381209"><ele>274.5</ele><time>2026-04-26T10:41:32Z</time></trkpt><trkpt lat="38.86060723841212" lon="-9.240259782587453"><ele>274.0</ele><time>2026-04-26T10:41:33Z</time></trkpt><trkpt lat="38.86066375972028" lon="-9.240190399908457"><ele>274.0</ele><time>2026-04-26T10:41:34Z</time></trkpt><trkpt lat="38.860722942921434" lon="-9.240124802082104"><ele>274.0</ele><time>2026-04-26T10:41:35Z</time></trkpt><trkpt lat="38.86077762210346" lon="-9.240044553575737"><ele>274.0</ele><time>2026-04-26T10:41:36Z</time></trkpt><trkpt lat="38.860837119717196" lon="-9.239972744714"><ele>274.0</ele><time>2026-04-26T10:41:37Z</time></trkpt><trkpt lat="38.86089500281069" lon="-9.239902571420991"><ele>274.0</ele><time>2026-04-26T10:41:38Z</time></trkpt><trkpt lat="38.86095133423908" lon="-9.23982543201197"><ele>274.0</ele><time>2026-04-26T10:41:39Z</time></trkpt><trkpt lat="38.86100739466591" lon="-9.239757767072172"><ele>274.16666666666663</ele><time>2026-04-26T10:41:40Z</time></trkpt><trkpt lat="38.86106418657338" lon="-9.23969560612447"><ele>274.3333333333333</ele><time>2026-04-26T10:41:41Z</time></trkpt><trkpt lat="38.8611148751393" lon="-9.239625094925362"><ele>274.5</ele><time>2026-04-26T10:41:42Z</time></trkpt><trkpt lat="38.86116927471854" lon="-9.23956133458753"><ele>274.6666666666667</ele><time>2026-04-26T10:41:43Z</time></trkpt><trkpt lat="38.861219374651775" lon="-9.239489945440265"><ele>274.83333333333337</ele><time>2026-04-26T10:41:44Z</time></trkpt><trkpt lat="38.86127420840887" lon="-9.239417566660624"><ele>275.0</ele><time>2026-04-26T10:41:45Z</time></trkpt><trkpt lat="38.8613269793584" lon="-9.239340891457795"><ele>275.0</ele><time>2026-04-26T10:41:46Z</time></trkpt><trkpt lat="38.86137891294128" lon="-9.239270892893664"><ele>275.0</ele><time>2026-04-26T10:41:47Z</time></trkpt><trkpt lat="38.86143232745031" lon="-9.23920049254366"><ele>275.0</ele><time>2026-04-26T10:41:48Z</time></trkpt><trkpt lat="38.861479743081716" lon="-9.239135926838221"><ele>275.0</ele><time>2026-04-26T10:41:49Z</time></trkpt><trkpt lat="38.86152747572678" lon="-9.239076983581066"><ele>275.0</ele><time>2026-04-26T10:41:50Z</time></trkpt><trkpt lat="38.86160606462586" lon="-9.238972371246827"><ele>275.0</ele><time>2026-04-26T10:41:52Z</time></trkpt><trkpt lat="38.86168676159162" lon="-9.238864821010566"><ele>275.0</ele><time>2026-04-26T10:41:54Z</time></trkpt><trkpt lat="38.86175981512975" lon="-9.238766044099037"><ele>275.0</ele><time>2026-04-26T10:41:56Z</time></trkpt><trkpt lat="38.86182177614141" lon="-9.23867245529876"><ele>275.0</ele><time>2026-04-26T10:41:58Z</time></trkpt><trkpt lat="38.86186817993009" lon="-9.238601684717898"><ele>275.0</ele><time>2026-04-26T10:42:00Z</time></trkpt><trkpt lat="38.861908821640334" lon="-9.238519944824704"><ele>275.0</ele><time>2026-04-26T10:42:03Z</time></trkpt><trkpt lat="38.86194723876886" lon="-9.2384457105508"><ele>275.0</ele><time>2026-04-26T10:42:09Z</time></trkpt><trkpt lat="38.861979653688685" lon="-9.238333982244773"><ele>274.83333333333337</ele><time>2026-04-26T10:42:27Z</time></trkpt><trkpt lat="38.86201953455189" lon="-9.238238120459998"><ele>274.6666666666667</ele><time>2026-04-26T10:42:29Z</time></trkpt><trkpt lat="38.862056251478556" lon="-9.238129110641049"><ele>274.5</ele><time>2026-04-26T10:42:31Z</time></trkpt><trkpt lat="38.86209680242675" lon="-9.238009638883131"><ele>274.3333333333333</ele><time>2026-04-26T10:42:33Z</time></trkpt><trkpt lat="38.8621447428932" lon="-9.237914114843012"><ele>274.16666666666663</ele><time>2026-04-26T10:42:35Z</time></trkpt><trkpt lat="38.86221098863901" lon="-9.237877905833175"><ele>274.0</ele><time>2026-04-26T10:42:37Z</time></trkpt><trkpt lat="38.86228424466732" lon="-9.237951475999338"><ele>274.0</ele><time>2026-04-26T10:42:39Z</time></trkpt><trkpt lat="38.862350854773" lon="-9.23804079363347"><ele>274.0</ele><time>2026-04-26T10:42:41Z</time></trkpt><trkpt lat="38.86243355228963" lon="-9.23810917876051"><ele>274.0</ele><time>2026-04-26T10:42:43Z</time></trkpt><trkpt lat="38.86251105690489" lon="-9.238158479703651"><ele>274.0</ele><time>2026-04-26T10:42:45Z</time></trkpt><trkpt lat="38.86258001918708" lon="-9.238199827355334"><ele>274.0</ele><time>2026-04-26T10:42:47Z</time></trkpt><trkpt lat="38.86263815067882" lon="-9.238235015312654"><ele>274.0</ele><time>2026-04-26T10:42:49Z</time></trkpt><trkpt lat="38.862720817307356" lon="-9.238288806351365"><ele>273.66666666666663</ele><time>2026-04-26T10:42:52Z</time></trkpt><trkpt lat="38.86277881190854" lon="-9.238327823581814"><ele>273.3333333333333</ele><time>2026-04-26T10:42:54Z</time></trkpt><trkpt lat="38.86283672693387" lon="-9.238363050392431"><ele>273.0</ele><time>2026-04-26T10:42:56Z</time></trkpt><trkpt lat="38.86290685508281" lon="-9.238397520949857"><ele>272.6666666666667</ele><time>2026-04-26T10:42:58Z</time></trkpt><trkpt lat="38.86298131437435" lon="-9.23843737541054"><ele>272.33333333333337</ele><time>2026-04-26T10:43:00Z</time></trkpt><trkpt lat="38.86306981514208" lon="-9.238512669238231"><ele>272.0</ele><time>2026-04-26T10:43:02Z</time></trkpt><trkpt lat="38.8631352950515" lon="-9.238567326336824"><ele>272.0</ele><time>2026-04-26T10:43:04Z</time></trkpt><trkpt lat="38.86320531515684" lon="-9.238645871969165"><ele>272.0</ele><time>2026-04-26T10:43:06Z</time></trkpt><trkpt lat="38.8632581624514" lon="-9.23871771460836"><ele>272.0</ele><time>2026-04-26T10:43:08Z</time></trkpt><trkpt lat="38.86331976371356" lon="-9.23879367582418"><ele>272.0</ele><time>2026-04-26T10:43:10Z</time></trkpt><trkpt lat="38.86339215619184" lon="-9.238869438270049"><ele>272.0</ele><time>2026-04-26T10:43:12Z</time></trkpt><trkpt lat="38.86345364744502" lon="-9.238943499954226"><ele>272.0</ele><time>2026-04-26T10:43:14Z</time></trkpt><trkpt lat="38.863513863606016" lon="-9.239013923053044"><ele>271.1666666666667</ele><time>2026-04-26T10:43:16Z</time></trkpt><trkpt lat="38.863564146715404" lon="-9.239084794107965"><ele>270.33333333333337</ele><time>2026-04-26T10:43:18Z</time></trkpt><trkpt lat="38.8636247725197" lon="-9.239159319555299"><ele>269.5</ele><time>2026-04-26T10:43:20Z</time></trkpt><trkpt lat="38.86367880732499" lon="-9.239229472024277"><ele>268.6666666666667</ele><time>2026-04-26T10:43:22Z</time></trkpt><trkpt lat="38.86372098369881" lon="-9.239310369182556"><ele>267.8333333333333</ele><time>2026-04-26T10:43:24Z</time></trkpt><trkpt lat="38.86377956146116" lon="-9.239368433330924"><ele>267.0</ele><time>2026-04-26T10:43:26Z</time></trkpt><trkpt lat="38.863850451026515" lon="-9.239417056498896"><ele>267.0</ele><time>2026-04-26T10:43:29Z</time></trkpt><trkpt lat="38.86385682687115" lon="-9.239526403604268"><ele>267.0</ele><time>2026-04-26T10:43:32Z</time></trkpt><trkpt lat="38.863838699400866" lon="-9.239621540576339"><ele>267.0</ele><time>2026-04-26T10:43:34Z</time></trkpt><trkpt lat="38.863809254832844" lon="-9.239743768571019"><ele>267.0</ele><time>2026-04-26T10:43:36Z</time></trkpt><trkpt lat="38.86379630201565" lon="-9.239826099372925"><ele>267.0</ele><time>2026-04-26T10:43:37Z</time></trkpt><trkpt lat="38.86377105864153" lon="-9.239916871213453"><ele>267.0</ele><time>2026-04-26T10:43:38Z</time></trkpt><trkpt lat="38.863729366501744" lon="-9.240048202840926"><ele>266.5</ele><time>2026-04-26T10:43:40Z</time></trkpt><trkpt lat="38.86368708863366" lon="-9.240133995587543"><ele>266.0</ele><time>2026-04-26T10:43:41Z</time></trkpt><trkpt lat="38.86364955323743" lon="-9.24021440135365"><ele>265.5</ele><time>2026-04-26T10:43:42Z</time></trkpt><trkpt lat="38.8636109249995" lon="-9.240293673992522"><ele>265.0</ele><time>2026-04-26T10:43:43Z</time></trkpt><trkpt lat="38.86357692917198" lon="-9.240374085239422"><ele>264.5</ele><time>2026-04-26T10:43:44Z</time></trkpt><trkpt lat="38.86352887889434" lon="-9.240509557402087"><ele>264.0</ele><time>2026-04-26T10:43:46Z</time></trkpt><trkpt lat="38.86349888471911" lon="-9.240586966717753"><ele>263.85714285714283</ele><time>2026-04-26T10:43:47Z</time></trkpt><trkpt lat="38.86346670919334" lon="-9.240669484862519"><ele>263.7142857142857</ele><time>2026-04-26T10:43:48Z</time></trkpt><trkpt lat="38.86343525148323" lon="-9.240745679101105"><ele>263.57142857142856</ele><time>2026-04-26T10:43:49Z</time></trkpt><trkpt lat="38.863402924818686" lon="-9.240829224606875"><ele>263.42857142857144</ele><time>2026-04-26T10:43:50Z</time></trkpt><trkpt lat="38.863370755770525" lon="-9.240908950679628"><ele>263.2857142857143</ele><time>2026-04-26T10:43:51Z</time></trkpt><trkpt lat="38.863338813454895" lon="-9.240988462611814"><ele>263.1428571428571</ele><time>2026-04-26T10:43:52Z</time></trkpt><trkpt lat="38.86330007038023" lon="-9.241076255308755"><ele>263.0</ele><time>2026-04-26T10:43:53Z</time></trkpt><trkpt lat="38.86326478708268" lon="-9.241156026314691"><ele>263.0</ele><time>2026-04-26T10:43:54Z</time></trkpt><trkpt lat="38.86322866612971" lon="-9.241236939408774"><ele>263.0</ele><time>2026-04-26T10:43:55Z</time></trkpt><trkpt lat="38.863203071091846" lon="-9.241313068727258"><ele>263.0</ele><time>2026-04-26T10:43:56Z</time></trkpt><trkpt lat="38.86316580696565" lon="-9.241403333801728"><ele>263.0</ele><time>2026-04-26T10:43:57Z</time></trkpt><trkpt lat="38.8631319843232" lon="-9.241481871111526"><ele>263.0</ele><time>2026-04-26T10:43:58Z</time></trkpt><trkpt lat="38.8630896158235" lon="-9.241567372060315"><ele>263.0</ele><time>2026-04-26T10:43:59Z</time></trkpt><trkpt lat="38.863054274395616" lon="-9.241650606218643"><ele>263.0</ele><time>2026-04-26T10:44:00Z</time></trkpt><trkpt lat="38.863018016653996" lon="-9.241732487174584"><ele>263.2</ele><time>2026-04-26T10:44:01Z</time></trkpt><trkpt lat="38.862981359944776" lon="-9.241804911184497"><ele>263.4</ele><time>2026-04-26T10:44:02Z</time></trkpt><trkpt lat="38.86296287586208" lon="-9.241887123585574"><ele>263.59999999999997</ele><time>2026-04-26T10:44:03Z</time></trkpt><trkpt lat="38.86290593142437" lon="-9.242029791346342"><ele>263.8</ele><time>2026-04-26T10:44:05Z</time></trkpt><trkpt lat="38.862868381252106" lon="-9.242151525801049"><ele>264.0</ele><time>2026-04-26T10:44:07Z</time></trkpt><trkpt lat="38.862830967746774" lon="-9.242295610764481"><ele>265.4</ele><time>2026-04-26T10:44:09Z</time></trkpt><trkpt lat="38.862806059580876" lon="-9.242415628808095"><ele>266.79999999999995</ele><time>2026-04-26T10:44:11Z</time></trkpt><trkpt lat="38.86278123798188" lon="-9.242553390238701"><ele>268.20000000000005</ele><time>2026-04-26T10:44:13Z</time></trkpt><trkpt lat="38.86276073080515" lon="-9.242669334476716"><ele>269.6</ele><time>2026-04-26T10:44:15Z</time></trkpt><trkpt lat="38.86274739549825" lon="-9.2427995734275"><ele>271.0</ele><time>2026-04-26T10:44:17Z</time></trkpt><trkpt lat="38.86274168819007" lon="-9.242936250302128"><ele>271.0</ele><time>2026-04-26T10:44:19Z</time></trkpt><trkpt lat="38.86273044015038" lon="-9.24301970074847"><ele>271.0</ele><time>2026-04-26T10:44:20Z</time></trkpt><trkpt lat="38.86273695675945" lon="-9.243100569107805"><ele>271.0</ele><time>2026-04-26T10:44:21Z</time></trkpt><trkpt lat="38.86273950248797" lon="-9.243185607900923"><ele>271.0</ele><time>2026-04-26T10:44:22Z</time></trkpt><trkpt lat="38.86274220781187" lon="-9.24326937981338"><ele>271.0</ele><time>2026-04-26T10:44:23Z</time></trkpt><trkpt lat="38.86274005521347" lon="-9.243356873802655"><ele>271.0</ele><time>2026-04-26T10:44:24Z</time></trkpt><trkpt lat="38.862737660238906" lon="-9.243440618567773"><ele>271.0</ele><time>2026-04-26T10:44:25Z</time></trkpt><trkpt lat="38.86273877948586" lon="-9.24352235583775"><ele>272.16666666666663</ele><time>2026-04-26T10:44:26Z</time></trkpt><trkpt lat="38.862741478683716" lon="-9.2436048908673"><ele>273.3333333333333</ele><time>2026-04-26T10:44:27Z</time></trkpt><trkpt lat="38.86274361711833" lon="-9.243694150099284"><ele>274.5</ele><time>2026-04-26T10:44:28Z</time></trkpt><trkpt lat="38.86273737401544" lon="-9.243778527919705"><ele>275.6666666666667</ele><time>2026-04-26T10:44:29Z</time></trkpt><trkpt lat="38.86272439371924" lon="-9.24386798114326"><ele>276.83333333333337</ele><time>2026-04-26T10:44:30Z</time></trkpt><trkpt lat="38.86269605559456" lon="-9.244030241480164"><ele>278.0</ele><time>2026-04-26T10:44:32Z</time></trkpt><trkpt lat="38.8626748306653" lon="-9.244120020884605"><ele>279.5</ele><time>2026-04-26T10:44:33Z</time></trkpt><trkpt lat="38.86266302694065" lon="-9.244204839432971"><ele>281.0</ele><time>2026-04-26T10:44:34Z</time></trkpt><trkpt lat="38.86264743670426" lon="-9.244292289615165"><ele>282.5</ele><time>2026-04-26T10:44:35Z</time></trkpt><trkpt lat="38.86263772816816" lon="-9.244457541715077"><ele>284.0</ele><time>2026-04-26T10:44:37Z</time></trkpt><trkpt lat="38.862627044092235" lon="-9.244538446033593"><ele>285.5</ele><time>2026-04-26T10:44:38Z</time></trkpt><trkpt lat="38.86261949672126" lon="-9.24462524521957"><ele>287.0</ele><time>2026-04-26T10:44:39Z</time></trkpt><trkpt lat="38.86261372422338" lon="-9.24470998947517"><ele>288.4</ele><time>2026-04-26T10:44:40Z</time></trkpt><trkpt lat="38.86261276366281" lon="-9.244868389703258"><ele>289.79999999999995</ele><time>2026-04-26T10:44:42Z</time></trkpt><trkpt lat="38.86260333022787" lon="-9.244950472208174"><ele>291.2</ele><time>2026-04-26T10:44:43Z</time></trkpt><trkpt lat="38.862636253421414" lon="-9.245111949937383"><ele>292.59999999999997</ele><time>2026-04-26T10:44:45Z</time></trkpt><trkpt lat="38.86265098164557" lon="-9.245202302229918"><ele>294.0</ele><time>2026-04-26T10:44:46Z</time></trkpt><trkpt lat="38.86264556872616" lon="-9.245299014269909"><ele>294.0</ele><time>2026-04-26T10:44:47Z</time></trkpt><trkpt lat="38.862658854331876" lon="-9.245391786135471"><ele>294.0</ele><time>2026-04-26T10:44:48Z</time></trkpt><trkpt lat="38.8626600597959" lon="-9.245482536447742"><ele>294.0</ele><time>2026-04-26T10:44:49Z</time></trkpt><trkpt lat="38.862650979591734" lon="-9.245572016736697"><ele>294.0</ele><time>2026-04-26T10:44:50Z</time></trkpt><trkpt lat="38.86263419470652" lon="-9.245662987545602"><ele>294.0</ele><time>2026-04-26T10:44:51Z</time></trkpt><trkpt lat="38.86263605543044" lon="-9.245756293812468"><ele>294.0</ele><time>2026-04-26T10:44:52Z</time></trkpt><trkpt lat="38.862660035536884" lon="-9.245850009558831"><ele>294.0</ele><time>2026-04-26T10:44:53Z</time></trkpt><trkpt lat="38.86268238111602" lon="-9.24594775234556"><ele>293.42857142857144</ele><time>2026-04-26T10:44:54Z</time></trkpt><trkpt lat="38.8627116825645" lon="-9.246034054998553"><ele>292.8571428571429</ele><time>2026-04-26T10:44:55Z</time></trkpt><trkpt lat="38.86273823599406" lon="-9.246122733845642"><ele>292.2857142857143</ele><time>2026-04-26T10:44:56Z</time></trkpt><trkpt lat="38.86276237541899" lon="-9.246205648555893"><ele>291.7142857142857</ele><time>2026-04-26T10:44:57Z</time></trkpt><trkpt lat="38.862780391311034" lon="-9.246296927690942"><ele>291.14285714285717</ele><time>2026-04-26T10:44:58Z</time></trkpt><trkpt lat="38.86280064300733" lon="-9.246378750807803"><ele>290.57142857142856</ele><time>2026-04-26T10:44:59Z</time></trkpt><trkpt lat="38.862829138668985" lon="-9.246454570282252"><ele>290.0</ele><time>2026-04-26T10:45:00Z</time></trkpt><trkpt lat="38.86284378810871" lon="-9.246533209156205"><ele>289.0</ele><time>2026-04-26T10:45:01Z</time></trkpt><trkpt lat="38.86285675566009" lon="-9.24669446142745"><ele>288.0</ele><time>2026-04-26T10:45:03Z</time></trkpt><trkpt lat="38.86287479288345" lon="-9.246857533662707"><ele>287.0</ele><time>2026-04-26T10:45:05Z</time></trkpt><trkpt lat="38.86288762529508" lon="-9.246938527158413"><ele>286.0</ele><time>2026-04-26T10:45:06Z</time></trkpt><trkpt lat="38.862907383228446" lon="-9.247022863417271"><ele>285.0</ele><time>2026-04-26T10:45:07Z</time></trkpt><trkpt lat="38.86293885089117" lon="-9.247115162271433"><ele>285.0</ele><time>2026-04-26T10:45:08Z</time></trkpt><trkpt lat="38.86302843812969" lon="-9.247221958263609"><ele>285.0</ele><time>2026-04-26T10:45:10Z</time></trkpt><trkpt lat="38.86309839356695" lon="-9.247263511230143"><ele>285.0</ele><time>2026-04-26T10:45:11Z</time></trkpt><trkpt lat="38.8631830611287" lon="-9.247311002423302"><ele>285.0</ele><time>2026-04-26T10:45:12Z</time></trkpt><trkpt lat="38.8632637033397" lon="-9.247375981971452"><ele>285.0</ele><time>2026-04-26T10:45:13Z</time></trkpt><trkpt lat="38.86334616663236" lon="-9.247445844923938"><ele>283.8</ele><time>2026-04-26T10:45:14Z</time></trkpt><trkpt lat="38.86337123849983" lon="-9.247610599316976"><ele>282.6</ele><time>2026-04-26T10:45:15Z</time></trkpt><trkpt lat="38.86340177633557" lon="-9.247724073825411"><ele>281.4</ele><time>2026-04-26T10:45:16Z</time></trkpt><trkpt lat="38.86344102052866" lon="-9.247844733509346"><ele>280.2</ele><time>2026-04-26T10:45:17Z</time></trkpt><trkpt lat="38.86347949420243" lon="-9.247941362020526"><ele>279.0</ele><time>2026-04-26T10:45:18Z</time></trkpt><trkpt lat="38.8635094625804" lon="-9.248053523394917"><ele>279.8333333333333</ele><time>2026-04-26T10:45:19Z</time></trkpt><trkpt lat="38.86355491145234" lon="-9.248151661784632"><ele>280.6666666666667</ele><time>2026-04-26T10:45:20Z</time></trkpt><trkpt lat="38.863609664728756" lon="-9.248240496775136"><ele>281.5</ele><time>2026-04-26T10:45:21Z</time></trkpt><trkpt lat="38.86368070031389" lon="-9.248309696372358"><ele>282.33333333333337</ele><time>2026-04-26T10:45:22Z</time></trkpt><trkpt lat="38.86373989026246" lon="-9.248356872540315"><ele>283.1666666666667</ele><time>2026-04-26T10:45:23Z</time></trkpt><trkpt lat="38.86381856792065" lon="-9.248425464532195"><ele>284.0</ele><time>2026-04-26T10:45:25Z</time></trkpt><trkpt lat="38.86391665607347" lon="-9.248514445570626"><ele>284.0</ele><time>2026-04-26T10:45:27Z</time></trkpt><trkpt lat="38.863973370981086" lon="-9.248576253908723"><ele>284.0</ele><time>2026-04-26T10:45:28Z</time></trkpt><trkpt lat="38.86401641468041" lon="-9.248650175383931"><ele>284.0</ele><time>2026-04-26T10:45:29Z</time></trkpt><trkpt lat="38.86406484070349" lon="-9.248731162580041"><ele>284.0</ele><time>2026-04-26T10:45:30Z</time></trkpt><trkpt lat="38.86409470816029" lon="-9.248824495668632"><ele>284.0</ele><time>2026-04-26T10:45:31Z</time></trkpt><trkpt lat="38.86412250855061" lon="-9.248908888530456"><ele>284.0</ele><time>2026-04-26T10:45:32Z</time></trkpt><trkpt lat="38.86420586994711" lon="-9.24901731275604"><ele>283.33333333333337</ele><time>2026-04-26T10:45:34Z</time></trkpt><trkpt lat="38.86430445029775" lon="-9.249084072396373"><ele>282.6666666666667</ele><time>2026-04-26T10:45:36Z</time></trkpt><trkpt lat="38.864360844970314" lon="-9.249173852800517"><ele>282.0</ele><time>2026-04-26T10:45:38Z</time></trkpt><trkpt lat="38.86432115579991" lon="-9.24924525127129"><ele>281.3333333333333</ele><time>2026-04-26T10:45:56Z</time></trkpt><trkpt lat="38.86427283770951" lon="-9.249314176394066"><ele>280.66666666666663</ele><time>2026-04-26T10:45:58Z</time></trkpt><trkpt lat="38.86418928350563" lon="-9.249371797392227"><ele>280.0</ele><time>2026-04-26T10:46:00Z</time></trkpt><trkpt lat="38.864093429728825" lon="-9.249433706799936"><ele>280.0</ele><time>2026-04-26T10:46:02Z</time></trkpt><trkpt lat="38.863985866159624" lon="-9.249512884894576"><ele>280.0</ele><time>2026-04-26T10:46:04Z</time></trkpt><trkpt lat="38.86393007482001" lon="-9.249567784559945"><ele>280.0</ele><time>2026-04-26T10:46:05Z</time></trkpt><trkpt lat="38.863872316847406" lon="-9.249634954601648"><ele>280.0</ele><time>2026-04-26T10:46:06Z</time></trkpt><trkpt lat="38.86381735581047" lon="-9.24971797341174"><ele>280.0</ele><time>2026-04-26T10:46:07Z</time></trkpt><trkpt lat="38.86375056053716" lon="-9.249808578000852"><ele>281.5</ele><time>2026-04-26T10:46:08Z</time></trkpt><trkpt lat="38.863679015659685" lon="-9.249906686502616"><ele>283.0</ele><time>2026-04-26T10:46:09Z</time></trkpt><trkpt lat="38.86361711779586" lon="-9.249997268945188"><ele>284.5</ele><time>2026-04-26T10:46:10Z</time></trkpt><trkpt lat="38.86358035918349" lon="-9.250105103928401"><ele>286.0</ele><time>2026-04-26T10:46:11Z</time></trkpt><trkpt lat="38.86354844164993" lon="-9.25017526526083"><ele>287.5</ele><time>2026-04-26T10:46:12Z</time></trkpt><trkpt lat="38.863505022544075" lon="-9.250270709772487"><ele>289.0</ele><time>2026-04-26T10:46:14Z</time></trkpt><trkpt lat="38.86339229776436" lon="-9.25026071771084"><ele>289.0</ele><time>2026-04-26T10:46:15Z</time></trkpt><trkpt lat="38.86333323496138" lon="-9.250306792890493"><ele>289.0</ele><time>2026-04-26T10:46:16Z</time></trkpt><trkpt lat="38.863269994378875" lon="-9.250362087487224"><ele>289.0</ele><time>2026-04-26T10:46:17Z</time></trkpt><trkpt lat="38.86321004137108" lon="-9.250433283980058"><ele>289.0</ele><time>2026-04-26T10:46:18Z</time></trkpt><trkpt lat="38.86315873172593" lon="-9.250529718350183"><ele>289.0</ele><time>2026-04-26T10:46:19Z</time></trkpt><trkpt lat="38.863140058991455" lon="-9.250646243171891"><ele>289.0</ele><time>2026-04-26T10:46:20Z</time></trkpt><trkpt lat="38.86311814773513" lon="-9.250763278168069"><ele>288.0</ele><time>2026-04-26T10:46:21Z</time></trkpt><trkpt lat="38.86309087208793" lon="-9.250873733435297"><ele>287.0</ele><time>2026-04-26T10:46:22Z</time></trkpt><trkpt lat="38.86308838128264" lon="-9.250985467849034"><ele>286.0</ele><time>2026-04-26T10:46:23Z</time></trkpt><trkpt lat="38.86308153771658" lon="-9.251092648258034"><ele>285.0</ele><time>2026-04-26T10:46:24Z</time></trkpt><trkpt lat="38.863062551992925" lon="-9.251198974500173"><ele>284.0</ele><time>2026-04-26T10:46:25Z</time></trkpt><trkpt lat="38.863025803799296" lon="-9.25130217812157"><ele>283.0</ele><time>2026-04-26T10:46:26Z</time></trkpt><trkpt lat="38.86296177722055" lon="-9.251384283436483"><ele>283.0</ele><time>2026-04-26T10:46:27Z</time></trkpt><trkpt lat="38.86287265799875" lon="-9.25142691364181"><ele>283.0</ele><time>2026-04-26T10:46:28Z</time></trkpt><trkpt lat="38.862773921099894" lon="-9.25144817466918"><ele>283.0</ele><time>2026-04-26T10:46:29Z</time></trkpt><trkpt lat="38.86267814893402" lon="-9.251463666898745"><ele>283.0</ele><time>2026-04-26T10:46:30Z</time></trkpt><trkpt lat="38.862585176949594" lon="-9.251486990910678"><ele>283.0</ele><time>2026-04-26T10:46:31Z</time></trkpt><trkpt lat="38.86250247643621" lon="-9.251503720528657"><ele>283.0</ele><time>2026-04-26T10:46:32Z</time></trkpt><trkpt lat="38.86241748603227" lon="-9.251491770598848"><ele>283.0</ele><time>2026-04-26T10:46:33Z</time></trkpt><trkpt lat="38.862329696278756" lon="-9.251439308743828"><ele>283.0</ele><time>2026-04-26T10:46:34Z</time></trkpt><trkpt lat="38.862257747780625" lon="-9.251361424834677"><ele>283.0</ele><time>2026-04-26T10:46:35Z</time></trkpt><trkpt lat="38.86219360728946" lon="-9.251267927911709"><ele>283.0</ele><time>2026-04-26T10:46:36Z</time></trkpt><trkpt lat="38.86212149322087" lon="-9.251187272366128"><ele>283.0</ele><time>2026-04-26T10:46:37Z</time></trkpt><trkpt lat="38.86204204086448" lon="-9.25112128243537"><ele>283.0</ele><time>2026-04-26T10:46:38Z</time></trkpt><trkpt lat="38.86195809102827" lon="-9.251082077351311"><ele>283.0</ele><time>2026-04-26T10:46:39Z</time></trkpt><trkpt lat="38.86187545132904" lon="-9.251092483833718"><ele>283.0</ele><time>2026-04-26T10:46:40Z</time></trkpt><trkpt lat="38.861790513213066" lon="-9.251084240137407"><ele>283.0</ele><time>2026-04-26T10:46:41Z</time></trkpt><trkpt lat="38.86170653816791" lon="-9.25108771459281"><ele>283.0</ele><time>2026-04-26T10:46:42Z</time></trkpt><trkpt lat="38.86162054077159" lon="-9.251108072933205"><ele>282.16666666666663</ele><time>2026-04-26T10:46:43Z</time></trkpt><trkpt lat="38.86153948041528" lon="-9.251154734586326"><ele>281.3333333333333</ele><time>2026-04-26T10:46:44Z</time></trkpt><trkpt lat="38.86147018666264" lon="-9.25121523029646"><ele>280.5</ele><time>2026-04-26T10:46:45Z</time></trkpt><trkpt lat="38.86141436297549" lon="-9.251298331375136"><ele>279.6666666666667</ele><time>2026-04-26T10:46:46Z</time></trkpt><trkpt lat="38.861371503185126" lon="-9.251399807663189"><ele>278.83333333333337</ele><time>2026-04-26T10:46:47Z</time></trkpt><trkpt lat="38.86134730153036" lon="-9.251510074885928"><ele>278.0</ele><time>2026-04-26T10:46:48Z</time></trkpt><trkpt lat="38.86132929779821" lon="-9.251628882327216"><ele>278.0</ele><time>2026-04-26T10:46:49Z</time></trkpt><trkpt lat="38.86131234874851" lon="-9.251747208853002"><ele>278.0</ele><time>2026-04-26T10:46:50Z</time></trkpt><trkpt lat="38.86128942409805" lon="-9.251864672059632"><ele>278.0</ele><time>2026-04-26T10:46:51Z</time></trkpt><trkpt lat="38.8612738007877" lon="-9.251991173054012"><ele>278.0</ele><time>2026-04-26T10:46:52Z</time></trkpt><trkpt lat="38.86125733181739" lon="-9.25211732186382"><ele>278.0</ele><time>2026-04-26T10:46:53Z</time></trkpt><trkpt lat="38.86123894059336" lon="-9.252237312530337"><ele>276.8</ele><time>2026-04-26T10:46:54Z</time></trkpt><trkpt lat="38.86121181125185" lon="-9.252363037634874"><ele>275.6</ele><time>2026-04-26T10:46:55Z</time></trkpt><trkpt lat="38.86116933964671" lon="-9.252488587335788"><ele>274.4</ele><time>2026-04-26T10:46:56Z</time></trkpt><trkpt lat="38.861112914811706" lon="-9.252619071338792"><ele>273.2</ele><time>2026-04-26T10:46:57Z</time></trkpt><trkpt lat="38.861042750830556" lon="-9.252739925338519"><ele>272.0</ele><time>2026-04-26T10:46:58Z</time></trkpt><trkpt lat="38.860972313208265" lon="-9.252862132616482"><ele>270.75</ele><time>2026-04-26T10:46:59Z</time></trkpt><trkpt lat="38.86090460505253" lon="-9.25298369786737"><ele>269.5</ele><time>2026-04-26T10:47:00Z</time></trkpt><trkpt lat="38.86084659347595" lon="-9.253118024091336"><ele>268.25</ele><time>2026-04-26T10:47:01Z</time></trkpt><trkpt lat="38.86081604622208" lon="-9.253265369978774"><ele>267.0</ele><time>2026-04-26T10:47:02Z</time></trkpt><trkpt lat="38.86078664353119" lon="-9.2534093306743"><ele>266.6</ele><time>2026-04-26T10:47:03Z</time></trkpt><trkpt lat="38.86076625918799" lon="-9.253547812144118"><ele>266.2</ele><time>2026-04-26T10:47:04Z</time></trkpt><trkpt lat="38.86075536074229" lon="-9.253683381537195"><ele>265.8</ele><time>2026-04-26T10:47:05Z</time></trkpt><trkpt lat="38.86075584007865" lon="-9.253801317613291"><ele>265.4</ele><time>2026-04-26T10:47:06Z</time></trkpt><trkpt lat="38.86075630475912" lon="-9.253923481817177"><ele>265.0</ele><time>2026-04-26T10:47:07Z</time></trkpt><trkpt lat="38.86075748865783" lon="-9.25404816513014"><ele>264.0</ele><time>2026-04-26T10:47:08Z</time></trkpt><trkpt lat="38.860751092094745" lon="-9.25418414828359"><ele>263.0</ele><time>2026-04-26T10:47:09Z</time></trkpt><trkpt lat="38.860752123762914" lon="-9.25431980135698"><ele>262.0</ele><time>2026-04-26T10:47:10Z</time></trkpt><trkpt lat="38.86075877629889" lon="-9.254456747728474"><ele>261.0</ele><time>2026-04-26T10:47:11Z</time></trkpt><trkpt lat="38.860762998596755" lon="-9.254594853395359"><ele>260.0</ele><time>2026-04-26T10:47:12Z</time></trkpt><trkpt lat="38.86076775717786" lon="-9.254727453839251"><ele>259.0</ele><time>2026-04-26T10:47:13Z</time></trkpt><trkpt lat="38.860768111304004" lon="-9.254854571696912"><ele>258.0</ele><time>2026-04-26T10:47:14Z</time></trkpt><trkpt lat="38.860771070209175" lon="-9.254973893810826"><ele>257.0</ele><time>2026-04-26T10:47:15Z</time></trkpt><trkpt lat="38.86077355261461" lon="-9.255093307373714"><ele>256.0</ele><time>2026-04-26T10:47:16Z</time></trkpt><trkpt lat="38.86077347982489" lon="-9.255223897527213"><ele>255.0</ele><time>2026-04-26T10:47:17Z</time></trkpt><trkpt lat="38.860773258909845" lon="-9.255353580273095"><ele>255.0</ele><time>2026-04-26T10:47:18Z</time></trkpt><trkpt lat="38.860773256151326" lon="-9.255481840889681"><ele>255.0</ele><time>2026-04-26T10:47:19Z</time></trkpt><trkpt lat="38.860757356031904" lon="-9.255605213569568"><ele>255.0</ele><time>2026-04-26T10:47:20Z</time></trkpt><trkpt lat="38.86072920257767" lon="-9.255723924129022"><ele>255.0</ele><time>2026-04-26T10:47:21Z</time></trkpt><trkpt lat="38.86068991368268" lon="-9.25584217718537"><ele>255.0</ele><time>2026-04-26T10:47:22Z</time></trkpt><trkpt lat="38.860634812751506" lon="-9.255952814189046"><ele>254.2</ele><time>2026-04-26T10:47:23Z</time></trkpt><trkpt lat="38.86057487402383" lon="-9.256061080544768"><ele>253.4</ele><time>2026-04-26T10:47:24Z</time></trkpt><trkpt lat="38.86050389687785" lon="-9.256163905478129"><ele>252.60000000000002</ele><time>2026-04-26T10:47:25Z</time></trkpt><trkpt lat="38.8604332567489" lon="-9.256253792456715"><ele>251.8</ele><time>2026-04-26T10:47:26Z</time></trkpt><trkpt lat="38.8603496899459" lon="-9.256328064714102"><ele>251.0</ele><time>2026-04-26T10:47:27Z</time></trkpt><trkpt lat="38.86026382436756" lon="-9.256392783426083"><ele>250.4</ele><time>2026-04-26T10:47:28Z</time></trkpt><trkpt lat="38.860179667926" lon="-9.256458934269574"><ele>249.8</ele><time>2026-04-26T10:47:29Z</time></trkpt><trkpt lat="38.86010554001074" lon="-9.256540802234923"><ele>249.20000000000002</ele><time>2026-04-26T10:47:30Z</time></trkpt><trkpt lat="38.860053920071145" lon="-9.256641026327419"><ele>248.60000000000002</ele><time>2026-04-26T10:47:31Z</time></trkpt><trkpt lat="38.86002155991241" lon="-9.25677542504133"><ele>248.0</ele><time>2026-04-26T10:47:32Z</time></trkpt><trkpt lat="38.85999031927885" lon="-9.256909761516331"><ele>248.0</ele><time>2026-04-26T10:47:33Z</time></trkpt><trkpt lat="38.85995905510548" lon="-9.257046957634602"><ele>248.0</ele><time>2026-04-26T10:47:34Z</time></trkpt><trkpt lat="38.859929428861605" lon="-9.257176708544153"><ele>248.0</ele><time>2026-04-26T10:47:35Z</time></trkpt><trkpt lat="38.85990118539895" lon="-9.257299864511523"><ele>248.0</ele><time>2026-04-26T10:47:36Z</time></trkpt><trkpt lat="38.859873217638366" lon="-9.257421335864642"><ele>248.0</ele><time>2026-04-26T10:47:37Z</time></trkpt><trkpt lat="38.85984189220365" lon="-9.257545005108952"><ele>246.2</ele><time>2026-04-26T10:47:38Z</time></trkpt><trkpt lat="38.859809739720966" lon="-9.25766077130682"><ele>244.4</ele><time>2026-04-26T10:47:39Z</time></trkpt><trkpt lat="38.85977001836924" lon="-9.25778342281165"><ele>242.59999999999997</ele><time>2026-04-26T10:47:40Z</time></trkpt><trkpt lat="38.85971624420543" lon="-9.257882122814545"><ele>240.79999999999998</ele><time>2026-04-26T10:47:41Z</time></trkpt><trkpt lat="38.85966701201527" lon="-9.257986150331664"><ele>239.0</ele><time>2026-04-26T10:47:42Z</time></trkpt><trkpt lat="38.85961140116787" lon="-9.258084228520097"><ele>239.6</ele><time>2026-04-26T10:47:43Z</time></trkpt><trkpt lat="38.859533696047855" lon="-9.258163748431977"><ele>240.2</ele><time>2026-04-26T10:47:44Z</time></trkpt><trkpt lat="38.859447721186626" lon="-9.258234244507348"><ele>240.79999999999998</ele><time>2026-04-26T10:47:45Z</time></trkpt><trkpt lat="38.85935248001748" lon="-9.258299967795654"><ele>241.39999999999998</ele><time>2026-04-26T10:47:46Z</time></trkpt><trkpt lat="38.85925727002857" lon="-9.25837421071814"><ele>242.0</ele><time>2026-04-26T10:47:47Z</time></trkpt><trkpt lat="38.85916149659458" lon="-9.258438412811778"><ele>240.8</ele><time>2026-04-26T10:47:48Z</time></trkpt><trkpt lat="38.85906449288367" lon="-9.258497757977906"><ele>239.6</ele><time>2026-04-26T10:47:49Z</time></trkpt><trkpt lat="38.85896882975354" lon="-9.258544518808"><ele>238.40000000000003</ele><time>2026-04-26T10:47:50Z</time></trkpt><trkpt lat="38.85886154698689" lon="-9.25856750946654"><ele>237.20000000000002</ele><time>2026-04-26T10:47:51Z</time></trkpt><trkpt lat="38.858757716936125" lon="-9.258572638131474"><ele>236.0</ele><time>2026-04-26T10:47:52Z</time></trkpt><trkpt lat="38.858650633843" lon="-9.25857431430936"><ele>236.0</ele><time>2026-04-26T10:47:53Z</time></trkpt><trkpt lat="38.858541656707594" lon="-9.258569482375247"><ele>236.00000000000003</ele><time>2026-04-26T10:47:54Z</time></trkpt><trkpt lat="38.85843292685238" lon="-9.258573980478172"><ele>236.00000000000003</ele><time>2026-04-26T10:47:55Z</time></trkpt><trkpt lat="38.85832604728182" lon="-9.258574413422757"><ele>236.0</ele><time>2026-04-26T10:47:56Z</time></trkpt><trkpt lat="38.85821812638339" lon="-9.25857092608539"><ele>236.0</ele><time>2026-04-26T10:47:57Z</time></trkpt><trkpt lat="38.85810529528801" lon="-9.25855861809652"><ele>235.75</ele><time>2026-04-26T10:47:58Z</time></trkpt><trkpt lat="38.85798916375933" lon="-9.258548825112706"><ele>235.5</ele><time>2026-04-26T10:47:59Z</time></trkpt><trkpt lat="38.85786985313745" lon="-9.258530219001232"><ele>235.25</ele><time>2026-04-26T10:48:00Z</time></trkpt><trkpt lat="38.857753358549196" lon="-9.258524538779108"><ele>235.0</ele><time>2026-04-26T10:48:01Z</time></trkpt><trkpt lat="38.857633556829555" lon="-9.258508753302753"><ele>234.25</ele><time>2026-04-26T10:48:02Z</time></trkpt><trkpt lat="38.857512425565155" lon="-9.25849375947906"><ele>233.5</ele><time>2026-04-26T10:48:03Z</time></trkpt><trkpt lat="38.85739076977885" lon="-9.258482521583522"><ele>232.75</ele><time>2026-04-26T10:48:04Z</time></trkpt><trkpt lat="38.85727011795655" lon="-9.258468078214234"><ele>232.0</ele><time>2026-04-26T10:48:05Z</time></trkpt><trkpt lat="38.85714996550609" lon="-9.258454215654448"><ele>232.0</ele><time>2026-04-26T10:48:06Z</time></trkpt><trkpt lat="38.85702603102884" lon="-9.258439122324079"><ele>232.0</ele><time>2026-04-26T10:48:07Z</time></trkpt><trkpt lat="38.856899510149525" lon="-9.258429683135331"><ele>232.0</ele><time>2026-04-26T10:48:08Z</time></trkpt><trkpt lat="38.85677199353687" lon="-9.2584165894185"><ele>232.0</ele><time>2026-04-26T10:48:09Z</time></trkpt><trkpt lat="38.85664242861005" lon="-9.258402401450672"><ele>231.25</ele><time>2026-04-26T10:48:10Z</time></trkpt><trkpt lat="38.85651265328675" lon="-9.258386403873805"><ele>230.5</ele><time>2026-04-26T10:48:11Z</time></trkpt><trkpt lat="38.85638109725415" lon="-9.258364107687532"><ele>229.75</ele><time>2026-04-26T10:48:12Z</time></trkpt><trkpt lat="38.85625530439898" lon="-9.258322466960143"><ele>229.0</ele><time>2026-04-26T10:48:13Z</time></trkpt><trkpt lat="38.856133918791194" lon="-9.258278636003343"><ele>229.0</ele><time>2026-04-26T10:48:14Z</time></trkpt><trkpt lat="38.85600599537961" lon="-9.25823494059137"><ele>229.0</ele><time>2026-04-26T10:48:15Z</time></trkpt><trkpt lat="38.855888855152074" lon="-9.25819548348462"><ele>229.0</ele><time>2026-04-26T10:48:16Z</time></trkpt><trkpt lat="38.85576844392398" lon="-9.258149778138147"><ele>229.0</ele><time>2026-04-26T10:48:17Z</time></trkpt><trkpt lat="38.85565282413118" lon="-9.258119443047717"><ele>229.5</ele><time>2026-04-26T10:48:18Z</time></trkpt><trkpt lat="38.855535533482666" lon="-9.258105941375657"><ele>230.0</ele><time>2026-04-26T10:48:19Z</time></trkpt><trkpt lat="38.855422957020366" lon="-9.25810887196185"><ele>230.5</ele><time>2026-04-26T10:48:20Z</time></trkpt><trkpt lat="38.855311228033926" lon="-9.258123577361436"><ele>231.0</ele><time>2026-04-26T10:48:21Z</time></trkpt><trkpt lat="38.855198997142324" lon="-9.258141199445967"><ele>230.20000000000002</ele><time>2026-04-26T10:48:22Z</time></trkpt><trkpt lat="38.85508643245429" lon="-9.258159184759682"><ele>229.40000000000003</ele><time>2026-04-26T10:48:23Z</time></trkpt><trkpt lat="38.854978620746635" lon="-9.258168728528657"><ele>228.6</ele><time>2026-04-26T10:48:24Z</time></trkpt><trkpt lat="38.854875585151746" lon="-9.258180077127713"><ele>227.8</ele><time>2026-04-26T10:48:25Z</time></trkpt><trkpt lat="38.854780224447964" lon="-9.258189350527887"><ele>227.0</ele><time>2026-04-26T10:48:26Z</time></trkpt><trkpt lat="38.85468260254801" lon="-9.258200207971242"><ele>227.00000000000003</ele><time>2026-04-26T10:48:27Z</time></trkpt><trkpt lat="38.85459196471045" lon="-9.258202019609415"><ele>227.0</ele><time>2026-04-26T10:48:28Z</time></trkpt><trkpt lat="38.85451225421988" lon="-9.258195326337871"><ele>227.0</ele><time>2026-04-26T10:48:29Z</time></trkpt><trkpt lat="38.854431417526456" lon="-9.258191984699172"><ele>227.0</ele><time>2026-04-26T10:48:30Z</time></trkpt><trkpt lat="38.854362393582875" lon="-9.258198060636873"><ele>227.00000000000003</ele><time>2026-04-26T10:48:31Z</time></trkpt><trkpt lat="38.85430570235306" lon="-9.258248406425148"><ele>227.0</ele><time>2026-04-26T10:48:32Z</time></trkpt><trkpt lat="38.85424580192424" lon="-9.258289810217905"><ele>227.50000000000003</ele><time>2026-04-26T10:48:33Z</time></trkpt><trkpt lat="38.85418931676228" lon="-9.25833136505826"><ele>228.0</ele><time>2026-04-26T10:48:34Z</time></trkpt><trkpt lat="38.85409116030439" lon="-9.258380499630748"><ele>228.5</ele><time>2026-04-26T10:48:36Z</time></trkpt><trkpt lat="38.85401035837566" lon="-9.25842326629013"><ele>229.0</ele><time>2026-04-26T10:48:38Z</time></trkpt><trkpt lat="38.85392870693229" lon="-9.25844082670714"><ele>229.50000000000003</ele><time>2026-04-26T10:48:40Z</time></trkpt><trkpt lat="38.853837395532615" lon="-9.258488159390103"><ele>230.0</ele><time>2026-04-26T10:48:42Z</time></trkpt><trkpt lat="38.853753078167394" lon="-9.258574600925792"><ele>230.0</ele><time>2026-04-26T10:48:44Z</time></trkpt><trkpt lat="38.8536979745664" lon="-9.258627263984785"><ele>230.0</ele><time>2026-04-26T10:48:45Z</time></trkpt><trkpt lat="38.85362187761779" lon="-9.258729577191723"><ele>230.0</ele><time>2026-04-26T10:48:47Z</time></trkpt><trkpt lat="38.85353205631488" lon="-9.258794098577399"><ele>230.0</ele><time>2026-04-26T10:48:50Z</time></trkpt><trkpt lat="38.8534802826195" lon="-9.258874117010192"><ele>230.0</ele><time>2026-04-26T10:48:52Z</time></trkpt><trkpt lat="38.85336400119473" lon="-9.25887550176835"><ele>231.8</ele><time>2026-04-26T10:48:54Z</time></trkpt><trkpt lat="38.85331677051985" lon="-9.258812934335472"><ele>233.6</ele><time>2026-04-26T10:48:55Z</time></trkpt><trkpt lat="38.85323880882832" lon="-9.25869101162634"><ele>235.39999999999998</ele><time>2026-04-26T10:48:57Z</time></trkpt><trkpt lat="38.853179871693364" lon="-9.258585420541248"><ele>237.2</ele><time>2026-04-26T10:48:59Z</time></trkpt><trkpt lat="38.85307339627881" lon="-9.258519731265576"><ele>239.0</ele><time>2026-04-26T10:49:01Z</time></trkpt><trkpt lat="38.85295182604868" lon="-9.258489999097854"><ele>239.00000000000003</ele><time>2026-04-26T10:49:03Z</time></trkpt><trkpt lat="38.85288618755477" lon="-9.258465260127808"><ele>239.0</ele><time>2026-04-26T10:49:04Z</time></trkpt><trkpt lat="38.85282798668096" lon="-9.258428711801336"><ele>239.0</ele><time>2026-04-26T10:49:05Z</time></trkpt><trkpt lat="38.8527525126886" lon="-9.258364408180288"><ele>239.0</ele><time>2026-04-26T10:49:07Z</time></trkpt><trkpt lat="38.85277196638962" lon="-9.258487470735677"><ele>239.00000000000003</ele><time>2026-04-26T10:49:09Z</time></trkpt><trkpt lat="38.852722971246045" lon="-9.2585688694774"><ele>239.0</ele><time>2026-04-26T10:49:11Z</time></trkpt><trkpt lat="38.85270284905719" lon="-9.25867092581237"><ele>239.0</ele><time>2026-04-26T10:49:13Z</time></trkpt><trkpt lat="38.85264840795849" lon="-9.258799430200868"><ele>238.99999999999997</ele><time>2026-04-26T10:49:15Z</time></trkpt><trkpt lat="38.85257525420824" lon="-9.258894893113958"><ele>238.99999999999997</ele><time>2026-04-26T10:49:17Z</time></trkpt><trkpt lat="38.8525060320514" lon="-9.25901743785499"><ele>239.0</ele><time>2026-04-26T10:49:19Z</time></trkpt><trkpt lat="38.85243549886437" lon="-9.259131372735412"><ele>239.0</ele><time>2026-04-26T10:49:21Z</time></trkpt><trkpt lat="38.85236760866471" lon="-9.259243108414392"><ele>240.2</ele><time>2026-04-26T10:49:23Z</time></trkpt><trkpt lat="38.85229596941272" lon="-9.259363000512565"><ele>241.39999999999998</ele><time>2026-04-26T10:49:25Z</time></trkpt><trkpt lat="38.85222778878133" lon="-9.259472250900773"><ele>242.6</ele><time>2026-04-26T10:49:27Z</time></trkpt><trkpt lat="38.852156964658896" lon="-9.259573456623324"><ele>243.8</ele><time>2026-04-26T10:49:29Z</time></trkpt><trkpt lat="38.8520928665264" lon="-9.259570041322998"><ele>245.0</ele><time>2026-04-26T10:49:30Z</time></trkpt><trkpt lat="38.851986272215896" lon="-9.259581393581113"><ele>245.0</ele><time>2026-04-26T10:49:32Z</time></trkpt><trkpt lat="38.851940426086124" lon="-9.25969885185077"><ele>245.0</ele><time>2026-04-26T10:49:34Z</time></trkpt><trkpt lat="38.85188369125097" lon="-9.259811984625946"><ele>245.0</ele><time>2026-04-26T10:49:36Z</time></trkpt><trkpt lat="38.85181516442515" lon="-9.25992140600987"><ele>245.0</ele><time>2026-04-26T10:49:38Z</time></trkpt><trkpt lat="38.85175579062783" lon="-9.260032200923728"><ele>245.0</ele><time>2026-04-26T10:49:40Z</time></trkpt><trkpt lat="38.851707573168945" lon="-9.260136128127186"><ele>245.4</ele><time>2026-04-26T10:49:42Z</time></trkpt><trkpt lat="38.85176832237057" lon="-9.26022054907207"><ele>245.8</ele><time>2026-04-26T10:49:44Z</time></trkpt><trkpt lat="38.85179483873437" lon="-9.260337124033528"><ele>246.2</ele><time>2026-04-26T10:49:46Z</time></trkpt><trkpt lat="38.851805454175825" lon="-9.260465972702848"><ele>246.6</ele><time>2026-04-26T10:49:48Z</time></trkpt><trkpt lat="38.85183859475291" lon="-9.26059301553064"><ele>247.0</ele><time>2026-04-26T10:49:50Z</time></trkpt><trkpt lat="38.851852777030565" lon="-9.260701432546115"><ele>247.99999999999997</ele><time>2026-04-26T10:49:52Z</time></trkpt><trkpt lat="38.851810122025654" lon="-9.26079811016218"><ele>249.0</ele><time>2026-04-26T10:49:53Z</time></trkpt><trkpt lat="38.85178578707941" lon="-9.260889698740561"><ele>250.0</ele><time>2026-04-26T10:49:54Z</time></trkpt><trkpt lat="38.85177189662973" lon="-9.260977694110368"><ele>251.0</ele><time>2026-04-26T10:49:55Z</time></trkpt><trkpt lat="38.85175126365765" lon="-9.261063349693647"><ele>251.99999999999997</ele><time>2026-04-26T10:49:56Z</time></trkpt><trkpt lat="38.851738274930774" lon="-9.261210192360672"><ele>253.0</ele><time>2026-04-26T10:49:58Z</time></trkpt><trkpt lat="38.85171964512402" lon="-9.261338251848056"><ele>254.66666666666666</ele><time>2026-04-26T10:50:00Z</time></trkpt><trkpt lat="38.85170639772019" lon="-9.261452073053626"><ele>256.3333333333333</ele><time>2026-04-26T10:50:02Z</time></trkpt><trkpt lat="38.85169341355178" lon="-9.261554734107087"><ele>258.0</ele><time>2026-04-26T10:50:04Z</time></trkpt><trkpt lat="38.8516750724624" lon="-9.261647108153227"><ele>259.6666666666667</ele><time>2026-04-26T10:50:06Z</time></trkpt><trkpt lat="38.851627615014195" lon="-9.261739415933038"><ele>261.33333333333337</ele><time>2026-04-26T10:50:08Z</time></trkpt><trkpt lat="38.851586819424746" lon="-9.261875696867994"><ele>263.0</ele><time>2026-04-26T10:50:10Z</time></trkpt><trkpt lat="38.851605513872585" lon="-9.262018728185959"><ele>263.0</ele><time>2026-04-26T10:50:12Z</time></trkpt><trkpt lat="38.851692877297765" lon="-9.262106783313198"><ele>263.0</ele><time>2026-04-26T10:50:14Z</time></trkpt><trkpt lat="38.851678848763704" lon="-9.262286151832992"><ele>263.0</ele><time>2026-04-26T10:50:16Z</time></trkpt><trkpt lat="38.85167119759244" lon="-9.262376057224529"><ele>263.0</ele><time>2026-04-26T10:50:17Z</time></trkpt><trkpt lat="38.85164958877844" lon="-9.262453395405437"><ele>263.0</ele><time>2026-04-26T10:50:18Z</time></trkpt><trkpt lat="38.85162173273469" lon="-9.262531673049137"><ele>263.85714285714283</ele><time>2026-04-26T10:50:19Z</time></trkpt><trkpt lat="38.851602779119155" lon="-9.262617687595268"><ele>264.71428571428567</ele><time>2026-04-26T10:50:20Z</time></trkpt><trkpt lat="38.85157142884005" lon="-9.26269564430193"><ele>265.57142857142856</ele><time>2026-04-26T10:50:21Z</time></trkpt><trkpt lat="38.85153669896453" lon="-9.2627748566646"><ele>266.42857142857144</ele><time>2026-04-26T10:50:22Z</time></trkpt><trkpt lat="38.85150318226802" lon="-9.262849484841377"><ele>267.28571428571433</ele><time>2026-04-26T10:50:23Z</time></trkpt><trkpt lat="38.85146298387224" lon="-9.262921937473738"><ele>268.14285714285717</ele><time>2026-04-26T10:50:24Z</time></trkpt><trkpt lat="38.85142136687283" lon="-9.26298795297512"><ele>269.0</ele><time>2026-04-26T10:50:25Z</time></trkpt><trkpt lat="38.85139593749394" lon="-9.263064289848225"><ele>269.33333333333337</ele><time>2026-04-26T10:50:26Z</time></trkpt><trkpt lat="38.85135291018149" lon="-9.263124336008449"><ele>269.6666666666667</ele><time>2026-04-26T10:50:27Z</time></trkpt><trkpt lat="38.85131909891883" lon="-9.263195704647394"><ele>270.0</ele><time>2026-04-26T10:50:28Z</time></trkpt><trkpt lat="38.85128889716098" lon="-9.263269206448"><ele>270.3333333333333</ele><time>2026-04-26T10:50:29Z</time></trkpt><trkpt lat="38.85125419081122" lon="-9.263419503073534"><ele>270.66666666666663</ele><time>2026-04-26T10:50:31Z</time></trkpt><trkpt lat="38.851211934859386" lon="-9.263489792910791"><ele>271.0</ele><time>2026-04-26T10:50:32Z</time></trkpt><trkpt lat="38.851186969695384" lon="-9.263573665932725"><ele>271.0</ele><time>2026-04-26T10:50:33Z</time></trkpt><trkpt lat="38.851147774113805" lon="-9.263644164269252"><ele>271.0</ele><time>2026-04-26T10:50:34Z</time></trkpt><trkpt lat="38.851114516043076" lon="-9.263718132206789"><ele>271.0</ele><time>2026-04-26T10:50:35Z</time></trkpt><trkpt lat="38.8510393278512" lon="-9.263841005721254"><ele>271.0</ele><time>2026-04-26T10:50:37Z</time></trkpt><trkpt lat="38.850968991564606" lon="-9.263949689994694"><ele>271.0</ele><time>2026-04-26T10:50:39Z</time></trkpt><trkpt lat="38.85091947146129" lon="-9.264052099176563"><ele>271.16666666666663</ele><time>2026-04-26T10:50:41Z</time></trkpt><trkpt lat="38.8509168747441" lon="-9.264169890668954"><ele>271.3333333333333</ele><time>2026-04-26T10:50:43Z</time></trkpt><trkpt lat="38.8509308810804" lon="-9.264254758669017"><ele>271.5</ele><time>2026-04-26T10:50:44Z</time></trkpt><trkpt lat="38.85095045802341" lon="-9.264347880878642"><ele>271.6666666666667</ele><time>2026-04-26T10:50:45Z</time></trkpt><trkpt lat="38.85096739631877" lon="-9.2644499610093"><ele>271.83333333333337</ele><time>2026-04-26T10:50:46Z</time></trkpt><trkpt lat="38.850974016878546" lon="-9.264560876912533"><ele>272.0</ele><time>2026-04-26T10:50:47Z</time></trkpt><trkpt lat="38.85097924457917" lon="-9.264673095984465"><ele>271.6</ele><time>2026-04-26T10:50:48Z</time></trkpt><trkpt lat="38.85098973455786" lon="-9.264789696869583"><ele>271.2</ele><time>2026-04-26T10:50:49Z</time></trkpt><trkpt lat="38.85099754853487" lon="-9.264915044277217"><ele>270.8</ele><time>2026-04-26T10:50:50Z</time></trkpt><trkpt lat="38.85100361486147" lon="-9.265046629827747"><ele>270.4</ele><time>2026-04-26T10:50:51Z</time></trkpt><trkpt lat="38.851016781969264" lon="-9.265182659854933"><ele>270.0</ele><time>2026-04-26T10:50:52Z</time></trkpt><trkpt lat="38.851029248460144" lon="-9.265316514412982"><ele>270.0</ele><time>2026-04-26T10:50:53Z</time></trkpt><trkpt lat="38.85103657644608" lon="-9.265460265210216"><ele>270.0</ele><time>2026-04-26T10:50:54Z</time></trkpt><trkpt lat="38.85104355065031" lon="-9.265604302155387"><ele>270.0</ele><time>2026-04-26T10:50:55Z</time></trkpt><trkpt lat="38.85105185275312" lon="-9.265746164401081"><ele>270.0</ele><time>2026-04-26T10:50:56Z</time></trkpt><trkpt lat="38.851057754213045" lon="-9.26589268072514"><ele>268.5</ele><time>2026-04-26T10:50:57Z</time></trkpt><trkpt lat="38.85107085946919" lon="-9.266035961326136"><ele>267.0</ele><time>2026-04-26T10:50:58Z</time></trkpt><trkpt lat="38.85108046908962" lon="-9.266188849120889"><ele>265.5</ele><time>2026-04-26T10:50:59Z</time></trkpt><trkpt lat="38.85108362171188" lon="-9.26634677774888"><ele>264.0</ele><time>2026-04-26T10:51:00Z</time></trkpt><trkpt lat="38.85109203092577" lon="-9.266507171387774"><ele>262.75</ele><time>2026-04-26T10:51:01Z</time></trkpt><trkpt lat="38.851109076480725" lon="-9.2666667143104"><ele>261.5</ele><time>2026-04-26T10:51:02Z</time></trkpt><trkpt lat="38.85112361184749" lon="-9.266831801888202"><ele>260.25</ele><time>2026-04-26T10:51:03Z</time></trkpt><trkpt lat="38.85114261127227" lon="-9.266992513829972"><ele>259.0</ele><time>2026-04-26T10:51:04Z</time></trkpt><trkpt lat="38.851171626335194" lon="-9.267158834265373"><ele>256.25</ele><time>2026-04-26T10:51:05Z</time></trkpt><trkpt lat="38.85120977156296" lon="-9.267318885303931"><ele>253.5</ele><time>2026-04-26T10:51:06Z</time></trkpt><trkpt lat="38.8512598870304" lon="-9.267476415446684"><ele>250.75</ele><time>2026-04-26T10:51:07Z</time></trkpt><trkpt lat="38.851315214664105" lon="-9.267630345043957"><ele>248.0</ele><time>2026-04-26T10:51:08Z</time></trkpt><trkpt lat="38.851384252097404" lon="-9.267778511429887"><ele>248.0</ele><time>2026-04-26T10:51:09Z</time></trkpt><trkpt lat="38.85145250975154" lon="-9.267924828266668"><ele>248.0</ele><time>2026-04-26T10:51:10Z</time></trkpt><trkpt lat="38.851530386108074" lon="-9.268073805411243"><ele>248.0</ele><time>2026-04-26T10:51:11Z</time></trkpt><trkpt lat="38.85160598387331" lon="-9.268225533983966"><ele>248.0</ele><time>2026-04-26T10:51:12Z</time></trkpt><trkpt lat="38.85168353011134" lon="-9.268374621580353"><ele>247.25</ele><time>2026-04-26T10:51:13Z</time></trkpt><trkpt lat="38.85176260497424" lon="-9.268523884750156"><ele>246.5</ele><time>2026-04-26T10:51:14Z</time></trkpt><trkpt lat="38.851837054201006" lon="-9.268672682601752"><ele>245.75</ele><time>2026-04-26T10:51:15Z</time></trkpt><trkpt lat="38.85191328229016" lon="-9.26881535967468"><ele>245.0</ele><time>2026-04-26T10:51:16Z</time></trkpt><trkpt lat="38.85199023828305" lon="-9.268964560476405"><ele>241.75</ele><time>2026-04-26T10:51:17Z</time></trkpt><trkpt lat="38.85206567625868" lon="-9.269099127623903"><ele>238.5</ele><time>2026-04-26T10:51:18Z</time></trkpt><trkpt lat="38.852140117187965" lon="-9.269246371222442"><ele>235.25</ele><time>2026-04-26T10:51:19Z</time></trkpt><trkpt lat="38.852202899342096" lon="-9.26939550004867"><ele>232.0</ele><time>2026-04-26T10:51:20Z</time></trkpt><trkpt lat="38.852274962885794" lon="-9.269542709542538"><ele>232.0</ele><time>2026-04-26T10:51:21Z</time></trkpt><trkpt lat="38.85235169049494" lon="-9.269688014996873"><ele>232.0</ele><time>2026-04-26T10:51:22Z</time></trkpt><trkpt lat="38.85242388785033" lon="-9.269829789144778"><ele>232.0</ele><time>2026-04-26T10:51:23Z</time></trkpt><trkpt lat="38.85249804267213" lon="-9.269971332335505"><ele>232.0</ele><time>2026-04-26T10:51:24Z</time></trkpt><trkpt lat="38.85257011622149" lon="-9.270111610898303"><ele>230.75</ele><time>2026-04-26T10:51:25Z</time></trkpt><trkpt lat="38.8526417634526" lon="-9.27025696517256"><ele>229.5</ele><time>2026-04-26T10:51:26Z</time></trkpt><trkpt lat="38.8527107822658" lon="-9.270401311016732"><ele>228.25</ele><time>2026-04-26T10:51:27Z</time></trkpt><trkpt lat="38.852784525632124" lon="-9.270546951723723"><ele>227.0</ele><time>2026-04-26T10:51:28Z</time></trkpt><trkpt lat="38.852844461206836" lon="-9.270701410976331"><ele>224.0</ele><time>2026-04-26T10:51:29Z</time></trkpt><trkpt lat="38.85289027755606" lon="-9.27086306048647"><ele>221.0</ele><time>2026-04-26T10:51:30Z</time></trkpt><trkpt lat="38.85293090576942" lon="-9.271018666563599"><ele>218.0</ele><time>2026-04-26T10:51:31Z</time></trkpt><trkpt lat="38.85296428940934" lon="-9.271168450434017"><ele>215.0</ele><time>2026-04-26T10:51:32Z</time></trkpt><trkpt lat="38.852996879475455" lon="-9.271308764833826"><ele>215.0</ele><time>2026-04-26T10:51:33Z</time></trkpt><trkpt lat="38.85304156683272" lon="-9.271433924077591"><ele>215.0</ele><time>2026-04-26T10:51:34Z</time></trkpt><trkpt lat="38.85309128506418" lon="-9.27155248788942"><ele>215.0</ele><time>2026-04-26T10:51:35Z</time></trkpt><trkpt lat="38.85315147805467" lon="-9.271657000287652"><ele>215.0</ele><time>2026-04-26T10:51:36Z</time></trkpt><trkpt lat="38.853189180763174" lon="-9.271766039333455"><ele>215.0</ele><time>2026-04-26T10:51:37Z</time></trkpt><trkpt lat="38.85325334317763" lon="-9.271839974571312"><ele>213.0</ele><time>2026-04-26T10:51:38Z</time></trkpt><trkpt lat="38.85332774012581" lon="-9.271953676547383"><ele>211.0</ele><time>2026-04-26T10:51:40Z</time></trkpt><trkpt lat="38.85337030556331" lon="-9.27201504904089"><ele>209.0</ele><time>2026-04-26T10:51:42Z</time></trkpt><trkpt lat="38.85321572292826" lon="-9.272174271672865"><ele>207.0</ele><time>2026-04-26T10:51:44Z</time></trkpt><trkpt lat="38.853153957413404" lon="-9.272223571469093"><ele>205.83333333333334</ele><time>2026-04-26T10:51:45Z</time></trkpt><trkpt lat="38.85308892949624" lon="-9.272280375235415"><ele>204.66666666666669</ele><time>2026-04-26T10:51:46Z</time></trkpt><trkpt lat="38.853023122442416" lon="-9.272341179281431"><ele>203.5</ele><time>2026-04-26T10:51:47Z</time></trkpt><trkpt lat="38.852964023264356" lon="-9.272400256393762"><ele>202.33333333333334</ele><time>2026-04-26T10:51:48Z</time></trkpt><trkpt lat="38.85290684320316" lon="-9.272453936365075"><ele>201.16666666666669</ele><time>2026-04-26T10:51:49Z</time></trkpt><trkpt lat="38.85284822727594" lon="-9.272509763462146"><ele>200.0</ele><time>2026-04-26T10:51:50Z</time></trkpt><trkpt lat="38.852784624890056" lon="-9.272571436129413"><ele>200.00000000000003</ele><time>2026-04-26T10:51:51Z</time></trkpt><trkpt lat="38.852718799540334" lon="-9.272640559096468"><ele>200.0</ele><time>2026-04-26T10:51:52Z</time></trkpt><trkpt lat="38.85264219278571" lon="-9.27269801399559"><ele>200.0</ele><time>2026-04-26T10:51:53Z</time></trkpt><trkpt lat="38.852561725740195" lon="-9.272736911893503"><ele>200.0</ele><time>2026-04-26T10:51:54Z</time></trkpt><trkpt lat="38.85247509458328" lon="-9.272758387169983"><ele>200.00000000000003</ele><time>2026-04-26T10:51:55Z</time></trkpt><trkpt lat="38.85238514459011" lon="-9.27276086902972"><ele>200.0</ele><time>2026-04-26T10:51:56Z</time></trkpt><trkpt lat="38.852292405270035" lon="-9.272758347602904"><ele>201.33333333333334</ele><time>2026-04-26T10:51:57Z</time></trkpt><trkpt lat="38.85220421971505" lon="-9.272765877578202"><ele>202.66666666666669</ele><time>2026-04-26T10:51:58Z</time></trkpt><trkpt lat="38.852118344078484" lon="-9.272775994411843"><ele>204.0</ele><time>2026-04-26T10:51:59Z</time></trkpt><trkpt lat="38.852026828804675" lon="-9.272782985868961"><ele>205.33333333333331</ele><time>2026-04-26T10:52:00Z</time></trkpt><trkpt lat="38.851936049621656" lon="-9.272796472180824"><ele>206.66666666666666</ele><time>2026-04-26T10:52:01Z</time></trkpt><trkpt lat="38.851845008988505" lon="-9.27280611746102"><ele>208.0</ele><time>2026-04-26T10:52:02Z</time></trkpt><trkpt lat="38.85175117192987" lon="-9.27281575523475"><ele>210.60000000000002</ele><time>2026-04-26T10:52:03Z</time></trkpt><trkpt lat="38.851655355860586" lon="-9.272823523746993"><ele>213.20000000000002</ele><time>2026-04-26T10:52:04Z</time></trkpt><trkpt lat="38.85155612294496" lon="-9.272832637308081"><ele>215.8</ele><time>2026-04-26T10:52:05Z</time></trkpt><trkpt lat="38.851449789519286" lon="-9.272847124874191"><ele>218.4</ele><time>2026-04-26T10:52:06Z</time></trkpt><trkpt lat="38.85134701213876" lon="-9.27284477947166"><ele>221.0</ele><time>2026-04-26T10:52:07Z</time></trkpt><trkpt lat="38.85123970656995" lon="-9.272821648217214"><ele>221.0</ele><time>2026-04-26T10:52:08Z</time></trkpt><trkpt lat="38.85113410769124" lon="-9.272803551537104"><ele>221.00000000000003</ele><time>2026-04-26T10:52:09Z</time></trkpt><trkpt lat="38.851030861980355" lon="-9.272811226900986"><ele>221.00000000000003</ele><time>2026-04-26T10:52:10Z</time></trkpt><trkpt lat="38.850936630574346" lon="-9.272788535840034"><ele>221.0</ele><time>2026-04-26T10:52:11Z</time></trkpt><trkpt lat="38.8508509651006" lon="-9.272838900148264"><ele>221.0</ele><time>2026-04-26T10:52:12Z</time></trkpt><trkpt lat="38.850772875100105" lon="-9.272892852175803"><ele>222.20000000000002</ele><time>2026-04-26T10:52:13Z</time></trkpt><trkpt lat="38.85069698771948" lon="-9.272963439334422"><ele>223.40000000000003</ele><time>2026-04-26T10:52:14Z</time></trkpt><trkpt lat="38.85060688635802" lon="-9.273016704902872"><ele>224.6</ele><time>2026-04-26T10:52:15Z</time></trkpt><trkpt lat="38.85052695489598" lon="-9.27308242630979"><ele>225.8</ele><time>2026-04-26T10:52:16Z</time></trkpt><trkpt lat="38.850443737495574" lon="-9.273129545089402"><ele>227.0</ele><time>2026-04-26T10:52:17Z</time></trkpt><trkpt lat="38.85034259864178" lon="-9.273158753385438"><ele>227.0</ele><time>2026-04-26T10:52:18Z</time></trkpt><trkpt lat="38.85023485018008" lon="-9.273190329205738"><ele>227.0</ele><time>2026-04-26T10:52:19Z</time></trkpt><trkpt lat="38.85012650611708" lon="-9.273216626486471"><ele>227.0</ele><time>2026-04-26T10:52:20Z</time></trkpt><trkpt lat="38.85001691521031" lon="-9.273245753169215"><ele>227.0</ele><time>2026-04-26T10:52:21Z</time></trkpt><trkpt lat="38.8499085468485" lon="-9.273278607606654"><ele>227.0</ele><time>2026-04-26T10:52:22Z</time></trkpt><trkpt lat="38.84980675142124" lon="-9.273310571434948"><ele>229.0</ele><time>2026-04-26T10:52:23Z</time></trkpt><trkpt lat="38.84971070670039" lon="-9.273342158178918"><ele>231.0</ele><time>2026-04-26T10:52:24Z</time></trkpt><trkpt lat="38.84961072688302" lon="-9.27337338807137"><ele>233.0</ele><time>2026-04-26T10:52:25Z</time></trkpt><trkpt lat="38.84951445799822" lon="-9.273407215164339"><ele>235.0</ele><time>2026-04-26T10:52:26Z</time></trkpt><trkpt lat="38.84942224572786" lon="-9.273438490724125"><ele>237.0</ele><time>2026-04-26T10:52:27Z</time></trkpt><trkpt lat="38.84933376414857" lon="-9.273465998538443"><ele>237.83333333333334</ele><time>2026-04-26T10:52:28Z</time></trkpt><trkpt lat="38.849249664148545" lon="-9.273494851538"><ele>238.66666666666669</ele><time>2026-04-26T10:52:29Z</time></trkpt><trkpt lat="38.84916847115661" lon="-9.273520957243637"><ele>239.5</ele><time>2026-04-26T10:52:30Z</time></trkpt><trkpt lat="38.84907725897602" lon="-9.273507231297057"><ele>240.33333333333334</ele><time>2026-04-26T10:52:31Z</time></trkpt><trkpt lat="38.848999455353756" lon="-9.273470509781093"><ele>241.16666666666669</ele><time>2026-04-26T10:52:32Z</time></trkpt><trkpt lat="38.848917515661896" lon="-9.273432354333382"><ele>242.0</ele><time>2026-04-26T10:52:33Z</time></trkpt><trkpt lat="38.848837671477966" lon="-9.273403653357422"><ele>242.00000000000003</ele><time>2026-04-26T10:52:34Z</time></trkpt><trkpt lat="38.848753381476314" lon="-9.273391741462964"><ele>242.0</ele><time>2026-04-26T10:52:35Z</time></trkpt><trkpt lat="38.848672322202475" lon="-9.273367649565943"><ele>242.0</ele><time>2026-04-26T10:52:36Z</time></trkpt><trkpt lat="38.848594915388595" lon="-9.273348641447855"><ele>242.0</ele><time>2026-04-26T10:52:37Z</time></trkpt><trkpt lat="38.84851746693335" lon="-9.27333862089872"><ele>242.00000000000003</ele><time>2026-04-26T10:52:38Z</time></trkpt><trkpt lat="38.848433488779925" lon="-9.273324647648158"><ele>242.0</ele><time>2026-04-26T10:52:39Z</time></trkpt><trkpt lat="38.848361873708434" lon="-9.273301843650602"><ele>241.6</ele><time>2026-04-26T10:52:40Z</time></trkpt><trkpt lat="38.84827984250742" lon="-9.27323423369085"><ele>241.2</ele><time>2026-04-26T10:52:41Z</time></trkpt><trkpt lat="38.848192966685396" lon="-9.273195855311508"><ele>240.8</ele><time>2026-04-26T10:52:42Z</time></trkpt><trkpt lat="38.84810297309661" lon="-9.273154902817772"><ele>240.4</ele><time>2026-04-26T10:52:43Z</time></trkpt><trkpt lat="38.84800405583953" lon="-9.27312829956908"><ele>240.0</ele><time>2026-04-26T10:52:44Z</time></trkpt><trkpt lat="38.84789785594827" lon="-9.273145253934777"><ele>240.0</ele><time>2026-04-26T10:52:45Z</time></trkpt><trkpt lat="38.84779104965037" lon="-9.273128506385628"><ele>240.0</ele><time>2026-04-26T10:52:46Z</time></trkpt><trkpt lat="38.84769187624446" lon="-9.273124710447867"><ele>240.0</ele><time>2026-04-26T10:52:47Z</time></trkpt><trkpt lat="38.847597251393054" lon="-9.273134279237725"><ele>240.0</ele><time>2026-04-26T10:52:48Z</time></trkpt><trkpt lat="38.84750808190554" lon="-9.273163972173846"><ele>240.0</ele><time>2026-04-26T10:52:49Z</time></trkpt><trkpt lat="38.84741701728828" lon="-9.273198712589238"><ele>240.0</ele><time>2026-04-26T10:52:50Z</time></trkpt><trkpt lat="38.84733182922975" lon="-9.273234086288687"><ele>240.0</ele><time>2026-04-26T10:52:51Z</time></trkpt><trkpt lat="38.84724624353831" lon="-9.27326378801913"><ele>240.0</ele><time>2026-04-26T10:52:52Z</time></trkpt><trkpt lat="38.847156928860215" lon="-9.273260773440677"><ele>240.0</ele><time>2026-04-26T10:52:53Z</time></trkpt><trkpt lat="38.84706901837294" lon="-9.2732664049274"><ele>240.0</ele><time>2026-04-26T10:52:54Z</time></trkpt><trkpt lat="38.8469845189264" lon="-9.27326512172364"><ele>240.0</ele><time>2026-04-26T10:52:55Z</time></trkpt><trkpt lat="38.846895357659086" lon="-9.273244101579769"><ele>240.0</ele><time>2026-04-26T10:52:56Z</time></trkpt><trkpt lat="38.84680961290617" lon="-9.273244245739459"><ele>240.0</ele><time>2026-04-26T10:52:57Z</time></trkpt><trkpt lat="38.846737314759956" lon="-9.273244110442723"><ele>240.0</ele><time>2026-04-26T10:52:58Z</time></trkpt><trkpt lat="38.846672769452574" lon="-9.273253651083722"><ele>240.0</ele><time>2026-04-26T10:52:59Z</time></trkpt><trkpt lat="38.846578927816395" lon="-9.273330845819942"><ele>240.0</ele><time>2026-04-26T10:53:01Z</time></trkpt><trkpt lat="38.84652335983013" lon="-9.273385720645601"><ele>240.0</ele><time>2026-04-26T10:53:02Z</time></trkpt><trkpt lat="38.84644998243021" lon="-9.273432338990599"><ele>240.66666666666666</ele><time>2026-04-26T10:53:03Z</time></trkpt><trkpt lat="38.84639313126353" lon="-9.27350859207774"><ele>241.33333333333331</ele><time>2026-04-26T10:53:04Z</time></trkpt><trkpt lat="38.84631986750841" lon="-9.273567962997479"><ele>242.0</ele><time>2026-04-26T10:53:05Z</time></trkpt><trkpt lat="38.84632126154266" lon="-9.273684215977905"><ele>242.66666666666666</ele><time>2026-04-26T10:53:06Z</time></trkpt><trkpt lat="38.84626936903278" lon="-9.273782129792378"><ele>243.33333333333331</ele><time>2026-04-26T10:53:07Z</time></trkpt><trkpt lat="38.84622813639024" lon="-9.273887756274963"><ele>244.0</ele><time>2026-04-26T10:53:08Z</time></trkpt><trkpt lat="38.84618848337374" lon="-9.273997383601213"><ele>241.6</ele><time>2026-04-26T10:53:09Z</time></trkpt><trkpt lat="38.84615239642175" lon="-9.274107587217777"><ele>239.2</ele><time>2026-04-26T10:53:10Z</time></trkpt><trkpt lat="38.84611747482451" lon="-9.27422751661167"><ele>236.79999999999998</ele><time>2026-04-26T10:53:11Z</time></trkpt><trkpt lat="38.84608048954434" lon="-9.274350354567142"><ele>234.39999999999998</ele><time>2026-04-26T10:53:12Z</time></trkpt><trkpt lat="38.8460486677942" lon="-9.274479576997788"><ele>232.0</ele><time>2026-04-26T10:53:13Z</time></trkpt><trkpt lat="38.8460443707359" lon="-9.274621041795232"><ele>232.0</ele><time>2026-04-26T10:53:14Z</time></trkpt><trkpt lat="38.846024177098485" lon="-9.274763704832136"><ele>232.0</ele><time>2026-04-26T10:53:15Z</time></trkpt><trkpt lat="38.846028636583036" lon="-9.274903606996412"><ele>232.0</ele><time>2026-04-26T10:53:16Z</time></trkpt><trkpt lat="38.84603933121257" lon="-9.275052454479445"><ele>232.0</ele><time>2026-04-26T10:53:17Z</time></trkpt><trkpt lat="38.8460742812441" lon="-9.275197449756968"><ele>229.75</ele><time>2026-04-26T10:53:18Z</time></trkpt><trkpt lat="38.84609035348069" lon="-9.275354302571838"><ele>227.5</ele><time>2026-04-26T10:53:19Z</time></trkpt><trkpt lat="38.84612708143173" lon="-9.275506305713945"><ele>225.25</ele><time>2026-04-26T10:53:20Z</time></trkpt><trkpt lat="38.84617116579967" lon="-9.275656963298623"><ele>223.0</ele><time>2026-04-26T10:53:21Z</time></trkpt><trkpt lat="38.84621076504261" lon="-9.275809643440484"><ele>221.25</ele><time>2026-04-26T10:53:22Z</time></trkpt><trkpt lat="38.84625114398233" lon="-9.275964550023993"><ele>219.5</ele><time>2026-04-26T10:53:23Z</time></trkpt><trkpt lat="38.846292954454874" lon="-9.276125623862525"><ele>217.75</ele><time>2026-04-26T10:53:24Z</time></trkpt><trkpt lat="38.84633377756048" lon="-9.27628360386929"><ele>216.0</ele><time>2026-04-26T10:53:25Z</time></trkpt><trkpt lat="38.846372294231074" lon="-9.27644479264645"><ele>214.75</ele><time>2026-04-26T10:53:26Z</time></trkpt><trkpt lat="38.84641608850584" lon="-9.276613923265602"><ele>213.5</ele><time>2026-04-26T10:53:27Z</time></trkpt><trkpt lat="38.846458074027424" lon="-9.27677996020697"><ele>212.25</ele><time>2026-04-26T10:53:28Z</time></trkpt><trkpt lat="38.84650277068045" lon="-9.276950503079235"><ele>211.0</ele><time>2026-04-26T10:53:29Z</time></trkpt><trkpt lat="38.84654840812816" lon="-9.277117897024656"><ele>211.0</ele><time>2026-04-26T10:53:30Z</time></trkpt><trkpt lat="38.84658749778125" lon="-9.277292596314169"><ele>211.0</ele><time>2026-04-26T10:53:31Z</time></trkpt><trkpt lat="38.84663207687522" lon="-9.27745947088531"><ele>211.0</ele><time>2026-04-26T10:53:32Z</time></trkpt><trkpt lat="38.846674420186325" lon="-9.277625456558134"><ele>211.0</ele><time>2026-04-26T10:53:33Z</time></trkpt><trkpt lat="38.84671684517991" lon="-9.277789259247527"><ele>211.0</ele><time>2026-04-26T10:53:34Z</time></trkpt><trkpt lat="38.84676151124767" lon="-9.277954135978815"><ele>211.0</ele><time>2026-04-26T10:53:35Z</time></trkpt><trkpt lat="38.846799155591825" lon="-9.278114796849296"><ele>211.0</ele><time>2026-04-26T10:53:36Z</time></trkpt><trkpt lat="38.84684039057508" lon="-9.278271799304754"><ele>211.0</ele><time>2026-04-26T10:53:37Z</time></trkpt><trkpt lat="38.846878839606404" lon="-9.278427932425396"><ele>208.25</ele><time>2026-04-26T10:53:38Z</time></trkpt><trkpt lat="38.8469179337004" lon="-9.278603506786538"><ele>205.5</ele><time>2026-04-26T10:53:39Z</time></trkpt><trkpt lat="38.84696122650187" lon="-9.27877428628314"><ele>202.75</ele><time>2026-04-26T10:53:40Z</time></trkpt><trkpt lat="38.847010262992804" lon="-9.278945584896455"><ele>200.0</ele><time>2026-04-26T10:53:41Z</time></trkpt><trkpt lat="38.8470562985574" lon="-9.279119813514646"><ele>200.25</ele><time>2026-04-26T10:53:42Z</time></trkpt><trkpt lat="38.84710239027447" lon="-9.279289986370607"><ele>200.5</ele><time>2026-04-26T10:53:43Z</time></trkpt><trkpt lat="38.847145625632216" lon="-9.279456517085382"><ele>200.75</ele><time>2026-04-26T10:53:44Z</time></trkpt><trkpt lat="38.84719083033494" lon="-9.279622086724043"><ele>201.0</ele><time>2026-04-26T10:53:45Z</time></trkpt><trkpt lat="38.84723235911431" lon="-9.279789448805374"><ele>201.0</ele><time>2026-04-26T10:53:46Z</time></trkpt><trkpt lat="38.847267510450926" lon="-9.279960941841669"><ele>201.0</ele><time>2026-04-26T10:53:47Z</time></trkpt><trkpt lat="38.84729291632671" lon="-9.280130452001549"><ele>201.0</ele><time>2026-04-26T10:53:48Z</time></trkpt><trkpt lat="38.847305222727606" lon="-9.280300217941035"><ele>201.0</ele><time>2026-04-26T10:53:49Z</time></trkpt><trkpt lat="38.84730235354545" lon="-9.280475471094636"><ele>200.25</ele><time>2026-04-26T10:53:50Z</time></trkpt><trkpt lat="38.84728120843847" lon="-9.28064706833781"><ele>199.5</ele><time>2026-04-26T10:53:51Z</time></trkpt><trkpt lat="38.84726382857137" lon="-9.28082321404185"><ele>198.75</ele><time>2026-04-26T10:53:52Z</time></trkpt><trkpt lat="38.84723416838692" lon="-9.28100162513932"><ele>198.0</ele><time>2026-04-26T10:53:53Z</time></trkpt><trkpt lat="38.847208351161974" lon="-9.281181772429655"><ele>198.0</ele><time>2026-04-26T10:53:54Z</time></trkpt><trkpt lat="38.84718504495194" lon="-9.281361313039248"><ele>198.0</ele><time>2026-04-26T10:53:55Z</time></trkpt><trkpt lat="38.84716596680451" lon="-9.281543418895422"><ele>198.0</ele><time>2026-04-26T10:53:56Z</time></trkpt><trkpt lat="38.84714446387154" lon="-9.281721865657982"><ele>198.0</ele><time>2026-04-26T10:53:57Z</time></trkpt><trkpt lat="38.84712119904627" lon="-9.281899062382955"><ele>197.5</ele><time>2026-04-26T10:53:58Z</time></trkpt><trkpt lat="38.847095746807746" lon="-9.282078219872398"><ele>197.0</ele><time>2026-04-26T10:53:59Z</time></trkpt><trkpt lat="38.84707128930582" lon="-9.282259923361039"><ele>196.5</ele><time>2026-04-26T10:54:00Z</time></trkpt><trkpt lat="38.84704407649898" lon="-9.282438667843373"><ele>196.0</ele><time>2026-04-26T10:54:01Z</time></trkpt><trkpt lat="38.84700981615878" lon="-9.282617276940092"><ele>196.5</ele><time>2026-04-26T10:54:02Z</time></trkpt><trkpt lat="38.846962005054735" lon="-9.282793911641201"><ele>197.0</ele><time>2026-04-26T10:54:03Z</time></trkpt><trkpt lat="38.84689811116446" lon="-9.282958306703113"><ele>197.5</ele><time>2026-04-26T10:54:04Z</time></trkpt><trkpt lat="38.84682733938916" lon="-9.28312174592229"><ele>198.0</ele><time>2026-04-26T10:54:05Z</time></trkpt><trkpt lat="38.84675088996903" lon="-9.283285598572425"><ele>198.0</ele><time>2026-04-26T10:54:06Z</time></trkpt><trkpt lat="38.84667618692732" lon="-9.283448389292245"><ele>198.0</ele><time>2026-04-26T10:54:07Z</time></trkpt><trkpt lat="38.84660480336507" lon="-9.283618640195023"><ele>198.0</ele><time>2026-04-26T10:54:08Z</time></trkpt><trkpt lat="38.846533596344784" lon="-9.283787633102989"><ele>198.0</ele><time>2026-04-26T10:54:09Z</time></trkpt><trkpt lat="38.84646347984087" lon="-9.283950369799568"><ele>196.5</ele><time>2026-04-26T10:54:10Z</time></trkpt><trkpt lat="38.84639115174159" lon="-9.28411366877383"><ele>195.0</ele><time>2026-04-26T10:54:11Z</time></trkpt><trkpt lat="38.84631515995739" lon="-9.284277065902078"><ele>193.5</ele><time>2026-04-26T10:54:12Z</time></trkpt><trkpt lat="38.84622566871029" lon="-9.28442514414837"><ele>192.0</ele><time>2026-04-26T10:54:13Z</time></trkpt><trkpt lat="38.84612547504463" lon="-9.284554590712606"><ele>192.0</ele><time>2026-04-26T10:54:14Z</time></trkpt><trkpt lat="38.84600748185003" lon="-9.284672222487899"><ele>192.0</ele><time>2026-04-26T10:54:15Z</time></trkpt><trkpt lat="38.84588996258514" lon="-9.284778031837744"><ele>192.0</ele><time>2026-04-26T10:54:16Z</time></trkpt><trkpt lat="38.845768911730794" lon="-9.284882535087046"><ele>192.0</ele><time>2026-04-26T10:54:17Z</time></trkpt><trkpt lat="38.84565011296684" lon="-9.284987717624546"><ele>193.25</ele><time>2026-04-26T10:54:18Z</time></trkpt><trkpt lat="38.845530287246575" lon="-9.285089862678182"><ele>194.5</ele><time>2026-04-26T10:54:19Z</time></trkpt><trkpt lat="38.84541305098869" lon="-9.285198704785477"><ele>195.75</ele><time>2026-04-26T10:54:20Z</time></trkpt><trkpt lat="38.845295624378586" lon="-9.285309441473373"><ele>197.0</ele><time>2026-04-26T10:54:21Z</time></trkpt><trkpt lat="38.8451792914061" lon="-9.285419633593689"><ele>197.0</ele><time>2026-04-26T10:54:22Z</time></trkpt><trkpt lat="38.845061362920084" lon="-9.285531992201026"><ele>197.0</ele><time>2026-04-26T10:54:23Z</time></trkpt><trkpt lat="38.84494492334272" lon="-9.285644197815019"><ele>197.0</ele><time>2026-04-26T10:54:24Z</time></trkpt><trkpt lat="38.844829086384514" lon="-9.285759942907829"><ele>197.0</ele><time>2026-04-26T10:54:25Z</time></trkpt><trkpt lat="38.84471954503982" lon="-9.285872954486731"><ele>197.0</ele><time>2026-04-26T10:54:26Z</time></trkpt><trkpt lat="38.8446084039541" lon="-9.285994266661163"><ele>197.0</ele><time>2026-04-26T10:54:27Z</time></trkpt><trkpt lat="38.844499437459106" lon="-9.286108895328647"><ele>197.0</ele><time>2026-04-26T10:54:28Z</time></trkpt><trkpt lat="38.84439955552688" lon="-9.286242345380451"><ele>197.0</ele><time>2026-04-26T10:54:29Z</time></trkpt><trkpt lat="38.84430245018818" lon="-9.28637715265545"><ele>196.5</ele><time>2026-04-26T10:54:30Z</time></trkpt><trkpt lat="38.844204622888846" lon="-9.286507638160412"><ele>196.0</ele><time>2026-04-26T10:54:31Z</time></trkpt><trkpt lat="38.844103180033656" lon="-9.286641713111985"><ele>195.5</ele><time>2026-04-26T10:54:32Z</time></trkpt><trkpt lat="38.844000918951416" lon="-9.286764844950069"><ele>195.0</ele><time>2026-04-26T10:54:33Z</time></trkpt><trkpt lat="38.84388739372236" lon="-9.286876084855411"><ele>195.0</ele><time>2026-04-26T10:54:34Z</time></trkpt><trkpt lat="38.843759783022286" lon="-9.286954017372155"><ele>195.0</ele><time>2026-04-26T10:54:35Z</time></trkpt><trkpt lat="38.84363146289618" lon="-9.287078504323791"><ele>195.0</ele><time>2026-04-26T10:54:36Z</time></trkpt><trkpt lat="38.84348876948005" lon="-9.287158489626288"><ele>195.0</ele><time>2026-04-26T10:54:37Z</time></trkpt><trkpt lat="38.84336886138366" lon="-9.287199395348853"><ele>195.0</ele><time>2026-04-26T10:54:38Z</time></trkpt><trkpt lat="38.84323864232441" lon="-9.287246861224572"><ele>195.0</ele><time>2026-04-26T10:54:39Z</time></trkpt><trkpt lat="38.84310853030527" lon="-9.287305999966213"><ele>195.0</ele><time>2026-04-26T10:54:40Z</time></trkpt><trkpt lat="38.84297129210627" lon="-9.287364269414804"><ele>195.0</ele><time>2026-04-26T10:54:41Z</time></trkpt><trkpt lat="38.84283366185265" lon="-9.2874313117586"><ele>195.0</ele><time>2026-04-26T10:54:42Z</time></trkpt><trkpt lat="38.84269629114039" lon="-9.28749716813607"><ele>195.0</ele><time>2026-04-26T10:54:43Z</time></trkpt><trkpt lat="38.84256533535373" lon="-9.287558857354504"><ele>195.0</ele><time>2026-04-26T10:54:44Z</time></trkpt><trkpt lat="38.84242961190036" lon="-9.287621558219797"><ele>194.75</ele><time>2026-04-26T10:54:45Z</time></trkpt><trkpt lat="38.8423038969125" lon="-9.287688116530742"><ele>194.5</ele><time>2026-04-26T10:54:46Z</time></trkpt><trkpt lat="38.842184506220725" lon="-9.28775664791052"><ele>194.25</ele><time>2026-04-26T10:54:47Z</time></trkpt><trkpt lat="38.842068471917855" lon="-9.287817607021392"><ele>194.0</ele><time>2026-04-26T10:54:48Z</time></trkpt><trkpt lat="38.84194945117752" lon="-9.287876491158265"><ele>194.0</ele><time>2026-04-26T10:54:49Z</time></trkpt><trkpt lat="38.841837013905646" lon="-9.287935260873677"><ele>194.0</ele><time>2026-04-26T10:54:50Z</time></trkpt><trkpt lat="38.841728584120695" lon="-9.287987117375351"><ele>194.0</ele><time>2026-04-26T10:54:51Z</time></trkpt><trkpt lat="38.84162030384761" lon="-9.288041632435588"><ele>194.0</ele><time>2026-04-26T10:54:52Z</time></trkpt><trkpt lat="38.841513384453904" lon="-9.288097312454523"><ele>194.25</ele><time>2026-04-26T10:54:53Z</time></trkpt><trkpt lat="38.84140786804507" lon="-9.288158029003238"><ele>194.5</ele><time>2026-04-26T10:54:54Z</time></trkpt><trkpt lat="38.84130509047519" lon="-9.288225598231564"><ele>194.75</ele><time>2026-04-26T10:54:55Z</time></trkpt><trkpt lat="38.84120867569148" lon="-9.28830756459711"><ele>195.0</ele><time>2026-04-26T10:54:56Z</time></trkpt><trkpt lat="38.84113548370114" lon="-9.288428819839515"><ele>195.0</ele><time>2026-04-26T10:54:57Z</time></trkpt><trkpt lat="38.84106167511821" lon="-9.288543240700866"><ele>195.0</ele><time>2026-04-26T10:54:58Z</time></trkpt><trkpt lat="38.84099977888253" lon="-9.288668691682595"><ele>195.0</ele><time>2026-04-26T10:54:59Z</time></trkpt><trkpt lat="38.84093766182844" lon="-9.28880274941584"><ele>195.0</ele><time>2026-04-26T10:55:00Z</time></trkpt><trkpt lat="38.840880659586105" lon="-9.288941392810303"><ele>195.25</ele><time>2026-04-26T10:55:01Z</time></trkpt><trkpt lat="38.8408200740682" lon="-9.289082064445068"><ele>195.5</ele><time>2026-04-26T10:55:02Z</time></trkpt><trkpt lat="38.84075709985715" lon="-9.289216268126314"><ele>195.75</ele><time>2026-04-26T10:55:03Z</time></trkpt><trkpt lat="38.84067799138136" lon="-9.289339705299879"><ele>196.0</ele><time>2026-04-26T10:55:04Z</time></trkpt><trkpt lat="38.84060478782923" lon="-9.28946448701428"><ele>196.0</ele><time>2026-04-26T10:55:05Z</time></trkpt><trkpt lat="38.84052811377964" lon="-9.28958722690321"><ele>196.0</ele><time>2026-04-26T10:55:06Z</time></trkpt><trkpt lat="38.84044247237478" lon="-9.289697435725785"><ele>196.0</ele><time>2026-04-26T10:55:07Z</time></trkpt><trkpt lat="38.8403406296549" lon="-9.289798147487481"><ele>196.0</ele><time>2026-04-26T10:55:08Z</time></trkpt><trkpt lat="38.840228743150064" lon="-9.289885381533189"><ele>195.75</ele><time>2026-04-26T10:55:09Z</time></trkpt><trkpt lat="38.84011244066302" lon="-9.289944475748802"><ele>195.5</ele><time>2026-04-26T10:55:10Z</time></trkpt><trkpt lat="38.839994427335654" lon="-9.290009882227292"><ele>195.25</ele><time>2026-04-26T10:55:11Z</time></trkpt><trkpt lat="38.83987810643812" lon="-9.29007150610527"><ele>195.0</ele><time>2026-04-26T10:55:12Z</time></trkpt><trkpt lat="38.8397710667433" lon="-9.290127911990687"><ele>195.0</ele><time>2026-04-26T10:55:13Z</time></trkpt><trkpt lat="38.83967030587967" lon="-9.290181558511595"><ele>195.0</ele><time>2026-04-26T10:55:14Z</time></trkpt><trkpt lat="38.839563155787886" lon="-9.290242970806814"><ele>195.0</ele><time>2026-04-26T10:55:15Z</time></trkpt><trkpt lat="38.83945515225132" lon="-9.29031053017213"><ele>195.0</ele><time>2026-04-26T10:55:16Z</time></trkpt><trkpt lat="38.83934889474161" lon="-9.290386169482012"><ele>194.75</ele><time>2026-04-26T10:55:17Z</time></trkpt><trkpt lat="38.83924496057656" lon="-9.290462041920488"><ele>194.5</ele><time>2026-04-26T10:55:18Z</time></trkpt><trkpt lat="38.83913915503992" lon="-9.290543811618448"><ele>194.25</ele><time>2026-04-26T10:55:19Z</time></trkpt><trkpt lat="38.83903333667692" lon="-9.290627126840853"><ele>194.0</ele><time>2026-04-26T10:55:20Z</time></trkpt><trkpt lat="38.83892386273715" lon="-9.290710945509415"><ele>193.25</ele><time>2026-04-26T10:55:21Z</time></trkpt><trkpt lat="38.83881161824282" lon="-9.290795981548483"><ele>192.5</ele><time>2026-04-26T10:55:22Z</time></trkpt><trkpt lat="38.83869495998522" lon="-9.290883287114132"><ele>191.75</ele><time>2026-04-26T10:55:23Z</time></trkpt><trkpt lat="38.83857836322195" lon="-9.29096487434704"><ele>191.0</ele><time>2026-04-26T10:55:24Z</time></trkpt><trkpt lat="38.83846050152225" lon="-9.291040180008375"><ele>191.0</ele><time>2026-04-26T10:55:25Z</time></trkpt><trkpt lat="38.838340863693524" lon="-9.291118567490251"><ele>191.0</ele><time>2026-04-26T10:55:26Z</time></trkpt><trkpt lat="38.83822216506145" lon="-9.291186463727534"><ele>191.0</ele><time>2026-04-26T10:55:27Z</time></trkpt><trkpt lat="38.83809761380382" lon="-9.291251715462666"><ele>191.0</ele><time>2026-04-26T10:55:28Z</time></trkpt><trkpt lat="38.837975247575706" lon="-9.291317488072222"><ele>191.0</ele><time>2026-04-26T10:55:29Z</time></trkpt><trkpt lat="38.83785385119334" lon="-9.29138320385756"><ele>191.0</ele><time>2026-04-26T10:55:30Z</time></trkpt><trkpt lat="38.837728515340636" lon="-9.291443178265007"><ele>191.0</ele><time>2026-04-26T10:55:31Z</time></trkpt><trkpt lat="38.83761051137421" lon="-9.291496063976432"><ele>191.0</ele><time>2026-04-26T10:55:32Z</time></trkpt><trkpt lat="38.837487283068114" lon="-9.291525133630335"><ele>190.0</ele><time>2026-04-26T10:55:33Z</time></trkpt><trkpt lat="38.837359783475144" lon="-9.291531773708327"><ele>189.0</ele><time>2026-04-26T10:55:34Z</time></trkpt><trkpt lat="38.837233472437184" lon="-9.291525249988263"><ele>188.0</ele><time>2026-04-26T10:55:35Z</time></trkpt><trkpt lat="38.83710758909028" lon="-9.29151721619475"><ele>187.0</ele><time>2026-04-26T10:55:36Z</time></trkpt><trkpt lat="38.83699369320742" lon="-9.291552229525909"><ele>187.0</ele><time>2026-04-26T10:55:37Z</time></trkpt><trkpt lat="38.83689503509339" lon="-9.29162439048015"><ele>187.0</ele><time>2026-04-26T10:55:38Z</time></trkpt><trkpt lat="38.836794869282116" lon="-9.291714331350782"><ele>187.0</ele><time>2026-04-26T10:55:39Z</time></trkpt><trkpt lat="38.83669297738685" lon="-9.291781763445867"><ele>187.0</ele><time>2026-04-26T10:55:40Z</time></trkpt><trkpt lat="38.83657718809658" lon="-9.291830974377596"><ele>186.25</ele><time>2026-04-26T10:55:41Z</time></trkpt><trkpt lat="38.83646002709142" lon="-9.291876037134"><ele>185.5</ele><time>2026-04-26T10:55:42Z</time></trkpt><trkpt lat="38.836339987497574" lon="-9.291881751776293"><ele>184.75</ele><time>2026-04-26T10:55:43Z</time></trkpt><trkpt lat="38.836219415643406" lon="-9.291862417764543"><ele>184.0</ele><time>2026-04-26T10:55:44Z</time></trkpt><trkpt lat="38.83610754630536" lon="-9.29182408700282"><ele>184.0</ele><time>2026-04-26T10:55:45Z</time></trkpt><trkpt lat="38.835992824514044" lon="-9.291790044789257"><ele>184.0</ele><time>2026-04-26T10:55:46Z</time></trkpt><trkpt lat="38.83587430918076" lon="-9.291771361814531"><ele>184.0</ele><time>2026-04-26T10:55:47Z</time></trkpt><trkpt lat="38.835758395352954" lon="-9.291775571420427"><ele>184.0</ele><time>2026-04-26T10:55:48Z</time></trkpt><trkpt lat="38.835650465026674" lon="-9.291825116486406"><ele>184.25</ele><time>2026-04-26T10:55:49Z</time></trkpt><trkpt lat="38.8355446245931" lon="-9.291879012201951"><ele>184.5</ele><time>2026-04-26T10:55:50Z</time></trkpt><trkpt lat="38.835433044949845" lon="-9.291922299499372"><ele>184.75</ele><time>2026-04-26T10:55:51Z</time></trkpt><trkpt lat="38.83532941230438" lon="-9.291993029276442"><ele>185.0</ele><time>2026-04-26T10:55:52Z</time></trkpt><trkpt lat="38.8352336649917" lon="-9.292046496827156"><ele>185.8</ele><time>2026-04-26T10:55:53Z</time></trkpt><trkpt lat="38.83513585182428" lon="-9.292099816537691"><ele>186.6</ele><time>2026-04-26T10:55:54Z</time></trkpt><trkpt lat="38.83503547299422" lon="-9.292148908453983"><ele>187.39999999999998</ele><time>2026-04-26T10:55:55Z</time></trkpt><trkpt lat="38.834932961871935" lon="-9.292202041936342"><ele>188.2</ele><time>2026-04-26T10:55:56Z</time></trkpt><trkpt lat="38.834828068246026" lon="-9.292262871743572"><ele>189.0</ele><time>2026-04-26T10:55:57Z</time></trkpt><trkpt lat="38.83472437461114" lon="-9.292332285967706"><ele>187.5</ele><time>2026-04-26T10:55:58Z</time></trkpt><trkpt lat="38.834615713294184" lon="-9.292396273520287"><ele>186.0</ele><time>2026-04-26T10:55:59Z</time></trkpt><trkpt lat="38.83451048448368" lon="-9.292448818853405"><ele>184.5</ele><time>2026-04-26T10:56:00Z</time></trkpt><trkpt lat="38.834402780784146" lon="-9.29250555443113"><ele>183.0</ele><time>2026-04-26T10:56:01Z</time></trkpt><trkpt lat="38.834291072467494" lon="-9.2925540167444"><ele>183.0</ele><time>2026-04-26T10:56:02Z</time></trkpt><trkpt lat="38.83418037528337" lon="-9.292589334077771"><ele>183.0</ele><time>2026-04-26T10:56:03Z</time></trkpt><trkpt lat="38.83406328746129" lon="-9.292618004059777"><ele>183.0</ele><time>2026-04-26T10:56:04Z</time></trkpt><trkpt lat="38.83394635205555" lon="-9.292639532174064"><ele>183.0</ele><time>2026-04-26T10:56:05Z</time></trkpt><trkpt lat="38.83382832599362" lon="-9.292661813509579"><ele>183.0</ele><time>2026-04-26T10:56:06Z</time></trkpt><trkpt lat="38.83371217733451" lon="-9.292679343618598"><ele>183.0</ele><time>2026-04-26T10:56:07Z</time></trkpt><trkpt lat="38.833599572139384" lon="-9.292702777827683"><ele>183.0</ele><time>2026-04-26T10:56:08Z</time></trkpt><trkpt lat="38.8334913872362" lon="-9.292725549747312"><ele>183.0</ele><time>2026-04-26T10:56:09Z</time></trkpt><trkpt lat="38.833377050275544" lon="-9.292749981051502"><ele>183.5</ele><time>2026-04-26T10:56:10Z</time></trkpt><trkpt lat="38.83326476630329" lon="-9.29277749309988"><ele>184.0</ele><time>2026-04-26T10:56:11Z</time></trkpt><trkpt lat="38.833153967847494" lon="-9.292800314586918"><ele>184.5</ele><time>2026-04-26T10:56:12Z</time></trkpt><trkpt lat="38.8330377113357" lon="-9.29282514850687"><ele>185.0</ele><time>2026-04-26T10:56:13Z</time></trkpt><trkpt lat="38.83292594191603" lon="-9.292848455122616"><ele>185.0</ele><time>2026-04-26T10:56:14Z</time></trkpt><trkpt lat="38.832805612955426" lon="-9.292871057198912"><ele>185.0</ele><time>2026-04-26T10:56:15Z</time></trkpt><trkpt lat="38.83268295724696" lon="-9.292900267660862"><ele>185.0</ele><time>2026-04-26T10:56:16Z</time></trkpt><trkpt lat="38.83256412867175" lon="-9.292925083891735"><ele>185.0</ele><time>2026-04-26T10:56:17Z</time></trkpt><trkpt lat="38.83243968939304" lon="-9.292956640061343"><ele>185.25</ele><time>2026-04-26T10:56:18Z</time></trkpt><trkpt lat="38.832316763589574" lon="-9.292984978925624"><ele>185.5</ele><time>2026-04-26T10:56:19Z</time></trkpt><trkpt lat="38.832199548463855" lon="-9.2930226424202"><ele>185.75</ele><time>2026-04-26T10:56:20Z</time></trkpt><trkpt lat="38.83208373065718" lon="-9.293077096620111"><ele>186.0</ele><time>2026-04-26T10:56:21Z</time></trkpt><trkpt lat="38.83196433495386" lon="-9.293140555302921"><ele>186.0</ele><time>2026-04-26T10:56:22Z</time></trkpt><trkpt lat="38.83186633770678" lon="-9.293195834299684"><ele>186.0</ele><time>2026-04-26T10:56:23Z</time></trkpt><trkpt lat="38.831772556702525" lon="-9.293255360139513"><ele>186.0</ele><time>2026-04-26T10:56:24Z</time></trkpt><trkpt lat="38.831673605170685" lon="-9.293312943470218"><ele>186.0</ele><time>2026-04-26T10:56:25Z</time></trkpt><trkpt lat="38.83156417121647" lon="-9.29336223823016"><ele>186.0</ele><time>2026-04-26T10:56:26Z</time></trkpt><trkpt lat="38.83145007112029" lon="-9.293425816320442"><ele>186.25</ele><time>2026-04-26T10:56:27Z</time></trkpt><trkpt lat="38.83132494759436" lon="-9.293482083589504"><ele>186.5</ele><time>2026-04-26T10:56:28Z</time></trkpt><trkpt lat="38.83120305017305" lon="-9.29353818461933"><ele>186.75</ele><time>2026-04-26T10:56:29Z</time></trkpt><trkpt lat="38.83108439789825" lon="-9.293588663276767"><ele>187.0</ele><time>2026-04-26T10:56:30Z</time></trkpt><trkpt lat="38.83095782590406" lon="-9.293633785704044"><ele>187.0</ele><time>2026-04-26T10:56:31Z</time></trkpt><trkpt lat="38.830840231653454" lon="-9.29368077467452"><ele>187.0</ele><time>2026-04-26T10:56:32Z</time></trkpt><trkpt lat="38.83072493484112" lon="-9.293719732870038"><ele>187.0</ele><time>2026-04-26T10:56:33Z</time></trkpt><trkpt lat="38.83060774506827" lon="-9.293768724494884"><ele>187.0</ele><time>2026-04-26T10:56:34Z</time></trkpt><trkpt lat="38.83049067330417" lon="-9.293826236648494"><ele>187.0</ele><time>2026-04-26T10:56:35Z</time></trkpt><trkpt lat="38.83039597978238" lon="-9.293916990375207"><ele>187.0</ele><time>2026-04-26T10:56:36Z</time></trkpt><trkpt lat="38.83030295421564" lon="-9.293998821029973"><ele>187.0</ele><time>2026-04-26T10:56:37Z</time></trkpt><trkpt lat="38.83020357508187" lon="-9.294079005485923"><ele>187.0</ele><time>2026-04-26T10:56:38Z</time></trkpt><trkpt lat="38.8301179609108" lon="-9.29417741374346"><ele>186.0</ele><time>2026-04-26T10:56:39Z</time></trkpt><trkpt lat="38.83003441158771" lon="-9.294287166921858"><ele>185.0</ele><time>2026-04-26T10:56:40Z</time></trkpt><trkpt lat="38.82995113466588" lon="-9.294401821014121"><ele>184.0</ele><time>2026-04-26T10:56:41Z</time></trkpt><trkpt lat="38.82986333776373" lon="-9.294512981989179"><ele>183.0</ele><time>2026-04-26T10:56:42Z</time></trkpt><trkpt lat="38.829772095983365" lon="-9.294626560045488"><ele>183.0</ele><time>2026-04-26T10:56:43Z</time></trkpt><trkpt lat="38.829675841153886" lon="-9.294737844426205"><ele>183.0</ele><time>2026-04-26T10:56:44Z</time></trkpt><trkpt lat="38.82958737157535" lon="-9.294847274223256"><ele>183.0</ele><time>2026-04-26T10:56:45Z</time></trkpt><trkpt lat="38.82949001889015" lon="-9.294951697483762"><ele>183.0</ele><time>2026-04-26T10:56:46Z</time></trkpt><trkpt lat="38.8293961485707" lon="-9.295051565358863"><ele>183.0</ele><time>2026-04-26T10:56:47Z</time></trkpt><trkpt lat="38.82930000408918" lon="-9.295157158688632"><ele>183.0</ele><time>2026-04-26T10:56:48Z</time></trkpt><trkpt lat="38.82920134152229" lon="-9.295252237629233"><ele>183.0</ele><time>2026-04-26T10:56:49Z</time></trkpt><trkpt lat="38.82909535383912" lon="-9.295324673940621"><ele>183.0</ele><time>2026-04-26T10:56:50Z</time></trkpt><trkpt lat="38.828978302601136" lon="-9.295373414613683"><ele>183.0</ele><time>2026-04-26T10:56:51Z</time></trkpt><trkpt lat="38.82886030656105" lon="-9.295396762182982"><ele>183.0</ele><time>2026-04-26T10:56:52Z</time></trkpt><trkpt lat="38.828737731379825" lon="-9.29540495749011"><ele>183.0</ele><time>2026-04-26T10:56:53Z</time></trkpt><trkpt lat="38.828618890413466" lon="-9.295417772219633"><ele>183.0</ele><time>2026-04-26T10:56:54Z</time></trkpt><trkpt lat="38.82850025621714" lon="-9.295425056310146"><ele>184.25</ele><time>2026-04-26T10:56:55Z</time></trkpt><trkpt lat="38.82837665040029" lon="-9.295436600163526"><ele>185.5</ele><time>2026-04-26T10:56:56Z</time></trkpt><trkpt lat="38.82825425976838" lon="-9.295436301191494"><ele>186.75</ele><time>2026-04-26T10:56:57Z</time></trkpt><trkpt lat="38.82813473455217" lon="-9.295454225837096"><ele>188.0</ele><time>2026-04-26T10:56:58Z</time></trkpt><trkpt lat="38.82801220530493" lon="-9.295496221067467"><ele>188.0</ele><time>2026-04-26T10:56:59Z</time></trkpt><trkpt lat="38.82789992048207" lon="-9.295567889899944"><ele>188.0</ele><time>2026-04-26T10:57:00Z</time></trkpt><trkpt lat="38.82780113460612" lon="-9.2956745841824"><ele>188.0</ele><time>2026-04-26T10:57:01Z</time></trkpt><trkpt lat="38.827706793580916" lon="-9.295777150721088"><ele>188.0</ele><time>2026-04-26T10:57:02Z</time></trkpt><trkpt lat="38.82762590992804" lon="-9.295893689218754"><ele>187.75</ele><time>2026-04-26T10:57:03Z</time></trkpt><trkpt lat="38.82756959905846" lon="-9.296026924443757"><ele>187.5</ele><time>2026-04-26T10:57:04Z</time></trkpt><trkpt lat="38.82752569588885" lon="-9.296172738163115"><ele>187.25</ele><time>2026-04-26T10:57:05Z</time></trkpt><trkpt lat="38.827471313767596" lon="-9.296318856077097"><ele>187.0</ele><time>2026-04-26T10:57:06Z</time></trkpt><trkpt lat="38.8273975713196" lon="-9.296448914552402"><ele>187.0</ele><time>2026-04-26T10:57:07Z</time></trkpt><trkpt lat="38.82732488372715" lon="-9.296581343327375"><ele>187.0</ele><time>2026-04-26T10:57:08Z</time></trkpt><trkpt lat="38.82723788520641" lon="-9.296700526865482"><ele>187.0</ele><time>2026-04-26T10:57:09Z</time></trkpt><trkpt lat="38.82714097768809" lon="-9.296806438590293"><ele>187.0</ele><time>2026-04-26T10:57:10Z</time></trkpt><trkpt lat="38.82704453101518" lon="-9.296912518940703"><ele>187.0</ele><time>2026-04-26T10:57:11Z</time></trkpt><trkpt lat="38.82694774239952" lon="-9.297027113834513"><ele>187.0</ele><time>2026-04-26T10:57:12Z</time></trkpt><trkpt lat="38.826855142073825" lon="-9.29714109026085"><ele>187.0</ele><time>2026-04-26T10:57:13Z</time></trkpt><trkpt lat="38.82675870726245" lon="-9.297252984394058"><ele>187.0</ele><time>2026-04-26T10:57:14Z</time></trkpt><trkpt lat="38.82667238612419" lon="-9.2973713546688"><ele>187.5</ele><time>2026-04-26T10:57:15Z</time></trkpt><trkpt lat="38.826581074949054" lon="-9.297488285021906"><ele>188.0</ele><time>2026-04-26T10:57:16Z</time></trkpt><trkpt lat="38.82649578954692" lon="-9.297619476424494"><ele>188.5</ele><time>2026-04-26T10:57:17Z</time></trkpt><trkpt lat="38.82642219899772" lon="-9.297745842598626"><ele>189.0</ele><time>2026-04-26T10:57:18Z</time></trkpt><trkpt lat="38.82635302387196" lon="-9.297876601784148"><ele>189.0</ele><time>2026-04-26T10:57:19Z</time></trkpt><trkpt lat="38.82628362829402" lon="-9.297999681354863"><ele>189.0</ele><time>2026-04-26T10:57:20Z</time></trkpt><trkpt lat="38.826214061459495" lon="-9.298121567309916"><ele>189.0</ele><time>2026-04-26T10:57:21Z</time></trkpt><trkpt lat="38.82616756288335" lon="-9.29824225381735"><ele>189.0</ele><time>2026-04-26T10:57:22Z</time></trkpt><trkpt lat="38.826126019792284" lon="-9.298352743793934"><ele>189.0</ele><time>2026-04-26T10:57:23Z</time></trkpt><trkpt lat="38.82610271826591" lon="-9.298460869930299"><ele>188.33333333333334</ele><time>2026-04-26T10:57:24Z</time></trkpt><trkpt lat="38.82608724303621" lon="-9.298573815105144"><ele>187.66666666666666</ele><time>2026-04-26T10:57:25Z</time></trkpt><trkpt lat="38.82609863932026" lon="-9.298691509631986"><ele>187.0</ele><time>2026-04-26T10:57:26Z</time></trkpt><trkpt lat="38.82609984857349" lon="-9.298800220957594"><ele>186.33333333333331</ele><time>2026-04-26T10:57:27Z</time></trkpt><trkpt lat="38.82610233430606" lon="-9.298890642574717"><ele>185.66666666666666</ele><time>2026-04-26T10:57:28Z</time></trkpt><trkpt lat="38.826105064340204" lon="-9.29897503804228"><ele>185.0</ele><time>2026-04-26T10:57:29Z</time></trkpt><trkpt lat="38.82610240356475" lon="-9.299132137812464"><ele>184.83333333333331</ele><time>2026-04-26T10:57:31Z</time></trkpt><trkpt lat="38.82613487481489" lon="-9.299251504959976"><ele>184.66666666666666</ele><time>2026-04-26T10:57:33Z</time></trkpt><trkpt lat="38.826254408369145" lon="-9.299264600295945"><ele>184.5</ele><time>2026-04-26T10:57:35Z</time></trkpt><trkpt lat="38.82631710418552" lon="-9.299282863890012"><ele>184.33333333333334</ele><time>2026-04-26T10:57:36Z</time></trkpt><trkpt lat="38.82638943653671" lon="-9.299305895710285"><ele>184.16666666666669</ele><time>2026-04-26T10:57:37Z</time></trkpt><trkpt lat="38.82646467183526" lon="-9.299354245842348"><ele>184.0</ele><time>2026-04-26T10:57:38Z</time></trkpt><trkpt lat="38.826532092363074" lon="-9.299432839639978"><ele>184.0</ele><time>2026-04-26T10:57:39Z</time></trkpt><trkpt lat="38.82662445028376" lon="-9.29948242931874"><ele>184.0</ele><time>2026-04-26T10:57:40Z</time></trkpt><trkpt lat="38.826708033489105" lon="-9.299553927649105"><ele>184.0</ele><time>2026-04-26T10:57:41Z</time></trkpt><trkpt lat="38.826786484373486" lon="-9.29964643873117"><ele>184.0</ele><time>2026-04-26T10:57:42Z</time></trkpt><trkpt lat="38.82688375891101" lon="-9.29971652468156"><ele>184.0</ele><time>2026-04-26T10:57:43Z</time></trkpt><trkpt lat="38.82697029805095" lon="-9.299791577972302"><ele>182.0</ele><time>2026-04-26T10:57:44Z</time></trkpt><trkpt lat="38.827061413210295" lon="-9.299876159240654"><ele>180.0</ele><time>2026-04-26T10:57:45Z</time></trkpt><trkpt lat="38.82715659073511" lon="-9.2999524037308"><ele>178.0</ele><time>2026-04-26T10:57:46Z</time></trkpt><trkpt lat="38.82725119954364" lon="-9.30003286534483"><ele>176.0</ele><time>2026-04-26T10:57:47Z</time></trkpt><trkpt lat="38.82734542514238" lon="-9.300114418740225"><ele>176.0</ele><time>2026-04-26T10:57:48Z</time></trkpt><trkpt lat="38.8274444501151" lon="-9.30019616354512"><ele>176.0</ele><time>2026-04-26T10:57:49Z</time></trkpt><trkpt lat="38.827541450056316" lon="-9.30028109306966"><ele>176.0</ele><time>2026-04-26T10:57:50Z</time></trkpt><trkpt lat="38.82763726627485" lon="-9.300371860152268"><ele>176.0</ele><time>2026-04-26T10:57:51Z</time></trkpt><trkpt lat="38.827730794186465" lon="-9.300467072020174"><ele>175.0</ele><time>2026-04-26T10:57:52Z</time></trkpt><trkpt lat="38.827820388870975" lon="-9.300562516955164"><ele>174.0</ele><time>2026-04-26T10:57:53Z</time></trkpt><trkpt lat="38.8279022453917" lon="-9.30067167676977"><ele>173.0</ele><time>2026-04-26T10:57:54Z</time></trkpt><trkpt lat="38.82797730774149" lon="-9.300794318686012"><ele>172.0</ele><time>2026-04-26T10:57:55Z</time></trkpt><trkpt lat="38.828037198440185" lon="-9.300917400675045"><ele>171.75</ele><time>2026-04-26T10:57:56Z</time></trkpt><trkpt lat="38.82808641698765" lon="-9.301045669426225"><ele>171.5</ele><time>2026-04-26T10:57:57Z</time></trkpt><trkpt lat="38.828143492878446" lon="-9.301180019987369"><ele>171.25</ele><time>2026-04-26T10:57:58Z</time></trkpt><trkpt lat="38.82819734297896" lon="-9.301315253901597"><ele>171.0</ele><time>2026-04-26T10:57:59Z</time></trkpt><trkpt lat="38.828248095043165" lon="-9.3014587355348"><ele>170.75</ele><time>2026-04-26T10:58:00Z</time></trkpt><trkpt lat="38.828304531196125" lon="-9.301612110552888"><ele>170.5</ele><time>2026-04-26T10:58:01Z</time></trkpt><trkpt lat="38.82836449315435" lon="-9.301758139183699"><ele>170.25</ele><time>2026-04-26T10:58:02Z</time></trkpt><trkpt lat="38.82841963718933" lon="-9.30188926228951"><ele>170.0</ele><time>2026-04-26T10:58:03Z</time></trkpt><trkpt lat="38.828476867588705" lon="-9.302030242457288"><ele>170.0</ele><time>2026-04-26T10:58:04Z</time></trkpt><trkpt lat="38.82854505866811" lon="-9.302164772458166"><ele>170.0</ele><time>2026-04-26T10:58:05Z</time></trkpt><trkpt lat="38.82863474070329" lon="-9.302280580288684"><ele>170.0</ele><time>2026-04-26T10:58:06Z</time></trkpt><trkpt lat="38.828716192351955" lon="-9.302402833668644"><ele>170.0</ele><time>2026-04-26T10:58:07Z</time></trkpt><trkpt lat="38.82880464796323" lon="-9.302508900680868"><ele>170.0</ele><time>2026-04-26T10:58:08Z</time></trkpt><trkpt lat="38.828896113329726" lon="-9.30260594025938"><ele>170.0</ele><time>2026-04-26T10:58:09Z</time></trkpt><trkpt lat="38.82898417845725" lon="-9.302698351839334"><ele>170.0</ele><time>2026-04-26T10:58:10Z</time></trkpt><trkpt lat="38.82907111412186" lon="-9.302795379099392"><ele>170.0</ele><time>2026-04-26T10:58:11Z</time></trkpt><trkpt lat="38.8291579475683" lon="-9.302888571151888"><ele>170.0</ele><time>2026-04-26T10:58:12Z</time></trkpt><trkpt lat="38.82924228171976" lon="-9.302981127507175"><ele>170.0</ele><time>2026-04-26T10:58:13Z</time></trkpt><trkpt lat="38.82931547164007" lon="-9.303061453117875"><ele>170.0</ele><time>2026-04-26T10:58:14Z</time></trkpt><trkpt lat="38.82937664250226" lon="-9.303148910069298"><ele>170.0</ele><time>2026-04-26T10:58:15Z</time></trkpt><trkpt lat="38.829439679679346" lon="-9.303194728683504"><ele>170.0</ele><time>2026-04-26T10:58:16Z</time></trkpt><trkpt lat="38.82949857387551" lon="-9.303256766368664"><ele>170.0</ele><time>2026-04-26T10:58:17Z</time></trkpt><trkpt lat="38.82955302184982" lon="-9.303313063174869"><ele>170.2</ele><time>2026-04-26T10:58:18Z</time></trkpt><trkpt lat="38.82961477139073" lon="-9.303376923305642"><ele>170.4</ele><time>2026-04-26T10:58:20Z</time></trkpt><trkpt lat="38.82948727081782" lon="-9.303547879234937"><ele>170.60000000000002</ele><time>2026-04-26T10:58:22Z</time></trkpt><trkpt lat="38.82939550776358" lon="-9.303633092628651"><ele>170.8</ele><time>2026-04-26T10:58:24Z</time></trkpt><trkpt lat="38.82934812857195" lon="-9.303686435025037"><ele>171.0</ele><time>2026-04-26T10:58:25Z</time></trkpt><trkpt lat="38.829314905265086" lon="-9.3037574224022"><ele>170.83333333333334</ele><time>2026-04-26T10:58:26Z</time></trkpt><trkpt lat="38.82922962625636" lon="-9.303866060933554"><ele>170.66666666666666</ele><time>2026-04-26T10:58:28Z</time></trkpt><trkpt lat="38.829177387523394" lon="-9.303932283615264"><ele>170.5</ele><time>2026-04-26T10:58:29Z</time></trkpt><trkpt lat="38.82911982999293" lon="-9.304003966454674"><ele>170.33333333333331</ele><time>2026-04-26T10:58:30Z</time></trkpt><trkpt lat="38.8290603482147" lon="-9.304078045779564"><ele>170.16666666666666</ele><time>2026-04-26T10:58:31Z</time></trkpt><trkpt lat="38.82900107430795" lon="-9.304151866215623"><ele>170.0</ele><time>2026-04-26T10:58:32Z</time></trkpt><trkpt lat="38.82893939256191" lon="-9.304228685403451"><ele>170.0</ele><time>2026-04-26T10:58:33Z</time></trkpt><trkpt lat="38.82888228536565" lon="-9.304299953064014"><ele>170.0</ele><time>2026-04-26T10:58:34Z</time></trkpt><trkpt lat="38.82882358045169" lon="-9.304373364341934"><ele>170.0</ele><time>2026-04-26T10:58:35Z</time></trkpt><trkpt lat="38.828760481964686" lon="-9.304436839685938"><ele>170.0</ele><time>2026-04-26T10:58:36Z</time></trkpt><trkpt lat="38.82870670759124" lon="-9.30450917906168"><ele>170.0</ele><time>2026-04-26T10:58:37Z</time></trkpt><trkpt lat="38.82864551848457" lon="-9.304581652999248"><ele>170.0</ele><time>2026-04-26T10:58:38Z</time></trkpt><trkpt lat="38.828577815880436" lon="-9.304662371460289"><ele>170.0</ele><time>2026-04-26T10:58:39Z</time></trkpt><trkpt lat="38.828508072835945" lon="-9.30473894615811"><ele>170.0</ele><time>2026-04-26T10:58:40Z</time></trkpt><trkpt lat="38.82843888069235" lon="-9.304817158333318"><ele>170.0</ele><time>2026-04-26T10:58:41Z</time></trkpt><trkpt lat="38.82836238492301" lon="-9.30489816374412"><ele>170.0</ele><time>2026-04-26T10:58:42Z</time></trkpt><trkpt lat="38.82829105409865" lon="-9.304991115325816"><ele>170.0</ele><time>2026-04-26T10:58:43Z</time></trkpt><trkpt lat="38.828207892813744" lon="-9.305095331602397"><ele>169.75</ele><time>2026-04-26T10:58:44Z</time></trkpt><trkpt lat="38.82811386238242" lon="-9.305220339995412"><ele>169.5</ele><time>2026-04-26T10:58:45Z</time></trkpt><trkpt lat="38.82800870196731" lon="-9.305354345394639"><ele>169.25</ele><time>2026-04-26T10:58:46Z</time></trkpt><trkpt lat="38.82789383466775" lon="-9.305492063668106"><ele>169.0</ele><time>2026-04-26T10:58:47Z</time></trkpt><trkpt lat="38.82777212043955" lon="-9.305633729063283"><ele>169.66666666666669</ele><time>2026-04-26T10:58:48Z</time></trkpt><trkpt lat="38.827667741464495" lon="-9.305794709623063"><ele>170.33333333333334</ele><time>2026-04-26T10:58:49Z</time></trkpt><trkpt lat="38.827555766684505" lon="-9.305939377224007"><ele>171.0</ele><time>2026-04-26T10:58:50Z</time></trkpt><trkpt lat="38.8274512103734" lon="-9.306074460416964"><ele>170.4</ele><time>2026-04-26T10:58:51Z</time></trkpt><trkpt lat="38.82736485888137" lon="-9.306187992421108"><ele>169.8</ele><time>2026-04-26T10:58:52Z</time></trkpt><trkpt lat="38.827282458649876" lon="-9.306274230232324"><ele>169.20000000000002</ele><time>2026-04-26T10:58:53Z</time></trkpt><trkpt lat="38.827206174589016" lon="-9.306372820079277"><ele>168.60000000000002</ele><time>2026-04-26T10:58:54Z</time></trkpt><trkpt lat="38.827134720046985" lon="-9.306467291846728"><ele>168.0</ele><time>2026-04-26T10:58:55Z</time></trkpt><trkpt lat="38.827074201557444" lon="-9.306558477116186"><ele>168.0</ele><time>2026-04-26T10:58:56Z</time></trkpt><trkpt lat="38.827007482604785" lon="-9.306649453413982"><ele>168.0</ele><time>2026-04-26T10:58:57Z</time></trkpt><trkpt lat="38.82694062625907" lon="-9.306744856980197"><ele>168.0</ele><time>2026-04-26T10:58:58Z</time></trkpt><trkpt lat="38.82687946431504" lon="-9.306829952540006"><ele>168.0</ele><time>2026-04-26T10:58:59Z</time></trkpt><trkpt lat="38.82681999453682" lon="-9.306909221197273"><ele>168.0</ele><time>2026-04-26T10:59:00Z</time></trkpt><trkpt lat="38.82676516441314" lon="-9.307001086436767"><ele>166.60000000000002</ele><time>2026-04-26T10:59:01Z</time></trkpt><trkpt lat="38.82668807871746" lon="-9.307069960609368"><ele>165.20000000000002</ele><time>2026-04-26T10:59:02Z</time></trkpt><trkpt lat="38.826618675305696" lon="-9.307155996600514"><ele>163.8</ele><time>2026-04-26T10:59:03Z</time></trkpt><trkpt lat="38.82655102279476" lon="-9.307266248804915"><ele>162.4</ele><time>2026-04-26T10:59:04Z</time></trkpt><trkpt lat="38.826466719205094" lon="-9.307343950057021"><ele>161.0</ele><time>2026-04-26T10:59:05Z</time></trkpt><trkpt lat="38.82640338417853" lon="-9.30746599178247"><ele>160.8</ele><time>2026-04-26T10:59:06Z</time></trkpt><trkpt lat="38.826353575259986" lon="-9.307577744717793"><ele>160.60000000000002</ele><time>2026-04-26T10:59:07Z</time></trkpt><trkpt lat="38.82632463530361" lon="-9.307702459273642"><ele>160.4</ele><time>2026-04-26T10:59:08Z</time></trkpt><trkpt lat="38.82629251007335" lon="-9.307827950395215"><ele>160.2</ele><time>2026-04-26T10:59:09Z</time></trkpt><trkpt lat="38.82626162165087" lon="-9.30794861020703"><ele>160.0</ele><time>2026-04-26T10:59:10Z</time></trkpt><trkpt lat="38.82622811042665" lon="-9.308076474152012"><ele>161.0</ele><time>2026-04-26T10:59:11Z</time></trkpt><trkpt lat="38.82618925537517" lon="-9.308213386147385"><ele>162.0</ele><time>2026-04-26T10:59:12Z</time></trkpt><trkpt lat="38.826145955573026" lon="-9.308351112604754"><ele>163.0</ele><time>2026-04-26T10:59:13Z</time></trkpt><trkpt lat="38.8260978003757" lon="-9.308490110453208"><ele>164.0</ele><time>2026-04-26T10:59:14Z</time></trkpt><trkpt lat="38.82603095334615" lon="-9.308613993633358"><ele>164.0</ele><time>2026-04-26T10:59:15Z</time></trkpt><trkpt lat="38.825994332525106" lon="-9.308754327646783"><ele>164.0</ele><time>2026-04-26T10:59:16Z</time></trkpt><trkpt lat="38.825949638903715" lon="-9.30888580966134"><ele>164.0</ele><time>2026-04-26T10:59:17Z</time></trkpt><trkpt lat="38.82590957831224" lon="-9.309017815557546"><ele>164.0</ele><time>2026-04-26T10:59:18Z</time></trkpt><trkpt lat="38.8258752271658" lon="-9.309152736461426"><ele>164.0</ele><time>2026-04-26T10:59:19Z</time></trkpt><trkpt lat="38.82583545005369" lon="-9.309297341652329"><ele>165.0</ele><time>2026-04-26T10:59:20Z</time></trkpt><trkpt lat="38.82578077497523" lon="-9.309424542147186"><ele>166.0</ele><time>2026-04-26T10:59:21Z</time></trkpt><trkpt lat="38.82574415054637" lon="-9.3095661826185"><ele>167.0</ele><time>2026-04-26T10:59:22Z</time></trkpt><trkpt lat="38.82569738476264" lon="-9.309693594329747"><ele>168.0</ele><time>2026-04-26T10:59:23Z</time></trkpt><trkpt lat="38.825654495096856" lon="-9.30984209701772"><ele>169.0</ele><time>2026-04-26T10:59:24Z</time></trkpt><trkpt lat="38.82560782460119" lon="-9.30997678598781"><ele>170.0</ele><time>2026-04-26T10:59:25Z</time></trkpt><trkpt lat="38.82554923023063" lon="-9.310103509579145"><ele>171.0</ele><time>2026-04-26T10:59:26Z</time></trkpt><trkpt lat="38.82548576938521" lon="-9.31021644718739"><ele>172.0</ele><time>2026-04-26T10:59:27Z</time></trkpt><trkpt lat="38.82543186281069" lon="-9.310330471134593"><ele>173.0</ele><time>2026-04-26T10:59:28Z</time></trkpt><trkpt lat="38.825376804538145" lon="-9.310424300517258"><ele>173.0</ele><time>2026-04-26T10:59:29Z</time></trkpt><trkpt lat="38.825343743750736" lon="-9.310522201790409"><ele>173.0</ele><time>2026-04-26T10:59:30Z</time></trkpt><trkpt lat="38.82531716792817" lon="-9.310607969676733"><ele>173.0</ele><time>2026-04-26T10:59:31Z</time></trkpt><trkpt lat="38.825296808036775" lon="-9.310711162360658"><ele>173.0</ele><time>2026-04-26T10:59:32Z</time></trkpt><trkpt lat="38.8251498168968" lon="-9.310766019710593"><ele>173.0</ele><time>2026-04-26T10:59:33Z</time></trkpt><trkpt lat="38.8250703011587" lon="-9.31085206133037"><ele>172.75</ele><time>2026-04-26T10:59:34Z</time></trkpt><trkpt lat="38.8249820320165" lon="-9.3109388485036"><ele>172.5</ele><time>2026-04-26T10:59:35Z</time></trkpt><trkpt lat="38.82488403123516" lon="-9.311028305820123"><ele>172.25</ele><time>2026-04-26T10:59:36Z</time></trkpt><trkpt lat="38.824786152793706" lon="-9.311115283332452"><ele>172.0</ele><time>2026-04-26T10:59:37Z</time></trkpt><trkpt lat="38.82468198088617" lon="-9.311209731415476"><ele>172.0</ele><time>2026-04-26T10:59:38Z</time></trkpt><trkpt lat="38.824576638196376" lon="-9.311312681290074"><ele>172.0</ele><time>2026-04-26T10:59:39Z</time></trkpt><trkpt lat="38.82447160571708" lon="-9.31142278375736"><ele>172.0</ele><time>2026-04-26T10:59:40Z</time></trkpt><trkpt lat="38.82436318965111" lon="-9.31152714371774"><ele>172.0</ele><time>2026-04-26T10:59:41Z</time></trkpt><trkpt lat="38.82425242599106" lon="-9.311631066801437"><ele>172.25</ele><time>2026-04-26T10:59:42Z</time></trkpt><trkpt lat="38.82414083028695" lon="-9.311740979552189"><ele>172.5</ele><time>2026-04-26T10:59:43Z</time></trkpt><trkpt lat="38.824029723839374" lon="-9.311858293799222"><ele>172.75</ele><time>2026-04-26T10:59:44Z</time></trkpt><trkpt lat="38.82392219555722" lon="-9.312005654326503"><ele>173.0</ele><time>2026-04-26T10:59:45Z</time></trkpt><trkpt lat="38.823811878696006" lon="-9.312157061550664"><ele>171.0</ele><time>2026-04-26T10:59:46Z</time></trkpt><trkpt lat="38.82369843247609" lon="-9.312309441076838"><ele>169.0</ele><time>2026-04-26T10:59:47Z</time></trkpt><trkpt lat="38.823581142034605" lon="-9.312459077226581"><ele>167.0</ele><time>2026-04-26T10:59:48Z</time></trkpt><trkpt lat="38.82345820924549" lon="-9.31259872533706"><ele>167.0</ele><time>2026-04-26T10:59:49Z</time></trkpt><trkpt lat="38.82335334313152" lon="-9.312739236279224"><ele>167.0</ele><time>2026-04-26T10:59:50Z</time></trkpt><trkpt lat="38.82323010641842" lon="-9.312856500364152"><ele>167.0</ele><time>2026-04-26T10:59:51Z</time></trkpt><trkpt lat="38.823117976380516" lon="-9.312983098570284"><ele>166.5</ele><time>2026-04-26T10:59:52Z</time></trkpt><trkpt lat="38.82301407105497" lon="-9.313110112940302"><ele>166.0</ele><time>2026-04-26T10:59:53Z</time></trkpt><trkpt lat="38.82294176936318" lon="-9.31323839588178"><ele>165.5</ele><time>2026-04-26T10:59:54Z</time></trkpt><trkpt lat="38.8228607939984" lon="-9.313352693566927"><ele>165.0</ele><time>2026-04-26T10:59:55Z</time></trkpt><trkpt lat="38.822779284910915" lon="-9.313442951486705"><ele>165.0</ele><time>2026-04-26T10:59:56Z</time></trkpt><trkpt lat="38.82271902824179" lon="-9.313531116793348"><ele>165.0</ele><time>2026-04-26T10:59:57Z</time></trkpt><trkpt lat="38.82266778875874" lon="-9.313612382225374"><ele>165.0</ele><time>2026-04-26T10:59:58Z</time></trkpt><trkpt lat="38.82261717562885" lon="-9.313673123653318"><ele>165.0</ele><time>2026-04-26T10:59:59Z</time></trkpt><trkpt lat="38.8225353070101" lon="-9.313779997125657"><ele>165.0</ele><time>2026-04-26T11:00:01Z</time></trkpt><trkpt lat="38.82251852583659" lon="-9.31386570144879"><ele>165.0</ele><time>2026-04-26T11:00:03Z</time></trkpt><trkpt lat="38.82261055880023" lon="-9.313877520541293"><ele>165.0</ele><time>2026-04-26T11:00:04Z</time></trkpt><trkpt lat="38.82270249743068" lon="-9.313863502628754"><ele>165.0</ele><time>2026-04-26T11:00:06Z</time></trkpt><trkpt lat="38.82281514439746" lon="-9.31390207882143"><ele>165.0</ele><time>2026-04-26T11:00:08Z</time></trkpt><trkpt lat="38.82292251865481" lon="-9.313938901866358"><ele>165.0</ele><time>2026-04-26T11:00:10Z</time></trkpt><trkpt lat="38.82302936771608" lon="-9.313976801103797"><ele>165.0</ele><time>2026-04-26T11:00:12Z</time></trkpt><trkpt lat="38.823131808677225" lon="-9.31401329557505"><ele>164.0</ele><time>2026-04-26T11:00:14Z</time></trkpt><trkpt lat="38.82324101264247" lon="-9.314054492748285"><ele>163.0</ele><time>2026-04-26T11:00:16Z</time></trkpt><trkpt lat="38.823361639352136" lon="-9.314098549489412"><ele>162.0</ele><time>2026-04-26T11:00:18Z</time></trkpt><trkpt lat="38.82342798875898" lon="-9.31412362850576"><ele>161.0</ele><time>2026-04-26T11:00:19Z</time></trkpt><trkpt lat="38.82349343660893" lon="-9.31414933526032"><ele>160.0</ele><time>2026-04-26T11:00:20Z</time></trkpt><trkpt lat="38.82355774943003" lon="-9.314174596217963"><ele>159.0</ele><time>2026-04-26T11:00:21Z</time></trkpt><trkpt lat="38.82362968600903" lon="-9.31420477250378"><ele>159.0</ele><time>2026-04-26T11:00:22Z</time></trkpt><trkpt lat="38.82369865096518" lon="-9.314235282682949"><ele>159.0</ele><time>2026-04-26T11:00:23Z</time></trkpt><trkpt lat="38.823769317743086" lon="-9.314266545752295"><ele>159.0</ele><time>2026-04-26T11:00:24Z</time></trkpt><trkpt lat="38.823836324052735" lon="-9.314296559588843"><ele>159.0</ele><time>2026-04-26T11:00:25Z</time></trkpt><trkpt lat="38.82390379749811" lon="-9.314328107238596"><ele>159.0</ele><time>2026-04-26T11:00:26Z</time></trkpt><trkpt lat="38.823967614245056" lon="-9.314356708404237"><ele>159.0</ele><time>2026-04-26T11:00:27Z</time></trkpt><trkpt lat="38.82402796895623" lon="-9.314384220632874"><ele>159.0</ele><time>2026-04-26T11:00:28Z</time></trkpt><trkpt lat="38.82414924834158" lon="-9.314438662454636"><ele>159.0</ele><time>2026-04-26T11:00:30Z</time></trkpt><trkpt lat="38.82421564367799" lon="-9.314468388767185"><ele>159.0</ele><time>2026-04-26T11:00:31Z</time></trkpt><trkpt lat="38.82427060652278" lon="-9.314514041346834"><ele>159.0</ele><time>2026-04-26T11:00:32Z</time></trkpt><trkpt lat="38.824334834534895" lon="-9.314540708993855"><ele>159.0</ele><time>2026-04-26T11:00:33Z</time></trkpt><trkpt lat="38.82445750365983" lon="-9.314577508236681"><ele>159.0</ele><time>2026-04-26T11:00:35Z</time></trkpt><trkpt lat="38.824518804109005" lon="-9.314603443041655"><ele>159.0</ele><time>2026-04-26T11:00:36Z</time></trkpt><trkpt lat="38.8246090515416" lon="-9.314658644869734"><ele>159.8</ele><time>2026-04-26T11:00:38Z</time></trkpt><trkpt lat="38.824700767767595" lon="-9.314698307607811"><ele>160.60000000000002</ele><time>2026-04-26T11:00:40Z</time></trkpt><trkpt lat="38.8247223971644" lon="-9.314840802441504"><ele>161.4</ele><time>2026-04-26T11:00:43Z</time></trkpt><trkpt lat="38.82465024242244" lon="-9.314947663077493"><ele>162.20000000000002</ele><time>2026-04-26T11:00:45Z</time></trkpt><trkpt lat="38.82459150222746" lon="-9.31507602382699"><ele>163.0</ele><time>2026-04-26T11:00:47Z</time></trkpt><trkpt lat="38.82451953283875" lon="-9.31521094532624"><ele>163.16666666666669</ele><time>2026-04-26T11:00:49Z</time></trkpt><trkpt lat="38.824486590164824" lon="-9.31529151761637"><ele>163.33333333333334</ele><time>2026-04-26T11:00:50Z</time></trkpt><trkpt lat="38.82446082336357" lon="-9.315365462106264"><ele>163.5</ele><time>2026-04-26T11:00:51Z</time></trkpt><trkpt lat="38.824450066017775" lon="-9.315456156574227"><ele>163.66666666666666</ele><time>2026-04-26T11:00:52Z</time></trkpt><trkpt lat="38.82444545184064" lon="-9.315537062720354"><ele>163.83333333333331</ele><time>2026-04-26T11:00:53Z</time></trkpt><trkpt lat="38.8244428758854" lon="-9.315620439112509"><ele>164.0</ele><time>2026-04-26T11:00:54Z</time></trkpt><trkpt lat="38.824411838758444" lon="-9.31576906007616"><ele>163.83333333333331</ele><time>2026-04-26T11:00:56Z</time></trkpt><trkpt lat="38.824309690109054" lon="-9.31586431474154"><ele>163.66666666666666</ele><time>2026-04-26T11:00:58Z</time></trkpt><trkpt lat="38.82425059180467" lon="-9.315916973908639"><ele>163.5</ele><time>2026-04-26T11:00:59Z</time></trkpt><trkpt lat="38.82419560277729" lon="-9.315978190951466"><ele>163.33333333333334</ele><time>2026-04-26T11:01:00Z</time></trkpt><trkpt lat="38.82414276730827" lon="-9.316039177693257"><ele>163.16666666666669</ele><time>2026-04-26T11:01:01Z</time></trkpt><trkpt lat="38.82410669178316" lon="-9.316114276660038"><ele>163.0</ele><time>2026-04-26T11:01:02Z</time></trkpt><trkpt lat="38.824080681535854" lon="-9.316192706376501"><ele>163.0</ele><time>2026-04-26T11:01:03Z</time></trkpt><trkpt lat="38.824054447042975" lon="-9.316271876430609"><ele>163.0</ele><time>2026-04-26T11:01:04Z</time></trkpt><trkpt lat="38.824017817190395" lon="-9.316338595922161"><ele>163.0</ele><time>2026-04-26T11:01:05Z</time></trkpt><trkpt lat="38.823917016095116" lon="-9.316421259530948"><ele>163.0</ele><time>2026-04-26T11:01:07Z</time></trkpt><trkpt lat="38.823845587822056" lon="-9.316518164721757"><ele>163.0</ele><time>2026-04-26T11:01:09Z</time></trkpt><trkpt lat="38.823881249160934" lon="-9.316593376652193"><ele>163.0</ele><time>2026-04-26T11:01:10Z</time></trkpt><trkpt lat="38.82385554912518" lon="-9.316721318719372"><ele>162.83333333333334</ele><time>2026-04-26T11:01:12Z</time></trkpt><trkpt lat="38.823839701722555" lon="-9.316800212196297"><ele>162.66666666666669</ele><time>2026-04-26T11:01:13Z</time></trkpt><trkpt lat="38.82381365970474" lon="-9.316892845115394"><ele>162.5</ele><time>2026-04-26T11:01:14Z</time></trkpt><trkpt lat="38.823793550072516" lon="-9.316999231292348"><ele>162.33333333333334</ele><time>2026-04-26T11:01:15Z</time></trkpt><trkpt lat="38.823771780092585" lon="-9.317103695261723"><ele>162.16666666666666</ele><time>2026-04-26T11:01:16Z</time></trkpt><trkpt lat="38.82375008657747" lon="-9.31720645489642"><ele>162.0</ele><time>2026-04-26T11:01:17Z</time></trkpt><trkpt lat="38.82372069044452" lon="-9.317357417950214"><ele>162.5</ele><time>2026-04-26T11:01:19Z</time></trkpt><trkpt lat="38.82369703295194" lon="-9.317508043284644"><ele>163.0</ele><time>2026-04-26T11:01:21Z</time></trkpt><trkpt lat="38.82368184811749" lon="-9.317592652436534"><ele>163.5</ele><time>2026-04-26T11:01:22Z</time></trkpt><trkpt lat="38.823663910637805" lon="-9.317683942068463"><ele>164.0</ele><time>2026-04-26T11:01:23Z</time></trkpt><trkpt lat="38.82364521249454" lon="-9.317778045032677"><ele>164.5</ele><time>2026-04-26T11:01:24Z</time></trkpt><trkpt lat="38.823629203483726" lon="-9.31785861431431"><ele>165.0</ele><time>2026-04-26T11:01:25Z</time></trkpt><trkpt lat="38.82361013228617" lon="-9.317954538417712"><ele>165.0</ele><time>2026-04-26T11:01:26Z</time></trkpt><trkpt lat="38.82358809258859" lon="-9.318065385093611"><ele>165.0</ele><time>2026-04-26T11:01:27Z</time></trkpt><trkpt lat="38.8235657052573" lon="-9.318186515512659"><ele>165.0</ele><time>2026-04-26T11:01:28Z</time></trkpt><trkpt lat="38.823533887999254" lon="-9.318318725436466"><ele>165.0</ele><time>2026-04-26T11:01:29Z</time></trkpt><trkpt lat="38.82350873055858" lon="-9.318471098630061"><ele>165.0</ele><time>2026-04-26T11:01:30Z</time></trkpt><trkpt lat="38.82348744163934" lon="-9.31860414532273"><ele>164.4</ele><time>2026-04-26T11:01:31Z</time></trkpt><trkpt lat="38.82346849106384" lon="-9.318739996895832"><ele>163.8</ele><time>2026-04-26T11:01:32Z</time></trkpt><trkpt lat="38.823447812428356" lon="-9.318863983781249"><ele>163.2</ele><time>2026-04-26T11:01:33Z</time></trkpt><trkpt lat="38.82342799127318" lon="-9.318974520788368"><ele>162.6</ele><time>2026-04-26T11:01:34Z</time></trkpt><trkpt lat="38.82342430219564" lon="-9.319079765634273"><ele>162.0</ele><time>2026-04-26T11:01:35Z</time></trkpt><trkpt lat="38.823406921434284" lon="-9.319228399304984"><ele>163.16666666666666</ele><time>2026-04-26T11:01:37Z</time></trkpt><trkpt lat="38.823533662875406" lon="-9.319250993516773"><ele>164.33333333333334</ele><time>2026-04-26T11:01:39Z</time></trkpt><trkpt lat="38.8236044461525" lon="-9.319264751689005"><ele>165.5</ele><time>2026-04-26T11:01:40Z</time></trkpt><trkpt lat="38.82368085663054" lon="-9.319280332387018"><ele>166.66666666666669</ele><time>2026-04-26T11:01:41Z</time></trkpt><trkpt lat="38.82376500962584" lon="-9.319295953145506"><ele>167.83333333333334</ele><time>2026-04-26T11:01:42Z</time></trkpt><trkpt lat="38.82384547516289" lon="-9.319309022552158"><ele>169.0</ele><time>2026-04-26T11:01:43Z</time></trkpt><trkpt lat="38.823909264741204" lon="-9.319610148759667"><ele>168.0</ele><time>2026-04-26T11:01:45Z</time></trkpt><trkpt lat="38.82392100023807" lon="-9.319743526480032"><ele>167.0</ele><time>2026-04-26T11:01:46Z</time></trkpt><trkpt lat="38.82393355251617" lon="-9.319887833523433"><ele>166.0</ele><time>2026-04-26T11:01:47Z</time></trkpt><trkpt lat="38.8239570764314" lon="-9.32003819086329"><ele>165.0</ele><time>2026-04-26T11:01:48Z</time></trkpt><trkpt lat="38.823982540750315" lon="-9.320181914933599"><ele>165.0</ele><time>2026-04-26T11:01:49Z</time></trkpt><trkpt lat="38.824023763645286" lon="-9.320310379072398"><ele>165.0</ele><time>2026-04-26T11:01:50Z</time></trkpt><trkpt lat="38.82408692229295" lon="-9.320430824143239"><ele>165.0</ele><time>2026-04-26T11:01:51Z</time></trkpt><trkpt lat="38.824196898496645" lon="-9.320491870065242"><ele>165.0</ele><time>2026-04-26T11:01:52Z</time></trkpt><trkpt lat="38.82428419723094" lon="-9.320580846246882"><ele>165.5</ele><time>2026-04-26T11:01:53Z</time></trkpt><trkpt lat="38.82434551841771" lon="-9.320695889333129"><ele>166.0</ele><time>2026-04-26T11:01:54Z</time></trkpt><trkpt lat="38.82439822337624" lon="-9.320822355764317"><ele>166.5</ele><time>2026-04-26T11:01:55Z</time></trkpt><trkpt lat="38.8244216002915" lon="-9.320967916922973"><ele>167.0</ele><time>2026-04-26T11:01:56Z</time></trkpt><trkpt lat="38.82440444047164" lon="-9.3211138717713"><ele>167.0</ele><time>2026-04-26T11:01:57Z</time></trkpt><trkpt lat="38.8244010619664" lon="-9.321270487934642"><ele>167.0</ele><time>2026-04-26T11:01:58Z</time></trkpt><trkpt lat="38.824406967795284" lon="-9.321436374481301"><ele>167.0</ele><time>2026-04-26T11:01:59Z</time></trkpt><trkpt lat="38.824399361228245" lon="-9.321593872135342"><ele>167.0</ele><time>2026-04-26T11:02:00Z</time></trkpt><trkpt lat="38.82438870130121" lon="-9.321742123689262"><ele>166.2</ele><time>2026-04-26T11:02:01Z</time></trkpt><trkpt lat="38.82437636049428" lon="-9.321876347222299"><ele>165.39999999999998</ele><time>2026-04-26T11:02:02Z</time></trkpt><trkpt lat="38.82436465776134" lon="-9.322009913538055"><ele>164.60000000000002</ele><time>2026-04-26T11:02:03Z</time></trkpt><trkpt lat="38.82435605055467" lon="-9.322137798826063"><ele>163.8</ele><time>2026-04-26T11:02:04Z</time></trkpt><trkpt lat="38.824351739560015" lon="-9.322245874672483"><ele>163.0</ele><time>2026-04-26T11:02:05Z</time></trkpt><trkpt lat="38.8243587230835" lon="-9.322332618267552"><ele>162.5</ele><time>2026-04-26T11:02:06Z</time></trkpt><trkpt lat="38.82435426350022" lon="-9.322454604534927"><ele>162.0</ele><time>2026-04-26T11:02:08Z</time></trkpt><trkpt lat="38.824460536564935" lon="-9.322458166982777"><ele>161.5</ele><time>2026-04-26T11:02:09Z</time></trkpt><trkpt lat="38.824524277647754" lon="-9.32250087047748"><ele>161.0</ele><time>2026-04-26T11:02:10Z</time></trkpt><trkpt lat="38.82459446509872" lon="-9.322547978043131"><ele>160.5</ele><time>2026-04-26T11:02:11Z</time></trkpt><trkpt lat="38.82466000836656" lon="-9.322591047937976"><ele>160.0</ele><time>2026-04-26T11:02:12Z</time></trkpt><trkpt lat="38.82473256189104" lon="-9.322639127000874"><ele>160.0</ele><time>2026-04-26T11:02:13Z</time></trkpt><trkpt lat="38.82482052252589" lon="-9.322698702620212"><ele>160.0</ele><time>2026-04-26T11:02:14Z</time></trkpt><trkpt lat="38.82492685448623" lon="-9.322772315240467"><ele>160.0</ele><time>2026-04-26T11:02:15Z</time></trkpt><trkpt lat="38.8250379959104" lon="-9.322855784843012"><ele>160.0</ele><time>2026-04-26T11:02:16Z</time></trkpt><trkpt lat="38.825127716701104" lon="-9.322960953554265"><ele>162.0</ele><time>2026-04-26T11:02:17Z</time></trkpt><trkpt lat="38.825213287631506" lon="-9.323070016053096"><ele>164.0</ele><time>2026-04-26T11:02:18Z</time></trkpt><trkpt lat="38.825284669655176" lon="-9.32319952246262"><ele>166.0</ele><time>2026-04-26T11:02:19Z</time></trkpt><trkpt lat="38.825341407148635" lon="-9.323354623703223"><ele>168.0</ele><time>2026-04-26T11:02:20Z</time></trkpt><trkpt lat="38.82539948283753" lon="-9.323508737214892"><ele>168.0</ele><time>2026-04-26T11:02:21Z</time></trkpt><trkpt lat="38.825459897130436" lon="-9.32366215924952"><ele>168.0</ele><time>2026-04-26T11:02:22Z</time></trkpt><trkpt lat="38.82551863097656" lon="-9.323820143413608"><ele>168.0</ele><time>2026-04-26T11:02:23Z</time></trkpt><trkpt lat="38.82555154216885" lon="-9.323978589083822"><ele>168.0</ele><time>2026-04-26T11:02:24Z</time></trkpt><trkpt lat="38.825555320123435" lon="-9.324138266205928"><ele>167.2</ele><time>2026-04-26T11:02:25Z</time></trkpt><trkpt lat="38.82554841792322" lon="-9.324283843950255"><ele>166.4</ele><time>2026-04-26T11:02:26Z</time></trkpt><trkpt lat="38.82554847638982" lon="-9.324416788537368"><ele>165.6</ele><time>2026-04-26T11:02:27Z</time></trkpt><trkpt lat="38.82555180300285" lon="-9.32452815645804"><ele>164.79999999999998</ele><time>2026-04-26T11:02:28Z</time></trkpt><trkpt lat="38.82560956051279" lon="-9.324678643195695"><ele>164.0</ele><time>2026-04-26T11:02:30Z</time></trkpt><trkpt lat="38.82558939324903" lon="-9.324865068356637"><ele>163.66666666666666</ele><time>2026-04-26T11:02:32Z</time></trkpt><trkpt lat="38.82554190036971" lon="-9.325019320548442"><ele>163.33333333333331</ele><time>2026-04-26T11:02:34Z</time></trkpt><trkpt lat="38.825496341322314" lon="-9.325113991476716"><ele>163.0</ele><time>2026-04-26T11:02:36Z</time></trkpt><trkpt lat="38.825446176150734" lon="-9.325023422521912"><ele>162.66666666666666</ele><time>2026-04-26T11:03:14Z</time></trkpt><trkpt lat="38.825392532918244" lon="-9.32496377363971"><ele>162.33333333333334</ele><time>2026-04-26T11:04:17Z</time></trkpt><trkpt lat="38.825338518145166" lon="-9.324912160166775"><ele>162.0</ele><time>2026-04-26T11:04:23Z</time></trkpt><trkpt lat="38.825393201581925" lon="-9.324953525009551"><ele>162.0</ele><time>2026-04-26T11:04:30Z</time></trkpt><trkpt lat="38.825425432519616" lon="-9.325028027469097"><ele>162.0</ele><time>2026-04-26T11:04:35Z</time></trkpt><trkpt lat="38.82536816106615" lon="-9.324955790974855"><ele>162.0</ele><time>2026-04-26T11:04:55Z</time></trkpt><trkpt lat="38.82531651489406" lon="-9.324901167743931"><ele>162.0</ele><time>2026-04-26T11:05:04Z</time></trkpt><trkpt lat="38.82535825565121" lon="-9.32496611611504"><ele>162.0</ele><time>2026-04-26T11:10:04Z</time></trkpt><trkpt lat="38.82542091712556" lon="-9.324995679543825"><ele>162.0</ele><time>2026-04-26T11:10:08Z</time></trkpt><trkpt lat="38.82537001529195" lon="-9.3249442937279"><ele>162.0</ele><time>2026-04-26T11:11:35Z</time></trkpt><trkpt lat="38.82529783640288" lon="-9.324875112187708"><ele>162.0</ele><time>2026-04-26T11:12:08Z</time></trkpt><trkpt lat="38.82538544907575" lon="-9.324851852292307"><ele>162.0</ele><time>2026-04-26T11:13:06Z</time></trkpt><trkpt lat="38.82532035620626" lon="-9.324880881963425"><ele>162.0</ele><time>2026-04-26T11:13:34Z</time></trkpt><trkpt lat="38.82536874759084" lon="-9.3249484667215"><ele>162.0</ele><time>2026-04-26T11:13:50Z</time></trkpt><trkpt lat="38.825422716323935" lon="-9.325005897223066"><ele>162.0</ele><time>2026-04-26T11:13:55Z</time></trkpt><trkpt lat="38.825375048587695" lon="-9.3249427025993"><ele>162.0</ele><time>2026-04-26T11:14:22Z</time></trkpt><trkpt lat="38.82533863303722" lon="-9.324874485791689"><ele>162.0</ele><time>2026-04-26T11:14:47Z</time></trkpt><trkpt lat="38.825385498788805" lon="-9.324958692469963"><ele>162.0</ele><time>2026-04-26T11:16:40Z</time></trkpt><trkpt lat="38.82543372871056" lon="-9.325023351664099"><ele>162.0</ele><time>2026-04-26T11:16:44Z</time></trkpt><trkpt lat="38.82539192976368" lon="-9.324945758960963"><ele>162.0</ele><time>2026-04-26T11:17:01Z</time></trkpt><trkpt lat="38.82532857190097" lon="-9.324909575998404"><ele>162.0</ele><time>2026-04-26T11:19:07Z</time></trkpt><trkpt lat="38.82538426671771" lon="-9.32494883864103"><ele>162.0</ele><time>2026-04-26T11:19:54Z</time></trkpt><trkpt lat="38.825435850982856" lon="-9.324998554035385"><ele>162.0</ele><time>2026-04-26T11:19:58Z</time></trkpt><trkpt lat="38.825375040078775" lon="-9.324947509236939"><ele>162.0</ele><time>2026-04-26T11:20:07Z</time></trkpt><trkpt lat="38.82542443623644" lon="-9.325042585285642"><ele>162.0</ele><time>2026-04-26T11:21:59Z</time></trkpt><trkpt lat="38.82550745084768" lon="-9.325044127529688"><ele>162.0</ele><time>2026-04-26T11:22:54Z</time></trkpt><trkpt lat="38.82554791583304" lon="-9.324951940443068"><ele>162.0</ele><time>2026-04-26T11:22:56Z</time></trkpt><trkpt lat="38.825552712130616" lon="-9.324867423407941"><ele>162.0</ele><time>2026-04-26T11:22:58Z</time></trkpt><trkpt lat="38.82556678266112" lon="-9.324744021687614"><ele>162.0</ele><time>2026-04-26T11:23:00Z</time></trkpt><trkpt lat="38.82554670026204" lon="-9.324655414422635"><ele>162.0</ele><time>2026-04-26T11:23:02Z</time></trkpt><trkpt lat="38.82553400497475" lon="-9.324531254149337"><ele>162.33333333333334</ele><time>2026-04-26T11:23:04Z</time></trkpt><trkpt lat="38.82551796682342" lon="-9.324442969776"><ele>162.66666666666666</ele><time>2026-04-26T11:23:05Z</time></trkpt><trkpt lat="38.825517385213615" lon="-9.324348040283343"><ele>163.0</ele><time>2026-04-26T11:23:06Z</time></trkpt><trkpt lat="38.825514164437465" lon="-9.324266212759177"><ele>163.33333333333331</ele><time>2026-04-26T11:23:07Z</time></trkpt><trkpt lat="38.82550986445862" lon="-9.324160663501997"><ele>163.66666666666666</ele><time>2026-04-26T11:23:08Z</time></trkpt><trkpt lat="38.825504739210906" lon="-9.32404563017405"><ele>164.0</ele><time>2026-04-26T11:23:09Z</time></trkpt><trkpt lat="38.82549428249751" lon="-9.323927786919299"><ele>164.79999999999998</ele><time>2026-04-26T11:23:10Z</time></trkpt><trkpt lat="38.82547380936695" lon="-9.323813335797134"><ele>165.6</ele><time>2026-04-26T11:23:11Z</time></trkpt><trkpt lat="38.82545263434528" lon="-9.323705106850579"><ele>166.4</ele><time>2026-04-26T11:23:12Z</time></trkpt><trkpt lat="38.825400601389575" lon="-9.323632845455057"><ele>167.2</ele><time>2026-04-26T11:23:13Z</time></trkpt><trkpt lat="38.825360086486455" lon="-9.323499059403867"><ele>168.0</ele><time>2026-04-26T11:23:14Z</time></trkpt><trkpt lat="38.82531230678559" lon="-9.32338124497214"><ele>168.0</ele><time>2026-04-26T11:23:15Z</time></trkpt><trkpt lat="38.82525847058481" lon="-9.323259018330777"><ele>168.0</ele><time>2026-04-26T11:23:16Z</time></trkpt><trkpt lat="38.82520612263719" lon="-9.323143354844026"><ele>168.0</ele><time>2026-04-26T11:23:17Z</time></trkpt><trkpt lat="38.82516364082565" lon="-9.323042247953328"><ele>168.0</ele><time>2026-04-26T11:23:18Z</time></trkpt><trkpt lat="38.82508853973415" lon="-9.322955959267556"><ele>168.0</ele><time>2026-04-26T11:23:19Z</time></trkpt><trkpt lat="38.82501169449042" lon="-9.322884619899117"><ele>166.4</ele><time>2026-04-26T11:23:20Z</time></trkpt><trkpt lat="38.824920836179146" lon="-9.322817082340132"><ele>164.8</ele><time>2026-04-26T11:23:21Z</time></trkpt><trkpt lat="38.824834408955454" lon="-9.322738683476203"><ele>163.2</ele><time>2026-04-26T11:23:22Z</time></trkpt><trkpt lat="38.82473933692844" lon="-9.322674682467706"><ele>161.6</ele><time>2026-04-26T11:23:23Z</time></trkpt><trkpt lat="38.824642084368875" lon="-9.322615492889131"><ele>160.0</ele><time>2026-04-26T11:23:24Z</time></trkpt><trkpt lat="38.82454335931178" lon="-9.322553951124958"><ele>160.0</ele><time>2026-04-26T11:23:25Z</time></trkpt><trkpt lat="38.824440898205175" lon="-9.322488928926264"><ele>160.0</ele><time>2026-04-26T11:23:26Z</time></trkpt><trkpt lat="38.82433494201259" lon="-9.322417391770621"><ele>160.0</ele><time>2026-04-26T11:23:27Z</time></trkpt><trkpt lat="38.8242251991067" lon="-9.322344021946007"><ele>160.0</ele><time>2026-04-26T11:23:28Z</time></trkpt><trkpt lat="38.82411769985041" lon="-9.322270361017269"><ele>160.25</ele><time>2026-04-26T11:23:29Z</time></trkpt><trkpt lat="38.824017191988794" lon="-9.3221980441049"><ele>160.5</ele><time>2026-04-26T11:23:30Z</time></trkpt><trkpt lat="38.823916593106446" lon="-9.322134734204653"><ele>160.75</ele><time>2026-04-26T11:23:31Z</time></trkpt><trkpt lat="38.823811369797056" lon="-9.322066831765643"><ele>161.0</ele><time>2026-04-26T11:23:32Z</time></trkpt><trkpt lat="38.82370187009797" lon="-9.3220020780071"><ele>161.0</ele><time>2026-04-26T11:23:33Z</time></trkpt><trkpt lat="38.82358704148188" lon="-9.321925765137363"><ele>161.0</ele><time>2026-04-26T11:23:34Z</time></trkpt><trkpt lat="38.82347266043593" lon="-9.321851008419609"><ele>161.0</ele><time>2026-04-26T11:23:35Z</time></trkpt><trkpt lat="38.82335351939413" lon="-9.321784401139778"><ele>161.0</ele><time>2026-04-26T11:23:36Z</time></trkpt><trkpt lat="38.823232915145574" lon="-9.321727809961024"><ele>160.75</ele><time>2026-04-26T11:23:37Z</time></trkpt><trkpt lat="38.823119013638504" lon="-9.32168994466758"><ele>160.5</ele><time>2026-04-26T11:23:38Z</time></trkpt><trkpt lat="38.822993665619045" lon="-9.321664370484948"><ele>160.25</ele><time>2026-04-26T11:23:39Z</time></trkpt><trkpt lat="38.82286483295559" lon="-9.321636706217207"><ele>160.0</ele><time>2026-04-26T11:23:40Z</time></trkpt><trkpt lat="38.822733624075326" lon="-9.321602509680154"><ele>159.0</ele><time>2026-04-26T11:23:41Z</time></trkpt><trkpt lat="38.82259663199232" lon="-9.321569047866229"><ele>158.0</ele><time>2026-04-26T11:23:42Z</time></trkpt><trkpt lat="38.82245863248188" lon="-9.321535758387911"><ele>157.0</ele><time>2026-04-26T11:23:43Z</time></trkpt><trkpt lat="38.822316950915216" lon="-9.321500032445181"><ele>156.0</ele><time>2026-04-26T11:23:44Z</time></trkpt><trkpt lat="38.822171461510344" lon="-9.321467902089092"><ele>156.0</ele><time>2026-04-26T11:23:45Z</time></trkpt><trkpt lat="38.822027873507736" lon="-9.321429520062521"><ele>156.0</ele><time>2026-04-26T11:23:46Z</time></trkpt><trkpt lat="38.82188861688397" lon="-9.321396076643037"><ele>156.0</ele><time>2026-04-26T11:23:47Z</time></trkpt><trkpt lat="38.82174938513559" lon="-9.32136218554001"><ele>156.0</ele><time>2026-04-26T11:23:48Z</time></trkpt><trkpt lat="38.8216097433439" lon="-9.321324331639246"><ele>155.5</ele><time>2026-04-26T11:23:49Z</time></trkpt><trkpt lat="38.821474153797084" lon="-9.321291356107679"><ele>155.0</ele><time>2026-04-26T11:23:50Z</time></trkpt><trkpt lat="38.8213501280268" lon="-9.321262755740355"><ele>154.5</ele><time>2026-04-26T11:23:51Z</time></trkpt><trkpt lat="38.82122852597055" lon="-9.321230127538676"><ele>154.0</ele><time>2026-04-26T11:23:52Z</time></trkpt><trkpt lat="38.8211171918917" lon="-9.321207088045943"><ele>154.0</ele><time>2026-04-26T11:23:53Z</time></trkpt><trkpt lat="38.82102633730935" lon="-9.321182627873057"><ele>154.0</ele><time>2026-04-26T11:23:54Z</time></trkpt><trkpt lat="38.8209561938826" lon="-9.321156856835447"><ele>154.0</ele><time>2026-04-26T11:23:55Z</time></trkpt><trkpt lat="38.820876228590386" lon="-9.321148875743237"><ele>154.0</ele><time>2026-04-26T11:23:57Z</time></trkpt><trkpt lat="38.82094366421038" lon="-9.320917927084563"><ele>154.0</ele><time>2026-04-26T11:23:59Z</time></trkpt><trkpt lat="38.82094887172742" lon="-9.320823179320248"><ele>154.0</ele><time>2026-04-26T11:24:00Z</time></trkpt><trkpt lat="38.82094493327003" lon="-9.320720976986271"><ele>154.0</ele><time>2026-04-26T11:24:01Z</time></trkpt><trkpt lat="38.82095343562355" lon="-9.320610254103492"><ele>154.0</ele><time>2026-04-26T11:24:02Z</time></trkpt><trkpt lat="38.820938373139015" lon="-9.320479653443957"><ele>154.0</ele><time>2026-04-26T11:24:03Z</time></trkpt><trkpt lat="38.82092403916689" lon="-9.32034474754778"><ele>154.0</ele><time>2026-04-26T11:24:03.999Z</time></trkpt><trkpt lat="38.82091097705626" lon="-9.32021140101166"><ele>153.6</ele><time>2026-04-26T11:24:04.999Z</time></trkpt><trkpt lat="38.82089413540005" lon="-9.320084952001224"><ele>153.2</ele><time>2026-04-26T11:24:05.999Z</time></trkpt><trkpt lat="38.82087993250412" lon="-9.319947878129343"><ele>152.79999999999998</ele><time>2026-04-26T11:24:06.999Z</time></trkpt><trkpt lat="38.82086594549499" lon="-9.319807283106211"><ele>152.4</ele><time>2026-04-26T11:24:07.999Z</time></trkpt><trkpt lat="38.82085454186508" lon="-9.319665788597375"><ele>152.0</ele><time>2026-04-26T11:24:08.999Z</time></trkpt><trkpt lat="38.82084225938307" lon="-9.319522670606283"><ele>152.0</ele><time>2026-04-26T11:24:09.999Z</time></trkpt><trkpt lat="38.82083077903878" lon="-9.319381391274952"><ele>152.0</ele><time>2026-04-26T11:24:10.999Z</time></trkpt><trkpt lat="38.820820761147424" lon="-9.31923055145296"><ele>152.0</ele><time>2026-04-26T11:24:11.999Z</time></trkpt><trkpt lat="38.820818517136736" lon="-9.319073788219109"><ele>152.0</ele><time>2026-04-26T11:24:12.999Z</time></trkpt><trkpt lat="38.82082793904799" lon="-9.318913990789396"><ele>152.25</ele><time>2026-04-26T11:24:13.999Z</time></trkpt><trkpt lat="38.82083582764647" lon="-9.318760972827091"><ele>152.5</ele><time>2026-04-26T11:24:14.999Z</time></trkpt><trkpt lat="38.82084661917425" lon="-9.318601622476164"><ele>152.75</ele><time>2026-04-26T11:24:15.999Z</time></trkpt><trkpt lat="38.82085419006847" lon="-9.318437621408526"><ele>153.0</ele><time>2026-04-26T11:24:16.999Z</time></trkpt><trkpt lat="38.820865838109164" lon="-9.318272064710087"><ele>153.0</ele><time>2026-04-26T11:24:17.999Z</time></trkpt><trkpt lat="38.82088333486572" lon="-9.318109808427362"><ele>153.0</ele><time>2026-04-26T11:24:18.999Z</time></trkpt><trkpt lat="38.820894112027396" lon="-9.317938774195376"><ele>153.0</ele><time>2026-04-26T11:24:19.999Z</time></trkpt><trkpt lat="38.82091029522307" lon="-9.317766628596026"><ele>153.0</ele><time>2026-04-26T11:24:20.999Z</time></trkpt><trkpt lat="38.82092104192311" lon="-9.317592834743618"><ele>153.0</ele><time>2026-04-26T11:24:21.999Z</time></trkpt><trkpt lat="38.82093190010149" lon="-9.317419488651153"><ele>153.0</ele><time>2026-04-26T11:24:22.999Z</time></trkpt><trkpt lat="38.820944813136954" lon="-9.317246507211456"><ele>153.0</ele><time>2026-04-26T11:24:23.999Z</time></trkpt><trkpt lat="38.82096069967389" lon="-9.317074087593685"><ele>153.0</ele><time>2026-04-26T11:24:24.999Z</time></trkpt><trkpt lat="38.82097525123045" lon="-9.316899162588037"><ele>153.0</ele><time>2026-04-26T11:24:25.999Z</time></trkpt><trkpt lat="38.82099315426312" lon="-9.316728464058652"><ele>153.0</ele><time>2026-04-26T11:24:26.999Z</time></trkpt><trkpt lat="38.82100958244219" lon="-9.316563872628963"><ele>153.0</ele><time>2026-04-26T11:24:27.999Z</time></trkpt><trkpt lat="38.821031683397074" lon="-9.3163969319793"><ele>153.0</ele><time>2026-04-26T11:24:28.999Z</time></trkpt><trkpt lat="38.821060205244216" lon="-9.316223863372455"><ele>152.75</ele><time>2026-04-26T11:24:29.999Z</time></trkpt><trkpt lat="38.82110036377353" lon="-9.31605036312115"><ele>152.5</ele><time>2026-04-26T11:24:30.999Z</time></trkpt><trkpt lat="38.82113651916916" lon="-9.315882453493527"><ele>152.25</ele><time>2026-04-26T11:24:31.999Z</time></trkpt><trkpt lat="38.82118320691439" lon="-9.315717455937952"><ele>152.0</ele><time>2026-04-26T11:24:32.999Z</time></trkpt><trkpt lat="38.82124503211034" lon="-9.315570476223094"><ele>153.5</ele><time>2026-04-26T11:24:33.999Z</time></trkpt><trkpt lat="38.82131305464868" lon="-9.315423782668283"><ele>155.0</ele><time>2026-04-26T11:24:34.999Z</time></trkpt><trkpt lat="38.82139673378617" lon="-9.31528965537804"><ele>156.5</ele><time>2026-04-26T11:24:35.999Z</time></trkpt><trkpt lat="38.82148129049239" lon="-9.315155749138532"><ele>158.0</ele><time>2026-04-26T11:24:36.999Z</time></trkpt><trkpt lat="38.82156698908993" lon="-9.315019420898809"><ele>158.0</ele><time>2026-04-26T11:24:37.999Z</time></trkpt><trkpt lat="38.82166135271243" lon="-9.314890796642441"><ele>158.0</ele><time>2026-04-26T11:24:38.999Z</time></trkpt><trkpt lat="38.821759428124246" lon="-9.31476333258248"><ele>158.0</ele><time>2026-04-26T11:24:40Z</time></trkpt><trkpt lat="38.82186568100921" lon="-9.314636283607934"><ele>158.0</ele><time>2026-04-26T11:24:41Z</time></trkpt><trkpt lat="38.82196827108385" lon="-9.314503104930113"><ele>158.60000000000002</ele><time>2026-04-26T11:24:42Z</time></trkpt><trkpt lat="38.8220558361236" lon="-9.314390885120224"><ele>159.20000000000002</ele><time>2026-04-26T11:24:43Z</time></trkpt><trkpt lat="38.82212984418513" lon="-9.314292318144085"><ele>159.8</ele><time>2026-04-26T11:24:44Z</time></trkpt><trkpt lat="38.82219320650845" lon="-9.314203230317144"><ele>160.4</ele><time>2026-04-26T11:24:45Z</time></trkpt><trkpt lat="38.82224899727024" lon="-9.314122690603355"><ele>161.0</ele><time>2026-04-26T11:24:46Z</time></trkpt><trkpt lat="38.82229905007197" lon="-9.314059256883409"><ele>161.0</ele><time>2026-04-26T11:24:47Z</time></trkpt><trkpt lat="38.82234845289929" lon="-9.314001901713414"><ele>161.0</ele><time>2026-04-26T11:24:48Z</time></trkpt><trkpt lat="38.822248380753194" lon="-9.313613349181654"><ele>161.0</ele><time>2026-04-26T11:24:52Z</time></trkpt><trkpt lat="38.82212464289207" lon="-9.313613109791977"><ele>160.60000000000002</ele><time>2026-04-26T11:24:53Z</time></trkpt><trkpt lat="38.822033085936894" lon="-9.313679563193334"><ele>160.20000000000002</ele><time>2026-04-26T11:24:54Z</time></trkpt><trkpt lat="38.82194853517652" lon="-9.313673961124312"><ele>159.8</ele><time>2026-04-26T11:24:55Z</time></trkpt><trkpt lat="38.82186025475919" lon="-9.313666724986529"><ele>159.4</ele><time>2026-04-26T11:24:56Z</time></trkpt><trkpt lat="38.82176148878367" lon="-9.313654960863477"><ele>159.0</ele><time>2026-04-26T11:24:57Z</time></trkpt><trkpt lat="38.82167105428779" lon="-9.31364418911253"><ele>159.0</ele><time>2026-04-26T11:24:58Z</time></trkpt><trkpt lat="38.821580777278484" lon="-9.313633436123457"><ele>159.0</ele><time>2026-04-26T11:24:59Z</time></trkpt><trkpt lat="38.82148174589082" lon="-9.31362157931925"><ele>159.0</ele><time>2026-04-26T11:25:00Z</time></trkpt><trkpt lat="38.82137940754441" lon="-9.31360929629776"><ele>159.0</ele><time>2026-04-26T11:25:01Z</time></trkpt><trkpt lat="38.82128347196973" lon="-9.313597781929502"><ele>159.0</ele><time>2026-04-26T11:25:02Z</time></trkpt><trkpt lat="38.821194454183306" lon="-9.313587097846769"><ele>159.0</ele><time>2026-04-26T11:25:03Z</time></trkpt><trkpt lat="38.821103588483325" lon="-9.313699661836697"><ele>159.0</ele><time>2026-04-26T11:25:04Z</time></trkpt><trkpt lat="38.82101054585869" lon="-9.313694683407428"><ele>159.0</ele><time>2026-04-26T11:25:05Z</time></trkpt><trkpt lat="38.82092453834472" lon="-9.313682054781165"><ele>159.0</ele><time>2026-04-26T11:25:06Z</time></trkpt><trkpt lat="38.8208410719197" lon="-9.313686537207277"><ele>159.0</ele><time>2026-04-26T11:25:07Z</time></trkpt><trkpt lat="38.82076183671586" lon="-9.313689985253124"><ele>158.0</ele><time>2026-04-26T11:25:08Z</time></trkpt><trkpt lat="38.82068824517935" lon="-9.313702771936255"><ele>157.0</ele><time>2026-04-26T11:25:09Z</time></trkpt><trkpt lat="38.82062150227513" lon="-9.31371429730356"><ele>156.0</ele><time>2026-04-26T11:25:10Z</time></trkpt><trkpt lat="38.82053121326337" lon="-9.31379198049073"><ele>155.0</ele><time>2026-04-26T11:25:12Z</time></trkpt><trkpt lat="38.820513320866425" lon="-9.31389388884323"><ele>154.0</ele><time>2026-04-26T11:25:13Z</time></trkpt><trkpt lat="38.8205230924594" lon="-9.314018853782967"><ele>153.0</ele><time>2026-04-26T11:25:14Z</time></trkpt><trkpt lat="38.82050117719171" lon="-9.314139119924112"><ele>153.0</ele><time>2026-04-26T11:25:15Z</time></trkpt><trkpt lat="38.82045952783558" lon="-9.314234626356512"><ele>153.0</ele><time>2026-04-26T11:25:16Z</time></trkpt><trkpt lat="38.820401258359254" lon="-9.31430641887613"><ele>153.0</ele><time>2026-04-26T11:25:17Z</time></trkpt><trkpt lat="38.820325832709024" lon="-9.314337732340068"><ele>153.0</ele><time>2026-04-26T11:25:18Z</time></trkpt><trkpt lat="38.8202375796276" lon="-9.314340908807733"><ele>153.0</ele><time>2026-04-26T11:25:19Z</time></trkpt><trkpt lat="38.820147594989585" lon="-9.31432410652541"><ele>153.0</ele><time>2026-04-26T11:25:20Z</time></trkpt><trkpt lat="38.82005050368206" lon="-9.314301942809406"><ele>152.20000000000002</ele><time>2026-04-26T11:25:21Z</time></trkpt><trkpt lat="38.8199481573411" lon="-9.314274592038588"><ele>151.4</ele><time>2026-04-26T11:25:22Z</time></trkpt><trkpt lat="38.819842002371054" lon="-9.314248910440545"><ele>150.60000000000002</ele><time>2026-04-26T11:25:23Z</time></trkpt><trkpt lat="38.81974117725129" lon="-9.314229645124806"><ele>149.8</ele><time>2026-04-26T11:25:24Z</time></trkpt><trkpt lat="38.81965189007992" lon="-9.314200723804847"><ele>149.0</ele><time>2026-04-26T11:25:25Z</time></trkpt><trkpt lat="38.81957673350211" lon="-9.314185761013968"><ele>149.0</ele><time>2026-04-26T11:25:26Z</time></trkpt><trkpt lat="38.819510606790516" lon="-9.314180428985617"><ele>149.0</ele><time>2026-04-26T11:25:27Z</time></trkpt><trkpt lat="38.81943356149464" lon="-9.314190073485202"><ele>149.0</ele><time>2026-04-26T11:25:29Z</time></trkpt><trkpt lat="38.819440206074816" lon="-9.314082869596415"><ele>149.0</ele><time>2026-04-26T11:25:31Z</time></trkpt><trkpt lat="38.819481407172496" lon="-9.31395125704103"><ele>149.0</ele><time>2026-04-26T11:25:33Z</time></trkpt><trkpt lat="38.819425790336275" lon="-9.313896588650183"><ele>149.0</ele><time>2026-04-26T11:25:35Z</time></trkpt><trkpt lat="38.819350497265475" lon="-9.313883809199107"><ele>149.42857142857142</ele><time>2026-04-26T11:25:36Z</time></trkpt><trkpt lat="38.819284963852795" lon="-9.313868886122012"><ele>149.85714285714283</ele><time>2026-04-26T11:25:37Z</time></trkpt><trkpt lat="38.8192187143707" lon="-9.313860310904353"><ele>150.28571428571428</ele><time>2026-04-26T11:25:38Z</time></trkpt><trkpt lat="38.81914356342641" lon="-9.313852984638796"><ele>150.71428571428572</ele><time>2026-04-26T11:25:39Z</time></trkpt><trkpt lat="38.81907517623319" lon="-9.313854940579677"><ele>151.14285714285717</ele><time>2026-04-26T11:25:40Z</time></trkpt><trkpt lat="38.81899567343033" lon="-9.3138377919337"><ele>151.57142857142856</ele><time>2026-04-26T11:25:41Z</time></trkpt><trkpt lat="38.81891105393454" lon="-9.31381036462062"><ele>152.0</ele><time>2026-04-26T11:25:42Z</time></trkpt><trkpt lat="38.81882351233836" lon="-9.313789431616431"><ele>152.0</ele><time>2026-04-26T11:25:43Z</time></trkpt><trkpt lat="38.818744403103494" lon="-9.31374930113296"><ele>152.0</ele><time>2026-04-26T11:25:44Z</time></trkpt><trkpt lat="38.81867336391177" lon="-9.313694003548047"><ele>152.0</ele><time>2026-04-26T11:25:45Z</time></trkpt><trkpt lat="38.81861067733067" lon="-9.313622187514175"><ele>152.0</ele><time>2026-04-26T11:25:46Z</time></trkpt><trkpt lat="38.81852927654704" lon="-9.313542532360708"><ele>152.0</ele><time>2026-04-26T11:25:48Z</time></trkpt><trkpt lat="38.8184360107856" lon="-9.313455825284324"><ele>154.0</ele><time>2026-04-26T11:25:50Z</time></trkpt><trkpt lat="38.81837898631962" lon="-9.313412757428225"><ele>156.0</ele><time>2026-04-26T11:25:51Z</time></trkpt><trkpt lat="38.81829068966844" lon="-9.313378926471273"><ele>158.0</ele><time>2026-04-26T11:25:53Z</time></trkpt><trkpt lat="38.81817187990873" lon="-9.313325852799734"><ele>160.0</ele><time>2026-04-26T11:25:55Z</time></trkpt><trkpt lat="38.81811291268886" lon="-9.313237740463649"><ele>162.0</ele><time>2026-04-26T11:25:57Z</time></trkpt><trkpt lat="38.81809540402271" lon="-9.313110686513328"><ele>161.83333333333334</ele><time>2026-04-26T11:26:00Z</time></trkpt><trkpt lat="38.818046324612304" lon="-9.313028991368856"><ele>161.66666666666666</ele><time>2026-04-26T11:26:01.999Z</time></trkpt><trkpt lat="38.81801514695559" lon="-9.312906010147893"><ele>161.5</ele><time>2026-04-26T11:26:03.999Z</time></trkpt><trkpt lat="38.81796007756205" lon="-9.312831603761307"><ele>161.33333333333331</ele><time>2026-04-26T11:26:05.999Z</time></trkpt><trkpt lat="38.817917790338974" lon="-9.312721327372707"><ele>161.16666666666666</ele><time>2026-04-26T11:26:07.999Z</time></trkpt><trkpt lat="38.81793933326516" lon="-9.312619095544765"><ele>161.0</ele><time>2026-04-26T11:26:09.999Z</time></trkpt><trkpt lat="38.81795371858058" lon="-9.312511931824595"><ele>161.0</ele><time>2026-04-26T11:26:11.999Z</time></trkpt><trkpt lat="38.81789907064828" lon="-9.312375722584934"><ele>161.0</ele><time>2026-04-26T11:26:13.999Z</time></trkpt><trkpt lat="38.81782718606484" lon="-9.312298275714824"><ele>161.0</ele><time>2026-04-26T11:26:15.999Z</time></trkpt><trkpt lat="38.81776234692578" lon="-9.312257302843076"><ele>161.0</ele><time>2026-04-26T11:26:17.999Z</time></trkpt><trkpt lat="38.81769696175086" lon="-9.312243966546578"><ele>161.0</ele><time>2026-04-26T11:26:20.999Z</time></trkpt><trkpt lat="38.817639916402186" lon="-9.312167294009631"><ele>161.0</ele><time>2026-04-26T11:26:24.999Z</time></trkpt><trkpt lat="38.81759154873907" lon="-9.312073724294525"><ele>161.83333333333331</ele><time>2026-04-26T11:26:27.999Z</time></trkpt><trkpt lat="38.817507255733965" lon="-9.31200313609368"><ele>162.66666666666666</ele><time>2026-04-26T11:26:29.999Z</time></trkpt><trkpt lat="38.81742770398279" lon="-9.312011490689425"><ele>163.5</ele><time>2026-04-26T11:26:31.999Z</time></trkpt><trkpt lat="38.81734666953579" lon="-9.312061704434564"><ele>164.33333333333334</ele><time>2026-04-26T11:26:33.999Z</time></trkpt><trkpt lat="38.81728080684111" lon="-9.312076217321707"><ele>165.16666666666669</ele><time>2026-04-26T11:26:35.999Z</time></trkpt><trkpt lat="38.81720142914287" lon="-9.312066986884977"><ele>166.0</ele><time>2026-04-26T11:26:37.999Z</time></trkpt><trkpt lat="38.817106514583145" lon="-9.312067639657558"><ele>166.0</ele><time>2026-04-26T11:26:39.999Z</time></trkpt><trkpt lat="38.81699326335284" lon="-9.31203318226533"><ele>166.0</ele><time>2026-04-26T11:26:41.999Z</time></trkpt><trkpt lat="38.81689295365874" lon="-9.312007681794164"><ele>166.0</ele><time>2026-04-26T11:26:43.999Z</time></trkpt><trkpt lat="38.81680549305587" lon="-9.311946113102577"><ele>166.0</ele><time>2026-04-26T11:26:46Z</time></trkpt><trkpt lat="38.81667921687479" lon="-9.311923685395389"><ele>166.0</ele><time>2026-04-26T11:26:48Z</time></trkpt><trkpt lat="38.81656973597931" lon="-9.31195198126286"><ele>166.83333333333334</ele><time>2026-04-26T11:26:50Z</time></trkpt><trkpt lat="38.816464083097394" lon="-9.31199162772375"><ele>167.66666666666669</ele><time>2026-04-26T11:26:52Z</time></trkpt><trkpt lat="38.8163708389234" lon="-9.311977174240567"><ele>168.5</ele><time>2026-04-26T11:26:54Z</time></trkpt><trkpt lat="38.816277879959614" lon="-9.312022923086156"><ele>169.33333333333334</ele><time>2026-04-26T11:26:56Z</time></trkpt><trkpt lat="38.816219090140834" lon="-9.312075214068791"><ele>170.16666666666666</ele><time>2026-04-26T11:26:57Z</time></trkpt><trkpt lat="38.81615497655901" lon="-9.312110254918775"><ele>171.0</ele><time>2026-04-26T11:26:58Z</time></trkpt><trkpt lat="38.81604796532324" lon="-9.312102181070417"><ele>171.8</ele><time>2026-04-26T11:27:00Z</time></trkpt><trkpt lat="38.81593292430449" lon="-9.312056946923503"><ele>172.60000000000002</ele><time>2026-04-26T11:27:02Z</time></trkpt><trkpt lat="38.815827527225906" lon="-9.312034355634212"><ele>173.4</ele><time>2026-04-26T11:27:04Z</time></trkpt><trkpt lat="38.815756648445536" lon="-9.311958198532245"><ele>174.2</ele><time>2026-04-26T11:27:06Z</time></trkpt><trkpt lat="38.815682459976955" lon="-9.311904289868252"><ele>175.0</ele><time>2026-04-26T11:27:08Z</time></trkpt><trkpt lat="38.815592066551844" lon="-9.311847707082194"><ele>175.0</ele><time>2026-04-26T11:27:10Z</time></trkpt><trkpt lat="38.815529853057384" lon="-9.311833260698489"><ele>175.0</ele><time>2026-04-26T11:27:11Z</time></trkpt><trkpt lat="38.81543242880875" lon="-9.311770957334353"><ele>175.0</ele><time>2026-04-26T11:27:13Z</time></trkpt><trkpt lat="38.81537134879103" lon="-9.311723394747414"><ele>175.0</ele><time>2026-04-26T11:27:16Z</time></trkpt><trkpt lat="38.81542850787714" lon="-9.3116426939488"><ele>175.0</ele><time>2026-04-26T11:27:18Z</time></trkpt><trkpt lat="38.815508341834196" lon="-9.311522381095644"><ele>175.0</ele><time>2026-04-26T11:27:20Z</time></trkpt><trkpt lat="38.81552244958114" lon="-9.311413065378177"><ele>175.0</ele><time>2026-04-26T11:27:22Z</time></trkpt><trkpt lat="38.815453906613996" lon="-9.311349275745044"><ele>175.0</ele><time>2026-04-26T11:27:24Z</time></trkpt><trkpt lat="38.815372135460144" lon="-9.311296416544538"><ele>175.0</ele><time>2026-04-26T11:27:26Z</time></trkpt><trkpt lat="38.81535512012451" lon="-9.311193969836095"><ele>175.0</ele><time>2026-04-26T11:27:28Z</time></trkpt><trkpt lat="38.815401492337394" lon="-9.311066205526055"><ele>173.4</ele><time>2026-04-26T11:27:30Z</time></trkpt><trkpt lat="38.81546781352967" lon="-9.310947980986148"><ele>171.8</ele><time>2026-04-26T11:27:32Z</time></trkpt><trkpt lat="38.815541674786225" lon="-9.310870432643908"><ele>170.2</ele><time>2026-04-26T11:27:34Z</time></trkpt><trkpt lat="38.81563581718264" lon="-9.310803176001471"><ele>168.6</ele><time>2026-04-26T11:27:36Z</time></trkpt><trkpt lat="38.8157126147363" lon="-9.310699833830745"><ele>167.0</ele><time>2026-04-26T11:27:38Z</time></trkpt><trkpt lat="38.815744125166425" lon="-9.310588795506657"><ele>168.0</ele><time>2026-04-26T11:27:40Z</time></trkpt><trkpt lat="38.81575385247658" lon="-9.31047626272869"><ele>169.0</ele><time>2026-04-26T11:27:42Z</time></trkpt><trkpt lat="38.81571759373954" lon="-9.310351453006758"><ele>170.0</ele><time>2026-04-26T11:27:44Z</time></trkpt><trkpt lat="38.81565368056567" lon="-9.310228793256679"><ele>171.0</ele><time>2026-04-26T11:27:46Z</time></trkpt><trkpt lat="38.81558024736332" lon="-9.310109300345667"><ele>172.0</ele><time>2026-04-26T11:27:48Z</time></trkpt><trkpt lat="38.815532433864774" lon="-9.30999900321387"><ele>172.0</ele><time>2026-04-26T11:27:50Z</time></trkpt><trkpt lat="38.81551302055379" lon="-9.309872914489612"><ele>172.0</ele><time>2026-04-26T11:27:52Z</time></trkpt><trkpt lat="38.815488279311346" lon="-9.309772303133249"><ele>172.0</ele><time>2026-04-26T11:27:54Z</time></trkpt><trkpt lat="38.81543089758891" lon="-9.309681859645229"><ele>172.0</ele><time>2026-04-26T11:27:56Z</time></trkpt><trkpt lat="38.81545219734551" lon="-9.309597888687618"><ele>172.0</ele><time>2026-04-26T11:27:57Z</time></trkpt><trkpt lat="38.815474649208916" lon="-9.30945911795538"><ele>172.6</ele><time>2026-04-26T11:27:59Z</time></trkpt><trkpt lat="38.815469177032995" lon="-9.309310963242186"><ele>173.2</ele><time>2026-04-26T11:28:01Z</time></trkpt><trkpt lat="38.8154019665619" lon="-9.30917812177828"><ele>173.8</ele><time>2026-04-26T11:28:03Z</time></trkpt><trkpt lat="38.815323699709054" lon="-9.309055542870468"><ele>174.4</ele><time>2026-04-26T11:28:04.999Z</time></trkpt><trkpt lat="38.8152739790135" lon="-9.308997473137255"><ele>175.0</ele><time>2026-04-26T11:28:05.999Z</time></trkpt><trkpt lat="38.815227795586615" lon="-9.308927349109991"><ele>176.33333333333334</ele><time>2026-04-26T11:28:06.999Z</time></trkpt><trkpt lat="38.81513949201164" lon="-9.308817387404364"><ele>177.66666666666669</ele><time>2026-04-26T11:28:08.999Z</time></trkpt><trkpt lat="38.81506269455152" lon="-9.30881510446548"><ele>179.0</ele><time>2026-04-26T11:28:09.999Z</time></trkpt><trkpt lat="38.81500228246019" lon="-9.308837843817782"><ele>180.33333333333334</ele><time>2026-04-26T11:28:10.999Z</time></trkpt><trkpt lat="38.81492533109773" lon="-9.308865850107349"><ele>181.66666666666666</ele><time>2026-04-26T11:28:11.999Z</time></trkpt><trkpt lat="38.81484990799652" lon="-9.308833030664774"><ele>183.0</ele><time>2026-04-26T11:28:12.999Z</time></trkpt><trkpt lat="38.81475799919366" lon="-9.308835705458268"><ele>183.0</ele><time>2026-04-26T11:28:13.999Z</time></trkpt><trkpt lat="38.814666399340474" lon="-9.308867113089093"><ele>183.0</ele><time>2026-04-26T11:28:14.999Z</time></trkpt><trkpt lat="38.81456391662474" lon="-9.308828010841212"><ele>183.0</ele><time>2026-04-26T11:28:15.999Z</time></trkpt><trkpt lat="38.81447840223857" lon="-9.308804421926773"><ele>183.0</ele><time>2026-04-26T11:28:16.999Z</time></trkpt><trkpt lat="38.814393637777385" lon="-9.308819771785073"><ele>183.0</ele><time>2026-04-26T11:28:17.999Z</time></trkpt><trkpt lat="38.81429338514238" lon="-9.308865038993353"><ele>183.75</ele><time>2026-04-26T11:28:18.999Z</time></trkpt><trkpt lat="38.81418605727618" lon="-9.308882346015062"><ele>184.5</ele><time>2026-04-26T11:28:19.999Z</time></trkpt><trkpt lat="38.81407257683676" lon="-9.308870036653902"><ele>185.25</ele><time>2026-04-26T11:28:20.999Z</time></trkpt><trkpt lat="38.813956048354655" lon="-9.308859263986973"><ele>186.0</ele><time>2026-04-26T11:28:21.999Z</time></trkpt><trkpt lat="38.81383995258283" lon="-9.308824447720895"><ele>186.0</ele><time>2026-04-26T11:28:22.999Z</time></trkpt><trkpt lat="38.81373057233565" lon="-9.30878693132464"><ele>186.0</ele><time>2026-04-26T11:28:23.999Z</time></trkpt><trkpt lat="38.81361758469523" lon="-9.30874549550327"><ele>186.0</ele><time>2026-04-26T11:28:24.999Z</time></trkpt><trkpt lat="38.81350601807644" lon="-9.308724419555539"><ele>186.0</ele><time>2026-04-26T11:28:25.999Z</time></trkpt><trkpt lat="38.813388746200346" lon="-9.30868141961548"><ele>186.0</ele><time>2026-04-26T11:28:26.999Z</time></trkpt><trkpt lat="38.81327117309878" lon="-9.308634579673557"><ele>186.0</ele><time>2026-04-26T11:28:27.999Z</time></trkpt><trkpt lat="38.813156186396505" lon="-9.308586572962326"><ele>186.0</ele><time>2026-04-26T11:28:28.999Z</time></trkpt><trkpt lat="38.81304007322873" lon="-9.308539441399285"><ele>186.0</ele><time>2026-04-26T11:28:29.999Z</time></trkpt><trkpt lat="38.81292336347927" lon="-9.308505483235587"><ele>186.0</ele><time>2026-04-26T11:28:30.999Z</time></trkpt><trkpt lat="38.81281432033802" lon="-9.308499359186861"><ele>186.0</ele><time>2026-04-26T11:28:31.999Z</time></trkpt><trkpt lat="38.8126912150414" lon="-9.30850602208863"><ele>186.0</ele><time>2026-04-26T11:28:32.999Z</time></trkpt><trkpt lat="38.812561431914844" lon="-9.308510275588958"><ele>186.0</ele><time>2026-04-26T11:28:33.999Z</time></trkpt><trkpt lat="38.812428898898965" lon="-9.30849487258064"><ele>186.75</ele><time>2026-04-26T11:28:34.999Z</time></trkpt><trkpt lat="38.81231302833807" lon="-9.308458352601962"><ele>187.5</ele><time>2026-04-26T11:28:35.999Z</time></trkpt><trkpt lat="38.8121986049518" lon="-9.308429958082646"><ele>188.25</ele><time>2026-04-26T11:28:36.999Z</time></trkpt><trkpt lat="38.812087257030576" lon="-9.308399186112585"><ele>189.0</ele><time>2026-04-26T11:28:37.999Z</time></trkpt><trkpt lat="38.811982092980585" lon="-9.308361991011061"><ele>189.0</ele><time>2026-04-26T11:28:38.999Z</time></trkpt><trkpt lat="38.811878935840745" lon="-9.308312362413577"><ele>189.0</ele><time>2026-04-26T11:28:39.999Z</time></trkpt><trkpt lat="38.8117893497965" lon="-9.30823378887286"><ele>189.0</ele><time>2026-04-26T11:28:40.999Z</time></trkpt><trkpt lat="38.81171313509537" lon="-9.308165786184848"><ele>189.0</ele><time>2026-04-26T11:28:41.999Z</time></trkpt><trkpt lat="38.811624183217546" lon="-9.308098107920976"><ele>189.0</ele><time>2026-04-26T11:28:42.999Z</time></trkpt><trkpt lat="38.811553079587604" lon="-9.3080138499057"><ele>188.79999999999998</ele><time>2026-04-26T11:28:43.999Z</time></trkpt><trkpt lat="38.81150647779765" lon="-9.307903448040468"><ele>188.6</ele><time>2026-04-26T11:28:44.999Z</time></trkpt><trkpt lat="38.81149753556357" lon="-9.30775970621342"><ele>188.4</ele><time>2026-04-26T11:28:45.999Z</time></trkpt><trkpt lat="38.811485939453185" lon="-9.307628404852437"><ele>188.2</ele><time>2026-04-26T11:28:46.999Z</time></trkpt><trkpt lat="38.81149355148113" lon="-9.307467928534884"><ele>188.0</ele><time>2026-04-26T11:28:47.999Z</time></trkpt><trkpt lat="38.81152236505178" lon="-9.307290892061802"><ele>188.5</ele><time>2026-04-26T11:28:48.999Z</time></trkpt><trkpt lat="38.81153857765151" lon="-9.307112505160466"><ele>189.0</ele><time>2026-04-26T11:28:49.999Z</time></trkpt><trkpt lat="38.81155494791887" lon="-9.306920878191363"><ele>189.5</ele><time>2026-04-26T11:28:50.999Z</time></trkpt><trkpt lat="38.81156404665127" lon="-9.306723950768834"><ele>190.0</ele><time>2026-04-26T11:28:52Z</time></trkpt><trkpt lat="38.81157292140433" lon="-9.306528412215949"><ele>191.75</ele><time>2026-04-26T11:28:53Z</time></trkpt><trkpt lat="38.811576861452565" lon="-9.306338722685034"><ele>193.5</ele><time>2026-04-26T11:28:54Z</time></trkpt><trkpt lat="38.81158964708166" lon="-9.306155988673286"><ele>195.25</ele><time>2026-04-26T11:28:55Z</time></trkpt><trkpt lat="38.81159725095143" lon="-9.30597772458364"><ele>197.0</ele><time>2026-04-26T11:28:56Z</time></trkpt><trkpt lat="38.811603264575766" lon="-9.30581517357364"><ele>197.0</ele><time>2026-04-26T11:28:57Z</time></trkpt><trkpt lat="38.81161455596432" lon="-9.305653426687048"><ele>197.0</ele><time>2026-04-26T11:28:58Z</time></trkpt><trkpt lat="38.81162782883421" lon="-9.305490438452221"><ele>197.0</ele><time>2026-04-26T11:28:59Z</time></trkpt><trkpt lat="38.811642321638004" lon="-9.305329647052934"><ele>197.0</ele><time>2026-04-26T11:29:00Z</time></trkpt><trkpt lat="38.81165079686996" lon="-9.305172896744352"><ele>197.25</ele><time>2026-04-26T11:29:01Z</time></trkpt><trkpt lat="38.811648117958775" lon="-9.305015323953082"><ele>197.5</ele><time>2026-04-26T11:29:02Z</time></trkpt><trkpt lat="38.81164666781683" lon="-9.304860108920186"><ele>197.75</ele><time>2026-04-26T11:29:03Z</time></trkpt><trkpt lat="38.81165442047692" lon="-9.304704316820496"><ele>198.0</ele><time>2026-04-26T11:29:04Z</time></trkpt><trkpt lat="38.81166088314927" lon="-9.30455131744119"><ele>198.0</ele><time>2026-04-26T11:29:05Z</time></trkpt><trkpt lat="38.811670843831315" lon="-9.304403741771077"><ele>198.0</ele><time>2026-04-26T11:29:06Z</time></trkpt><trkpt lat="38.811687529768626" lon="-9.304259296234681"><ele>198.0</ele><time>2026-04-26T11:29:07Z</time></trkpt><trkpt lat="38.81171538561272" lon="-9.304105560111129"><ele>198.0</ele><time>2026-04-26T11:29:08Z</time></trkpt><trkpt lat="38.81174568185895" lon="-9.30395780848634"><ele>198.25</ele><time>2026-04-26T11:29:09Z</time></trkpt><trkpt lat="38.81178121033615" lon="-9.303811617912496"><ele>198.5</ele><time>2026-04-26T11:29:10Z</time></trkpt><trkpt lat="38.811817410722014" lon="-9.303675787118758"><ele>198.75</ele><time>2026-04-26T11:29:11Z</time></trkpt><trkpt lat="38.81184618554521" lon="-9.303532489675241"><ele>199.0</ele><time>2026-04-26T11:29:12Z</time></trkpt><trkpt lat="38.81186075321894" lon="-9.303389467509358"><ele>199.0</ele><time>2026-04-26T11:29:13Z</time></trkpt><trkpt lat="38.811856551263276" lon="-9.303249652304434"><ele>199.0</ele><time>2026-04-26T11:29:14Z</time></trkpt><trkpt lat="38.811807484109494" lon="-9.303126648083197"><ele>199.0</ele><time>2026-04-26T11:29:15Z</time></trkpt><trkpt lat="38.81176503791212" lon="-9.303022708390438"><ele>199.0</ele><time>2026-04-26T11:29:16Z</time></trkpt><trkpt lat="38.81169533898108" lon="-9.302955445995767"><ele>199.0</ele><time>2026-04-26T11:29:17Z</time></trkpt><trkpt lat="38.811611782234124" lon="-9.302928360230494"><ele>199.25</ele><time>2026-04-26T11:29:18Z</time></trkpt><trkpt lat="38.81149818448413" lon="-9.3029338711154"><ele>199.5</ele><time>2026-04-26T11:29:19Z</time></trkpt><trkpt lat="38.811375382227865" lon="-9.302964594437455"><ele>199.75</ele><time>2026-04-26T11:29:20Z</time></trkpt><trkpt lat="38.81124932662897" lon="-9.30300412505103"><ele>200.0</ele><time>2026-04-26T11:29:21Z</time></trkpt><trkpt lat="38.81112917984651" lon="-9.303052582848863"><ele>199.75</ele><time>2026-04-26T11:29:22Z</time></trkpt><trkpt lat="38.81099756717117" lon="-9.30308864493866"><ele>199.5</ele><time>2026-04-26T11:29:23Z</time></trkpt><trkpt lat="38.81086802362496" lon="-9.30311063994375"><ele>199.25</ele><time>2026-04-26T11:29:24Z</time></trkpt><trkpt lat="38.810739048617776" lon="-9.30311319949272"><ele>199.0</ele><time>2026-04-26T11:29:25Z</time></trkpt><trkpt lat="38.810616818988365" lon="-9.303118112886336"><ele>198.79999999999998</ele><time>2026-04-26T11:29:26Z</time></trkpt><trkpt lat="38.81051004044239" lon="-9.303147623124115"><ele>198.6</ele><time>2026-04-26T11:29:27Z</time></trkpt><trkpt lat="38.810409481350895" lon="-9.303153441493595"><ele>198.4</ele><time>2026-04-26T11:29:28Z</time></trkpt><trkpt lat="38.810309227747034" lon="-9.303153464738504"><ele>198.2</ele><time>2026-04-26T11:29:29Z</time></trkpt><trkpt lat="38.810210781750136" lon="-9.303181651358031"><ele>198.0</ele><time>2026-04-26T11:29:30Z</time></trkpt><trkpt lat="38.81011826124939" lon="-9.30322125117388"><ele>197.2</ele><time>2026-04-26T11:29:31Z</time></trkpt><trkpt lat="38.810024090516315" lon="-9.30327928900465"><ele>196.4</ele><time>2026-04-26T11:29:32Z</time></trkpt><trkpt lat="38.80994620797185" lon="-9.303360875343829"><ele>195.6</ele><time>2026-04-26T11:29:33Z</time></trkpt><trkpt lat="38.80981132044553" lon="-9.30330679769734"><ele>194.79999999999998</ele><time>2026-04-26T11:29:34Z</time></trkpt><trkpt lat="38.80973935229263" lon="-9.303370452544174"><ele>194.0</ele><time>2026-04-26T11:29:35Z</time></trkpt><trkpt lat="38.80963205098932" lon="-9.303424527978994"><ele>194.0</ele><time>2026-04-26T11:29:37Z</time></trkpt><trkpt lat="38.809562410495296" lon="-9.303453188635498"><ele>194.0</ele><time>2026-04-26T11:29:38Z</time></trkpt><trkpt lat="38.80946010804918" lon="-9.303478771490475"><ele>194.0</ele><time>2026-04-26T11:29:40Z</time></trkpt><trkpt lat="38.809506357969866" lon="-9.303650641810192"><ele>194.0</ele><time>2026-04-26T11:29:54Z</time></trkpt><trkpt lat="38.8095886368206" lon="-9.303554189480755"><ele>194.0</ele><time>2026-04-26T11:30:06.999Z</time></trkpt><trkpt lat="38.8096979173623" lon="-9.303535515514403"><ele>194.0</ele><time>2026-04-26T11:30:07.999Z</time></trkpt><trkpt lat="38.80972905328879" lon="-9.303267683268494"><ele>194.0</ele><time>2026-04-26T11:30:08.999Z</time></trkpt><trkpt lat="38.80979590467394" lon="-9.303195996271146"><ele>194.0</ele><time>2026-04-26T11:30:09.999Z</time></trkpt><trkpt lat="38.80986436026892" lon="-9.303096533260613"><ele>194.0</ele><time>2026-04-26T11:30:10.999Z</time></trkpt><trkpt lat="38.80992218050062" lon="-9.302990232564841"><ele>193.75</ele><time>2026-04-26T11:30:11.999Z</time></trkpt><trkpt lat="38.80996777333508" lon="-9.302896152837917"><ele>193.5</ele><time>2026-04-26T11:30:12.999Z</time></trkpt><trkpt lat="38.81001961984925" lon="-9.302814800782565"><ele>193.25</ele><time>2026-04-26T11:30:13.999Z</time></trkpt><trkpt lat="38.810072972760786" lon="-9.30274344947006"><ele>193.0</ele><time>2026-04-26T11:30:14.999Z</time></trkpt><trkpt lat="38.810645533971716" lon="-9.30310499841933"><ele>194.66666666666666</ele><time>2026-04-26T11:30:15.999Z</time></trkpt><trkpt lat="38.81079243506961" lon="-9.303090672868882"><ele>196.33333333333331</ele><time>2026-04-26T11:30:16.999Z</time></trkpt><trkpt lat="38.810944466192716" lon="-9.303077771007514"><ele>198.0</ele><time>2026-04-26T11:30:17.999Z</time></trkpt><trkpt lat="38.811098315078276" lon="-9.30305722641312"><ele>198.4</ele><time>2026-04-26T11:30:18.999Z</time></trkpt><trkpt lat="38.811237139281886" lon="-9.303038239458335"><ele>198.8</ele><time>2026-04-26T11:30:19.999Z</time></trkpt><trkpt lat="38.81135061930676" lon="-9.303008739064873"><ele>199.2</ele><time>2026-04-26T11:30:20.999Z</time></trkpt><trkpt lat="38.811446142504856" lon="-9.3029774985387"><ele>199.6</ele><time>2026-04-26T11:30:21.999Z</time></trkpt><trkpt lat="38.81153024130457" lon="-9.30295657044826"><ele>200.0</ele><time>2026-04-26T11:30:22.999Z</time></trkpt><trkpt lat="38.81160339960478" lon="-9.302945503037352"><ele>200.00000000000003</ele><time>2026-04-26T11:30:23.999Z</time></trkpt><trkpt lat="38.81166537572671" lon="-9.302930659959454"><ele>200.0</ele><time>2026-04-26T11:30:24.999Z</time></trkpt><trkpt lat="38.81175640872891" lon="-9.30296944139689"><ele>200.0</ele><time>2026-04-26T11:30:26.999Z</time></trkpt><trkpt lat="38.81177823663169" lon="-9.303049940931496"><ele>200.0</ele><time>2026-04-26T11:30:28.999Z</time></trkpt><trkpt lat="38.81179733432193" lon="-9.30315741292289"><ele>200.00000000000003</ele><time>2026-04-26T11:40:12Z</time></trkpt><trkpt lat="38.811846519574" lon="-9.303304228355698"><ele>200.0</ele><time>2026-04-26T11:40:14Z</time></trkpt><trkpt lat="38.81186600000174" lon="-9.303398524402342"><ele>199.8</ele><time>2026-04-26T11:40:15Z</time></trkpt><trkpt lat="38.811865295469055" lon="-9.303506808426977"><ele>199.6</ele><time>2026-04-26T11:40:16Z</time></trkpt><trkpt lat="38.81183635894933" lon="-9.303642992601981"><ele>199.39999999999998</ele><time>2026-04-26T11:40:17Z</time></trkpt><trkpt lat="38.811806289506286" lon="-9.303797149729563"><ele>199.2</ele><time>2026-04-26T11:40:18Z</time></trkpt><trkpt lat="38.811780947841996" lon="-9.30394017973566"><ele>199.0</ele><time>2026-04-26T11:40:19Z</time></trkpt><trkpt lat="38.81175051183531" lon="-9.30409288225782"><ele>198.75</ele><time>2026-04-26T11:40:20Z</time></trkpt><trkpt lat="38.81171026173288" lon="-9.304253539797298"><ele>198.5</ele><time>2026-04-26T11:40:21Z</time></trkpt><trkpt lat="38.81168516659561" lon="-9.304407255254944"><ele>198.25</ele><time>2026-04-26T11:40:22Z</time></trkpt><trkpt lat="38.81166341286104" lon="-9.304566904219161"><ele>198.0</ele><time>2026-04-26T11:40:23Z</time></trkpt><trkpt lat="38.81165009915135" lon="-9.304734672464457"><ele>198.5</ele><time>2026-04-26T11:40:24Z</time></trkpt><trkpt lat="38.811644351486926" lon="-9.304911984223157"><ele>199.0</ele><time>2026-04-26T11:40:25Z</time></trkpt><trkpt lat="38.811635641117924" lon="-9.30508630705433"><ele>199.5</ele><time>2026-04-26T11:40:26Z</time></trkpt><trkpt lat="38.811627559525064" lon="-9.305264551452751"><ele>200.0</ele><time>2026-04-26T11:40:27Z</time></trkpt><trkpt lat="38.811621361345935" lon="-9.305442139802198"><ele>199.25</ele><time>2026-04-26T11:40:28Z</time></trkpt><trkpt lat="38.81161704464064" lon="-9.305625594540745"><ele>198.5</ele><time>2026-04-26T11:40:29Z</time></trkpt><trkpt lat="38.81161192555648" lon="-9.305808964017306"><ele>197.75</ele><time>2026-04-26T11:40:30Z</time></trkpt><trkpt lat="38.81159913721081" lon="-9.305993266355273"><ele>197.0</ele><time>2026-04-26T11:40:31Z</time></trkpt><trkpt lat="38.81158915066753" lon="-9.306182741640905"><ele>197.0</ele><time>2026-04-26T11:40:32Z</time></trkpt><trkpt lat="38.81157432305929" lon="-9.306372586742228"><ele>197.0</ele><time>2026-04-26T11:40:33Z</time></trkpt><trkpt lat="38.811565356477196" lon="-9.306558992956765"><ele>197.0</ele><time>2026-04-26T11:40:34Z</time></trkpt><trkpt lat="38.81155958681904" lon="-9.30673395673354"><ele>197.0</ele><time>2026-04-26T11:40:35Z</time></trkpt><trkpt lat="38.8115484422366" lon="-9.306896160527799"><ele>195.25</ele><time>2026-04-26T11:40:36Z</time></trkpt><trkpt lat="38.81153264310417" lon="-9.30704629878852"><ele>193.5</ele><time>2026-04-26T11:40:37Z</time></trkpt><trkpt lat="38.8115178449184" lon="-9.307199071315752"><ele>191.75</ele><time>2026-04-26T11:40:38Z</time></trkpt><trkpt lat="38.81150376364854" lon="-9.307351182551113"><ele>190.0</ele><time>2026-04-26T11:40:39Z</time></trkpt><trkpt lat="38.811484509311946" lon="-9.307502901452189"><ele>189.8</ele><time>2026-04-26T11:40:40Z</time></trkpt><trkpt lat="38.81146951952256" lon="-9.307649251426172"><ele>189.6</ele><time>2026-04-26T11:40:41Z</time></trkpt><trkpt lat="38.81146812034977" lon="-9.307773624136138"><ele>189.39999999999998</ele><time>2026-04-26T11:40:42Z</time></trkpt><trkpt lat="38.811495074979206" lon="-9.30789141408911"><ele>189.2</ele><time>2026-04-26T11:40:43Z</time></trkpt><trkpt lat="38.811532852093144" lon="-9.308011002782608"><ele>189.0</ele><time>2026-04-26T11:40:44Z</time></trkpt><trkpt lat="38.81159969882026" lon="-9.308104844018658"><ele>189.0</ele><time>2026-04-26T11:40:45Z</time></trkpt><trkpt lat="38.81167808726636" lon="-9.308183174948137"><ele>189.0</ele><time>2026-04-26T11:40:46Z</time></trkpt><trkpt lat="38.81177520126723" lon="-9.308222665188218"><ele>189.0</ele><time>2026-04-26T11:40:47Z</time></trkpt><trkpt lat="38.81184588053227" lon="-9.308260634970923"><ele>189.0</ele><time>2026-04-26T11:40:48Z</time></trkpt><trkpt lat="38.811919984597694" lon="-9.308321091552736"><ele>189.0</ele><time>2026-04-26T11:40:49Z</time></trkpt><trkpt lat="38.81200141678352" lon="-9.308363316114894"><ele>189.0</ele><time>2026-04-26T11:40:50Z</time></trkpt><trkpt lat="38.81208061121649" lon="-9.30838252228257"><ele>189.0</ele><time>2026-04-26T11:40:51Z</time></trkpt><trkpt lat="38.81216510455511" lon="-9.30838452065626"><ele>189.0</ele><time>2026-04-26T11:40:52Z</time></trkpt><trkpt lat="38.81224461153602" lon="-9.30837085231574"><ele>189.0</ele><time>2026-04-26T11:40:53Z</time></trkpt><trkpt lat="38.81230628625533" lon="-9.308343956148125"><ele>189.0</ele><time>2026-04-26T11:40:54Z</time></trkpt><trkpt lat="38.81239029737607" lon="-9.30833259316407"><ele>189.0</ele><time>2026-04-26T11:40:56Z</time></trkpt><trkpt lat="38.812394418547484" lon="-9.308474691005625"><ele>189.0</ele><time>2026-04-26T11:40:58Z</time></trkpt><trkpt lat="38.81230194876696" lon="-9.308499029872385"><ele>189.0</ele><time>2026-04-26T11:41:00Z</time></trkpt><trkpt lat="38.81223269793091" lon="-9.308433380124185"><ele>189.0</ele><time>2026-04-26T11:41:02Z</time></trkpt><trkpt lat="38.81211948524294" lon="-9.308384136408309"><ele>189.0</ele><time>2026-04-26T11:41:04Z</time></trkpt><trkpt lat="38.81204400425202" lon="-9.308358945902096"><ele>189.0</ele><time>2026-04-26T11:41:05Z</time></trkpt><trkpt lat="38.81196501265383" lon="-9.308329772427566"><ele>189.0</ele><time>2026-04-26T11:41:06Z</time></trkpt><trkpt lat="38.81188575804397" lon="-9.308282600890314"><ele>189.0</ele><time>2026-04-26T11:41:07Z</time></trkpt><trkpt lat="38.811822618386564" lon="-9.308239582142964"><ele>189.0</ele><time>2026-04-26T11:41:08Z</time></trkpt><trkpt lat="38.811746007592234" lon="-9.308243157851955"><ele>189.0</ele><time>2026-04-26T11:41:10Z</time></trkpt><trkpt lat="38.811714208125274" lon="-9.308370359232164"><ele>189.0</ele><time>2026-04-26T11:41:12Z</time></trkpt><trkpt lat="38.81168360814274" lon="-9.308514512291627"><ele>189.0</ele><time>2026-04-26T11:41:14Z</time></trkpt><trkpt lat="38.811662224169126" lon="-9.308640045302514"><ele>189.0</ele><time>2026-04-26T11:41:16Z</time></trkpt><trkpt lat="38.8116619823801" lon="-9.30875678448645"><ele>189.0</ele><time>2026-04-26T11:41:18Z</time></trkpt><trkpt lat="38.8116142499825" lon="-9.308828341586294"><ele>189.0</ele><time>2026-04-26T11:41:20Z</time></trkpt><trkpt lat="38.81157653546209" lon="-9.308900710857062"><ele>189.0</ele><time>2026-04-26T11:41:28Z</time></trkpt><trkpt lat="38.81152013340255" lon="-9.309021258472645"><ele>189.0</ele><time>2026-04-26T11:41:30Z</time></trkpt><trkpt lat="38.811460239484994" lon="-9.309165327581603"><ele>188.66666666666666</ele><time>2026-04-26T11:41:32Z</time></trkpt><trkpt lat="38.811405055123934" lon="-9.309295566960515"><ele>188.33333333333334</ele><time>2026-04-26T11:41:34Z</time></trkpt><trkpt lat="38.81134393805568" lon="-9.309345812322146"><ele>188.0</ele><time>2026-04-26T11:41:35Z</time></trkpt><trkpt lat="38.811301965611776" lon="-9.30941930009762"><ele>187.66666666666669</ele><time>2026-04-26T11:41:36Z</time></trkpt><trkpt lat="38.81125298483528" lon="-9.30948591513615"><ele>187.33333333333334</ele><time>2026-04-26T11:41:37Z</time></trkpt><trkpt lat="38.81119900165505" lon="-9.309534872983043"><ele>187.0</ele><time>2026-04-26T11:41:38Z</time></trkpt><trkpt lat="38.81111186394816" lon="-9.309652685102042"><ele>187.0</ele><time>2026-04-26T11:41:40Z</time></trkpt><trkpt lat="38.81107886920706" lon="-9.30973404583861"><ele>187.0</ele><time>2026-04-26T11:41:41Z</time></trkpt><trkpt lat="38.81105491990617" lon="-9.309836595284048"><ele>187.0</ele><time>2026-04-26T11:41:42Z</time></trkpt><trkpt lat="38.811050211752125" lon="-9.309926052681675"><ele>187.0</ele><time>2026-04-26T11:41:43Z</time></trkpt><trkpt lat="38.81107003132922" lon="-9.310004068098277"><ele>187.0</ele><time>2026-04-26T11:41:44Z</time></trkpt><trkpt lat="38.8110856058994" lon="-9.310084524529536"><ele>187.0</ele><time>2026-04-26T11:41:45Z</time></trkpt><trkpt lat="38.81104815170271" lon="-9.310211180736646"><ele>187.16666666666669</ele><time>2026-04-26T11:41:47Z</time></trkpt><trkpt lat="38.81106755727975" lon="-9.310358421487308"><ele>187.33333333333334</ele><time>2026-04-26T11:41:49Z</time></trkpt><trkpt lat="38.81114341609355" lon="-9.310489145802896"><ele>187.5</ele><time>2026-04-26T11:41:51Z</time></trkpt><trkpt lat="38.811174129153045" lon="-9.310565128472712"><ele>187.66666666666666</ele><time>2026-04-26T11:41:52Z</time></trkpt><trkpt lat="38.811189372096536" lon="-9.310650083541713"><ele>187.83333333333331</ele><time>2026-04-26T11:41:53Z</time></trkpt><trkpt lat="38.81121659493882" lon="-9.310724874672854"><ele>188.0</ele><time>2026-04-26T11:41:54Z</time></trkpt><trkpt lat="38.81124364471552" lon="-9.310869390689675"><ele>188.0</ele><time>2026-04-26T11:41:56Z</time></trkpt><trkpt lat="38.81121751613902" lon="-9.311010681812073"><ele>188.0</ele><time>2026-04-26T11:41:58Z</time></trkpt><trkpt lat="38.81119602519105" lon="-9.311169512080088"><ele>188.0</ele><time>2026-04-26T11:42:00Z</time></trkpt><trkpt lat="38.811211301062826" lon="-9.311250094301208"><ele>188.0</ele><time>2026-04-26T11:42:01Z</time></trkpt><trkpt lat="38.81123922887607" lon="-9.311328209895352"><ele>188.0</ele><time>2026-04-26T11:42:02Z</time></trkpt><trkpt lat="38.81127492659764" lon="-9.311403906245475"><ele>188.0</ele><time>2026-04-26T11:42:03Z</time></trkpt><trkpt lat="38.811300519779586" lon="-9.311478181741018"><ele>188.0</ele><time>2026-04-26T11:42:04Z</time></trkpt><trkpt lat="38.811327475933666" lon="-9.311559468980523"><ele>188.0</ele><time>2026-04-26T11:42:05Z</time></trkpt><trkpt lat="38.81133343660871" lon="-9.311652344131463"><ele>188.0</ele><time>2026-04-26T11:42:06Z</time></trkpt><trkpt lat="38.81132543839941" lon="-9.311745989456801"><ele>188.0</ele><time>2026-04-26T11:42:07Z</time></trkpt><trkpt lat="38.8113246360041" lon="-9.311833310519464"><ele>188.0</ele><time>2026-04-26T11:42:08Z</time></trkpt><trkpt lat="38.81135742515897" lon="-9.311989183178353"><ele>188.0</ele><time>2026-04-26T11:42:10Z</time></trkpt><trkpt lat="38.811354323339316" lon="-9.31207113956197"><ele>188.0</ele><time>2026-04-26T11:42:11Z</time></trkpt><trkpt lat="38.8113250678896" lon="-9.312151842388158"><ele>188.0</ele><time>2026-04-26T11:42:12Z</time></trkpt><trkpt lat="38.81129680441684" lon="-9.312231603187703"><ele>188.0</ele><time>2026-04-26T11:42:13Z</time></trkpt><trkpt lat="38.81127693419939" lon="-9.312321024658821"><ele>188.0</ele><time>2026-04-26T11:42:14Z</time></trkpt><trkpt lat="38.81129750064827" lon="-9.312427031279082"><ele>188.0</ele><time>2026-04-26T11:42:15Z</time></trkpt><trkpt lat="38.81134921130708" lon="-9.31251857571429"><ele>188.0</ele><time>2026-04-26T11:42:16Z</time></trkpt><trkpt lat="38.81135517975069" lon="-9.312641291898682"><ele>188.0</ele><time>2026-04-26T11:42:17Z</time></trkpt><trkpt lat="38.811369143287145" lon="-9.312733250668405"><ele>188.0</ele><time>2026-04-26T11:42:18Z</time></trkpt><trkpt lat="38.81142423909816" lon="-9.312833940290849"><ele>188.0</ele><time>2026-04-26T11:42:20Z</time></trkpt><trkpt lat="38.81133067432604" lon="-9.312907730355944"><ele>188.0</ele><time>2026-04-26T11:42:22Z</time></trkpt><trkpt lat="38.81127974169185" lon="-9.312962806596257"><ele>188.0</ele><time>2026-04-26T11:42:23Z</time></trkpt><trkpt lat="38.81126881225146" lon="-9.313073635075483"><ele>188.0</ele><time>2026-04-26T11:42:24Z</time></trkpt><trkpt lat="38.81123265712791" lon="-9.313178868944364"><ele>188.4</ele><time>2026-04-26T11:42:25Z</time></trkpt><trkpt lat="38.8111948549252" lon="-9.313291529733338"><ele>188.8</ele><time>2026-04-26T11:42:26Z</time></trkpt><trkpt lat="38.811154045036865" lon="-9.313410119653831"><ele>189.2</ele><time>2026-04-26T11:42:27Z</time></trkpt><trkpt lat="38.811124139501935" lon="-9.313549335080031"><ele>189.6</ele><time>2026-04-26T11:42:28Z</time></trkpt><trkpt lat="38.81108587274062" lon="-9.313671347383867"><ele>190.0</ele><time>2026-04-26T11:42:29Z</time></trkpt><trkpt lat="38.81105637187247" lon="-9.313765404375948"><ele>190.0</ele><time>2026-04-26T11:42:30Z</time></trkpt><trkpt lat="38.81104997187476" lon="-9.313848763037278"><ele>190.0</ele><time>2026-04-26T11:42:31Z</time></trkpt><trkpt lat="38.811206602840485" lon="-9.31389347229193"><ele>190.0</ele><time>2026-04-26T11:42:33Z</time></trkpt><trkpt lat="38.811286582320975" lon="-9.313932121553588"><ele>190.0</ele><time>2026-04-26T11:42:34Z</time></trkpt><trkpt lat="38.81138064150053" lon="-9.313982332278623"><ele>190.0</ele><time>2026-04-26T11:42:35Z</time></trkpt><trkpt lat="38.811477815342734" lon="-9.314061624569575"><ele>190.25</ele><time>2026-04-26T11:42:36Z</time></trkpt><trkpt lat="38.8115755692211" lon="-9.314130075671157"><ele>190.5</ele><time>2026-04-26T11:42:37Z</time></trkpt><trkpt lat="38.811671011690045" lon="-9.314226381355452"><ele>190.75</ele><time>2026-04-26T11:42:38Z</time></trkpt><trkpt lat="38.81177670346187" lon="-9.31432475808376"><ele>191.0</ele><time>2026-04-26T11:42:39Z</time></trkpt><trkpt lat="38.811872635361105" lon="-9.314431739900977"><ele>190.8</ele><time>2026-04-26T11:42:40Z</time></trkpt><trkpt lat="38.811971591906506" lon="-9.314513004614255"><ele>190.60000000000002</ele><time>2026-04-26T11:42:41Z</time></trkpt><trkpt lat="38.81205518863484" lon="-9.314598398623307"><ele>190.4</ele><time>2026-04-26T11:42:42Z</time></trkpt><trkpt lat="38.81213223008089" lon="-9.314691764301378"><ele>190.2</ele><time>2026-04-26T11:42:43Z</time></trkpt><trkpt lat="38.81217629560244" lon="-9.314783822270595"><ele>190.0</ele><time>2026-04-26T11:42:44Z</time></trkpt><trkpt lat="38.8121867181809" lon="-9.314913392102182"><ele>190.0</ele><time>2026-04-26T11:42:45Z</time></trkpt><trkpt lat="38.812238577240336" lon="-9.315029882846392"><ele>190.0</ele><time>2026-04-26T11:42:46Z</time></trkpt><trkpt lat="38.81227867966568" lon="-9.315134300291486"><ele>190.0</ele><time>2026-04-26T11:42:47Z</time></trkpt><trkpt lat="38.81232557034615" lon="-9.315248717686632"><ele>190.0</ele><time>2026-04-26T11:42:48Z</time></trkpt><trkpt lat="38.812368027013825" lon="-9.315352533003944"><ele>190.0</ele><time>2026-04-26T11:42:49Z</time></trkpt><trkpt lat="38.812412047656814" lon="-9.31547087399219"><ele>191.0</ele><time>2026-04-26T11:42:50Z</time></trkpt><trkpt lat="38.81243683071984" lon="-9.315594073315603"><ele>192.0</ele><time>2026-04-26T11:42:51Z</time></trkpt><trkpt lat="38.81248000560757" lon="-9.315706453930243"><ele>193.0</ele><time>2026-04-26T11:42:52Z</time></trkpt><trkpt lat="38.81250543342922" lon="-9.31582712017576"><ele>194.0</ele><time>2026-04-26T11:42:53Z</time></trkpt><trkpt lat="38.81253106920054" lon="-9.315946182615843"><ele>195.0</ele><time>2026-04-26T11:42:54Z</time></trkpt><trkpt lat="38.81255589375829" lon="-9.316063529792416"><ele>195.0</ele><time>2026-04-26T11:42:55Z</time></trkpt><trkpt lat="38.81258030165171" lon="-9.316185159503279"><ele>195.0</ele><time>2026-04-26T11:42:56Z</time></trkpt><trkpt lat="38.812601969426275" lon="-9.316299977245851"><ele>195.0</ele><time>2026-04-26T11:42:57Z</time></trkpt><trkpt lat="38.81263986648326" lon="-9.316407718109877"><ele>195.0</ele><time>2026-04-26T11:42:58Z</time></trkpt><trkpt lat="38.81266261285855" lon="-9.316516512799543"><ele>195.0</ele><time>2026-04-26T11:42:59Z</time></trkpt><trkpt lat="38.8126834601167" lon="-9.316618310834386"><ele>194.5</ele><time>2026-04-26T11:43:00Z</time></trkpt><trkpt lat="38.8127025209818" lon="-9.316715765634012"><ele>194.0</ele><time>2026-04-26T11:43:01Z</time></trkpt><trkpt lat="38.81270367856808" lon="-9.31680822688899"><ele>193.5</ele><time>2026-04-26T11:43:02Z</time></trkpt><trkpt lat="38.8127390490348" lon="-9.316907547263444"><ele>193.0</ele><time>2026-04-26T11:43:03Z</time></trkpt><trkpt lat="38.8127385125938" lon="-9.31702095102013"><ele>192.5</ele><time>2026-04-26T11:43:04Z</time></trkpt><trkpt lat="38.81275864465543" lon="-9.317136623385485"><ele>192.0</ele><time>2026-04-26T11:43:05Z</time></trkpt><trkpt lat="38.81276891283031" lon="-9.317246876672344"><ele>192.0</ele><time>2026-04-26T11:43:06Z</time></trkpt><trkpt lat="38.81279506572442" lon="-9.317359058553933"><ele>192.0</ele><time>2026-04-26T11:43:07Z</time></trkpt><trkpt lat="38.81281365148768" lon="-9.317471042062824"><ele>192.0</ele><time>2026-04-26T11:43:08Z</time></trkpt><trkpt lat="38.8128286664443" lon="-9.317603600248239"><ele>192.0</ele><time>2026-04-26T11:43:09Z</time></trkpt><trkpt lat="38.8128376975893" lon="-9.31773939800097"><ele>192.0</ele><time>2026-04-26T11:43:10Z</time></trkpt><trkpt lat="38.81284840041733" lon="-9.317871990369497"><ele>192.0</ele><time>2026-04-26T11:43:11Z</time></trkpt><trkpt lat="38.81284809707553" lon="-9.31799371688159"><ele>192.0</ele><time>2026-04-26T11:43:12Z</time></trkpt><trkpt lat="38.81287559116721" lon="-9.318114323678305"><ele>192.0</ele><time>2026-04-26T11:43:13Z</time></trkpt><trkpt lat="38.81289049648509" lon="-9.31823797179204"><ele>192.0</ele><time>2026-04-26T11:43:14Z</time></trkpt><trkpt lat="38.81288569342419" lon="-9.318356538876156"><ele>192.0</ele><time>2026-04-26T11:43:15Z</time></trkpt><trkpt lat="38.81291065749348" lon="-9.31848690766739"><ele>193.16666666666666</ele><time>2026-04-26T11:43:16Z</time></trkpt><trkpt lat="38.81291701931366" lon="-9.318604782812555"><ele>194.33333333333331</ele><time>2026-04-26T11:43:17Z</time></trkpt><trkpt lat="38.812921240226984" lon="-9.318700948458735"><ele>195.5</ele><time>2026-04-26T11:43:18Z</time></trkpt><trkpt lat="38.81292854815568" lon="-9.318795751339154"><ele>196.66666666666666</ele><time>2026-04-26T11:43:19Z</time></trkpt><trkpt lat="38.812957205782624" lon="-9.318930070631005"><ele>197.83333333333331</ele><time>2026-04-26T11:43:21Z</time></trkpt><trkpt lat="38.813042488858855" lon="-9.318944063086912"><ele>199.0</ele><time>2026-04-26T11:43:24Z</time></trkpt><trkpt lat="38.8130954801267" lon="-9.318842071470968"><ele>199.0</ele><time>2026-04-26T11:43:35Z</time></trkpt><trkpt lat="38.81312697031676" lon="-9.318695288970213"><ele>199.0</ele><time>2026-04-26T11:43:37Z</time></trkpt><trkpt lat="38.8131506516507" lon="-9.318595652326024"><ele>199.0</ele><time>2026-04-26T11:43:38Z</time></trkpt><trkpt lat="38.81318344257519" lon="-9.318494212175862"><ele>199.0</ele><time>2026-04-26T11:43:39Z</time></trkpt><trkpt lat="38.813221810260366" lon="-9.318383102408657"><ele>199.0</ele><time>2026-04-26T11:43:40Z</time></trkpt><trkpt lat="38.81327559747429" lon="-9.318256565251893"><ele>199.0</ele><time>2026-04-26T11:43:41Z</time></trkpt><trkpt lat="38.81334002776084" lon="-9.318139503242072"><ele>199.0</ele><time>2026-04-26T11:43:42Z</time></trkpt><trkpt lat="38.81342696867878" lon="-9.31800975139971"><ele>199.0</ele><time>2026-04-26T11:43:43Z</time></trkpt><trkpt lat="38.813523514438856" lon="-9.317895899836728"><ele>199.0</ele><time>2026-04-26T11:43:44Z</time></trkpt><trkpt lat="38.81364492685168" lon="-9.31779825940611"><ele>195.0</ele><time>2026-04-26T11:43:45Z</time></trkpt><trkpt lat="38.81378627931985" lon="-9.317707695725094"><ele>191.0</ele><time>2026-04-26T11:43:46Z</time></trkpt><trkpt lat="38.81393919560993" lon="-9.317638895826176"><ele>187.0</ele><time>2026-04-26T11:43:47Z</time></trkpt><trkpt lat="38.81408302053373" lon="-9.317574639948848"><ele>187.0</ele><time>2026-04-26T11:43:48Z</time></trkpt><trkpt lat="38.814207065901954" lon="-9.317515745261087"><ele>187.0</ele><time>2026-04-26T11:43:49Z</time></trkpt><trkpt lat="38.81431727768587" lon="-9.317452052489674"><ele>187.0</ele><time>2026-04-26T11:43:50Z</time></trkpt><trkpt lat="38.814430117123976" lon="-9.317392698003136"><ele>187.0</ele><time>2026-04-26T11:43:51Z</time></trkpt><trkpt lat="38.814541012712716" lon="-9.317342011561292"><ele>186.33333333333334</ele><time>2026-04-26T11:43:52Z</time></trkpt><trkpt lat="38.814619604726744" lon="-9.317299377459806"><ele>185.66666666666669</ele><time>2026-04-26T11:43:53Z</time></trkpt><trkpt lat="38.81468215529353" lon="-9.317257823398153"><ele>185.0</ele><time>2026-04-26T11:43:54Z</time></trkpt><trkpt lat="38.814604812164404" lon="-9.317167934964342"><ele>184.33333333333334</ele><time>2026-04-26T11:43:56Z</time></trkpt><trkpt lat="38.81454681276424" lon="-9.317132771894043"><ele>183.66666666666666</ele><time>2026-04-26T11:43:57Z</time></trkpt><trkpt lat="38.81447215315897" lon="-9.317048149415333"><ele>183.0</ele><time>2026-04-26T11:43:58Z</time></trkpt><trkpt lat="38.814379720580746" lon="-9.316974485522431"><ele>181.75</ele><time>2026-04-26T11:43:59Z</time></trkpt><trkpt lat="38.814317928782806" lon="-9.316861917948534"><ele>180.5</ele><time>2026-04-26T11:44:00Z</time></trkpt><trkpt lat="38.81428965321593" lon="-9.316732215623547"><ele>179.25</ele><time>2026-04-26T11:44:01Z</time></trkpt><trkpt lat="38.81425384473539" lon="-9.316585886132168"><ele>178.0</ele><time>2026-04-26T11:44:02Z</time></trkpt><trkpt lat="38.81420871047345" lon="-9.316405755608233"><ele>176.66666666666669</ele><time>2026-04-26T11:44:03Z</time></trkpt><trkpt lat="38.81415618990367" lon="-9.316214958489336"><ele>175.33333333333334</ele><time>2026-04-26T11:44:04Z</time></trkpt><trkpt lat="38.814107701628366" lon="-9.31602759272259"><ele>174.0</ele><time>2026-04-26T11:44:05Z</time></trkpt><trkpt lat="38.81405304189427" lon="-9.315858589054756"><ele>174.0</ele><time>2026-04-26T11:44:06Z</time></trkpt><trkpt lat="38.81398491547399" lon="-9.31571023803936"><ele>174.0</ele><time>2026-04-26T11:44:07Z</time></trkpt><trkpt lat="38.81390978012186" lon="-9.315568911466103"><ele>174.0</ele><time>2026-04-26T11:44:08Z</time></trkpt><trkpt lat="38.81382217082495" lon="-9.315451763170586"><ele>174.0</ele><time>2026-04-26T11:44:09Z</time></trkpt><trkpt lat="38.813736151193794" lon="-9.31531974486605"><ele>174.5</ele><time>2026-04-26T11:44:10Z</time></trkpt><trkpt lat="38.81364091726482" lon="-9.31519139669501"><ele>175.0</ele><time>2026-04-26T11:44:11Z</time></trkpt><trkpt lat="38.813527770973046" lon="-9.315063558906903"><ele>175.5</ele><time>2026-04-26T11:44:12Z</time></trkpt><trkpt lat="38.81341747098649" lon="-9.314922836981482"><ele>176.0</ele><time>2026-04-26T11:44:13Z</time></trkpt><trkpt lat="38.81330540590122" lon="-9.314761530539231"><ele>179.33333333333331</ele><time>2026-04-26T11:44:14Z</time></trkpt><trkpt lat="38.813188313112185" lon="-9.314631693839996"><ele>182.66666666666666</ele><time>2026-04-26T11:44:15Z</time></trkpt><trkpt lat="38.81307399612087" lon="-9.314495279039344"><ele>186.0</ele><time>2026-04-26T11:44:16Z</time></trkpt><trkpt lat="38.81294400334209" lon="-9.31436474309427"><ele>186.0</ele><time>2026-04-26T11:44:17Z</time></trkpt><trkpt lat="38.8128008305964" lon="-9.314234839335143"><ele>186.0</ele><time>2026-04-26T11:44:18Z</time></trkpt><trkpt lat="38.81267550875745" lon="-9.314115064622483"><ele>186.0</ele><time>2026-04-26T11:44:19Z</time></trkpt><trkpt lat="38.812561027567995" lon="-9.314021319526063"><ele>186.25</ele><time>2026-04-26T11:44:20Z</time></trkpt><trkpt lat="38.81245499999822" lon="-9.31391441219796"><ele>186.5</ele><time>2026-04-26T11:44:21Z</time></trkpt><trkpt lat="38.8123547247536" lon="-9.313781371471086"><ele>186.75</ele><time>2026-04-26T11:44:22Z</time></trkpt><trkpt lat="38.812260416183356" lon="-9.313644285789534"><ele>187.0</ele><time>2026-04-26T11:44:23Z</time></trkpt><trkpt lat="38.81214989731131" lon="-9.313557029121528"><ele>186.25</ele><time>2026-04-26T11:44:24Z</time></trkpt><trkpt lat="38.81204380860784" lon="-9.313460246887535"><ele>185.5</ele><time>2026-04-26T11:44:25Z</time></trkpt><trkpt lat="38.81193455880704" lon="-9.313349113767034"><ele>184.75</ele><time>2026-04-26T11:44:26Z</time></trkpt><trkpt lat="38.81181451665967" lon="-9.313275443244653"><ele>184.0</ele><time>2026-04-26T11:44:27Z</time></trkpt><trkpt lat="38.81171596323366" lon="-9.313203988268258"><ele>184.79999999999998</ele><time>2026-04-26T11:44:28Z</time></trkpt><trkpt lat="38.811614269485105" lon="-9.313133233487385"><ele>185.6</ele><time>2026-04-26T11:44:29Z</time></trkpt><trkpt lat="38.811506081458894" lon="-9.313057960262801"><ele>186.4</ele><time>2026-04-26T11:44:30Z</time></trkpt><trkpt lat="38.81141218363949" lon="-9.312980546114035"><ele>187.2</ele><time>2026-04-26T11:44:31Z</time></trkpt><trkpt lat="38.81134028633794" lon="-9.312932465524533"><ele>188.0</ele><time>2026-04-26T11:44:32Z</time></trkpt><trkpt lat="38.811250620192844" lon="-9.312895656310857"><ele>188.0</ele><time>2026-04-26T11:44:34Z</time></trkpt><trkpt lat="38.81133818852711" lon="-9.312867350145117"><ele>188.0</ele><time>2026-04-26T11:44:37Z</time></trkpt><trkpt lat="38.811309892436995" lon="-9.312940669459687"><ele>188.0</ele><time>2026-04-26T11:45:32Z</time></trkpt><trkpt lat="38.811360214594124" lon="-9.312884513576787"><ele>188.0</ele><time>2026-04-26T11:45:35Z</time></trkpt><trkpt lat="38.81141508499441" lon="-9.312764431217644"><ele>188.0</ele><time>2026-04-26T11:45:38Z</time></trkpt><trkpt lat="38.81137681900928" lon="-9.312652722888695"><ele>188.0</ele><time>2026-04-26T11:45:40Z</time></trkpt><trkpt lat="38.81132538102645" lon="-9.31248974521008"><ele>188.0</ele><time>2026-04-26T11:45:42Z</time></trkpt><trkpt lat="38.81132400299805" lon="-9.312370120020766"><ele>188.0</ele><time>2026-04-26T11:45:43Z</time></trkpt><trkpt lat="38.81128438444929" lon="-9.312258273438625"><ele>188.0</ele><time>2026-04-26T11:45:44Z</time></trkpt><trkpt lat="38.81127282468353" lon="-9.31217196465346"><ele>188.0</ele><time>2026-04-26T11:45:45Z</time></trkpt><trkpt lat="38.81129888459633" lon="-9.312089300674963"><ele>188.0</ele><time>2026-04-26T11:45:46Z</time></trkpt><trkpt lat="38.81133427515447" lon="-9.31199132418448"><ele>188.0</ele><time>2026-04-26T11:45:47Z</time></trkpt><trkpt lat="38.81135114889585" lon="-9.311886362756445"><ele>188.0</ele><time>2026-04-26T11:45:48Z</time></trkpt><trkpt lat="38.81134934614094" lon="-9.311773523424272"><ele>188.0</ele><time>2026-04-26T11:45:49Z</time></trkpt><trkpt lat="38.81132011585693" lon="-9.311665864844347"><ele>188.0</ele><time>2026-04-26T11:45:50Z</time></trkpt><trkpt lat="38.81130579390552" lon="-9.311569221909767"><ele>188.0</ele><time>2026-04-26T11:45:51Z</time></trkpt><trkpt lat="38.81131451580903" lon="-9.3114621180232"><ele>188.0</ele><time>2026-04-26T11:45:52Z</time></trkpt><trkpt lat="38.81128956555355" lon="-9.311361385076212"><ele>188.0</ele><time>2026-04-26T11:45:53Z</time></trkpt><trkpt lat="38.81124814860184" lon="-9.311278926570445"><ele>188.0</ele><time>2026-04-26T11:45:54Z</time></trkpt><trkpt lat="38.81120593096252" lon="-9.311187935451823"><ele>188.0</ele><time>2026-04-26T11:45:55Z</time></trkpt><trkpt lat="38.81118607265643" lon="-9.311098947436724"><ele>188.0</ele><time>2026-04-26T11:45:56Z</time></trkpt><trkpt lat="38.81117761347962" lon="-9.311016046938613"><ele>188.0</ele><time>2026-04-26T11:45:57Z</time></trkpt><trkpt lat="38.81120805366185" lon="-9.31091278628878"><ele>188.0</ele><time>2026-04-26T11:45:58Z</time></trkpt><trkpt lat="38.811221894173656" lon="-9.310812755766928"><ele>188.0</ele><time>2026-04-26T11:45:59Z</time></trkpt><trkpt lat="38.811221330194066" lon="-9.310722275238897"><ele>188.0</ele><time>2026-04-26T11:46:00Z</time></trkpt><trkpt lat="38.81119565724762" lon="-9.310632518671255"><ele>188.0</ele><time>2026-04-26T11:46:01Z</time></trkpt><trkpt lat="38.81116874550184" lon="-9.3105342991378"><ele>188.0</ele><time>2026-04-26T11:46:02Z</time></trkpt><trkpt lat="38.81112432612403" lon="-9.310431434600135"><ele>188.0</ele><time>2026-04-26T11:46:03Z</time></trkpt><trkpt lat="38.81109619293937" lon="-9.310345454097515"><ele>188.0</ele><time>2026-04-26T11:46:04Z</time></trkpt><trkpt lat="38.81105101642797" lon="-9.310275300495718"><ele>188.0</ele><time>2026-04-26T11:46:05Z</time></trkpt><trkpt lat="38.811017219139" lon="-9.310188378387853"><ele>188.0</ele><time>2026-04-26T11:46:06Z</time></trkpt><trkpt lat="38.811012058427224" lon="-9.310100713738338"><ele>188.0</ele><time>2026-04-26T11:46:07Z</time></trkpt><trkpt lat="38.81101016357431" lon="-9.310018131918834"><ele>188.0</ele><time>2026-04-26T11:46:08Z</time></trkpt><trkpt lat="38.811028716797814" lon="-9.309924221701342"><ele>188.0</ele><time>2026-04-26T11:46:09Z</time></trkpt><trkpt lat="38.811059960982284" lon="-9.309828856999857"><ele>188.0</ele><time>2026-04-26T11:46:10Z</time></trkpt><trkpt lat="38.81108082403381" lon="-9.309740081137337"><ele>188.0</ele><time>2026-04-26T11:46:11Z</time></trkpt><trkpt lat="38.811106326796406" lon="-9.30963330546726"><ele>188.0</ele><time>2026-04-26T11:46:12Z</time></trkpt><trkpt lat="38.81116159128478" lon="-9.309533666418167"><ele>187.83333333333331</ele><time>2026-04-26T11:46:13Z</time></trkpt><trkpt lat="38.81122178442036" lon="-9.309449047891132"><ele>187.66666666666666</ele><time>2026-04-26T11:46:14Z</time></trkpt><trkpt lat="38.81129071833344" lon="-9.30938654882118"><ele>187.5</ele><time>2026-04-26T11:46:15Z</time></trkpt><trkpt lat="38.81136226137953" lon="-9.309324656508704"><ele>187.33333333333334</ele><time>2026-04-26T11:46:16Z</time></trkpt><trkpt lat="38.811406625159464" lon="-9.309245862695471"><ele>187.16666666666669</ele><time>2026-04-26T11:46:17Z</time></trkpt><trkpt lat="38.81146120087755" lon="-9.309164643504555"><ele>187.0</ele><time>2026-04-26T11:46:18Z</time></trkpt><trkpt lat="38.81151052200742" lon="-9.30907985281518"><ele>187.0</ele><time>2026-04-26T11:46:19Z</time></trkpt><trkpt lat="38.81154118013841" lon="-9.308974913708191"><ele>187.0</ele><time>2026-04-26T11:46:20Z</time></trkpt><trkpt lat="38.81158713482519" lon="-9.30887072039853"><ele>187.0</ele><time>2026-04-26T11:46:21Z</time></trkpt><trkpt lat="38.81162821221083" lon="-9.30877278368975"><ele>187.0</ele><time>2026-04-26T11:46:22Z</time></trkpt><trkpt lat="38.81166811067329" lon="-9.308663654057208"><ele>187.0</ele><time>2026-04-26T11:46:23Z</time></trkpt><trkpt lat="38.811700290026224" lon="-9.308551703250636"><ele>187.33333333333334</ele><time>2026-04-26T11:46:24Z</time></trkpt><trkpt lat="38.811709866938365" lon="-9.30843102080718"><ele>187.66666666666669</ele><time>2026-04-26T11:46:25Z</time></trkpt><trkpt lat="38.81174376586965" lon="-9.308336610670361"><ele>188.0</ele><time>2026-04-26T11:46:26Z</time></trkpt><trkpt lat="38.81176748537727" lon="-9.308256348148412"><ele>188.33333333333334</ele><time>2026-04-26T11:46:27Z</time></trkpt><trkpt lat="38.81184893346328" lon="-9.308212315050975"><ele>188.66666666666666</ele><time>2026-04-26T11:46:29Z</time></trkpt><trkpt lat="38.811916050420244" lon="-9.308253888079642"><ele>189.0</ele><time>2026-04-26T11:46:30Z</time></trkpt><trkpt lat="38.812002173073104" lon="-9.308327337849931"><ele>189.0</ele><time>2026-04-26T11:46:31Z</time></trkpt><trkpt lat="38.81211239053412" lon="-9.308369131169844"><ele>189.0</ele><time>2026-04-26T11:46:32Z</time></trkpt><trkpt lat="38.81223075221371" lon="-9.308417555676188"><ele>189.0</ele><time>2026-04-26T11:46:33Z</time></trkpt><trkpt lat="38.81235613607376" lon="-9.308457995582188"><ele>189.0</ele><time>2026-04-26T11:46:34Z</time></trkpt><trkpt lat="38.81248674063394" lon="-9.308495484577822"><ele>189.0</ele><time>2026-04-26T11:46:35Z</time></trkpt><trkpt lat="38.81262360167449" lon="-9.308521939172303"><ele>189.0</ele><time>2026-04-26T11:46:36Z</time></trkpt><trkpt lat="38.8127563853163" lon="-9.308524478544324"><ele>189.0</ele><time>2026-04-26T11:46:37Z</time></trkpt><trkpt lat="38.812862045311206" lon="-9.308526854870328"><ele>189.0</ele><time>2026-04-26T11:46:38Z</time></trkpt><trkpt lat="38.8129537708778" lon="-9.308517278040757"><ele>188.39999999999998</ele><time>2026-04-26T11:46:39Z</time></trkpt><trkpt lat="38.81304618780187" lon="-9.308519266185845"><ele>187.8</ele><time>2026-04-26T11:46:40Z</time></trkpt><trkpt lat="38.81314847785623" lon="-9.30856926248072"><ele>187.2</ele><time>2026-04-26T11:46:41Z</time></trkpt><trkpt lat="38.813263202207864" lon="-9.308605091925614"><ele>186.60000000000002</ele><time>2026-04-26T11:46:42Z</time></trkpt><trkpt lat="38.81337437417699" lon="-9.308639312080926"><ele>186.0</ele><time>2026-04-26T11:46:43Z</time></trkpt><trkpt lat="38.8134762820857" lon="-9.308691150787535"><ele>186.0</ele><time>2026-04-26T11:46:44Z</time></trkpt><trkpt lat="38.813566963147245" lon="-9.308736372376169"><ele>186.0</ele><time>2026-04-26T11:46:45Z</time></trkpt><trkpt lat="38.813647776156465" lon="-9.308765465419073"><ele>186.0</ele><time>2026-04-26T11:46:46Z</time></trkpt><trkpt lat="38.8137291965741" lon="-9.308796138760005"><ele>186.0</ele><time>2026-04-26T11:46:47Z</time></trkpt><trkpt lat="38.81380972682524" lon="-9.308824681953881"><ele>186.0</ele><time>2026-04-26T11:46:48Z</time></trkpt><trkpt lat="38.81387084644979" lon="-9.308924232591565"><ele>186.0</ele><time>2026-04-26T11:46:49Z</time></trkpt><trkpt lat="38.8139157325746" lon="-9.30905459023736"><ele>186.5</ele><time>2026-04-26T11:46:50Z</time></trkpt><trkpt lat="38.81394529236891" lon="-9.309194989497273"><ele>187.0</ele><time>2026-04-26T11:46:51Z</time></trkpt><trkpt lat="38.81396084796839" lon="-9.309351973777689"><ele>187.5</ele><time>2026-04-26T11:46:52Z</time></trkpt><trkpt lat="38.81398189649999" lon="-9.309491707201559"><ele>188.0</ele><time>2026-04-26T11:46:53Z</time></trkpt><trkpt lat="38.81400199670358" lon="-9.309631281081565"><ele>188.60000000000002</ele><time>2026-04-26T11:46:54Z</time></trkpt><trkpt lat="38.81401951056659" lon="-9.30977834937149"><ele>189.20000000000002</ele><time>2026-04-26T11:46:55Z</time></trkpt><trkpt lat="38.814043852326236" lon="-9.30991131242948"><ele>189.8</ele><time>2026-04-26T11:46:56Z</time></trkpt><trkpt lat="38.814075836672814" lon="-9.310013346516547"><ele>190.4</ele><time>2026-04-26T11:46:57Z</time></trkpt><trkpt lat="38.81411205160454" lon="-9.310102813236279"><ele>191.0</ele><time>2026-04-26T11:46:58Z</time></trkpt><trkpt lat="38.8141592321818" lon="-9.310188968301556"><ele>191.0</ele><time>2026-04-26T11:46:59Z</time></trkpt><trkpt lat="38.8142068565092" lon="-9.310249293079991"><ele>191.0</ele><time>2026-04-26T11:47:00Z</time></trkpt><trkpt lat="38.81430314982675" lon="-9.310341143511396"><ele>191.0</ele><time>2026-04-26T11:47:02Z</time></trkpt><trkpt lat="38.81437099650606" lon="-9.310421872625724"><ele>191.0</ele><time>2026-04-26T11:47:04Z</time></trkpt><trkpt lat="38.81444353671287" lon="-9.310393799940277"><ele>191.0</ele><time>2026-04-26T11:47:06Z</time></trkpt><trkpt lat="38.81440830409503" lon="-9.310312809678269"><ele>191.0</ele><time>2026-04-26T11:47:41Z</time></trkpt><trkpt lat="38.81436355986873" lon="-9.310253492153224"><ele>191.0</ele><time>2026-04-26T11:47:43Z</time></trkpt><trkpt lat="38.81429844365744" lon="-9.310288373239773"><ele>191.0</ele><time>2026-04-26T11:47:44Z</time></trkpt><trkpt lat="38.814234086841566" lon="-9.31029643865716"><ele>191.0</ele><time>2026-04-26T11:47:45Z</time></trkpt><trkpt lat="38.81416968278581" lon="-9.31023326709146"><ele>191.0</ele><time>2026-04-26T11:47:46Z</time></trkpt><trkpt lat="38.81409400358555" lon="-9.310162845949256"><ele>191.0</ele><time>2026-04-26T11:47:47Z</time></trkpt><trkpt lat="38.81403211083283" lon="-9.310116763012731"><ele>191.0</ele><time>2026-04-26T11:47:48Z</time></trkpt><trkpt lat="38.81400803249956" lon="-9.310014990136601"><ele>191.0</ele><time>2026-04-26T11:47:49Z</time></trkpt><trkpt lat="38.81402697701002" lon="-9.30987597654282"><ele>191.0</ele><time>2026-04-26T11:47:50Z</time></trkpt><trkpt lat="38.814015356923825" lon="-9.309746858409802"><ele>191.0</ele><time>2026-04-26T11:47:51Z</time></trkpt><trkpt lat="38.814000147023286" lon="-9.30960786318005"><ele>191.0</ele><time>2026-04-26T11:47:52Z</time></trkpt><trkpt lat="38.81398094584371" lon="-9.309475970921143"><ele>191.0</ele><time>2026-04-26T11:47:53Z</time></trkpt><trkpt lat="38.813953712946876" lon="-9.309379242727971"><ele>190.5</ele><time>2026-04-26T11:47:54Z</time></trkpt><trkpt lat="38.81393617885425" lon="-9.309282381013224"><ele>190.0</ele><time>2026-04-26T11:47:55Z</time></trkpt><trkpt lat="38.81392353530784" lon="-9.309183129627803"><ele>189.5</ele><time>2026-04-26T11:47:56Z</time></trkpt><trkpt lat="38.813907030063845" lon="-9.30909573747022"><ele>189.0</ele><time>2026-04-26T11:47:57Z</time></trkpt><trkpt lat="38.813849636425324" lon="-9.308966208511755"><ele>188.5</ele><time>2026-04-26T11:47:59Z</time></trkpt><trkpt lat="38.813885559435455" lon="-9.308868310095926"><ele>188.0</ele><time>2026-04-26T11:48:01Z</time></trkpt><trkpt lat="38.81400832021374" lon="-9.308813028678124"><ele>187.60000000000002</ele><time>2026-04-26T11:48:03Z</time></trkpt><trkpt lat="38.814093507114315" lon="-9.308824549011739"><ele>187.20000000000002</ele><time>2026-04-26T11:48:04Z</time></trkpt><trkpt lat="38.8141805219915" lon="-9.308880731725504"><ele>186.8</ele><time>2026-04-26T11:48:05Z</time></trkpt><trkpt lat="38.81427807644387" lon="-9.308867203825901"><ele>186.4</ele><time>2026-04-26T11:48:06Z</time></trkpt><trkpt lat="38.81437669250401" lon="-9.308858738546778"><ele>186.0</ele><time>2026-04-26T11:48:07Z</time></trkpt><trkpt lat="38.81447435195828" lon="-9.308848785096549"><ele>185.4</ele><time>2026-04-26T11:48:08Z</time></trkpt><trkpt lat="38.81457690240603" lon="-9.308842907564419"><ele>184.8</ele><time>2026-04-26T11:48:09Z</time></trkpt><trkpt lat="38.81468610893469" lon="-9.308835151993744"><ele>184.20000000000002</ele><time>2026-04-26T11:48:10Z</time></trkpt><trkpt lat="38.81478446215035" lon="-9.308832672167613"><ele>183.60000000000002</ele><time>2026-04-26T11:48:11Z</time></trkpt><trkpt lat="38.81487628388125" lon="-9.308829693577195"><ele>183.0</ele><time>2026-04-26T11:48:12Z</time></trkpt><trkpt lat="38.81495689420431" lon="-9.308841175191487"><ele>183.0</ele><time>2026-04-26T11:48:13Z</time></trkpt><trkpt lat="38.81503320317793" lon="-9.308880206150983"><ele>183.0</ele><time>2026-04-26T11:48:14Z</time></trkpt><trkpt lat="38.81509948388552" lon="-9.308925239714974"><ele>183.0</ele><time>2026-04-26T11:48:15Z</time></trkpt><trkpt lat="38.81515827232315" lon="-9.308963205045846"><ele>183.0</ele><time>2026-04-26T11:48:16Z</time></trkpt><trkpt lat="38.81522050257381" lon="-9.308998066752961"><ele>183.0</ele><time>2026-04-26T11:48:17Z</time></trkpt><trkpt lat="38.81532522531334" lon="-9.30907403884024"><ele>183.0</ele><time>2026-04-26T11:48:19Z</time></trkpt><trkpt lat="38.81539308819866" lon="-9.309180845848752"><ele>181.66666666666666</ele><time>2026-04-26T11:48:21Z</time></trkpt><trkpt lat="38.81545405515847" lon="-9.309297438500794"><ele>180.33333333333334</ele><time>2026-04-26T11:48:23Z</time></trkpt><trkpt lat="38.81548588620074" lon="-9.30941917278706"><ele>179.0</ele><time>2026-04-26T11:48:25Z</time></trkpt><trkpt lat="38.81547613818689" lon="-9.309521759423232"><ele>177.66666666666669</ele><time>2026-04-26T11:48:27Z</time></trkpt><trkpt lat="38.8154553654257" lon="-9.309615420451527"><ele>176.33333333333334</ele><time>2026-04-26T11:48:29Z</time></trkpt><trkpt lat="38.81544471709085" lon="-9.309700707036281"><ele>175.0</ele><time>2026-04-26T11:48:31Z</time></trkpt><trkpt lat="38.81543754310308" lon="-9.309784180943163"><ele>174.57142857142858</ele><time>2026-04-26T11:48:33Z</time></trkpt><trkpt lat="38.81548021263593" lon="-9.309872078296491"><ele>174.14285714285714</ele><time>2026-04-26T11:48:36Z</time></trkpt><trkpt lat="38.81548467507038" lon="-9.309785153984993"><ele>173.71428571428572</ele><time>2026-04-26T11:48:57Z</time></trkpt><trkpt lat="38.81543765770749" lon="-9.309858026039265"><ele>173.28571428571428</ele><time>2026-04-26T11:49:05Z</time></trkpt><trkpt lat="38.81551062168939" lon="-9.309824067177107"><ele>172.85714285714286</ele><time>2026-04-26T11:49:24Z</time></trkpt><trkpt lat="38.815542645172506" lon="-9.309902838925693"><ele>172.42857142857144</ele><time>2026-04-26T11:49:27Z</time></trkpt><trkpt lat="38.815561632515816" lon="-9.309985239665593"><ele>172.0</ele><time>2026-04-26T11:49:40Z</time></trkpt><trkpt lat="38.81559480845844" lon="-9.310056714316865"><ele>172.0</ele><time>2026-04-26T11:49:50Z</time></trkpt><trkpt lat="38.81564842025676" lon="-9.310158838953916"><ele>172.0</ele><time>2026-04-26T11:51:07Z</time></trkpt><trkpt lat="38.81568414302153" lon="-9.310226994555661"><ele>172.0</ele><time>2026-04-26T11:51:09Z</time></trkpt><trkpt lat="38.81570827620693" lon="-9.310310057433"><ele>172.0</ele><time>2026-04-26T11:51:11Z</time></trkpt><trkpt lat="38.81573860322414" lon="-9.310400883143203"><ele>172.0</ele><time>2026-04-26T11:51:13Z</time></trkpt><trkpt lat="38.815750832166906" lon="-9.31048610936703"><ele>172.0</ele><time>2026-04-26T11:51:15Z</time></trkpt><trkpt lat="38.815735592062865" lon="-9.310584247642394"><ele>171.16666666666669</ele><time>2026-04-26T11:51:17Z</time></trkpt><trkpt lat="38.815705909266974" lon="-9.310686094147412"><ele>170.33333333333334</ele><time>2026-04-26T11:51:19Z</time></trkpt><trkpt lat="38.815726378280246" lon="-9.310790828008127"><ele>169.5</ele><time>2026-04-26T11:51:21Z</time></trkpt><trkpt lat="38.81577076282365" lon="-9.310851295850606"><ele>168.66666666666666</ele><time>2026-04-26T11:51:22Z</time></trkpt><trkpt lat="38.815835907526896" lon="-9.31090160609021"><ele>167.83333333333331</ele><time>2026-04-26T11:51:23Z</time></trkpt><trkpt lat="38.815914490915105" lon="-9.310998212699758"><ele>167.0</ele><time>2026-04-26T11:51:25Z</time></trkpt><trkpt lat="38.815969505000574" lon="-9.311077711537314"><ele>166.16666666666666</ele><time>2026-04-26T11:51:27Z</time></trkpt><trkpt lat="38.816055789234255" lon="-9.311150352743814"><ele>165.33333333333331</ele><time>2026-04-26T11:51:41Z</time></trkpt><trkpt lat="38.816125405847316" lon="-9.311168130661176"><ele>164.5</ele><time>2026-04-26T11:51:56Z</time></trkpt><trkpt lat="38.81621274109639" lon="-9.311183640551427"><ele>163.66666666666666</ele><time>2026-04-26T11:51:58Z</time></trkpt><trkpt lat="38.81631073128822" lon="-9.31119141074522"><ele>162.83333333333334</ele><time>2026-04-26T11:52:00Z</time></trkpt><trkpt lat="38.816384098992835" lon="-9.31120290437516"><ele>162.0</ele><time>2026-04-26T11:52:01Z</time></trkpt><trkpt lat="38.816455882567745" lon="-9.31124657151191"><ele>162.0</ele><time>2026-04-26T11:52:02Z</time></trkpt><trkpt lat="38.81653517896813" lon="-9.311300742736671"><ele>162.0</ele><time>2026-04-26T11:52:03Z</time></trkpt><trkpt lat="38.816623503231035" lon="-9.311337844497526"><ele>162.0</ele><time>2026-04-26T11:52:04Z</time></trkpt><trkpt lat="38.816695810498345" lon="-9.311376433395546"><ele>162.0</ele><time>2026-04-26T11:52:05Z</time></trkpt><trkpt lat="38.81676798473223" lon="-9.31150543299384"><ele>162.0</ele><time>2026-04-26T11:52:07Z</time></trkpt><trkpt lat="38.81679119810564" lon="-9.311587933924596"><ele>162.8</ele><time>2026-04-26T11:52:08Z</time></trkpt><trkpt lat="38.81679576366996" lon="-9.311669399226554"><ele>163.6</ele><time>2026-04-26T11:52:09Z</time></trkpt><trkpt lat="38.81686596220266" lon="-9.311759938413783"><ele>164.4</ele><time>2026-04-26T11:52:11Z</time></trkpt><trkpt lat="38.81698675722438" lon="-9.311794764031616"><ele>165.20000000000002</ele><time>2026-04-26T11:52:13Z</time></trkpt><trkpt lat="38.81705146183677" lon="-9.311788068009765"><ele>166.0</ele><time>2026-04-26T11:52:14Z</time></trkpt><trkpt lat="38.817173671569634" lon="-9.311772342519903"><ele>166.0</ele><time>2026-04-26T11:52:16Z</time></trkpt><trkpt lat="38.81723987527544" lon="-9.311763474715592"><ele>166.0</ele><time>2026-04-26T11:52:17Z</time></trkpt><trkpt lat="38.81735070236677" lon="-9.311806716092168"><ele>166.0</ele><time>2026-04-26T11:52:19Z</time></trkpt><trkpt lat="38.817376483907985" lon="-9.311887334655562"><ele>166.0</ele><time>2026-04-26T11:52:20Z</time></trkpt><trkpt lat="38.81739846523165" lon="-9.312015582588415"><ele>166.0</ele><time>2026-04-26T11:52:22Z</time></trkpt><trkpt lat="38.81749268289144" lon="-9.312035901370724"><ele>166.0</ele><time>2026-04-26T11:52:24Z</time></trkpt><trkpt lat="38.817567723103046" lon="-9.312041941459098"><ele>166.0</ele><time>2026-04-26T11:52:26Z</time></trkpt><trkpt lat="38.817635957238686" lon="-9.312130566621528"><ele>166.0</ele><time>2026-04-26T11:52:28Z</time></trkpt><trkpt lat="38.81768604853369" lon="-9.312196514770955"><ele>166.0</ele><time>2026-04-26T11:52:30Z</time></trkpt><trkpt lat="38.81771912467432" lon="-9.312272307296215"><ele>166.0</ele><time>2026-04-26T11:52:32Z</time></trkpt><trkpt lat="38.81779122878828" lon="-9.312251870185388"><ele>166.0</ele><time>2026-04-26T11:52:34Z</time></trkpt><trkpt lat="38.81785374479618" lon="-9.31235229092672"><ele>166.0</ele><time>2026-04-26T11:52:38Z</time></trkpt><trkpt lat="38.8179159192919" lon="-9.312436992325907"><ele>165.33333333333334</ele><time>2026-04-26T11:52:40Z</time></trkpt><trkpt lat="38.81796307732375" lon="-9.3125527846318"><ele>164.66666666666669</ele><time>2026-04-26T11:52:42Z</time></trkpt><trkpt lat="38.81799557557264" lon="-9.312668694437921"><ele>164.0</ele><time>2026-04-26T11:52:44Z</time></trkpt><trkpt lat="38.81805160930604" lon="-9.312792919628226"><ele>163.33333333333334</ele><time>2026-04-26T11:52:46Z</time></trkpt><trkpt lat="38.818062209569135" lon="-9.312881714945359"><ele>162.66666666666666</ele><time>2026-04-26T11:52:47Z</time></trkpt><trkpt lat="38.81806589814445" lon="-9.312963893207549"><ele>162.0</ele><time>2026-04-26T11:52:48Z</time></trkpt><trkpt lat="38.81805753509695" lon="-9.313105320911014"><ele>162.0</ele><time>2026-04-26T11:52:50Z</time></trkpt><trkpt lat="38.81811553543898" lon="-9.313178572566416"><ele>162.0</ele><time>2026-04-26T11:52:52Z</time></trkpt><trkpt lat="38.818162934047045" lon="-9.313292357328526"><ele>162.0</ele><time>2026-04-26T11:52:54Z</time></trkpt><trkpt lat="38.81821734499488" lon="-9.313377248016977"><ele>162.0</ele><time>2026-04-26T11:52:56Z</time></trkpt><trkpt lat="38.81831760622623" lon="-9.313414104250079"><ele>162.0</ele><time>2026-04-26T11:52:58Z</time></trkpt><trkpt lat="38.81841102277412" lon="-9.313452180885633"><ele>162.0</ele><time>2026-04-26T11:53:00Z</time></trkpt><trkpt lat="38.818484110916835" lon="-9.313502961740182"><ele>162.0</ele><time>2026-04-26T11:53:01Z</time></trkpt><trkpt lat="38.81854466402226" lon="-9.313576824902139"><ele>162.0</ele><time>2026-04-26T11:53:02Z</time></trkpt><trkpt lat="38.81860414858633" lon="-9.313628374877672"><ele>162.0</ele><time>2026-04-26T11:53:03Z</time></trkpt><trkpt lat="38.818706735809215" lon="-9.313712555433979"><ele>162.0</ele><time>2026-04-26T11:53:05Z</time></trkpt><trkpt lat="38.8187819901596" lon="-9.313764285436294"><ele>162.0</ele><time>2026-04-26T11:53:06Z</time></trkpt><trkpt lat="38.81884952599428" lon="-9.313809096513248"><ele>160.33333333333334</ele><time>2026-04-26T11:53:07Z</time></trkpt><trkpt lat="38.81891905313516" lon="-9.313835125669968"><ele>158.66666666666666</ele><time>2026-04-26T11:53:08Z</time></trkpt><trkpt lat="38.81900191892225" lon="-9.313847252053943"><ele>157.0</ele><time>2026-04-26T11:53:09Z</time></trkpt><trkpt lat="38.81908899607258" lon="-9.313854746132986"><ele>155.33333333333331</ele><time>2026-04-26T11:53:10Z</time></trkpt><trkpt lat="38.81917144778694" lon="-9.313860999562129"><ele>153.66666666666666</ele><time>2026-04-26T11:53:11Z</time></trkpt><trkpt lat="38.81925524834163" lon="-9.31388076794832"><ele>152.0</ele><time>2026-04-26T11:53:12Z</time></trkpt><trkpt lat="38.81934135651788" lon="-9.31389225464591"><ele>151.4</ele><time>2026-04-26T11:53:13Z</time></trkpt><trkpt lat="38.81940989803665" lon="-9.313893571636408"><ele>150.79999999999998</ele><time>2026-04-26T11:53:14Z</time></trkpt><trkpt lat="38.81950528872781" lon="-9.313958025793482"><ele>150.2</ele><time>2026-04-26T11:53:16Z</time></trkpt><trkpt lat="38.81949263469533" lon="-9.314086321102215"><ele>149.6</ele><time>2026-04-26T11:53:18Z</time></trkpt><trkpt lat="38.81945222092742" lon="-9.31416637120476"><ele>149.0</ele><time>2026-04-26T11:53:19Z</time></trkpt><trkpt lat="38.81932092607976" lon="-9.314231656910135"><ele>150.4</ele><time>2026-04-26T11:53:20Z</time></trkpt><trkpt lat="38.819306420426805" lon="-9.314351363761425"><ele>151.8</ele><time>2026-04-26T11:53:21Z</time></trkpt><trkpt lat="38.81928518817893" lon="-9.31449247325633"><ele>153.2</ele><time>2026-04-26T11:53:22Z</time></trkpt><trkpt lat="38.8192560183966" lon="-9.314642251912852"><ele>154.6</ele><time>2026-04-26T11:53:23Z</time></trkpt><trkpt lat="38.81921306353049" lon="-9.314763541066421"><ele>156.0</ele><time>2026-04-26T11:53:24Z</time></trkpt><trkpt lat="38.81911682603083" lon="-9.314874683972644"><ele>156.0</ele><time>2026-04-26T11:53:25Z</time></trkpt><trkpt lat="38.81907406246291" lon="-9.315045851796684"><ele>156.0</ele><time>2026-04-26T11:53:26Z</time></trkpt><trkpt lat="38.81916771841462" lon="-9.315221268588006"><ele>156.0</ele><time>2026-04-26T11:53:27Z</time></trkpt><trkpt lat="38.81912474821219" lon="-9.315362515739"><ele>156.0</ele><time>2026-04-26T11:53:28Z</time></trkpt><trkpt lat="38.81908568867845" lon="-9.315502390137855"><ele>156.0</ele><time>2026-04-26T11:53:29Z</time></trkpt><trkpt lat="38.81906819996383" lon="-9.31562018297439"><ele>156.0</ele><time>2026-04-26T11:53:30Z</time></trkpt><trkpt lat="38.81902268004253" lon="-9.315728580346882"><ele>156.0</ele><time>2026-04-26T11:53:31Z</time></trkpt><trkpt lat="38.81897115954705" lon="-9.315869802732406"><ele>156.0</ele><time>2026-04-26T11:53:32Z</time></trkpt><trkpt lat="38.81890963474493" lon="-9.316002342389453"><ele>156.0</ele><time>2026-04-26T11:53:33Z</time></trkpt><trkpt lat="38.81886020212565" lon="-9.316150894247683"><ele>156.0</ele><time>2026-04-26T11:53:34Z</time></trkpt><trkpt lat="38.81880407696206" lon="-9.31629781096479"><ele>156.0</ele><time>2026-04-26T11:53:35Z</time></trkpt><trkpt lat="38.818741774569084" lon="-9.316439804795724"><ele>156.0</ele><time>2026-04-26T11:53:36Z</time></trkpt><trkpt lat="38.81867132954123" lon="-9.31656895885354"><ele>156.0</ele><time>2026-04-26T11:53:37Z</time></trkpt><trkpt lat="38.81859934019873" lon="-9.316690436525432"><ele>156.75</ele><time>2026-04-26T11:53:38Z</time></trkpt><trkpt lat="38.81853529739702" lon="-9.316815916801067"><ele>157.5</ele><time>2026-04-26T11:53:39Z</time></trkpt><trkpt lat="38.81850005259661" lon="-9.316950664963917"><ele>158.25</ele><time>2026-04-26T11:53:40Z</time></trkpt><trkpt lat="38.818469622012465" lon="-9.317104924320457"><ele>159.0</ele><time>2026-04-26T11:53:41Z</time></trkpt><trkpt lat="38.81842752237214" lon="-9.317245912314798"><ele>161.0</ele><time>2026-04-26T11:53:42Z</time></trkpt><trkpt lat="38.818366608057886" lon="-9.317374006610251"><ele>163.0</ele><time>2026-04-26T11:53:43Z</time></trkpt><trkpt lat="38.81832385255938" lon="-9.317511958829238"><ele>165.0</ele><time>2026-04-26T11:53:44Z</time></trkpt><trkpt lat="38.81826573353389" lon="-9.317622129797725"><ele>167.0</ele><time>2026-04-26T11:53:45Z</time></trkpt><trkpt lat="38.818185687659096" lon="-9.31771491282693"><ele>169.0</ele><time>2026-04-26T11:53:46Z</time></trkpt><trkpt lat="38.81810015858852" lon="-9.31779046266225"><ele>169.0</ele><time>2026-04-26T11:53:47Z</time></trkpt><trkpt lat="38.81802708553496" lon="-9.31784923389017"><ele>169.0</ele><time>2026-04-26T11:53:48Z</time></trkpt><trkpt lat="38.8179585951035" lon="-9.317883371538638"><ele>169.0</ele><time>2026-04-26T11:53:49Z</time></trkpt><trkpt lat="38.81801445917293" lon="-9.318086918940459"><ele>169.0</ele><time>2026-04-26T11:53:51Z</time></trkpt><trkpt lat="38.81804760027201" lon="-9.31823903619274"><ele>168.75</ele><time>2026-04-26T11:53:52Z</time></trkpt><trkpt lat="38.818079465916256" lon="-9.318417126874259"><ele>168.5</ele><time>2026-04-26T11:53:53Z</time></trkpt><trkpt lat="38.818109033060146" lon="-9.31860523703596"><ele>168.25</ele><time>2026-04-26T11:53:54Z</time></trkpt><trkpt lat="38.81812369483303" lon="-9.318799910276999"><ele>168.0</ele><time>2026-04-26T11:53:55Z</time></trkpt><trkpt lat="38.81815611189533" lon="-9.319010086617538"><ele>167.0</ele><time>2026-04-26T11:53:56Z</time></trkpt><trkpt lat="38.81818382816813" lon="-9.319219681817474"><ele>166.0</ele><time>2026-04-26T11:53:57Z</time></trkpt><trkpt lat="38.818212556662914" lon="-9.319410539110011"><ele>165.0</ele><time>2026-04-26T11:53:58Z</time></trkpt><trkpt lat="38.81825331148864" lon="-9.319596474317539"><ele>164.0</ele><time>2026-04-26T11:53:59Z</time></trkpt><trkpt lat="38.8182842675317" lon="-9.319778381285111"><ele>163.0</ele><time>2026-04-26T11:54:00Z</time></trkpt><trkpt lat="38.81832240332427" lon="-9.319939191361447"><ele>162.0</ele><time>2026-04-26T11:54:01Z</time></trkpt><trkpt lat="38.818371506657314" lon="-9.320085240355196"><ele>161.0</ele><time>2026-04-26T11:54:02Z</time></trkpt><trkpt lat="38.81843022000354" lon="-9.320208527150683"><ele>158.8</ele><time>2026-04-26T11:54:03Z</time></trkpt><trkpt lat="38.81850194339525" lon="-9.320318677661072"><ele>156.60000000000002</ele><time>2026-04-26T11:54:04Z</time></trkpt><trkpt lat="38.81858436438622" lon="-9.320414681582568"><ele>154.4</ele><time>2026-04-26T11:54:05Z</time></trkpt><trkpt lat="38.818672148548195" lon="-9.320490738174213"><ele>152.2</ele><time>2026-04-26T11:54:06Z</time></trkpt><trkpt lat="38.81876525547303" lon="-9.320548469683226"><ele>150.0</ele><time>2026-04-26T11:54:07Z</time></trkpt><trkpt lat="38.818847707587814" lon="-9.320586399511614"><ele>150.0</ele><time>2026-04-26T11:54:08Z</time></trkpt><trkpt lat="38.81891584099332" lon="-9.320612387906136"><ele>150.0</ele><time>2026-04-26T11:54:09Z</time></trkpt><trkpt lat="38.81898280881338" lon="-9.320787262725851"><ele>150.0</ele><time>2026-04-26T11:54:11Z</time></trkpt><trkpt lat="38.81898290429858" lon="-9.32088856513866"><ele>150.0</ele><time>2026-04-26T11:54:12Z</time></trkpt><trkpt lat="38.81899291018048" lon="-9.320997440754647"><ele>150.0</ele><time>2026-04-26T11:54:13Z</time></trkpt><trkpt lat="38.81899246248504" lon="-9.321121638773652"><ele>150.0</ele><time>2026-04-26T11:54:14Z</time></trkpt><trkpt lat="38.81897845043935" lon="-9.321244056848423"><ele>150.0</ele><time>2026-04-26T11:54:15Z</time></trkpt><trkpt lat="38.818966193092734" lon="-9.321369358212275"><ele>150.0</ele><time>2026-04-26T11:54:16Z</time></trkpt><trkpt lat="38.81894827753299" lon="-9.321502686873144"><ele>150.0</ele><time>2026-04-26T11:54:17Z</time></trkpt><trkpt lat="38.8189427269023" lon="-9.321641178265574"><ele>150.0</ele><time>2026-04-26T11:54:18Z</time></trkpt><trkpt lat="38.81894504156284" lon="-9.321775300424543"><ele>149.0</ele><time>2026-04-26T11:54:19Z</time></trkpt><trkpt lat="38.818935273969885" lon="-9.321908494072037"><ele>148.0</ele><time>2026-04-26T11:54:20Z</time></trkpt><trkpt lat="38.81890696310585" lon="-9.322041966679839"><ele>147.0</ele><time>2026-04-26T11:54:21Z</time></trkpt><trkpt lat="38.81887716938397" lon="-9.322168193250704"><ele>146.0</ele><time>2026-04-26T11:54:22Z</time></trkpt><trkpt lat="38.818832044823296" lon="-9.322275980961738"><ele>145.0</ele><time>2026-04-26T11:54:23Z</time></trkpt><trkpt lat="38.81880969072321" lon="-9.322409448664832"><ele>144.6</ele><time>2026-04-26T11:54:24Z</time></trkpt><trkpt lat="38.818784766710884" lon="-9.322537247384128"><ele>144.2</ele><time>2026-04-26T11:54:25Z</time></trkpt><trkpt lat="38.81876888032444" lon="-9.32265932390303"><ele>143.8</ele><time>2026-04-26T11:54:26Z</time></trkpt><trkpt lat="38.81874992445236" lon="-9.322792365042714"><ele>143.4</ele><time>2026-04-26T11:54:27Z</time></trkpt><trkpt lat="38.81871728796304" lon="-9.322915632542868"><ele>143.0</ele><time>2026-04-26T11:54:28Z</time></trkpt><trkpt lat="38.81870558124332" lon="-9.323021665327866"><ele>143.33333333333331</ele><time>2026-04-26T11:54:29Z</time></trkpt><trkpt lat="38.81867074717691" lon="-9.323125554423907"><ele>143.66666666666666</ele><time>2026-04-26T11:54:30Z</time></trkpt><trkpt lat="38.81863199888179" lon="-9.32323114029327"><ele>144.0</ele><time>2026-04-26T11:54:31Z</time></trkpt><trkpt lat="38.818600491548956" lon="-9.323341220179591"><ele>144.33333333333334</ele><time>2026-04-26T11:54:32Z</time></trkpt><trkpt lat="38.818582604638785" lon="-9.3234440333307"><ele>144.66666666666669</ele><time>2026-04-26T11:54:33Z</time></trkpt><trkpt lat="38.81855770398387" lon="-9.323544614795647"><ele>145.0</ele><time>2026-04-26T11:54:34Z</time></trkpt><trkpt lat="38.81854170113953" lon="-9.32365471789411"><ele>145.0</ele><time>2026-04-26T11:54:35Z</time></trkpt><trkpt lat="38.8185401598095" lon="-9.323754040618265"><ele>145.0</ele><time>2026-04-26T11:54:36Z</time></trkpt><trkpt lat="38.81854563788336" lon="-9.32386103329088"><ele>145.0</ele><time>2026-04-26T11:54:37Z</time></trkpt><trkpt lat="38.81853766843087" lon="-9.323952460051082"><ele>145.0</ele><time>2026-04-26T11:54:38Z</time></trkpt><trkpt lat="38.81854678091052" lon="-9.324063377859316"><ele>145.0</ele><time>2026-04-26T11:54:39Z</time></trkpt><trkpt lat="38.81855310955268" lon="-9.32418523961217"><ele>145.0</ele><time>2026-04-26T11:54:40Z</time></trkpt><trkpt lat="38.81854246042347" lon="-9.324307380454055"><ele>145.2</ele><time>2026-04-26T11:54:41Z</time></trkpt><trkpt lat="38.81851903554867" lon="-9.32441228591797"><ele>145.4</ele><time>2026-04-26T11:54:42Z</time></trkpt><trkpt lat="38.818497247932385" lon="-9.324520549242635"><ele>145.6</ele><time>2026-04-26T11:54:43Z</time></trkpt><trkpt lat="38.818471462753784" lon="-9.324642082656407"><ele>145.8</ele><time>2026-04-26T11:54:44Z</time></trkpt><trkpt lat="38.818437008706674" lon="-9.324769523996764"><ele>146.0</ele><time>2026-04-26T11:54:45Z</time></trkpt><trkpt lat="38.818421315989085" lon="-9.324898759475394"><ele>146.4</ele><time>2026-04-26T11:54:46Z</time></trkpt><trkpt lat="38.81839701139314" lon="-9.325025288446907"><ele>146.8</ele><time>2026-04-26T11:54:47Z</time></trkpt><trkpt lat="38.818376477964804" lon="-9.325148760690471"><ele>147.20000000000002</ele><time>2026-04-26T11:54:48Z</time></trkpt><trkpt lat="38.81836880576901" lon="-9.325268404207106"><ele>147.6</ele><time>2026-04-26T11:54:49Z</time></trkpt><trkpt lat="38.81836916446893" lon="-9.325392949858736"><ele>148.0</ele><time>2026-04-26T11:54:50Z</time></trkpt><trkpt lat="38.818408345445796" lon="-9.325511878805695"><ele>147.8</ele><time>2026-04-26T11:54:51Z</time></trkpt><trkpt lat="38.81845258742136" lon="-9.325630736780818"><ele>147.60000000000002</ele><time>2026-04-26T11:54:52Z</time></trkpt><trkpt lat="38.818491072233314" lon="-9.325745531448609"><ele>147.39999999999998</ele><time>2026-04-26T11:54:53Z</time></trkpt><trkpt lat="38.81853576544109" lon="-9.325877982185506"><ele>147.2</ele><time>2026-04-26T11:54:54Z</time></trkpt><trkpt lat="38.818583578155405" lon="-9.326019677713909"><ele>147.0</ele><time>2026-04-26T11:54:55Z</time></trkpt><trkpt lat="38.818636327285176" lon="-9.326178603688582"><ele>146.2</ele><time>2026-04-26T11:54:56Z</time></trkpt><trkpt lat="38.81868104879096" lon="-9.3263185879719"><ele>145.39999999999998</ele><time>2026-04-26T11:54:57Z</time></trkpt><trkpt lat="38.818708244878145" lon="-9.326448884433908"><ele>144.60000000000002</ele><time>2026-04-26T11:54:58Z</time></trkpt><trkpt lat="38.81874388910489" lon="-9.326563398086792"><ele>143.8</ele><time>2026-04-26T11:54:59Z</time></trkpt><trkpt lat="38.81876118356044" lon="-9.326669159565057"><ele>143.0</ele><time>2026-04-26T11:55:00Z</time></trkpt><trkpt lat="38.81875868731064" lon="-9.326763129692624"><ele>143.25</ele><time>2026-04-26T11:55:01Z</time></trkpt><trkpt lat="38.818718553204945" lon="-9.326866818189206"><ele>143.5</ele><time>2026-04-26T11:55:03Z</time></trkpt><trkpt lat="38.818557767758584" lon="-9.326828320427955"><ele>143.75</ele><time>2026-04-26T11:55:04Z</time></trkpt><trkpt lat="38.81845203896112" lon="-9.32683952514386"><ele>144.0</ele><time>2026-04-26T11:55:05Z</time></trkpt><trkpt lat="38.81834941550354" lon="-9.326865570922495"><ele>144.0</ele><time>2026-04-26T11:55:06Z</time></trkpt><trkpt lat="38.81825472364912" lon="-9.326901787445827"><ele>144.0</ele><time>2026-04-26T11:55:07Z</time></trkpt><trkpt lat="38.818156285798864" lon="-9.326935491442292"><ele>144.0</ele><time>2026-04-26T11:55:08Z</time></trkpt><trkpt lat="38.81805985619286" lon="-9.326953890435286"><ele>144.0</ele><time>2026-04-26T11:55:09Z</time></trkpt><trkpt lat="38.81795889829059" lon="-9.326965399500454"><ele>144.0</ele><time>2026-04-26T11:55:10Z</time></trkpt><trkpt lat="38.81786571579334" lon="-9.32701149360737"><ele>144.0</ele><time>2026-04-26T11:55:11Z</time></trkpt><trkpt lat="38.81777531777145" lon="-9.327058203170775"><ele>144.0</ele><time>2026-04-26T11:55:12Z</time></trkpt><trkpt lat="38.81775669861053" lon="-9.327180772655101"><ele>144.0</ele><time>2026-04-26T11:55:13Z</time></trkpt><trkpt lat="38.81776302143553" lon="-9.327307662779635"><ele>144.0</ele><time>2026-04-26T11:55:14Z</time></trkpt><trkpt lat="38.817742792314405" lon="-9.327458745910334"><ele>144.0</ele><time>2026-04-26T11:55:15Z</time></trkpt><trkpt lat="38.81771112353127" lon="-9.32759727621649"><ele>144.6</ele><time>2026-04-26T11:55:16Z</time></trkpt><trkpt lat="38.817649038012405" lon="-9.327699184948099"><ele>145.2</ele><time>2026-04-26T11:55:17Z</time></trkpt><trkpt lat="38.817605909444204" lon="-9.327807030941846"><ele>145.79999999999998</ele><time>2026-04-26T11:55:18Z</time></trkpt><trkpt lat="38.817531304907455" lon="-9.327905756741254"><ele>146.4</ele><time>2026-04-26T11:55:19Z</time></trkpt><trkpt lat="38.81749269794143" lon="-9.328029919534634"><ele>147.0</ele><time>2026-04-26T11:55:20Z</time></trkpt><trkpt lat="38.81745269914921" lon="-9.328146721360987"><ele>147.5</ele><time>2026-04-26T11:55:21Z</time></trkpt><trkpt lat="38.817419994223556" lon="-9.3282736751136"><ele>148.0</ele><time>2026-04-26T11:55:22Z</time></trkpt><trkpt lat="38.8173799938198" lon="-9.328409960864267"><ele>148.5</ele><time>2026-04-26T11:55:23Z</time></trkpt><trkpt lat="38.81732874837861" lon="-9.328548395676783"><ele>149.0</ele><time>2026-04-26T11:55:24Z</time></trkpt><trkpt lat="38.817269717309564" lon="-9.328682685073208"><ele>149.0</ele><time>2026-04-26T11:55:25Z</time></trkpt><trkpt lat="38.817210889502114" lon="-9.328802294236407"><ele>149.0</ele><time>2026-04-26T11:55:26Z</time></trkpt><trkpt lat="38.81714909199595" lon="-9.328922157774967"><ele>149.0</ele><time>2026-04-26T11:55:27Z</time></trkpt><trkpt lat="38.81708314404675" lon="-9.329036138894603"><ele>149.0</ele><time>2026-04-26T11:55:28Z</time></trkpt><trkpt lat="38.81701047554707" lon="-9.32913728495694"><ele>149.0</ele><time>2026-04-26T11:55:29Z</time></trkpt><trkpt lat="38.81697238193939" lon="-9.329240163706261"><ele>149.16666666666666</ele><time>2026-04-26T11:55:30Z</time></trkpt><trkpt lat="38.81693822315225" lon="-9.32935195627681"><ele>149.33333333333331</ele><time>2026-04-26T11:55:31Z</time></trkpt><trkpt lat="38.81691091997514" lon="-9.329450951581926"><ele>149.5</ele><time>2026-04-26T11:55:32Z</time></trkpt><trkpt lat="38.816879928343965" lon="-9.329549709516453"><ele>149.66666666666666</ele><time>2026-04-26T11:55:33Z</time></trkpt><trkpt lat="38.8168467827981" lon="-9.329643755360529"><ele>149.83333333333334</ele><time>2026-04-26T11:55:34Z</time></trkpt><trkpt lat="38.8168010023474" lon="-9.329750059979217"><ele>150.0</ele><time>2026-04-26T11:55:35Z</time></trkpt><trkpt lat="38.816762458961215" lon="-9.329837473366648"><ele>150.6</ele><time>2026-04-26T11:55:36Z</time></trkpt><trkpt lat="38.81673110197404" lon="-9.329918740006764"><ele>151.2</ele><time>2026-04-26T11:55:37Z</time></trkpt><trkpt lat="38.81671260419734" lon="-9.3300413696842"><ele>151.8</ele><time>2026-04-26T11:55:39Z</time></trkpt><trkpt lat="38.81657704669701" lon="-9.329987878314386"><ele>152.4</ele><time>2026-04-26T11:55:41Z</time></trkpt><trkpt lat="38.81649698971695" lon="-9.329884731644697"><ele>153.0</ele><time>2026-04-26T11:55:43Z</time></trkpt><trkpt lat="38.816423094590284" lon="-9.329838068897718"><ele>153.0</ele><time>2026-04-26T11:55:44Z</time></trkpt><trkpt lat="38.81635058821961" lon="-9.329769992681554"><ele>153.0</ele><time>2026-04-26T11:55:45Z</time></trkpt><trkpt lat="38.8162815629588" lon="-9.329687323323087"><ele>153.0</ele><time>2026-04-26T11:55:46Z</time></trkpt><trkpt lat="38.816222380273864" lon="-9.329593827326645"><ele>153.0</ele><time>2026-04-26T11:55:47Z</time></trkpt><trkpt lat="38.816142121824626" lon="-9.329530929016661"><ele>153.0</ele><time>2026-04-26T11:55:48Z</time></trkpt><trkpt lat="38.81604958226335" lon="-9.329452609538567"><ele>155.75</ele><time>2026-04-26T11:55:49Z</time></trkpt><trkpt lat="38.81595164469861" lon="-9.329378911388458"><ele>158.5</ele><time>2026-04-26T11:55:50Z</time></trkpt><trkpt lat="38.81585036344719" lon="-9.329311234003043"><ele>161.25</ele><time>2026-04-26T11:55:51Z</time></trkpt><trkpt lat="38.81574487846197" lon="-9.32925855859308"><ele>164.0</ele><time>2026-04-26T11:55:52Z</time></trkpt><trkpt lat="38.815634875999635" lon="-9.329211650823684"><ele>164.0</ele><time>2026-04-26T11:55:53Z</time></trkpt><trkpt lat="38.81552324315793" lon="-9.329150725336163"><ele>164.0</ele><time>2026-04-26T11:55:54Z</time></trkpt><trkpt lat="38.81541477861861" lon="-9.329089874231382"><ele>164.0</ele><time>2026-04-26T11:55:55Z</time></trkpt><trkpt lat="38.81530017345876" lon="-9.329025440085323"><ele>164.0</ele><time>2026-04-26T11:55:56Z</time></trkpt><trkpt lat="38.815194648289726" lon="-9.328965686401748"><ele>166.2</ele><time>2026-04-26T11:55:57Z</time></trkpt><trkpt lat="38.81510263799995" lon="-9.328890563316765"><ele>168.39999999999998</ele><time>2026-04-26T11:55:58Z</time></trkpt><trkpt lat="38.81501579486069" lon="-9.328841945073037"><ele>170.6</ele><time>2026-04-26T11:55:59Z</time></trkpt><trkpt lat="38.81493305523028" lon="-9.328779683470549"><ele>172.8</ele><time>2026-04-26T11:56:00Z</time></trkpt><trkpt lat="38.81487611644428" lon="-9.32868245301182"><ele>175.0</ele><time>2026-04-26T11:56:01Z</time></trkpt><trkpt lat="38.8148556679295" lon="-9.328562553724812"><ele>175.0</ele><time>2026-04-26T11:56:02Z</time></trkpt><trkpt lat="38.81483268288641" lon="-9.32847777900709"><ele>175.0</ele><time>2026-04-26T11:56:03Z</time></trkpt><trkpt lat="38.814809543567506" lon="-9.328388934020026"><ele>175.0</ele><time>2026-04-26T11:56:05Z</time></trkpt><trkpt lat="38.81481355791676" lon="-9.328296740231435"><ele>175.0</ele><time>2026-04-26T11:56:07Z</time></trkpt><trkpt lat="38.814808344732775" lon="-9.32816346240216"><ele>175.0</ele><time>2026-04-26T11:56:09Z</time></trkpt><trkpt lat="38.81477953029151" lon="-9.328072299743106"><ele>175.0</ele><time>2026-04-26T11:56:11Z</time></trkpt><trkpt lat="38.81471031929508" lon="-9.328037372454006"><ele>175.0</ele><time>2026-04-26T11:56:13Z</time></trkpt><trkpt lat="38.81467534999458" lon="-9.327966319978424"><ele>175.0</ele><time>2026-04-26T11:56:21Z</time></trkpt><trkpt lat="38.81466679402986" lon="-9.327880628035949"><ele>175.0</ele><time>2026-04-26T11:56:23Z</time></trkpt><trkpt lat="38.814635513586126" lon="-9.327789074288813"><ele>175.0</ele><time>2026-04-26T11:56:26Z</time></trkpt><trkpt lat="38.814643143937566" lon="-9.327878417283248"><ele>175.0</ele><time>2026-04-26T11:56:59Z</time></trkpt><trkpt lat="38.81469167550962" lon="-9.32793580426156"><ele>175.0</ele><time>2026-04-26T11:57:08Z</time></trkpt><trkpt lat="38.814727315909664" lon="-9.328020611507188"><ele>175.0</ele><time>2026-04-26T11:58:08Z</time></trkpt><trkpt lat="38.81477036855232" lon="-9.32809034239357"><ele>175.0</ele><time>2026-04-26T11:58:28Z</time></trkpt><trkpt lat="38.81482803588804" lon="-9.328135633736279"><ele>175.0</ele><time>2026-04-26T11:58:47Z</time></trkpt><trkpt lat="38.81481224478238" lon="-9.328235423982152"><ele>175.0</ele><time>2026-04-26T11:58:52Z</time></trkpt><trkpt lat="38.81482409807975" lon="-9.328321148650204"><ele>175.0</ele><time>2026-04-26T11:58:54Z</time></trkpt><trkpt lat="38.81483006647056" lon="-9.328404145656025"><ele>175.0</ele><time>2026-04-26T11:58:56Z</time></trkpt><trkpt lat="38.81485108673515" lon="-9.32851572259106"><ele>175.0</ele><time>2026-04-26T11:58:59Z</time></trkpt><trkpt lat="38.81488559815846" lon="-9.328628734942201"><ele>175.0</ele><time>2026-04-26T11:59:01Z</time></trkpt><trkpt lat="38.81494378224821" lon="-9.3287535649427"><ele>175.0</ele><time>2026-04-26T11:59:03Z</time></trkpt><trkpt lat="38.815036613769024" lon="-9.328817775672823"><ele>175.0</ele><time>2026-04-26T11:59:05Z</time></trkpt><trkpt lat="38.815147688656715" lon="-9.328891185212319"><ele>175.0</ele><time>2026-04-26T11:59:07Z</time></trkpt><trkpt lat="38.81522210422017" lon="-9.328934638664194"><ele>175.0</ele><time>2026-04-26T11:59:08Z</time></trkpt><trkpt lat="38.815288209717714" lon="-9.328993155912736"><ele>172.8</ele><time>2026-04-26T11:59:09Z</time></trkpt><trkpt lat="38.81537064474824" lon="-9.329030793010274"><ele>170.6</ele><time>2026-04-26T11:59:10Z</time></trkpt><trkpt lat="38.815460790372754" lon="-9.329079232548992"><ele>168.39999999999998</ele><time>2026-04-26T11:59:11Z</time></trkpt><trkpt lat="38.81554817550107" lon="-9.329131151314709"><ele>166.2</ele><time>2026-04-26T11:59:12Z</time></trkpt><trkpt lat="38.81563455737818" lon="-9.32917855279939"><ele>164.0</ele><time>2026-04-26T11:59:13Z</time></trkpt><trkpt lat="38.815742352290016" lon="-9.329211735786648"><ele>164.0</ele><time>2026-04-26T11:59:14Z</time></trkpt><trkpt lat="38.815842346217494" lon="-9.329261645954695"><ele>164.0</ele><time>2026-04-26T11:59:15Z</time></trkpt><trkpt lat="38.81593401157291" lon="-9.329336331010845"><ele>164.0</ele><time>2026-04-26T11:59:16Z</time></trkpt><trkpt lat="38.816019572802304" lon="-9.32939204256853"><ele>164.0</ele><time>2026-04-26T11:59:17Z</time></trkpt><trkpt lat="38.81609637404877" lon="-9.329454173608411"><ele>164.0</ele><time>2026-04-26T11:59:18Z</time></trkpt><trkpt lat="38.81618009546358" lon="-9.329526082799124"><ele>162.0</ele><time>2026-04-26T11:59:19Z</time></trkpt><trkpt lat="38.81626614683034" lon="-9.32961552984844"><ele>160.0</ele><time>2026-04-26T11:59:20Z</time></trkpt><trkpt lat="38.81637398015923" lon="-9.329717915482075"><ele>158.0</ele><time>2026-04-26T11:59:21Z</time></trkpt><trkpt lat="38.81648714551073" lon="-9.329826486561531"><ele>156.0</ele><time>2026-04-26T11:59:22Z</time></trkpt><trkpt lat="38.81659042324276" lon="-9.329912206491588"><ele>155.4</ele><time>2026-04-26T11:59:23Z</time></trkpt><trkpt lat="38.81667937548165" lon="-9.329982658360386"><ele>154.8</ele><time>2026-04-26T11:59:24Z</time></trkpt><trkpt lat="38.81676712284492" lon="-9.330019736375913"><ele>154.20000000000002</ele><time>2026-04-26T11:59:25Z</time></trkpt><trkpt lat="38.81683294539678" lon="-9.330166401567475"><ele>153.6</ele><time>2026-04-26T11:59:26Z</time></trkpt><trkpt lat="38.81692215693047" lon="-9.330244097685478"><ele>153.0</ele><time>2026-04-26T11:59:27Z</time></trkpt><trkpt lat="38.81699668976964" lon="-9.330324215760257"><ele>152.16666666666666</ele><time>2026-04-26T11:59:28Z</time></trkpt><trkpt lat="38.8170587435283" lon="-9.330409378076018"><ele>151.33333333333334</ele><time>2026-04-26T11:59:29Z</time></trkpt><trkpt lat="38.81709629250305" lon="-9.330498120014209"><ele>150.5</ele><time>2026-04-26T11:59:30Z</time></trkpt><trkpt lat="38.81709830410393" lon="-9.330586976538068"><ele>149.66666666666669</ele><time>2026-04-26T11:59:31Z</time></trkpt><trkpt lat="38.81706006320588" lon="-9.33068291484827"><ele>148.83333333333334</ele><time>2026-04-26T11:59:32Z</time></trkpt><trkpt lat="38.81699646803868" lon="-9.330762457307378"><ele>148.0</ele><time>2026-04-26T11:59:33Z</time></trkpt><trkpt lat="38.816932970779575" lon="-9.330850250119457"><ele>148.0</ele><time>2026-04-26T11:59:34Z</time></trkpt><trkpt lat="38.816868345267814" lon="-9.330920000934125"><ele>148.0</ele><time>2026-04-26T11:59:35Z</time></trkpt><trkpt lat="38.81681836439478" lon="-9.331010840603147"><ele>148.0</ele><time>2026-04-26T11:59:36Z</time></trkpt><trkpt lat="38.81676995692764" lon="-9.33109120673714"><ele>148.0</ele><time>2026-04-26T11:59:37Z</time></trkpt><trkpt lat="38.816739950478535" lon="-9.331182598879751"><ele>148.0</ele><time>2026-04-26T11:59:38Z</time></trkpt><trkpt lat="38.816714019237445" lon="-9.331285902537383"><ele>148.0</ele><time>2026-04-26T11:59:39Z</time></trkpt><trkpt lat="38.81668883126689" lon="-9.331392914852582"><ele>148.71428571428572</ele><time>2026-04-26T11:59:40Z</time></trkpt><trkpt lat="38.81666111662967" lon="-9.331478463539268"><ele>149.42857142857142</ele><time>2026-04-26T11:59:41Z</time></trkpt><trkpt lat="38.8166377922287" lon="-9.331572835131904"><ele>150.14285714285714</ele><time>2026-04-26T11:59:42Z</time></trkpt><trkpt lat="38.816621667764004" lon="-9.331653159221311"><ele>150.85714285714286</ele><time>2026-04-26T11:59:43Z</time></trkpt><trkpt lat="38.816602015855196" lon="-9.331740652148321"><ele>151.57142857142858</ele><time>2026-04-26T11:59:44Z</time></trkpt><trkpt lat="38.816582679270375" lon="-9.331830949706918"><ele>152.28571428571428</ele><time>2026-04-26T11:59:45Z</time></trkpt><trkpt lat="38.8165696727833" lon="-9.331937035322825"><ele>153.0</ele><time>2026-04-26T11:59:46Z</time></trkpt><trkpt lat="38.816546191107804" lon="-9.332056245488388"><ele>153.0</ele><time>2026-04-26T11:59:47Z</time></trkpt><trkpt lat="38.816518433671135" lon="-9.332199742296762"><ele>153.0</ele><time>2026-04-26T11:59:48Z</time></trkpt><trkpt lat="38.81649214044505" lon="-9.332337922811917"><ele>153.0</ele><time>2026-04-26T11:59:49Z</time></trkpt><trkpt lat="38.81646845504323" lon="-9.332449761299987"><ele>153.0</ele><time>2026-04-26T11:59:50Z</time></trkpt><trkpt lat="38.816453329187546" lon="-9.33255232852696"><ele>153.0</ele><time>2026-04-26T11:59:51Z</time></trkpt><trkpt lat="38.816451561190576" lon="-9.33265985976334"><ele>153.0</ele><time>2026-04-26T11:59:52Z</time></trkpt><trkpt lat="38.81644129663741" lon="-9.332753866127868"><ele>153.0</ele><time>2026-04-26T11:59:53Z</time></trkpt><trkpt lat="38.81648278312024" lon="-9.332939743695546"><ele>153.0</ele><time>2026-04-26T11:59:55Z</time></trkpt><trkpt lat="38.81650420699902" lon="-9.333051910220538"><ele>153.0</ele><time>2026-04-26T11:59:56Z</time></trkpt><trkpt lat="38.81652031055178" lon="-9.333170119918583"><ele>153.0</ele><time>2026-04-26T11:59:57Z</time></trkpt><trkpt lat="38.816509281644" lon="-9.333291471235878"><ele>153.20000000000002</ele><time>2026-04-26T11:59:58Z</time></trkpt><trkpt lat="38.81646382029228" lon="-9.333398487799597"><ele>153.4</ele><time>2026-04-26T11:59:59Z</time></trkpt><trkpt lat="38.81641297786943" lon="-9.333514178788922"><ele>153.60000000000002</ele><time>2026-04-26T12:00:00Z</time></trkpt><trkpt lat="38.816359126367125" lon="-9.333622467177884"><ele>153.8</ele><time>2026-04-26T12:00:01Z</time></trkpt><trkpt lat="38.81631068530694" lon="-9.33373144014495"><ele>154.0</ele><time>2026-04-26T12:00:02Z</time></trkpt><trkpt lat="38.81625767018377" lon="-9.333844646767906"><ele>153.8</ele><time>2026-04-26T12:00:03Z</time></trkpt><trkpt lat="38.816204990982385" lon="-9.333938485443108"><ele>153.60000000000002</ele><time>2026-04-26T12:00:04Z</time></trkpt><trkpt lat="38.81615514919294" lon="-9.334015676646358"><ele>153.4</ele><time>2026-04-26T12:00:05Z</time></trkpt><trkpt lat="38.8161047793464" lon="-9.334102129431447"><ele>153.20000000000002</ele><time>2026-04-26T12:00:06Z</time></trkpt><trkpt lat="38.8160963574518" lon="-9.334225910976183"><ele>153.0</ele><time>2026-04-26T12:00:07Z</time></trkpt><trkpt lat="38.81606911877994" lon="-9.334359743332945"><ele>153.0</ele><time>2026-04-26T12:00:08Z</time></trkpt><trkpt lat="38.81603288465824" lon="-9.334489758323551"><ele>153.0</ele><time>2026-04-26T12:00:09Z</time></trkpt><trkpt lat="38.81600532435048" lon="-9.334598883015227"><ele>153.0</ele><time>2026-04-26T12:00:10Z</time></trkpt><trkpt lat="38.81598548725235" lon="-9.33470058689152"><ele>153.0</ele><time>2026-04-26T12:00:11Z</time></trkpt><trkpt lat="38.81599405409586" lon="-9.334789360648461"><ele>153.0</ele><time>2026-04-26T12:00:12Z</time></trkpt><trkpt lat="38.81603531926343" lon="-9.334876019963213"><ele>153.0</ele><time>2026-04-26T12:00:13Z</time></trkpt><trkpt lat="38.816124980426814" lon="-9.334906896940664"><ele>152.4</ele><time>2026-04-26T12:00:14Z</time></trkpt><trkpt lat="38.816196810817395" lon="-9.334978518933358"><ele>151.8</ele><time>2026-04-26T12:00:15Z</time></trkpt><trkpt lat="38.81627031259378" lon="-9.335055893297515"><ele>151.2</ele><time>2026-04-26T12:00:16Z</time></trkpt><trkpt lat="38.816345376894226" lon="-9.335149389941872"><ele>150.6</ele><time>2026-04-26T12:00:17Z</time></trkpt><trkpt lat="38.81642222839722" lon="-9.335247769073538"><ele>150.0</ele><time>2026-04-26T12:00:18Z</time></trkpt><trkpt lat="38.816478283910534" lon="-9.335363107879513"><ele>150.0</ele><time>2026-04-26T12:00:19Z</time></trkpt><trkpt lat="38.81653891350368" lon="-9.335477640352746"><ele>150.0</ele><time>2026-04-26T12:00:20Z</time></trkpt><trkpt lat="38.816590046501716" lon="-9.335616465996603"><ele>150.0</ele><time>2026-04-26T12:00:21Z</time></trkpt><trkpt lat="38.81664332556509" lon="-9.335773659459909"><ele>150.0</ele><time>2026-04-26T12:00:22Z</time></trkpt><trkpt lat="38.81671101681199" lon="-9.335927276918344"><ele>150.2</ele><time>2026-04-26T12:00:23Z</time></trkpt><trkpt lat="38.81674788068607" lon="-9.3360640111792"><ele>150.4</ele><time>2026-04-26T12:00:24Z</time></trkpt><trkpt lat="38.816786771495956" lon="-9.336183196729827"><ele>150.6</ele><time>2026-04-26T12:00:25Z</time></trkpt><trkpt lat="38.81680862847492" lon="-9.336299225064773"><ele>150.8</ele><time>2026-04-26T12:00:26Z</time></trkpt><trkpt lat="38.81680184297222" lon="-9.336407045622286"><ele>151.0</ele><time>2026-04-26T12:00:27Z</time></trkpt><trkpt lat="38.816769007897406" lon="-9.336504360750363"><ele>150.4</ele><time>2026-04-26T12:00:28Z</time></trkpt><trkpt lat="38.81670646769293" lon="-9.336589163739806"><ele>149.8</ele><time>2026-04-26T12:00:29Z</time></trkpt><trkpt lat="38.81665048219931" lon="-9.336675118235892"><ele>149.20000000000002</ele><time>2026-04-26T12:00:30Z</time></trkpt><trkpt lat="38.816533309087696" lon="-9.336608075830341"><ele>148.6</ele><time>2026-04-26T12:00:31Z</time></trkpt><trkpt lat="38.81645719893619" lon="-9.336529305740003"><ele>148.0</ele><time>2026-04-26T12:00:32Z</time></trkpt><trkpt lat="38.816377436155435" lon="-9.336418756418265"><ele>148.75</ele><time>2026-04-26T12:00:33Z</time></trkpt><trkpt lat="38.81627832164687" lon="-9.336322803011337"><ele>149.5</ele><time>2026-04-26T12:00:34Z</time></trkpt><trkpt lat="38.81615075966698" lon="-9.336270135998722"><ele>150.25</ele><time>2026-04-26T12:00:35Z</time></trkpt><trkpt lat="38.8160428328278" lon="-9.336209794603613"><ele>151.0</ele><time>2026-04-26T12:00:36Z</time></trkpt><trkpt lat="38.815932912434945" lon="-9.336151169546659"><ele>151.25</ele><time>2026-04-26T12:00:37Z</time></trkpt><trkpt lat="38.81580483171411" lon="-9.33608405816914"><ele>151.5</ele><time>2026-04-26T12:00:38Z</time></trkpt><trkpt lat="38.81567421579297" lon="-9.33601614198123"><ele>151.75</ele><time>2026-04-26T12:00:39Z</time></trkpt><trkpt lat="38.81553568527941" lon="-9.33594691088304"><ele>152.0</ele><time>2026-04-26T12:00:40Z</time></trkpt><trkpt lat="38.81541432275359" lon="-9.335887568111266"><ele>152.0</ele><time>2026-04-26T12:00:41Z</time></trkpt><trkpt lat="38.815321599247724" lon="-9.3358651843436"><ele>152.0</ele><time>2026-04-26T12:00:42Z</time></trkpt><trkpt lat="38.8152509769592" lon="-9.335862496821383"><ele>152.0</ele><time>2026-04-26T12:00:43Z</time></trkpt><trkpt lat="38.81517490596291" lon="-9.335927662557635"><ele>152.0</ele><time>2026-04-26T12:00:45Z</time></trkpt><trkpt lat="38.81517466416246" lon="-9.336035163987288"><ele>152.0</ele><time>2026-04-26T12:00:46Z</time></trkpt><trkpt lat="38.81519746969316" lon="-9.336143492055104"><ele>152.0</ele><time>2026-04-26T12:00:47Z</time></trkpt><trkpt lat="38.815166547544905" lon="-9.336235744528745"><ele>152.2</ele><time>2026-04-26T12:00:48Z</time></trkpt><trkpt lat="38.815095788514064" lon="-9.336300225762669"><ele>152.39999999999998</ele><time>2026-04-26T12:00:49Z</time></trkpt><trkpt lat="38.81501315468508" lon="-9.336318326660056"><ele>152.60000000000002</ele><time>2026-04-26T12:00:50Z</time></trkpt><trkpt lat="38.81491660261939" lon="-9.336281347215774"><ele>152.8</ele><time>2026-04-26T12:00:51Z</time></trkpt><trkpt lat="38.81484587543981" lon="-9.336190607869575"><ele>153.0</ele><time>2026-04-26T12:00:52Z</time></trkpt><trkpt lat="38.814811657190575" lon="-9.336066418447496"><ele>153.0</ele><time>2026-04-26T12:00:53Z</time></trkpt><trkpt lat="38.814801731239" lon="-9.335930818173969"><ele>153.0</ele><time>2026-04-26T12:00:54Z</time></trkpt><trkpt lat="38.814856476922756" lon="-9.335805047911913"><ele>153.0</ele><time>2026-04-26T12:00:55Z</time></trkpt><trkpt lat="38.814807577349164" lon="-9.335661935680687"><ele>153.0</ele><time>2026-04-26T12:00:56Z</time></trkpt><trkpt lat="38.814756479917854" lon="-9.335581978599464"><ele>153.0</ele><time>2026-04-26T12:00:57Z</time></trkpt><trkpt lat="38.81466888206228" lon="-9.335528897329075"><ele>153.5</ele><time>2026-04-26T12:00:58Z</time></trkpt><trkpt lat="38.81456653880464" lon="-9.335474948008455"><ele>154.0</ele><time>2026-04-26T12:00:59Z</time></trkpt><trkpt lat="38.814452523119336" lon="-9.335436408100575"><ele>154.5</ele><time>2026-04-26T12:01:00Z</time></trkpt><trkpt lat="38.8143394342046" lon="-9.335385878198416"><ele>155.0</ele><time>2026-04-26T12:01:01Z</time></trkpt><trkpt lat="38.8142176761572" lon="-9.335331043103281"><ele>156.75</ele><time>2026-04-26T12:01:02Z</time></trkpt><trkpt lat="38.814104528074786" lon="-9.335278680376666"><ele>158.5</ele><time>2026-04-26T12:01:03Z</time></trkpt><trkpt lat="38.81397989547315" lon="-9.335218820418866"><ele>160.25</ele><time>2026-04-26T12:01:04Z</time></trkpt><trkpt lat="38.81384543044623" lon="-9.335145873409903"><ele>162.0</ele><time>2026-04-26T12:01:05Z</time></trkpt><trkpt lat="38.81369739840078" lon="-9.335064625079035"><ele>162.0</ele><time>2026-04-26T12:01:06Z</time></trkpt><trkpt lat="38.81354214986321" lon="-9.334972436818283"><ele>162.0</ele><time>2026-04-26T12:01:07Z</time></trkpt><trkpt lat="38.81337704186148" lon="-9.334885584636767"><ele>162.0</ele><time>2026-04-26T12:01:08Z</time></trkpt><trkpt lat="38.813232504862775" lon="-9.334806526398467"><ele>163.75</ele><time>2026-04-26T12:01:09Z</time></trkpt><trkpt lat="38.81310317006518" lon="-9.334720567782178"><ele>165.5</ele><time>2026-04-26T12:01:10Z</time></trkpt><trkpt lat="38.81297782294907" lon="-9.33463926798186"><ele>167.25</ele><time>2026-04-26T12:01:11Z</time></trkpt><trkpt lat="38.81284790220348" lon="-9.334593659099973"><ele>169.0</ele><time>2026-04-26T12:01:12Z</time></trkpt><trkpt lat="38.812727342289584" lon="-9.334530168225168"><ele>171.25</ele><time>2026-04-26T12:01:13Z</time></trkpt><trkpt lat="38.81260908721918" lon="-9.33446789110461"><ele>173.5</ele><time>2026-04-26T12:01:14Z</time></trkpt><trkpt lat="38.8124931908863" lon="-9.33440685617756"><ele>175.75</ele><time>2026-04-26T12:01:15Z</time></trkpt><trkpt lat="38.812382851344815" lon="-9.334328307647858"><ele>178.0</ele><time>2026-04-26T12:01:16Z</time></trkpt><trkpt lat="38.81226645831275" lon="-9.334269401998487"><ele>178.0</ele><time>2026-04-26T12:01:17Z</time></trkpt><trkpt lat="38.81214456758691" lon="-9.334210316561212"><ele>178.0</ele><time>2026-04-26T12:01:18Z</time></trkpt><trkpt lat="38.81202071888263" lon="-9.334150503677327"><ele>178.0</ele><time>2026-04-26T12:01:19Z</time></trkpt><trkpt lat="38.811898712406176" lon="-9.334090463630265"><ele>178.0</ele><time>2026-04-26T12:01:20Z</time></trkpt><trkpt lat="38.811771475210854" lon="-9.33402509291351"><ele>178.25</ele><time>2026-04-26T12:01:21Z</time></trkpt><trkpt lat="38.811628050410214" lon="-9.333949544332189"><ele>178.5</ele><time>2026-04-26T12:01:22Z</time></trkpt><trkpt lat="38.8114956937459" lon="-9.333882131784213"><ele>178.75</ele><time>2026-04-26T12:01:23Z</time></trkpt><trkpt lat="38.81138307020355" lon="-9.333819216144885"><ele>179.0</ele><time>2026-04-26T12:01:24Z</time></trkpt><trkpt lat="38.81127050209056" lon="-9.333761561843895"><ele>180.0</ele><time>2026-04-26T12:01:25Z</time></trkpt><trkpt lat="38.811158237212744" lon="-9.33370416641731"><ele>181.0</ele><time>2026-04-26T12:01:26Z</time></trkpt><trkpt lat="38.811042814924015" lon="-9.333644617062294"><ele>182.0</ele><time>2026-04-26T12:01:27Z</time></trkpt><trkpt lat="38.81092827286654" lon="-9.333585418325184"><ele>183.0</ele><time>2026-04-26T12:01:28Z</time></trkpt><trkpt lat="38.81081293272199" lon="-9.333526816544532"><ele>185.0</ele><time>2026-04-26T12:01:29Z</time></trkpt><trkpt lat="38.81069159824349" lon="-9.333471759487557"><ele>187.0</ele><time>2026-04-26T12:01:30Z</time></trkpt><trkpt lat="38.810573853460596" lon="-9.33341376832986"><ele>189.0</ele><time>2026-04-26T12:01:31Z</time></trkpt><trkpt lat="38.81045581795546" lon="-9.333348820853207"><ele>191.0</ele><time>2026-04-26T12:01:32Z</time></trkpt><trkpt lat="38.810342004404006" lon="-9.33328805621378"><ele>191.0</ele><time>2026-04-26T12:01:33Z</time></trkpt><trkpt lat="38.81023132726383" lon="-9.333248234795386"><ele>191.0</ele><time>2026-04-26T12:01:34Z</time></trkpt><trkpt lat="38.810129516612726" lon="-9.333196753860411"><ele>191.0</ele><time>2026-04-26T12:01:35Z</time></trkpt><trkpt lat="38.81003044214685" lon="-9.333128777432934"><ele>191.0</ele><time>2026-04-26T12:01:36Z</time></trkpt><trkpt lat="38.80993281441133" lon="-9.333083767059517"><ele>191.0</ele><time>2026-04-26T12:01:37Z</time></trkpt><trkpt lat="38.809832315971626" lon="-9.33302845810916"><ele>191.8</ele><time>2026-04-26T12:01:38Z</time></trkpt><trkpt lat="38.80972468652177" lon="-9.332985481733889"><ele>192.60000000000002</ele><time>2026-04-26T12:01:39Z</time></trkpt><trkpt lat="38.8096398732677" lon="-9.332909510756291"><ele>193.4</ele><time>2026-04-26T12:01:40Z</time></trkpt><trkpt lat="38.809560599768616" lon="-9.33285401360181"><ele>194.2</ele><time>2026-04-26T12:01:41Z</time></trkpt><trkpt lat="38.80949408332158" lon="-9.332769195780457"><ele>195.0</ele><time>2026-04-26T12:01:42Z</time></trkpt><trkpt lat="38.80943510583774" lon="-9.332668705735205"><ele>195.0</ele><time>2026-04-26T12:01:43Z</time></trkpt><trkpt lat="38.80936344680173" lon="-9.33258401393665"><ele>195.0</ele><time>2026-04-26T12:01:44Z</time></trkpt><trkpt lat="38.809300542273675" lon="-9.332508703414089"><ele>195.0</ele><time>2026-04-26T12:01:45Z</time></trkpt><trkpt lat="38.80924193019386" lon="-9.332432949466677"><ele>195.0</ele><time>2026-04-26T12:01:46Z</time></trkpt><trkpt lat="38.809186642190014" lon="-9.332359721350324"><ele>195.0</ele><time>2026-04-26T12:01:47Z</time></trkpt><trkpt lat="38.80911832021911" lon="-9.332305485814626"><ele>195.0</ele><time>2026-04-26T12:01:48Z</time></trkpt><trkpt lat="38.80905823142504" lon="-9.332236332938704"><ele>195.6</ele><time>2026-04-26T12:01:49Z</time></trkpt><trkpt lat="38.80899270885519" lon="-9.332162849949068"><ele>196.2</ele><time>2026-04-26T12:01:50Z</time></trkpt><trkpt lat="38.80893458899836" lon="-9.33207686268876"><ele>196.8</ele><time>2026-04-26T12:01:51Z</time></trkpt><trkpt lat="38.80883416329848" lon="-9.33206273592125"><ele>197.4</ele><time>2026-04-26T12:01:52Z</time></trkpt><trkpt lat="38.808793177339275" lon="-9.331939887338308"><ele>198.0</ele><time>2026-04-26T12:01:53Z</time></trkpt><trkpt lat="38.80872176706456" lon="-9.331856867274453"><ele>198.0</ele><time>2026-04-26T12:01:54Z</time></trkpt><trkpt lat="38.80865455603017" lon="-9.331774280054312"><ele>198.0</ele><time>2026-04-26T12:01:55Z</time></trkpt><trkpt lat="38.80858649006727" lon="-9.331697998357983"><ele>198.0</ele><time>2026-04-26T12:01:56Z</time></trkpt><trkpt lat="38.80851739773073" lon="-9.331625327788085"><ele>198.0</ele><time>2026-04-26T12:01:57Z</time></trkpt><trkpt lat="38.80844454248432" lon="-9.331547604362246"><ele>198.0</ele><time>2026-04-26T12:01:58Z</time></trkpt><trkpt lat="38.80837175188543" lon="-9.331467259477622"><ele>198.0</ele><time>2026-04-26T12:01:59Z</time></trkpt><trkpt lat="38.8083035191778" lon="-9.331389335327646"><ele>198.0</ele><time>2026-04-26T12:02:00Z</time></trkpt><trkpt lat="38.80825413931646" lon="-9.331313729597818"><ele>198.0</ele><time>2026-04-26T12:02:01Z</time></trkpt><trkpt lat="38.808203992172636" lon="-9.331240685285875"><ele>198.0</ele><time>2026-04-26T12:02:02Z</time></trkpt><trkpt lat="38.80814349002459" lon="-9.331163576803014"><ele>198.0</ele><time>2026-04-26T12:02:03Z</time></trkpt><trkpt lat="38.80806385008012" lon="-9.331099300093257"><ele>198.0</ele><time>2026-04-26T12:02:04Z</time></trkpt><trkpt lat="38.8079886113944" lon="-9.330997149806969"><ele>198.0</ele><time>2026-04-26T12:02:05Z</time></trkpt><trkpt lat="38.807901883691905" lon="-9.330904788453863"><ele>198.0</ele><time>2026-04-26T12:02:06Z</time></trkpt><trkpt lat="38.807813124462854" lon="-9.330806622741829"><ele>198.0</ele><time>2026-04-26T12:02:07Z</time></trkpt><trkpt lat="38.80773379280513" lon="-9.330717593602714"><ele>198.0</ele><time>2026-04-26T12:02:08Z</time></trkpt><trkpt lat="38.80765944337722" lon="-9.33063372834199"><ele>198.0</ele><time>2026-04-26T12:02:09Z</time></trkpt><trkpt lat="38.80759258795113" lon="-9.330552293017448"><ele>198.83333333333334</ele><time>2026-04-26T12:02:10Z</time></trkpt><trkpt lat="38.807533872933234" lon="-9.330480013636732"><ele>199.66666666666669</ele><time>2026-04-26T12:02:11Z</time></trkpt><trkpt lat="38.80747959693475" lon="-9.330419271803942"><ele>200.5</ele><time>2026-04-26T12:02:12Z</time></trkpt><trkpt lat="38.80742681827021" lon="-9.330350126239086"><ele>201.33333333333334</ele><time>2026-04-26T12:02:13Z</time></trkpt><trkpt lat="38.8073798312486" lon="-9.330285171501345"><ele>202.16666666666669</ele><time>2026-04-26T12:02:14Z</time></trkpt><trkpt lat="38.8073288130123" lon="-9.330218536055806"><ele>203.0</ele><time>2026-04-26T12:02:15Z</time></trkpt><trkpt lat="38.807258800007226" lon="-9.330149516477347"><ele>203.0</ele><time>2026-04-26T12:02:16Z</time></trkpt><trkpt lat="38.807165140624164" lon="-9.330064967848724"><ele>203.0</ele><time>2026-04-26T12:02:17Z</time></trkpt><trkpt lat="38.807052501100685" lon="-9.329968206389864"><ele>203.0</ele><time>2026-04-26T12:02:18Z</time></trkpt><trkpt lat="38.806939337165936" lon="-9.329878612631257"><ele>203.0</ele><time>2026-04-26T12:02:19Z</time></trkpt><trkpt lat="38.80680128834865" lon="-9.329817163240241"><ele>202.8</ele><time>2026-04-26T12:02:20Z</time></trkpt><trkpt lat="38.806689937825524" lon="-9.329765577575792"><ele>202.60000000000002</ele><time>2026-04-26T12:02:21Z</time></trkpt><trkpt lat="38.806585426638755" lon="-9.329736600172613"><ele>202.39999999999998</ele><time>2026-04-26T12:02:22Z</time></trkpt><trkpt lat="38.80648964151612" lon="-9.329718559730894"><ele>202.2</ele><time>2026-04-26T12:02:23Z</time></trkpt><trkpt lat="38.80638350057673" lon="-9.329700956346777"><ele>202.0</ele><time>2026-04-26T12:02:24Z</time></trkpt><trkpt lat="38.80627816800227" lon="-9.329682353847815"><ele>202.6</ele><time>2026-04-26T12:02:25Z</time></trkpt><trkpt lat="38.80617708312176" lon="-9.329664237008956"><ele>203.2</ele><time>2026-04-26T12:02:26Z</time></trkpt><trkpt lat="38.806068754626494" lon="-9.329642150550065"><ele>203.8</ele><time>2026-04-26T12:02:27Z</time></trkpt><trkpt lat="38.805952876416704" lon="-9.32961724928554"><ele>204.4</ele><time>2026-04-26T12:02:28Z</time></trkpt><trkpt lat="38.80585012527761" lon="-9.329595194449164"><ele>205.0</ele><time>2026-04-26T12:02:29Z</time></trkpt><trkpt lat="38.805761693138585" lon="-9.329576233505758"><ele>205.16666666666666</ele><time>2026-04-26T12:02:30Z</time></trkpt><trkpt lat="38.80567732172814" lon="-9.329558515200214"><ele>205.33333333333331</ele><time>2026-04-26T12:02:31Z</time></trkpt><trkpt lat="38.80559326902074" lon="-9.32954104405402"><ele>205.5</ele><time>2026-04-26T12:02:32Z</time></trkpt><trkpt lat="38.80550695073171" lon="-9.329522694708784"><ele>205.66666666666669</ele><time>2026-04-26T12:02:33Z</time></trkpt><trkpt lat="38.80542676185985" lon="-9.329505701738718"><ele>205.83333333333334</ele><time>2026-04-26T12:02:34Z</time></trkpt><trkpt lat="38.805351680841945" lon="-9.329490374662777"><ele>206.0</ele><time>2026-04-26T12:02:35Z</time></trkpt><trkpt lat="38.805277377675694" lon="-9.329475207792742"><ele>206.00000000000003</ele><time>2026-04-26T12:02:36Z</time></trkpt><trkpt lat="38.80520662598826" lon="-9.329457074051279"><ele>206.0</ele><time>2026-04-26T12:02:37Z</time></trkpt><trkpt lat="38.80514080280656" lon="-9.32941860269432"><ele>206.0</ele><time>2026-04-26T12:02:38Z</time></trkpt><trkpt lat="38.80505924260664" lon="-9.32940072879213"><ele>206.0</ele><time>2026-04-26T12:02:39Z</time></trkpt><trkpt lat="38.80496985861416" lon="-9.329386582785984"><ele>206.00000000000003</ele><time>2026-04-26T12:02:40Z</time></trkpt><trkpt lat="38.80489312030674" lon="-9.329373034595774"><ele>206.0</ele><time>2026-04-26T12:02:41Z</time></trkpt><trkpt lat="38.80482515639773" lon="-9.329384476023607"><ele>206.0</ele><time>2026-04-26T12:02:42Z</time></trkpt><trkpt lat="38.804754331615385" lon="-9.32937577864736"><ele>206.0</ele><time>2026-04-26T12:02:43Z</time></trkpt><trkpt lat="38.804684315420296" lon="-9.329364935319665"><ele>206.0</ele><time>2026-04-26T12:02:44Z</time></trkpt><trkpt lat="38.80461087303614" lon="-9.329322154634001"><ele>206.0</ele><time>2026-04-26T12:02:45Z</time></trkpt><trkpt lat="38.80450816694092" lon="-9.329266360363702"><ele>206.0</ele><time>2026-04-26T12:02:46Z</time></trkpt><trkpt lat="38.8043883796559" lon="-9.329178833823944"><ele>205.75</ele><time>2026-04-26T12:02:47Z</time></trkpt><trkpt lat="38.80426990962754" lon="-9.32907836820493"><ele>205.5</ele><time>2026-04-26T12:02:48Z</time></trkpt><trkpt lat="38.80416554231336" lon="-9.328986974309593"><ele>205.25</ele><time>2026-04-26T12:02:49Z</time></trkpt><trkpt lat="38.80404493928872" lon="-9.328914242016966"><ele>205.0</ele><time>2026-04-26T12:02:50Z</time></trkpt><trkpt lat="38.80393512462273" lon="-9.328808795689932"><ele>205.0</ele><time>2026-04-26T12:02:51Z</time></trkpt><trkpt lat="38.80381218459829" lon="-9.328719146890746"><ele>205.0</ele><time>2026-04-26T12:02:52Z</time></trkpt><trkpt lat="38.80368013662096" lon="-9.32861717398691"><ele>205.0</ele><time>2026-04-26T12:02:53Z</time></trkpt><trkpt lat="38.80354200307842" lon="-9.328518328073683"><ele>205.33333333333331</ele><time>2026-04-26T12:02:54Z</time></trkpt><trkpt lat="38.80339143415841" lon="-9.328391352364145"><ele>205.66666666666669</ele><time>2026-04-26T12:02:55Z</time></trkpt><trkpt lat="38.80323126367463" lon="-9.328290531900361"><ele>206.0</ele><time>2026-04-26T12:02:56Z</time></trkpt><trkpt lat="38.803087763551325" lon="-9.32818220014069"><ele>206.0</ele><time>2026-04-26T12:02:57Z</time></trkpt><trkpt lat="38.80292633640164" lon="-9.328060352139046"><ele>206.0</ele><time>2026-04-26T12:02:58Z</time></trkpt><trkpt lat="38.802755038016386" lon="-9.327931090795797"><ele>206.0</ele><time>2026-04-26T12:02:59Z</time></trkpt><trkpt lat="38.80257447387368" lon="-9.327794837666778"><ele>206.66666666666669</ele><time>2026-04-26T12:03:00Z</time></trkpt><trkpt lat="38.80240720969856" lon="-9.32764672721844"><ele>207.33333333333331</ele><time>2026-04-26T12:03:01Z</time></trkpt><trkpt lat="38.802251983610184" lon="-9.327540499355411"><ele>208.0</ele><time>2026-04-26T12:03:02Z</time></trkpt><trkpt lat="38.80209586879195" lon="-9.327415074609613"><ele>208.0</ele><time>2026-04-26T12:03:03Z</time></trkpt><trkpt lat="38.80196403041789" lon="-9.327311914396823"><ele>208.0</ele><time>2026-04-26T12:03:04Z</time></trkpt><trkpt lat="38.80181379266915" lon="-9.327220556051437"><ele>208.0</ele><time>2026-04-26T12:03:05Z</time></trkpt><trkpt lat="38.801660235174126" lon="-9.327104401413003"><ele>208.33333333333331</ele><time>2026-04-26T12:03:06Z</time></trkpt><trkpt lat="38.80150212410704" lon="-9.326984757162197"><ele>208.66666666666669</ele><time>2026-04-26T12:03:07Z</time></trkpt><trkpt lat="38.80133585155148" lon="-9.326859486124876"><ele>209.0</ele><time>2026-04-26T12:03:08Z</time></trkpt><trkpt lat="38.801173160349315" lon="-9.326715608550247"><ele>209.0</ele><time>2026-04-26T12:03:09Z</time></trkpt><trkpt lat="38.80102066895495" lon="-9.326613969852174"><ele>209.0</ele><time>2026-04-26T12:03:10Z</time></trkpt><trkpt lat="38.80088487985656" lon="-9.326519003280447"><ele>209.0</ele><time>2026-04-26T12:03:11Z</time></trkpt><trkpt lat="38.80076348018887" lon="-9.326420787796586"><ele>209.2</ele><time>2026-04-26T12:03:12Z</time></trkpt><trkpt lat="38.80065091119314" lon="-9.326334461421336"><ele>209.39999999999998</ele><time>2026-04-26T12:03:13Z</time></trkpt><trkpt lat="38.80055074518489" lon="-9.326255566470834"><ele>209.6</ele><time>2026-04-26T12:03:14Z</time></trkpt><trkpt lat="38.80047582923286" lon="-9.32620912703959"><ele>209.8</ele><time>2026-04-26T12:03:15Z</time></trkpt><trkpt lat="38.80040924505151" lon="-9.326184296203351"><ele>210.0</ele><time>2026-04-26T12:03:16Z</time></trkpt><trkpt lat="38.80030255342852" lon="-9.3262258778509"><ele>210.0</ele><time>2026-04-26T12:03:18Z</time></trkpt><trkpt lat="38.80022290586548" lon="-9.326205379667565"><ele>210.0</ele><time>2026-04-26T12:03:19Z</time></trkpt><trkpt lat="38.80015822541947" lon="-9.326168947502534"><ele>210.0</ele><time>2026-04-26T12:03:20Z</time></trkpt><trkpt lat="38.80013096856869" lon="-9.326070091495819"><ele>210.0</ele><time>2026-04-26T12:03:21Z</time></trkpt><trkpt lat="38.80014314697725" lon="-9.325956149494479"><ele>210.0</ele><time>2026-04-26T12:03:22Z</time></trkpt><trkpt lat="38.800206886854255" lon="-9.325860906404413"><ele>210.0</ele><time>2026-04-26T12:03:23Z</time></trkpt><trkpt lat="38.800287954808894" lon="-9.325794499041475"><ele>210.0</ele><time>2026-04-26T12:03:24Z</time></trkpt><trkpt lat="38.80035984258087" lon="-9.325753304159774"><ele>210.0</ele><time>2026-04-26T12:03:25Z</time></trkpt><trkpt lat="38.800423287306074" lon="-9.325716445752398"><ele>210.0</ele><time>2026-04-26T12:03:26Z</time></trkpt><trkpt lat="38.80048502586606" lon="-9.325670066171021"><ele>210.0</ele><time>2026-04-26T12:03:27Z</time></trkpt><trkpt lat="38.8005380018491" lon="-9.32561615413614"><ele>210.0</ele><time>2026-04-26T12:03:28Z</time></trkpt><trkpt lat="38.8006305611223" lon="-9.325552917813052"><ele>210.0</ele><time>2026-04-26T12:03:30Z</time></trkpt><trkpt lat="38.800740889372285" lon="-9.325557120659855"><ele>210.0</ele><time>2026-04-26T12:03:32Z</time></trkpt><trkpt lat="38.80084132036653" lon="-9.325589441818824"><ele>210.0</ele><time>2026-04-26T12:03:34Z</time></trkpt><trkpt lat="38.80090515737564" lon="-9.325557280029583"><ele>210.0</ele><time>2026-04-26T12:03:36Z</time></trkpt><trkpt lat="38.80094423426533" lon="-9.325629030790699"><ele>210.0</ele><time>2026-04-26T12:03:40Z</time></trkpt><trkpt lat="38.80089526955554" lon="-9.325698332573396"><ele>210.0</ele><time>2026-04-26T12:03:48Z</time></trkpt><trkpt lat="38.80083617693577" lon="-9.3257455981917"><ele>210.0</ele><time>2026-04-26T12:03:50Z</time></trkpt><trkpt lat="38.80076767110267" lon="-9.325792593770615"><ele>210.0</ele><time>2026-04-26T12:03:53Z</time></trkpt><trkpt lat="38.80069544891548" lon="-9.325770243505552"><ele>210.0</ele><time>2026-04-26T12:03:56Z</time></trkpt><trkpt lat="38.800678534074834" lon="-9.325680741480586"><ele>210.0</ele><time>2026-04-26T12:07:52Z</time></trkpt><trkpt lat="38.80061861899509" lon="-9.32564360455793"><ele>210.0</ele><time>2026-04-26T12:08:01Z</time></trkpt><trkpt lat="38.800566893606984" lon="-9.325696739288"><ele>210.0</ele><time>2026-04-26T12:08:07Z</time></trkpt><trkpt lat="38.80055192404387" lon="-9.325777846704089"><ele>210.0</ele><time>2026-04-26T12:08:14Z</time></trkpt><trkpt lat="38.8006096246203" lon="-9.325810742703657"><ele>210.0</ele><time>2026-04-26T12:08:20Z</time></trkpt><trkpt lat="38.80066255095047" lon="-9.325866704207442"><ele>210.0</ele><time>2026-04-26T12:08:33Z</time></trkpt><trkpt lat="38.800738429367456" lon="-9.325909565468788"><ele>210.0</ele><time>2026-04-26T12:08:52Z</time></trkpt><trkpt lat="38.80066573967998" lon="-9.325963878364627"><ele>210.0</ele><time>2026-04-26T12:09:06Z</time></trkpt><trkpt lat="38.80059032475148" lon="-9.325884693430806"><ele>210.0</ele><time>2026-04-26T12:09:14Z</time></trkpt><trkpt lat="38.80057475968888" lon="-9.325615924615457"><ele>210.0</ele><time>2026-04-26T12:09:16Z</time></trkpt><trkpt lat="38.8006474859104" lon="-9.32586075363994"><ele>210.0</ele><time>2026-04-26T12:09:18Z</time></trkpt><trkpt lat="38.80070971478538" lon="-9.325912119123295"><ele>210.0</ele><time>2026-04-26T12:09:20Z</time></trkpt><trkpt lat="38.80071288166277" lon="-9.326005222245753"><ele>210.0</ele><time>2026-04-26T12:09:37Z</time></trkpt><trkpt lat="38.80065995752461" lon="-9.32606965340243"><ele>210.0</ele><time>2026-04-26T12:09:43Z</time></trkpt><trkpt lat="38.800586612171195" lon="-9.32610889638112"><ele>210.0</ele><time>2026-04-26T12:09:48Z</time></trkpt><trkpt lat="38.800543310717735" lon="-9.326179544297236"><ele>210.0</ele><time>2026-04-26T12:09:49Z</time></trkpt><trkpt lat="38.80054925695771" lon="-9.326320687328305"><ele>210.0</ele><time>2026-04-26T12:09:50Z</time></trkpt><trkpt lat="38.80052419382718" lon="-9.326411113118976"><ele>210.0</ele><time>2026-04-26T12:09:51Z</time></trkpt><trkpt lat="38.800460732285934" lon="-9.326450311024743"><ele>210.0</ele><time>2026-04-26T12:09:53Z</time></trkpt><trkpt lat="38.8006165279797" lon="-9.326462421640642"><ele>210.0</ele><time>2026-04-26T12:09:58Z</time></trkpt><trkpt lat="38.80069554067369" lon="-9.326240269945139"><ele>210.0</ele><time>2026-04-26T12:09:59Z</time></trkpt><trkpt lat="38.80076596651519" lon="-9.326256878747433"><ele>210.0</ele><time>2026-04-26T12:10:00Z</time></trkpt><trkpt lat="38.8008207939014" lon="-9.326309723111326"><ele>210.0</ele><time>2026-04-26T12:10:01Z</time></trkpt><trkpt lat="38.80085588259751" lon="-9.326391590093294"><ele>210.0</ele><time>2026-04-26T12:10:03Z</time></trkpt><trkpt lat="38.80091843095008" lon="-9.326437907099937"><ele>210.0</ele><time>2026-04-26T12:10:04Z</time></trkpt><trkpt lat="38.80084326252945" lon="-9.326382246221675"><ele>210.0</ele><time>2026-04-26T12:10:06.067Z</time></trkpt><trkpt lat="38.800770419341774" lon="-9.326304332808526"><ele>210.0</ele><time>2026-04-26T12:10:16.07Z</time></trkpt><trkpt lat="38.80070863678912" lon="-9.326277505228607"><ele>210.0</ele><time>2026-04-26T12:10:17.069Z</time></trkpt><trkpt lat="38.80064460701396" lon="-9.32623514548915"><ele>210.0</ele><time>2026-04-26T12:10:18.036Z</time></trkpt><trkpt lat="38.800749722262665" lon="-9.326398385888261"><ele>210.0</ele><time>2026-04-26T12:10:21.061Z</time></trkpt><trkpt lat="38.800699834142556" lon="-9.326337569884226"><ele>210.0</ele><time>2026-04-26T12:10:25.059Z</time></trkpt><trkpt lat="38.80066822158045" lon="-9.326055040018563"><ele>210.0</ele><time>2026-04-26T12:10:44.896Z</time></trkpt><trkpt lat="38.800788972807084" lon="-9.326045364969263"><ele>210.0</ele><time>2026-04-26T12:10:54.024Z</time></trkpt><trkpt lat="38.8008576204453" lon="-9.325866843352346"><ele>210.0</ele><time>2026-04-26T12:10:56.023Z</time></trkpt><trkpt lat="38.800722484122495" lon="-9.325972733841793"><ele>210.0</ele><time>2026-04-26T12:10:57.022Z</time></trkpt><trkpt lat="38.80076595731382" lon="-9.325854232361863"><ele>210.0</ele><time>2026-04-26T12:11:06.011Z</time></trkpt><trkpt lat="38.80074038980493" lon="-9.32594100555594"><ele>210.0</ele><time>2026-04-26T12:11:09.012Z</time></trkpt><trkpt lat="38.80072198121753" lon="-9.326055914328483"><ele>210.0</ele><time>2026-04-26T12:11:11.011Z</time></trkpt><trkpt lat="38.80087297428085" lon="-9.325653199480673"><ele>210.0</ele><time>2026-04-26T12:11:37.756Z</time></trkpt><trkpt lat="38.80065732035426" lon="-9.326052046058717"><ele>210.0</ele><time>2026-04-26T12:11:56.36Z</time></trkpt><trkpt lat="38.80058958409598" lon="-9.325929380314697"><ele>210.0</ele><time>2026-04-26T12:12:10Z</time></trkpt><trkpt lat="38.80087297428085" lon="-9.325653199480673"><ele>210.0</ele><time>2026-04-26T12:20:37.655Z</time></trkpt><trkpt lat="38.800657846361176" lon="-9.326059701003981"><ele>210.0</ele><time>2026-04-26T12:20:56.146Z</time></trkpt><trkpt lat="38.80087297428085" lon="-9.325653199480673"><ele>210.0</ele><time>2026-04-26T12:21:07.555Z</time></trkpt><trkpt lat="38.80065647481131" lon="-9.326044598357612"><ele>210.0</ele><time>2026-04-26T12:21:08.963Z</time></trkpt><trkpt lat="38.80049686973715" lon="-9.326031242516962"><ele>210.0</ele><time>2026-04-26T12:21:32.012Z</time></trkpt><trkpt lat="38.80044070338033" lon="-9.325979891004291"><ele>210.0</ele><time>2026-04-26T12:21:33.012Z</time></trkpt><trkpt lat="38.80050395551738" lon="-9.326035500632623"><ele>210.0</ele><time>2026-04-26T12:21:35.014Z</time></trkpt><trkpt lat="38.800466853261845" lon="-9.326116073521199"><ele>210.0</ele><time>2026-04-26T12:21:39.013Z</time></trkpt><trkpt lat="38.8006585325432" lon="-9.326062789689873"><ele>210.0</ele><time>2026-04-26T12:21:52.365Z</time></trkpt><trkpt lat="38.80064259918749" lon="-9.32598398581596"><ele>210.0</ele><time>2026-04-26T12:23:53Z</time></trkpt><trkpt lat="38.80058468688932" lon="-9.32591296527148"><ele>210.0</ele><time>2026-04-26T12:23:57Z</time></trkpt></trkseg></trk></gpx>